# Wetter Temperatur Luftdruck Luftfeuchtigkeit Sichtweite Windgeschwindigkeit Windrichtung Zeit
1 Clouds -7 1019 92 16093 5.7 80 19:37 02.04.2020
2 Clouds -7 1019 92 16093 5.7 80 19:18 02.04.2020
3 Clouds -7 1019 85 16093 5.7 80 18:41 02.04.2020
4 Clouds -7 1019 92 16093 5.1 90 18:21 02.04.2020
5 Snow -7 1019 92 4828 3.1 90 17:57 02.04.2020
6 Snow -7 1019 92 4828 3.1 90 17:39 02.04.2020
7 -273 0 0 0 0 0 17:20 02.04.2020
8 Snow -8 1019 92 4023 2.6 80 16:57 02.04.2020
9 Snow -8 1019 92 4023 2.6 80 16:39 02.04.2020
10 Snow -8 1019 92 4828 3.1 80 16:21 02.04.2020
11 Mist -8 1019 92 4828 2.6 110 15:55 02.04.2020
12 Mist -8 1019 92 4828 2.6 110 15:37 02.04.2020
13 Fog -8 1019 92 805 2.1 100 15:18 02.04.2020
14 Fog -8 1019 92 402 2.1 140 14:40 02.04.2020
15 Fog -9 1019 92 805 1.5 170 14:21 02.04.2020
16 Fog -8 1019 92 402 1 156 13:59 02.04.2020
17 Fog -9 1019 92 402 1 156 13:40 02.04.2020
18 Fog -9 1019 100 402 2.1 200 13:21 02.04.2020
19 Fog -9 1018 92 402 2.6 220 12:57 02.04.2020
20 Fog -8 1018 92 402 2.6 220 12:39 02.04.2020
21 Fog -8 1018 92 402 2.6 220 12:19 02.04.2020
22 Fog -8 1018 92 402 2.6 220 11:57 02.04.2020
23 Fog -8 1018 92 402 2.6 220 11:38 02.04.2020
24 Mist -8 1018 100 1207 1.5 220 11:19 02.04.2020
25 Clouds -7 1017 92 12874 2.1 180 10:55 02.04.2020
26 Snow -7 1017 92 8047 2.39 229 10:37 02.04.2020
27 Snow -7 1017 92 8047 2.39 229 10:19 02.04.2020
28 Clouds -6 1017 92 16093 2.39 229 09:55 02.04.2020
29 Clouds -6 1017 92 16093 2.39 229 09:37 02.04.2020
30 Clouds -6 1017 92 16093 1.06 175 09:18 02.04.2020
31 Clouds -7 1016 92 12874 1.06 175 08:45 02.04.2020
32 Mist -6 1016 85 9656 2.6 80 08:26 02.04.2020
33 Clouds -6 1016 92 11265 3.1 80 07:45 02.04.2020
34 Mist -6 1016 92 6437 3.1 80 07:20 02.04.2020
35 Mist -5 1016 85 14484 4.1 80 06:58 02.04.2020
36 Mist -5 1016 85 8047 3.6 80 06:21 02.04.2020
37 Snow -5 1016 85 2012 5.7 80 05:45 02.04.2020
38 Snow -5 1017 85 1609 5.7 90 04:35 02.04.2020
39 Snow -5 1018 85 1207 7.7 90 01:51 02.04.2020
40 Snow -5 1018 79 2012 6.7 80 00:48 02.04.2020
41 Snow -5 1019 73 4828 6.7 80 00:27 02.04.2020
42 Clouds -5 1019 67 16093 7.7 90 23:55 01.04.2020
43 Clouds -5 1019 67 16093 7.7 90 23:37 01.04.2020
44 Clouds -5 1019 67 16093 7.7 90 23:18 01.04.2020
45 Clouds -5 1019 67 16093 7.7 90 23:18 01.04.2020
46 Clouds -5 1020 62 16093 7.2 90 22:40 01.04.2020
47 Clouds -5 1020 62 16093 7.2 90 22:22 01.04.2020
48 Clouds -5 1020 67 16093 7.2 80 21:55 01.04.2020
49 Clouds -5 1020 67 16093 7.2 80 21:37 01.04.2020
50 Clouds -6 1020 67 16093 7.2 80 21:18 01.04.2020
51 Clouds -6 1020 67 16093 7.2 80 21:18 01.04.2020
52 Clouds -6 1020 67 16093 7.2 80 20:54 01.04.2020
53 Clouds -6 1020 67 16093 7.2 80 20:36 01.04.2020
54 Clouds -6 1020 67 16093 7.2 80 20:18 01.04.2020
55 Clouds -6 1021 67 16093 7.2 80 19:42 01.04.2020
56 Clouds -6 1021 67 16093 7.2 80 19:22 01.04.2020
57 Clear -6 1021 73 16093 6.2 70 18:56 01.04.2020
58 Clear -6 1021 73 16093 6.2 70 18:56 01.04.2020
59 Clear -6 1021 73 16093 6.2 70 18:38 01.04.2020
60 Clear -6 1021 73 16093 6.2 70 18:38 01.04.2020
61 Clear -6 1021 73 16093 6.2 70 18:20 01.04.2020
62 Clear -7 1022 85 16093 6.2 80 17:55 01.04.2020
63 Clear -7 1022 85 16093 6.2 80 17:36 01.04.2020
64 Clear -7 1022 85 16093 6.2 80 17:18 01.04.2020
65 Clear -7 1022 92 16093 4.1 80 16:42 01.04.2020
66 Clear -7 1022 92 16093 4.1 80 16:24 01.04.2020
67 Clouds -7 1022 92 16093 4.1 80 15:59 01.04.2020
68 Clouds -7 1022 92 16093 4.1 80 15:41 01.04.2020
69 Clouds -7 1023 100 16093 7.2 100 15:21 01.04.2020
70 Clouds -6 1023 92 14484 6.2 90 14:57 01.04.2020
71 Clouds -6 1023 92 14484 6.2 90 14:38 01.04.2020
72 Clouds -6 1023 92 14484 6.2 90 14:38 01.04.2020
73 Mist -6 1023 92 6437 6.7 90 14:19 01.04.2020
74 Mist -6 1023 92 6437 6.7 90 14:19 01.04.2020
75 Mist -6 1023 100 6437 6.2 90 13:58 01.04.2020
76 Mist -6 1023 100 6437 6.2 90 13:38 01.04.2020
77 Mist -6 1023 100 6437 6.2 90 13:19 01.04.2020
78 Mist -6 1024 92 4828 6.2 90 12:55 01.04.2020
79 Mist -6 1024 92 4828 6.2 90 12:36 01.04.2020
80 Snow -6 1024 92 2012 6.7 90 12:18 01.04.2020
81 Mist -6 1024 92 3219 7.2 90 11:42 01.04.2020
82 Snow -6 1024 100 2816 7.2 90 11:23 01.04.2020
83 Mist -6 1024 92 3219 7.2 100 10:58 01.04.2020
84 Mist -6 1024 92 3219 7.2 100 10:38 01.04.2020
85 Mist -6 1024 92 4828 7.2 90 10:19 01.04.2020
86 Mist -6 1024 100 4023 7.2 90 09:57 01.04.2020
87 Mist -6 1024 100 4023 7.2 90 09:39 01.04.2020
88 Mist -6 1024 100 4828 6.7 100 09:18 01.04.2020
89 Mist -6 1024 100 3219 6.2 100 08:41 01.04.2020
90 Fog -5 1023 92 805 6.2 110 08:18 01.04.2020
91 Fog -5 1023 92 805 5.7 110 07:44 01.04.2020
92 Fog -5 1023 85 805 5.1 110 07:21 01.04.2020
93 Clouds -4 1023 92 12874 4.1 90 06:48 01.04.2020
94 Clouds -4 1023 92 12874 4.1 90 06:26 01.04.2020
95 Clouds -4 1022 92 16093 4.1 90 05:58 01.04.2020
96 Clouds -4 1022 85 16093 3.6 110 04:33 01.04.2020
97 Clouds -4 1021 85 16093 4.1 110 03:32 01.04.2020
98 Clouds -4 1021 92 16093 2.6 90 02:56 01.04.2020
99 Clouds -4 1020 92 14484 2.6 110 01:59 01.04.2020
100 Clouds -4 1020 92 14484 2.6 110 01:39 01.04.2020
101 Clouds -4 1020 92 14484 2.6 110 01:18 01.04.2020
102 Clouds -4 1020 100 12874 3.1 90 00:46 01.04.2020
103 Mist -4 1020 92 9656 3.6 80 00:21 01.04.2020
104 Mist -4 1019 85 4828 4.1 80 23:42 31.03.2020
105 Mist -5 1019 92 3219 3.6 80 23:23 31.03.2020
106 Mist -5 1019 92 3219 3.6 80 22:58 31.03.2020
107 Mist -6 1018 100 4023 4.6 80 22:37 31.03.2020
108 Mist -6 1018 100 4023 4.6 80 22:19 31.03.2020
109 Mist -6 1018 100 2414 4.6 80 21:56 31.03.2020
110 Mist -6 1018 100 2012 4.1 60 21:38 31.03.2020
111 Mist -6 1018 100 2012 4.1 60 21:19 31.03.2020
112 Snow -7 1016 92 4828 4.6 80 20:55 31.03.2020
113 Snow -7 1016 92 4828 4.6 80 20:36 31.03.2020
114 Snow -7 1016 92 4828 4.6 80 20:18 31.03.2020
115 Clouds -7 1016 92 14484 4.1 80 19:42 31.03.2020
116 Clouds -7 1016 92 14484 4.1 80 19:23 31.03.2020
117 Clouds -7 1015 85 16093 4.6 80 18:58 31.03.2020
118 Clouds -7 1015 85 16093 4.6 80 18:39 31.03.2020
119 Clouds -7 1015 85 16093 4.6 80 18:18 31.03.2020
120 Snow -7 1015 85 11265 4.1 80 17:55 31.03.2020
121 Snow -7 1015 85 11265 4.1 80 17:55 31.03.2020
122 Snow -7 1015 85 11265 4.1 80 17:37 31.03.2020
123 Snow -7 1015 85 11265 4.1 80 17:18 31.03.2020
124 Snow -8 1015 92 2816 4.6 70 16:40 31.03.2020
125 Snow -8 1015 92 12874 4.1 80 16:19 31.03.2020
126 Snow -8 1014 85 12874 4.6 80 15:57 31.03.2020
127 Snow -8 1014 85 12874 4.6 80 15:39 31.03.2020
128 Snow -8 1014 85 12874 4.6 80 15:20 31.03.2020
129 Clouds -8 1014 85 16093 5.1 80 14:57 31.03.2020
130 Clouds -8 1014 85 16093 5.1 80 14:38 31.03.2020
131 Clouds -8 1014 85 16093 5.1 80 14:20 31.03.2020
132 Snow -8 1014 78 6437 5.1 80 13:43 31.03.2020
133 Snow -8 1014 78 4023 4.6 80 13:20 31.03.2020
134 Snow -8 1014 78 4023 4.6 80 13:19 31.03.2020
135 Snow -8 1014 78 4023 4.6 80 13:19 31.03.2020
136 Snow -9 1014 85 14484 5.1 80 12:56 31.03.2020
137 Snow -9 1014 85 14484 5.1 80 12:38 31.03.2020
138 Snow -9 1014 85 6437 5.1 80 12:19 31.03.2020
139 Snow -9 1014 78 4023 5.7 80 11:39 31.03.2020
140 Snow -9 1014 78 4023 5.7 80 11:20 31.03.2020
141 Clouds -9 1014 72 16093 6.7 80 10:58 31.03.2020
142 Clouds -9 1014 72 16093 6.7 80 10:40 31.03.2020
143 Clouds -9 1014 72 16093 5.7 90 10:21 31.03.2020
144 Clouds -9 1014 72 16093 5.7 90 09:56 31.03.2020
145 Clouds -9 1014 72 16093 5.7 90 09:37 31.03.2020
146 Clouds -9 1014 72 16093 5.7 90 09:19 31.03.2020
147 Clouds -9 1014 72 16093 6.2 90 08:56 31.03.2020
148 Clouds -9 1014 72 16093 6.2 90 08:38 31.03.2020
149 Clouds -9 1014 72 16093 6.2 90 08:38 31.03.2020
150 Clouds -9 1014 72 16093 6.2 90 08:19 31.03.2020
151 Clouds -9 1014 66 16093 4.6 90 07:55 31.03.2020
152 Clouds -9 1014 66 16093 4.6 90 07:55 31.03.2020
153 Clouds -9 1014 66 16093 4.6 90 07:37 31.03.2020
154 Clouds -9 1014 66 16093 4.6 90 07:18 31.03.2020
155 Clear -8 1014 61 16093 6.2 120 06:42 31.03.2020
156 Clear -8 1014 67 16093 6.7 110 05:59 31.03.2020
157 Clear -8 1014 67 16093 6.7 110 05:39 31.03.2020
158 Clear -7 1015 67 16093 8.2 100 03:28 31.03.2020
159 Clear -8 1017 67 16093 7.7 90 01:52 31.03.2020
160 Clear -8 1017 67 16093 7.7 90 01:33 31.03.2020
161 Clear -8 1017 57 16093 9.8 90 00:46 31.03.2020
162 Clear -8 1017 57 16093 9.8 90 00:24 31.03.2020
163 Clear -9 1018 56 16093 8.2 80 23:41 30.03.2020
164 -273 0 0 0 0 0 23:20 30.03.2020
165 Clear -9 1019 56 16093 2.6 70 22:58 30.03.2020
166 Clear -9 1019 56 16093 2.6 70 22:39 30.03.2020
167 Clear -9 1019 56 16093 2.6 70 22:39 30.03.2020
168 Clear -10 1019 56 16093 2.6 70 22:20 30.03.2020
169 Clear -10 1019 47 16093 2.6 120 21:58 30.03.2020
170 Clear -10 1019 47 16093 2.6 120 21:39 30.03.2020
171 Clear -10 1019 47 16093 2.6 120 21:21 30.03.2020
172 Clear -10 1020 47 16093 4.1 190 20:59 30.03.2020
173 Clear -10 1020 47 16093 4.1 190 20:39 30.03.2020
174 Clear -10 1020 47 16093 4.1 190 20:20 30.03.2020
175 Clear -11 1019 51 16093 7.7 80 19:57 30.03.2020
176 Clear -11 1019 51 16093 7.7 80 19:39 30.03.2020
177 Clear -10 1019 51 16093 7.7 80 19:20 30.03.2020
178 Clear -10 1019 47 16093 9.8 80 18:44 30.03.2020
179 Clear -10 1019 47 16093 9.8 80 18:26 30.03.2020
180 Clear -9 1019 84 16093 7.7 80 17:58 30.03.2020
181 Clear -10 1019 84 16093 7.7 80 17:40 30.03.2020
182 Clear -10 1019 84 16093 7.7 80 17:22 30.03.2020
183 Clear -11 1019 84 0 6.38 79 16:59 30.03.2020
184 Clear -11 1019 84 0 6.38 79 16:40 30.03.2020
185 Clear -11 1019 84 0 6.38 79 16:21 30.03.2020
186 Clear -11 1019 84 0 6.38 79 15:56 30.03.2020
187 Clear -11 1019 84 0 6.38 79 15:56 30.03.2020
188 Clear -11 1019 84 0 6.38 79 15:56 30.03.2020
189 Clear -11 1019 84 0 6.38 79 15:38 30.03.2020
190 Clear -11 1022 79 0 4.44 81 15:20 30.03.2020
191 Clear -11 1022 79 0 4.44 81 14:58 30.03.2020
192 Clear -11 1022 79 0 4.44 81 14:37 30.03.2020
193 Clear -11 1022 79 0 4.44 81 14:18 30.03.2020
194 Clear -11 1022 77 0 4.06 81 13:57 30.03.2020
195 Clear -11 1022 77 0 4.06 81 13:38 30.03.2020
196 Clear -11 1022 77 0 4.06 81 13:19 30.03.2020
197 Clear -11 1022 77 0 4.06 81 12:45 30.03.2020
198 Clear -11 1022 77 0 4.06 81 12:21 30.03.2020
199 Clear -11 1022 77 0 4.06 81 12:21 30.03.2020
200 Clear -11 1023 75 0 3.04 70 11:58 30.03.2020
201 Clear -11 1023 75 0 3.04 70 11:40 30.03.2020
202 Clear -11 1023 75 0 3.04 70 11:21 30.03.2020
203 Clear -11 1023 75 0 3.04 70 10:55 30.03.2020
204 Clear -11 1023 75 0 3.04 70 10:37 30.03.2020
205 Clear -11 1023 75 0 3.04 70 10:18 30.03.2020
206 Clear -11 1023 75 0 3.04 70 09:40 30.03.2020
207 Clear -11 1025 75 0 1.9 62 09:19 30.03.2020
208 Clear -11 1025 75 0 1.9 62 08:56 30.03.2020
209 Clear -11 1025 75 0 1.9 62 08:36 30.03.2020
210 Clear -11 1025 75 0 1.9 62 08:18 30.03.2020
211 Clear -11 1025 75 0 1.9 62 07:42 30.03.2020
212 Clear -11 1025 75 0 1.9 62 07:20 30.03.2020
213 Clear -11 1025 75 0 1.9 62 06:43 30.03.2020
214 Clear -11 1025 75 0 1.9 62 06:25 30.03.2020
215 Clear -9 1027 81 0 0.79 51 05:43 30.03.2020
216 Clear -9 1027 81 0 0.79 51 04:29 30.03.2020
217 Clear -3 1028 42 16093 2.1 100 03:54 30.03.2020
218 Clear -11 1028 66 16093 1.5 130 02:44 30.03.2020
219 Clear -11 1029 56 16093 1 136 01:57 30.03.2020
220 Clear -12 1029 51 16093 1.5 240 00:59 30.03.2020
221 Clear -12 1029 51 16093 1.5 240 00:28 30.03.2020
222 Clear -13 1029 50 16093 0.31 279 23:56 29.03.2020
223 Clear -13 1029 50 16093 0.31 279 23:56 29.03.2020
224 Clear -13 1029 50 16093 0.31 279 23:37 29.03.2020
225 Clear -13 1029 50 16093 0.31 279 23:18 29.03.2020
226 Clear -15 1030 45 16093 0.31 279 22:40 29.03.2020
227 Clear -15 1030 45 16093 0.31 279 22:20 29.03.2020
228 Clear -15 1030 38 16093 0.31 279 21:59 29.03.2020
229 Clear -15 1030 38 16093 0.31 279 21:38 29.03.2020
230 Clear -15 1030 38 16093 0.72 114 21:20 29.03.2020
231 Clear -17 1030 45 16093 0.72 114 20:55 29.03.2020
232 Clear -17 1030 45 16093 0.72 114 20:37 29.03.2020
233 Clear -17 1030 45 16093 0.72 114 20:19 29.03.2020
234 Clear -18 1029 49 16093 0.72 114 19:57 29.03.2020
235 Clear -18 1029 49 16093 0.72 114 19:57 29.03.2020
236 Clear -18 1029 49 16093 0.72 114 19:39 29.03.2020
237 Clear -18 1029 49 16093 0.72 114 19:21 29.03.2020
238 Clear -18 1029 44 16093 0.72 114 18:57 29.03.2020
239 Clear -18 1029 44 16093 0.72 114 18:38 29.03.2020
240 Clear -18 1029 44 16093 0.81 24 18:18 29.03.2020
241 Clear -14 1029 67 0 0.81 24 17:55 29.03.2020
242 Clear -14 1029 67 0 0.81 24 17:37 29.03.2020
243 Clear -14 1029 67 0 0.81 24 17:18 29.03.2020
244 Clear -14 1029 67 0 0.81 24 16:55 29.03.2020
245 Clear -14 1029 67 0 0.81 24 16:36 29.03.2020
246 Clear -14 1029 67 0 0.81 24 16:18 29.03.2020
247 Clear -14 1029 67 0 0.81 24 15:41 29.03.2020
248 Clear -14 1029 67 0 0.81 24 15:23 29.03.2020
249 Clear -13 1028 71 0 2.13 357 14:57 29.03.2020
250 Clear -13 1028 71 0 2.13 357 14:39 29.03.2020
251 Clear -13 1028 71 0 2.13 357 14:20 29.03.2020
252 Clear -13 1029 71 0 2.16 349 13:57 29.03.2020
253 Clear -13 1029 71 0 2.16 349 13:57 29.03.2020
254 Clear -13 1029 71 0 2.16 349 13:39 29.03.2020
255 Clear -13 1029 71 0 2.16 349 13:19 29.03.2020
256 Clear -13 1029 71 0 2.16 349 12:55 29.03.2020
257 Clear -13 1029 71 0 2.16 349 12:37 29.03.2020
258 Clear -14 1028 74 0 2.89 351 12:18 29.03.2020
259 Clear -14 1028 74 0 2.89 351 11:40 29.03.2020
260 Clear -14 1028 74 0 2.89 351 11:22 29.03.2020
261 Clear -14 1028 74 0 2.89 351 10:59 29.03.2020
262 Clear -14 1028 74 0 2.89 351 10:38 29.03.2020
263 Clear -14 1028 74 0 2.89 351 10:18 29.03.2020
264 Clear -14 1028 74 0 2.89 351 10:18 29.03.2020
265 Clear -14 1028 74 0 2.89 351 09:41 29.03.2020
266 Clear -14 1028 74 0 2.89 351 09:20 29.03.2020
267 Clear -16 1026 76 0 4.02 358 08:54 29.03.2020
268 Clear -16 1026 76 0 4.02 358 08:54 29.03.2020
269 Clear -16 1026 76 0 4.02 358 08:30 29.03.2020
270 Clear -16 1026 76 0 4.02 358 07:59 29.03.2020
271 Clear -16 1026 76 0 4.02 358 07:41 29.03.2020
272 Clear -16 1026 76 0 4.02 358 07:21 29.03.2020
273 Clear -14 1024 84 0 3.8 351 05:46 29.03.2020
274 Clear -14 1024 84 0 3.8 351 04:27 29.03.2020
275 Clear -14 1021 71 16093 8.7 10 03:31 29.03.2020
276 Clear -14 1020 71 16093 11.8 10 01:51 29.03.2020
277 Clear -14 1020 71 16093 11.8 10 01:23 29.03.2020
278 Clear -12 1020 51 16093 6.2 350 00:56 29.03.2020
279 Clear -12 1020 51 16093 6.2 350 00:33 29.03.2020
280 Clear -12 1020 55 16093 9.8 30 23:57 28.03.2020
281 Clear -12 1020 55 16093 9.8 30 23:39 28.03.2020
282 Clear -12 1020 55 16093 9.8 30 23:19 28.03.2020
283 Clear -12 1019 51 16093 7.7 30 22:41 28.03.2020
284 Clear -12 1019 51 16093 7.7 30 22:22 28.03.2020
285 Clear -14 1017 60 16093 10.8 30 21:55 28.03.2020
286 Clear -14 1017 60 16093 10.8 30 21:37 28.03.2020
287 Clear -14 1017 60 16093 10.8 30 21:18 28.03.2020
288 Clear -14 1016 65 16093 10.8 30 20:42 28.03.2020
289 Clear -14 1016 65 16093 10.8 30 20:24 28.03.2020
290 Clouds -14 1015 71 16093 9.8 20 19:58 28.03.2020
291 Clouds -14 1015 71 16093 9.8 20 19:58 28.03.2020
292 Clouds -14 1015 71 16093 9.8 20 19:39 28.03.2020
293 Clouds -14 1015 71 16093 9.8 20 19:21 28.03.2020
294 Clouds -15 1013 71 16093 12.3 30 18:59 28.03.2020
295 Clouds -15 1013 71 16093 12.3 30 18:39 28.03.2020
296 Clouds -15 1013 71 16093 12.3 30 18:20 28.03.2020
297 Clouds -14 1013 65 16093 7.2 10 17:39 28.03.2020
298 Clouds -14 1013 65 16093 7.2 10 17:39 28.03.2020
299 Clouds -14 1013 65 16093 7.2 10 17:21 28.03.2020
300 Clouds -16 1013 89 0 4.37 6 16:55 28.03.2020
301 Clouds -16 1013 89 0 4.37 6 16:37 28.03.2020
302 Clouds -16 1013 89 0 4.37 6 16:18 28.03.2020
303 Clouds -16 1013 89 0 4.37 6 15:39 28.03.2020
304 Clouds -16 1013 89 0 4.37 6 15:19 28.03.2020
305 Clouds -16 1013 89 0 4.37 6 14:56 28.03.2020
306 Clouds -16 1013 89 0 4.37 6 14:38 28.03.2020
307 Clouds -15 1011 90 0 4.44 9 14:20 28.03.2020
308 Clouds -15 1011 90 0 4.44 9 13:41 28.03.2020
309 Clouds -15 1011 90 0 4.66 13 13:22 28.03.2020
310 Clouds -15 1011 90 0 4.66 13 12:40 28.03.2020
311 Clouds -15 1011 90 0 4.66 13 12:22 28.03.2020
312 Clouds -15 1011 90 0 4.66 13 11:43 28.03.2020
313 Clouds -15 1011 90 0 4.66 13 11:23 28.03.2020
314 Clouds -13 1009 92 0 4.44 26 10:58 28.03.2020
315 Clouds -13 1009 92 0 4.44 26 10:38 28.03.2020
316 Clouds -13 1009 92 0 4.44 26 10:18 28.03.2020
317 Clouds -13 1009 92 0 4.44 26 09:42 28.03.2020
318 Clouds -13 1009 92 0 4.44 26 09:23 28.03.2020
319 Clouds -13 1009 92 0 4.44 26 08:55 28.03.2020
320 Clouds -15 1010 90 0 3.98 23 08:37 28.03.2020
321 Clouds -13 1007 91 0 4.86 42 08:18 28.03.2020
322 Clouds -15 1008 91 0 4.14 41 07:42 28.03.2020
323 Clouds -15 1008 91 0 4.14 41 06:58 28.03.2020
324 Clouds -15 1008 91 0 4.14 41 06:35 28.03.2020
325 Clouds -15 1008 91 0 4.14 41 05:42 28.03.2020
326 Clouds -15 1008 91 0 4.14 41 05:21 28.03.2020
327 Snow -12 1007 94 0 7.67 63 04:40 28.03.2020
328 Snow -12 1007 94 0 7.67 63 03:42 28.03.2020
329 Snow -13 1007 94 0 8.62 68 01:57 28.03.2020
330 Snow -13 1007 94 0 8.62 68 01:26 28.03.2020
331 Snow -11 1006 85 402 11.3 80 00:57 28.03.2020
332 Snow -11 1006 85 402 11.3 80 00:36 28.03.2020
333 Snow -11 1007 85 402 11.8 80 23:56 27.03.2020
334 Snow -11 1007 85 402 11.8 80 23:38 27.03.2020
335 Snow -11 1007 85 402 11.8 80 23:19 27.03.2020
336 Snow -13 1008 94 0 9.52 79 22:56 27.03.2020
337 Snow -13 1008 94 0 9.52 79 22:37 27.03.2020
338 Snow -13 1008 94 0 9.52 79 22:18 27.03.2020
339 Snow -11 1008 85 805 10.3 70 21:43 27.03.2020
340 Snow -11 1008 85 805 10.3 70 21:24 27.03.2020
341 Snow -12 1008 92 2012 8.7 70 20:58 27.03.2020
342 Snow -12 1008 92 2012 8.7 70 20:40 27.03.2020
343 Snow -12 1008 92 2012 8.7 70 20:20 27.03.2020
344 Snow -12 1008 92 2012 9.3 70 19:57 27.03.2020
345 Snow -12 1008 92 2012 9.3 70 19:39 27.03.2020
346 Snow -12 1008 92 2012 9.3 70 19:39 27.03.2020
347 Snow -11 1009 78 1207 8.7 70 19:20 27.03.2020
348 Snow -11 1009 78 1609 7.7 70 18:44 27.03.2020
349 Mist -12 1010 78 2414 7.2 60 18:24 27.03.2020
350 Snow -12 1011 85 3219 9.3 80 17:58 27.03.2020
351 Snow -12 1011 85 3219 9.3 80 17:39 27.03.2020
352 Snow -12 1011 85 3219 9.3 80 17:19 27.03.2020
353 Snow -12 1011 85 2816 9.3 80 16:44 27.03.2020
354 Snow -12 1011 85 2816 8.7 70 16:25 27.03.2020
355 Snow -12 1011 85 2816 8.7 70 16:25 27.03.2020
356 Snow -11 1012 94 4023 8.7 70 15:56 27.03.2020
357 Snow -11 1012 94 4023 8.7 70 15:38 27.03.2020
358 Clouds -11 1012 94 16093 8.7 80 15:19 27.03.2020
359 Snow -13 1010 94 0 7.65 74 14:43 27.03.2020
360 Snow -13 1010 94 0 7.65 74 14:24 27.03.2020
361 Clouds -10 1014 86 16093 8.2 80 13:55 27.03.2020
362 Clouds -13 1014 86 0 4.78 75 13:37 27.03.2020
363 Clouds -13 1014 86 0 4.78 75 13:18 27.03.2020
364 Clouds -13 1014 86 0 4.9 72 12:43 27.03.2020
365 Clouds -13 1014 86 0 4.9 72 12:19 27.03.2020
366 Clouds -13 1014 86 0 4.9 72 11:57 27.03.2020
367 Clouds -13 1014 86 0 4.9 72 11:39 27.03.2020
368 Clouds -13 1014 86 0 4.9 72 11:21 27.03.2020
369 Clouds -13 1018 87 0 4.05 55 10:42 27.03.2020
370 Clouds -13 1018 87 0 4.05 55 10:23 27.03.2020
371 Clouds -13 1018 87 0 4.05 55 09:59 27.03.2020
372 Clouds -13 1018 87 0 4.05 55 09:41 27.03.2020
373 Clouds -13 1018 87 0 4.05 55 09:23 27.03.2020
374 Clouds -10 1019 61 16093 4.6 60 08:59 27.03.2020
375 Clouds -10 1019 61 16093 4.6 60 08:59 27.03.2020
376 Clouds -10 1019 61 16093 4.6 60 08:40 27.03.2020
377 Clouds -10 1019 61 16093 4.6 60 08:22 27.03.2020
378 Clouds -10 1019 89 16093 5.1 70 07:59 27.03.2020
379 Clouds -10 1019 89 16093 5.1 70 07:41 27.03.2020
380 Clouds -10 1019 89 16093 5.1 70 07:21 27.03.2020
381 Clouds -9 1019 89 16093 3.6 50 06:40 27.03.2020
382 Clouds -9 1020 89 16093 5.1 70 05:57 27.03.2020
383 Clouds -8 1021 91 16093 5.1 80 03:34 27.03.2020
384 Clouds -7 1022 73 16093 4.6 70 01:56 27.03.2020
385 Clouds -7 1022 73 16093 4.6 70 01:19 27.03.2020
386 Clouds -7 1022 73 16093 4.1 50 00:42 27.03.2020
387 Clouds -7 1022 73 16093 4.1 50 00:19 27.03.2020
388 Clouds -7 1022 78 16093 3.62 76 23:40 26.03.2020
389 Clouds -7 1022 78 16093 2.27 76 23:18 26.03.2020
390 Clouds -7 1022 72 16093 2.6 160 22:57 26.03.2020
391 Clouds -7 1022 72 16093 2.6 160 22:36 26.03.2020
392 Clouds -8 1022 72 16093 2.6 160 22:18 26.03.2020
393 Clouds -8 1022 72 16093 3.1 160 21:40 26.03.2020
394 Clouds -9 1022 72 16093 3.1 160 21:22 26.03.2020
395 Clouds -8 1022 78 16093 4.1 100 20:59 26.03.2020
396 Clouds -8 1022 78 16093 4.1 100 20:39 26.03.2020
397 Clouds -8 1022 78 16093 4.1 100 20:21 26.03.2020
398 Clouds -9 1022 78 16093 2.06 53 19:58 26.03.2020
399 Clouds -9 1022 78 16093 2.06 53 19:40 26.03.2020
400 Clouds -9 1022 78 16093 2.06 53 19:21 26.03.2020
401 Clouds -9 1021 72 16093 2.06 53 18:58 26.03.2020
402 Clouds -9 1021 72 16093 2.06 53 18:40 26.03.2020
403 Clouds -9 1021 72 16093 2.06 53 18:21 26.03.2020
404 Clear -9 1021 66 16093 2.06 53 17:45 26.03.2020
405 Clear -10 1021 66 16093 2.6 35 17:20 26.03.2020
406 Clear -10 1021 90 16093 2.6 30 16:57 26.03.2020
407 Clear -10 1021 90 16093 2.6 30 16:38 26.03.2020
408 Clear -10 1021 90 16093 2.6 30 16:38 26.03.2020
409 Clear -9 1021 90 16093 2.6 30 16:19 26.03.2020
410 Clear -9 1021 90 16093 2.6 35 15:55 26.03.2020
411 Clear -9 1021 90 16093 2.6 35 15:37 26.03.2020
412 Clear -8 1021 90 16093 2.6 35 15:18 26.03.2020
413 Clouds -11 1022 90 0 2.6 35 14:43 26.03.2020
414 Clouds -11 1022 90 0 2.6 35 14:24 26.03.2020
415 Clouds -10 1020 91 0 1.89 39 13:56 26.03.2020
416 Clouds -10 1020 91 0 1.89 39 13:38 26.03.2020
417 Clouds -10 1020 91 0 1.89 39 13:19 26.03.2020
418 Clouds -11 1021 90 0 1.75 37 12:38 26.03.2020
419 Clouds -11 1021 90 0 1.75 37 12:20 26.03.2020
420 Clouds -11 1021 90 0 1.75 37 12:20 26.03.2020
421 Clouds -11 1021 90 0 1.75 37 11:46 26.03.2020
422 Clouds -11 1021 90 0 1.75 37 11:23 26.03.2020
423 Clouds -11 1020 90 0 2.89 17 10:57 26.03.2020
424 Clouds -11 1020 90 0 2.89 17 10:39 26.03.2020
425 Clouds -11 1020 90 0 2.89 17 10:19 26.03.2020
426 Clouds -11 1020 90 0 2.89 17 09:44 26.03.2020
427 Clouds -11 1020 90 0 2.89 17 09:21 26.03.2020
428 Clouds -11 1020 90 0 2.89 17 08:57 26.03.2020
429 Clouds -11 1020 90 0 2.89 17 08:38 26.03.2020
430 Clouds -4 1018 79 16093 3.57 19 08:19 26.03.2020
431 Clouds -2 1018 68 16093 3.43 20 07:45 26.03.2020
432 Clouds -2 1018 68 16093 3.43 20 07:23 26.03.2020
433 Clouds -2 1017 74 16093 3.43 20 06:57 26.03.2020
434 Clouds -2 1017 74 16093 3.43 20 06:32 26.03.2020
435 Clouds -1 1017 92 16093 2.1 250 05:29 26.03.2020
436 Clouds 0 1017 93 16093 2.85 11 03:45 26.03.2020
437 Clear 0 1016 93 16093 1.5 10 02:56 26.03.2020
438 Clouds 0 1016 95 16093 2.1 360 01:51 26.03.2020
439 Clouds 0 1016 95 16093 2.1 360 01:18 26.03.2020
440 Clouds 0 1016 95 16093 2.1 230 00:23 26.03.2020
441 Clouds -1 1015 80 16093 2.6 220 23:42 25.03.2020
442 Clouds -1 1015 80 16093 2.6 220 23:22 25.03.2020
443 Clouds -1 1014 80 16093 1.5 180 22:42 25.03.2020
444 Clouds -1 1014 80 16093 1.5 180 22:22 25.03.2020
445 Snow -2 1014 86 16093 2.1 330 21:59 25.03.2020
446 Snow -2 1014 86 16093 2.1 330 21:40 25.03.2020
447 Clouds -2 1014 86 16093 2.1 330 21:22 25.03.2020
448 Clear -1 1013 79 16093 3.1 20 20:57 25.03.2020
449 Clear -1 1013 79 16093 3.1 20 20:37 25.03.2020
450 Clear -2 1013 79 16093 3.1 20 20:18 25.03.2020
451 Clouds -1 1012 74 16093 3.6 360 19:43 25.03.2020
452 Clouds -1 1012 74 16093 3.6 360 19:24 25.03.2020
453 Clouds 0 1011 95 16093 3.1 360 18:59 25.03.2020
454 Clouds 0 1011 95 16093 3.1 360 18:40 25.03.2020
455 Clouds 0 1011 95 16093 3.1 360 18:22 25.03.2020
456 Clear 0 1009 95 16093 3.1 60 17:57 25.03.2020
457 Clear 0 1009 95 16093 3.1 60 17:39 25.03.2020
458 Clear 0 1009 95 16093 3.1 60 17:21 25.03.2020
459 Clouds -3 1011 97 0 2.49 323 16:55 25.03.2020
460 Clouds -3 1010 97 0 2.59 324 16:36 25.03.2020
461 Clear 0 1009 97 16093 1.5 20 16:18 25.03.2020
462 Clouds 0 1009 97 16093 1.5 310 15:41 25.03.2020
463 Clouds 0 1009 97 16093 2.6 280 15:20 25.03.2020
464 Clouds 1 1008 97 16093 2.6 290 14:55 25.03.2020
465 Clouds 1 1008 97 16093 2.6 290 14:37 25.03.2020
466 Clouds 1 1008 98 16093 6.2 280 14:18 25.03.2020
467 Clouds 0 1008 98 16093 4.6 270 13:42 25.03.2020
468 Clouds 0 1008 98 16093 4.1 270 13:22 25.03.2020
469 Mist 0 1008 98 4828 3.6 270 12:38 25.03.2020
470 Mist 0 1008 98 4828 3.6 270 12:19 25.03.2020
471 Mist 0 1008 98 1609 3.1 260 11:56 25.03.2020
472 Mist 0 1008 98 1207 1.5 250 11:37 25.03.2020
473 Mist 0 1008 98 1207 1.5 250 11:19 25.03.2020
474 Mist 0 1009 98 1207 2.1 240 10:56 25.03.2020
475 Mist 0 1009 98 1207 2.1 240 10:38 25.03.2020
476 Mist 0 1009 98 1609 1.5 220 10:18 25.03.2020
477 Mist 0 1009 98 2414 1.5 170 09:43 25.03.2020
478 Mist 0 1009 98 2414 1.5 170 09:24 25.03.2020
479 Mist 0 1011 98 2816 1.5 140 08:57 25.03.2020
480 Mist 0 1011 98 2816 1.5 140 08:39 25.03.2020
481 Mist 0 1011 98 2816 1.5 140 08:19 25.03.2020
482 Rain 2 1011 98 3219 2.1 150 07:41 25.03.2020
483 Rain 2 1011 98 3219 2.1 150 07:22 25.03.2020
484 Mist 2 1012 74 2414 2.1 140 06:50 25.03.2020
485 Mist 2 1012 74 2414 2.1 140 06:28 25.03.2020
486 Mist 2 1012 74 2414 2.1 140 06:28 25.03.2020
487 Mist 1 1013 98 2012 2.1 110 05:56 25.03.2020
488 Mist 1 1013 98 2012 2.1 110 05:37 25.03.2020
489 Rain 1 1014 98 4023 3.1 140 04:40 25.03.2020
490 Rain 1 1015 98 2012 2.6 140 03:49 25.03.2020
491 Rain 1 1015 98 2012 2.6 140 03:29 25.03.2020
492 Mist 1 1017 97 1609 3.1 150 01:25 25.03.2020
493 Mist 0 1018 98 1609 2.6 160 00:49 25.03.2020
494 Mist 1 1018 98 1609 2.6 160 00:25 25.03.2020
495 Mist 0 1019 98 2012 1.5 160 23:46 24.03.2020
496 Mist 0 1019 98 2012 1.5 160 23:28 24.03.2020
497 Mist 0 1019 98 1609 1.5 170 22:57 24.03.2020
498 Mist 0 1019 98 1609 2.1 190 22:38 24.03.2020
499 Mist 0 1019 98 1609 2.1 190 22:19 24.03.2020
500 Mist 0 1020 98 4023 2.1 200 21:56 24.03.2020
501 Mist 0 1020 98 4023 2.1 200 21:37 24.03.2020
502 Mist -1 1020 98 4023 2.1 200 21:18 24.03.2020
503 Clouds -1 1020 98 16093 1.34 180 20:56 24.03.2020
504 Clouds -1 1020 98 16093 1.34 180 20:38 24.03.2020
505 Clouds -1 1020 99 4828 2.1 230 20:20 24.03.2020
506 Snow -1 1020 92 4828 2.6 220 19:44 24.03.2020
507 Snow -1 1020 92 4828 2.6 220 19:19 24.03.2020
508 Haze -1 1021 99 9656 2.6 220 18:56 24.03.2020
509 Haze -1 1021 99 9656 2.6 220 18:37 24.03.2020
510 Haze -1 1021 99 9656 2.6 220 18:18 24.03.2020
511 Clouds -1 1021 92 14484 3.1 230 17:42 24.03.2020
512 Clouds -1 1021 92 14484 3.1 230 17:42 24.03.2020
513 Clouds -1 1021 92 14484 3.1 230 17:24 24.03.2020
514 Snow -1 1021 92 12874 3.1 230 16:59 24.03.2020
515 Snow -1 1021 92 12874 3.1 230 16:41 24.03.2020
516 Clouds -1 1021 98 16093 3.6 230 16:23 24.03.2020
517 Clouds -1 1022 98 16093 2.6 230 15:59 24.03.2020
518 Clouds -1 1022 98 16093 2.6 230 15:39 24.03.2020
519 Clouds -1 1022 98 12874 3.1 240 15:20 24.03.2020
520 Clouds -1 1022 98 12874 3.1 240 15:20 24.03.2020
521 Clouds -1 1022 98 16093 3.1 230 14:43 24.03.2020
522 Snow -1 1022 99 4828 3.6 250 14:21 24.03.2020
523 Snow -1 1022 99 4828 4.1 250 13:55 24.03.2020
524 Snow -1 1022 99 2816 4.6 230 13:36 24.03.2020
525 Snow -1 1022 99 2816 4.6 230 13:18 24.03.2020
526 Snow -1 1022 99 4828 4.6 230 12:41 24.03.2020
527 Snow -1 1022 99 4828 4.6 230 12:41 24.03.2020
528 Snow -1 1022 99 3219 3.1 230 12:22 24.03.2020
529 Clouds -1 1022 99 11265 3.6 230 11:41 24.03.2020
530 Clouds -1 1022 97 11265 3.6 230 11:20 24.03.2020
531 Snow -1 1022 97 4023 3.1 240 10:55 24.03.2020
532 Haze -1 1023 97 8047 4.1 240 10:36 24.03.2020
533 Haze -1 1023 97 8047 4.1 240 10:18 24.03.2020
534 Haze -1 1023 97 8047 3.6 250 09:43 24.03.2020
535 Haze -1 1023 97 8047 3.6 250 09:24 24.03.2020
536 Mist 0 1022 97 6437 4.6 230 08:40 24.03.2020
537 Mist 0 1022 97 6437 4.6 230 08:21 24.03.2020
538 Mist 0 1022 96 4023 5.1 220 07:52 24.03.2020
539 Haze 0 1023 80 3219 6.2 230 07:25 24.03.2020
540 Clouds 0 1023 80 2816 6.2 230 06:59 24.03.2020
541 Clouds 0 1023 80 2816 6.2 230 06:34 24.03.2020
542 Clouds 0 1023 80 16093 5.7 220 05:36 24.03.2020
543 Clouds -1 1023 97 12874 7.7 210 04:50 24.03.2020
544 Snow -1 1024 97 8047 6.7 210 03:19 24.03.2020
545 Haze -1 1025 97 6437 8.7 220 02:25 24.03.2020
546 Clouds -2 1026 92 16093 4.6 210 00:53 24.03.2020
547 Clear -1 1026 89 16093 3.6 180 00:26 24.03.2020
548 Clouds -1 1026 89 16093 1.5 180 23:55 23.03.2020
549 Clouds -1 1026 89 16093 1.5 180 23:36 23.03.2020
550 Clouds -1 1026 88 16093 1.5 180 23:18 23.03.2020
551 Clouds 0 1027 74 16093 2.6 150 22:42 23.03.2020
552 Clouds 0 1027 74 16093 2.6 150 22:22 23.03.2020
553 Clouds 0 1028 74 16093 3.6 180 21:54 23.03.2020
554 Clouds 0 1028 74 16093 3.6 180 21:36 23.03.2020
555 Clouds 0 1028 74 16093 3.6 180 21:18 23.03.2020
556 Mist -1 1028 88 14484 2.1 180 20:42 23.03.2020
557 Mist -1 1028 88 14484 2.1 180 20:23 23.03.2020
558 Mist -1 1028 95 8047 2.1 180 19:55 23.03.2020
559 Mist -1 1028 95 8047 2.1 180 19:55 23.03.2020
560 Mist -1 1028 95 8047 2.1 180 19:55 23.03.2020
561 Mist -1 1028 95 8047 2.1 180 19:37 23.03.2020
562 Mist -1 1028 95 8047 2.1 180 19:18 23.03.2020
563 Mist -1 1029 92 9656 5.1 210 18:43 23.03.2020
564 Mist -1 1029 92 9656 5.1 210 18:24 23.03.2020
565 Mist -1 1029 92 9656 5.1 210 17:58 23.03.2020
566 Clouds -1 1029 92 11265 2.1 250 17:39 23.03.2020
567 Clouds -4 1028 95 0 4.36 238 17:19 23.03.2020
568 Clouds -4 1028 95 0 4.36 238 16:43 23.03.2020
569 Clouds -4 1028 95 0 4.36 238 16:25 23.03.2020
570 Mist -1 1029 95 12874 6.2 240 15:44 23.03.2020
571 Mist -1 1029 95 12874 6.2 240 15:21 23.03.2020
572 Mist -1 1029 95 12874 10.8 250 14:57 23.03.2020
573 Mist -1 1029 95 12874 10.8 250 14:37 23.03.2020
574 Mist -1 1029 95 12874 10.8 250 14:18 23.03.2020
575 Mist -1 1029 95 8047 10.3 240 13:54 23.03.2020
576 Mist -1 1029 95 8047 10.3 240 13:54 23.03.2020
577 Mist -1 1029 95 4023 10.8 240 13:36 23.03.2020
578 Mist -1 1029 95 4023 10.8 240 13:36 23.03.2020
579 Mist -1 1029 96 4023 10.8 240 13:18 23.03.2020
580 Mist 0 1029 96 4828 11.3 250 12:41 23.03.2020
581 Mist 0 1028 96 4828 11.3 240 12:22 23.03.2020
582 Mist 0 1028 96 4828 11.3 240 12:22 23.03.2020
583 Mist 0 1028 96 4023 12.9 240 11:55 23.03.2020
584 Mist 0 1028 96 4023 13.4 250 11:37 23.03.2020
585 Mist 0 1028 95 4023 13.4 250 11:18 23.03.2020
586 Mist 0 1029 95 3219 11.8 250 10:41 23.03.2020
587 Mist 0 1029 95 2816 10.8 250 10:23 23.03.2020
588 Mist 0 1029 95 2816 10.3 240 09:59 23.03.2020
589 Mist 0 1029 95 2816 10.3 240 09:40 23.03.2020
590 Mist 0 1029 95 2816 10.3 240 09:19 23.03.2020
591 Snow 1 1029 95 2816 9.3 240 08:38 23.03.2020
592 Snow 2 1029 97 6437 6.2 240 08:20 23.03.2020
593 Rain 2 1029 97 8047 5.7 240 07:51 23.03.2020
594 Rain 2 1029 97 8047 5.7 240 07:33 23.03.2020
595 Rain 2 1030 97 4828 5.1 220 06:55 23.03.2020
596 Rain 2 1030 97 4828 5.1 220 06:33 23.03.2020
597 Mist 1 1030 80 1609 6.7 230 05:44 23.03.2020
598 Snow 1 1031 80 1609 4.6 250 03:54 23.03.2020
599 Fog -1 1031 86 402 1.5 150 02:45 23.03.2020
600 Mist -2 1031 86 2816 1.5 120 01:50 23.03.2020
601 Snow -2 1030 86 4828 6.48 244 00:47 23.03.2020
602 Snow -2 1030 86 4828 6.48 244 00:26 23.03.2020
603 Snow -3 1030 79 2414 6.48 244 23:42 22.03.2020
604 Snow -3 1030 79 2414 6.48 244 23:24 22.03.2020
605 Snow -5 1030 85 2012 1.5 120 22:42 22.03.2020
606 Snow -5 1030 85 2012 1.5 120 22:21 22.03.2020
607 Snow -5 1030 85 1609 5.16 246 21:41 22.03.2020
608 Snow -6 1030 85 2816 2.1 350 21:23 22.03.2020
609 Snow -6 1030 85 2816 2.1 20 20:59 22.03.2020
610 Snow -6 1030 85 2816 2.1 20 20:40 22.03.2020
611 Snow -6 1030 85 2816 2.1 20 20:22 22.03.2020
612 Snow -7 1030 92 1609 1.5 350 19:56 22.03.2020
613 Snow -7 1030 92 1609 1.5 350 19:38 22.03.2020
614 Snow -7 1030 92 2414 2.1 30 19:19 22.03.2020
615 Snow -8 1030 85 1207 3.1 70 18:57 22.03.2020
616 Snow -8 1030 85 1207 3.1 70 18:39 22.03.2020
617 Snow -8 1030 85 1207 3.1 70 18:20 22.03.2020
618 Snow -8 1030 85 1207 5.1 80 17:57 22.03.2020
619 Snow -8 1031 85 1207 5.7 80 17:38 22.03.2020
620 Snow -9 1031 85 1207 5.7 80 17:20 22.03.2020
621 Rain -9 1031 97 2012 6.7 80 16:57 22.03.2020
622 Rain -9 1031 97 2012 6.7 80 16:57 22.03.2020
623 Rain -9 1031 97 2012 6.7 80 16:39 22.03.2020
624 Rain -9 1031 97 2012 6.7 80 16:39 22.03.2020
625 Snow -9 1032 85 1207 5.7 80 16:20 22.03.2020
626 Rain -9 1033 97 4828 5.7 80 15:40 22.03.2020
627 Rain -10 1033 97 3219 6.2 90 15:19 22.03.2020
628 Rain -10 1034 97 1207 3.6 80 14:46 22.03.2020
629 Rain -10 1034 97 1207 3.6 80 14:46 22.03.2020
630 Clouds -14 1034 95 0 1.38 130 14:18 22.03.2020
631 Rain -11 1034 95 2012 3.6 70 13:43 22.03.2020
632 Snow -11 1035 95 4023 2.6 80 13:20 22.03.2020
633 Snow -12 1035 95 6437 2.6 90 12:58 22.03.2020
634 Snow -12 1035 95 6437 2.6 90 12:39 22.03.2020
635 Snow -12 1035 95 4023 2.1 90 12:19 22.03.2020
636 Clouds -13 1036 95 16093 1.24 126 11:43 22.03.2020
637 Clouds -13 1036 95 16093 1.24 126 11:25 22.03.2020
638 Clouds -17 1035 89 0 1.38 295 10:58 22.03.2020
639 Clouds -17 1035 89 0 1.38 295 10:39 22.03.2020
640 Clouds -17 1035 89 0 1.38 295 10:21 22.03.2020
641 Clear -14 1035 89 16093 3.1 230 09:45 22.03.2020
642 Clear -14 1035 89 16093 3.1 230 09:27 22.03.2020
643 Clear -13 1034 72 16093 4.1 310 08:48 22.03.2020
644 Clear -12 1034 72 16093 4.1 310 08:30 22.03.2020
645 Clear -11 1033 66 16093 8.2 290 07:55 22.03.2020
646 Clear -11 1033 66 16093 8.2 290 07:37 22.03.2020
647 Clear -11 1033 72 16093 4.6 290 06:41 22.03.2020
648 Clouds -11 1031 90 16093 5.7 270 05:47 22.03.2020
649 Clouds -10 1031 87 16093 3.6 290 04:39 22.03.2020
650 Clouds -9 1027 88 12874 9.3 280 01:45 22.03.2020
651 Clouds -9 1026 90 4828 8.7 270 00:50 22.03.2020
652 Clouds -9 1026 90 4828 8.7 270 00:31 22.03.2020
653 Clouds -7 1025 79 6437 10.8 270 23:46 21.03.2020
654 Snow -8 1024 92 6437 10.3 280 23:22 21.03.2020
655 Mist -8 1023 92 4828 6.2 290 22:58 21.03.2020
656 Mist -8 1023 92 4828 6.2 290 22:38 21.03.2020
657 Mist -8 1023 92 4828 6.2 290 22:19 21.03.2020
658 Clouds -7 1021 92 14484 9.3 280 21:57 21.03.2020
659 Clouds -7 1021 92 14484 9.3 280 21:38 21.03.2020
660 Clouds -7 1021 92 14484 9.3 280 21:19 21.03.2020
661 Clouds -6 1021 94 16093 7.2 280 20:42 21.03.2020
662 Clouds -6 1020 92 14484 6.2 270 20:22 21.03.2020
663 Clouds -6 1020 92 12874 5.1 280 19:55 21.03.2020
664 Clouds -6 1020 92 12874 5.1 280 19:36 21.03.2020
665 Mist -6 1019 92 4828 7.2 270 19:18 21.03.2020
666 Mist -6 1019 92 4828 7.2 270 19:18 21.03.2020
667 Clouds -7 1018 92 16093 4.6 260 18:41 21.03.2020
668 Clouds -7 1018 92 16093 4.6 260 18:20 21.03.2020
669 Clouds -7 1018 92 16093 4.6 260 17:58 21.03.2020
670 Clouds -7 1018 92 12874 5.7 270 17:40 21.03.2020
671 Clouds -7 1018 92 12874 5.7 270 17:22 21.03.2020
672 Clear -6 1016 92 16093 4.1 280 16:42 21.03.2020
673 Clear -6 1016 92 16093 4.1 280 16:23 21.03.2020
674 Clouds -4 1016 92 16093 5.7 290 15:59 21.03.2020
675 Clouds -4 1016 92 16093 5.7 290 15:40 21.03.2020
676 Clouds -4 1016 92 16093 5.7 290 15:22 21.03.2020
677 Clouds -8 1016 92 0 3.45 277 14:57 21.03.2020
678 Clouds -8 1016 92 0 3.45 277 14:38 21.03.2020
679 Snow -2 1015 97 4828 4.6 260 14:19 21.03.2020
680 Rain -3 1015 97 9656 4.6 260 13:57 21.03.2020
681 Rain -3 1015 97 9656 4.6 260 13:39 21.03.2020
682 Rain -2 1015 97 9656 4.6 260 13:21 21.03.2020
683 Rain -2 1015 95 6437 4.1 250 12:55 21.03.2020
684 Snow -2 1015 95 3219 3.6 250 12:36 21.03.2020
685 Snow -2 1015 95 3219 3.6 250 12:18 21.03.2020
686 Clouds -2 1015 95 14484 3.6 260 11:55 21.03.2020
687 Clouds -2 1014 95 16093 4.6 270 11:37 21.03.2020
688 Clouds -2 1014 98 16093 4.6 270 11:18 21.03.2020
689 Clouds -2 1014 98 16093 6.2 250 10:55 21.03.2020
690 Snow -1 1014 98 4828 5.1 250 10:37 21.03.2020
691 Snow -1 1014 98 4828 5.1 250 10:18 21.03.2020
692 Clouds -1 1014 98 16093 4.1 260 09:40 21.03.2020
693 Rain -1 1014 98 14484 3.6 240 09:21 21.03.2020
694 Rain -2 1014 98 4828 4.1 230 08:56 21.03.2020
695 Rain -1 1014 98 4828 4.1 230 08:38 21.03.2020
696 Rain -1 1014 98 4828 3.1 200 08:20 21.03.2020
697 Snow 0 1014 98 4023 3.1 180 07:39 21.03.2020
698 Snow 0 1014 98 2816 3.1 140 07:20 21.03.2020
699 Snow 0 1014 98 2816 3.1 140 07:20 21.03.2020
700 Snow 0 1015 98 1207 3.6 120 06:45 21.03.2020
701 Snow 0 1015 98 1207 3.6 120 06:25 21.03.2020
702 Snow 0 1016 98 2414 4.1 120 05:41 21.03.2020
703 Snow 0 1017 98 2414 3.6 140 04:34 21.03.2020
704 Clouds -1 1019 92 12874 6.2 190 02:39 21.03.2020
705 Clouds -1 1020 92 12874 6.7 200 01:54 21.03.2020
706 Clouds -1 1020 92 12874 6.7 200 01:28 21.03.2020
707 Clouds -1 1020 92 16093 5.7 200 00:43 21.03.2020
708 Clouds -1 1020 92 16093 5.7 200 00:43 21.03.2020
709 Clouds -1 1020 92 16093 5.7 200 00:24 21.03.2020
710 Clouds 0 1019 90 14484 7.7 210 23:45 20.03.2020
711 Clouds 0 1019 90 14484 7.7 210 23:22 20.03.2020
712 Clouds -1 1019 92 14484 8.7 210 22:44 20.03.2020
713 Clouds -1 1019 92 14484 8.7 210 22:25 20.03.2020
714 Clouds -1 1018 92 16093 10.3 210 21:59 20.03.2020
715 Clouds -1 1018 92 16093 10.3 210 21:41 20.03.2020
716 Clouds -2 1018 92 16093 10.3 210 21:20 20.03.2020
717 Clouds -1 1018 92 14484 10.3 210 20:59 20.03.2020
718 Clouds 0 1018 92 14484 10.3 210 20:41 20.03.2020
719 Clouds -1 1017 93 16093 9.3 210 20:21 20.03.2020
720 Clouds -1 1017 93 16093 8.7 210 19:58 20.03.2020
721 Clouds -1 1017 93 16093 8.7 210 19:39 20.03.2020
722 Clouds 0 1017 93 16093 8.7 210 19:18 20.03.2020
723 Clouds -1 1015 93 14484 10.8 210 18:39 20.03.2020
724 Clouds -1 1015 93 14484 10.8 210 18:39 20.03.2020
725 Clouds 0 1015 93 14484 10.8 210 18:20 20.03.2020
726 Clouds -1 1015 93 16093 9.3 210 17:57 20.03.2020
727 Clouds -1 1015 93 16093 9.3 210 17:39 20.03.2020
728 Clouds -1 1015 91 16093 9.3 210 17:19 20.03.2020
729 Clouds -1 1014 92 16093 9.3 210 16:43 20.03.2020
730 Clouds -1 1014 91 16093 9.8 210 16:21 20.03.2020
731 Clouds 0 1014 91 16093 10.3 210 15:59 20.03.2020
732 Clouds 0 1014 91 16093 10.3 210 15:41 20.03.2020
733 Clouds -1 1014 91 16093 10.3 210 15:20 20.03.2020
734 Clouds -1 1014 91 16093 9.3 210 14:42 20.03.2020
735 Clouds -1 1013 91 16093 11.8 220 14:21 20.03.2020
736 Clouds 0 1012 85 16093 12.3 210 13:55 20.03.2020
737 Clouds 0 1012 85 16093 12.3 210 13:36 20.03.2020
738 Clouds -1 1012 86 16093 12.3 210 13:18 20.03.2020
739 Clouds 0 1011 86 16093 12.3 210 12:39 20.03.2020
740 Clouds 0 1011 86 16093 12.3 210 12:20 20.03.2020
741 Clouds -1 1010 86 16093 13.4 210 11:42 20.03.2020
742 Clouds 0 1010 86 16093 13.4 210 11:22 20.03.2020
743 Clouds 0 1009 86 16093 14.4 210 10:59 20.03.2020
744 Clouds 0 1009 86 16093 14.4 210 10:41 20.03.2020
745 Clouds 0 1009 86 16093 14.4 210 10:20 20.03.2020
746 Clouds 0 1008 86 16093 13.4 210 09:47 20.03.2020
747 Clouds 0 1008 86 16093 12.3 210 09:21 20.03.2020
748 Clouds 1 1007 80 16093 11.8 210 08:59 20.03.2020
749 Clouds 1 1007 80 16093 11.8 210 08:40 20.03.2020
750 Clouds 1 1007 80 16093 11.8 210 08:19 20.03.2020
751 Clouds 1 1007 80 16093 11.3 210 07:46 20.03.2020
752 Clouds 1 1006 80 14484 11.8 210 07:26 20.03.2020
753 Snow 1 1006 80 9656 12.3 210 06:49 20.03.2020
754 Snow 1 1006 80 9656 12.3 210 06:31 20.03.2020
755 Snow 2 1003 74 2012 11.3 200 04:49 20.03.2020
756 Snow 1 1002 80 2012 11.8 210 03:19 20.03.2020
757 Snow 1 1001 80 1609 9.8 180 01:51 20.03.2020
758 Mist 1 1002 80 9656 10.8 180 00:46 20.03.2020
759 Mist 1 1002 80 9656 10.8 180 00:26 20.03.2020
760 Snow 2 1002 74 14484 11.8 170 23:45 19.03.2020
761 Snow 2 1002 74 14484 11.8 170 23:26 19.03.2020
762 Snow 2 1002 74 6437 9.3 170 22:56 19.03.2020
763 Snow 2 1002 74 6437 9.3 170 22:38 19.03.2020
764 Snow 2 1002 74 6437 9.3 170 22:18 19.03.2020
765 Clouds 2 1003 74 16093 9.3 170 21:41 19.03.2020
766 Clouds 2 1003 74 16093 9.3 170 21:20 19.03.2020
767 Snow 1 1003 86 12874 9.3 160 20:58 19.03.2020
768 Snow 1 1003 86 12874 9.3 160 20:39 19.03.2020
769 Snow 1 1003 86 12874 9.3 160 20:20 19.03.2020
770 Snow 1 1003 86 12874 9.8 160 19:55 19.03.2020
771 Snow 1 1003 86 12874 9.8 160 19:37 19.03.2020
772 Snow 1 1003 86 8047 9.3 160 19:18 19.03.2020
773 Clouds 0 1003 93 12874 9.3 170 18:42 19.03.2020
774 Clouds 0 1003 93 12874 9.3 170 18:22 19.03.2020
775 Clouds 0 1003 93 12874 9.3 170 17:58 19.03.2020
776 Clouds 1 1003 86 16093 10.3 170 17:39 19.03.2020
777 Clouds 1 1003 86 16093 9.3 170 17:18 19.03.2020
778 Clouds 1 1003 86 16093 9.3 170 16:43 19.03.2020
779 Clouds 1 1004 87 16093 10.8 180 16:22 19.03.2020
780 Clouds 1 1004 87 16093 9.8 180 15:45 19.03.2020
781 Clouds 1 1004 87 16093 7.7 170 15:26 19.03.2020
782 Snow 0 1004 87 4023 9.3 190 14:55 19.03.2020
783 Snow 0 1004 87 4023 9.3 190 14:37 19.03.2020
784 Rain 1 1004 96 11265 9.8 190 14:18 19.03.2020
785 Clouds 1 1004 96 16093 9.3 170 13:39 19.03.2020
786 Clouds 1 1004 96 16093 9.3 170 13:19 19.03.2020
787 Snow 1 1004 97 4828 8.7 170 12:55 19.03.2020
788 Snow 1 1004 97 4828 8.7 170 12:37 19.03.2020
789 Snow 1 1004 97 4828 8.7 170 12:18 19.03.2020
790 Snow 0 1005 97 2816 9.8 170 11:41 19.03.2020
791 Snow 1 1005 97 2816 9.8 170 11:23 19.03.2020
792 Rain 1 1005 99 4828 9.8 160 10:56 19.03.2020
793 Rain 1 1006 99 2012 9.8 160 10:36 19.03.2020
794 Rain 1 1006 99 2012 9.8 160 10:18 19.03.2020
795 Snow 0 1006 99 2414 9.3 160 09:42 19.03.2020
796 Snow 0 1006 99 2414 9.3 160 09:24 19.03.2020
797 Snow 0 1007 99 2816 10.8 150 08:48 19.03.2020
798 Snow 0 1007 99 2816 10.8 150 08:23 19.03.2020
799 Snow 0 1008 98 4023 9.8 150 07:57 19.03.2020
800 Snow 0 1008 98 4023 9.8 150 07:38 19.03.2020
801 -273 0 0 0 0 0 07:18 19.03.2020
802 Snow 0 1009 98 1609 10.8 140 06:23 19.03.2020
803 Snow -1 1010 92 1207 8.7 130 05:24 19.03.2020
804 Snow -1 1011 92 1207 9.3 140 04:46 19.03.2020
805 Snow -2 1012 92 1207 8.7 140 03:44 19.03.2020
806 Clouds -2 1015 86 16093 8.2 130 01:46 19.03.2020
807 Clouds -2 1016 79 16093 9.3 110 00:42 19.03.2020
808 Clouds -2 1016 79 16093 9.3 110 00:19 19.03.2020
809 Clouds -2 1017 74 14484 10.8 100 23:42 18.03.2020
810 Clouds -2 1017 74 14484 10.8 100 23:22 18.03.2020
811 Clouds -2 1018 74 16093 8.7 100 22:43 18.03.2020
812 Clouds -2 1018 74 16093 8.7 100 22:23 18.03.2020
813 Clouds -2 1019 74 16093 7.7 120 21:55 18.03.2020
814 Clouds -3 1019 74 16093 7.7 120 21:37 18.03.2020
815 Clouds -3 1019 74 16093 7.7 120 21:19 18.03.2020
816 Clouds -3 1019 74 16093 6.7 100 20:55 18.03.2020
817 Clouds -3 1019 74 16093 6.7 100 20:37 18.03.2020
818 Clouds -3 1019 74 16093 6.7 100 20:18 18.03.2020
819 Clouds -4 1020 95 16093 5.1 110 19:40 18.03.2020
820 Clouds -4 1020 95 16093 5.1 110 19:21 18.03.2020
821 Clouds -3 1020 80 16093 3.6 150 18:56 18.03.2020
822 Clouds -2 1020 80 16093 3.6 150 18:38 18.03.2020
823 Clouds -2 1020 80 16093 3.6 150 18:19 18.03.2020
824 Clouds -2 1020 80 16093 3.6 150 17:54 18.03.2020
825 Clouds -3 1020 92 16093 3.6 170 17:36 18.03.2020
826 Clouds -2 1020 92 16093 3.6 170 17:18 18.03.2020
827 Clouds -7 1018 97 0 2.3 182 16:42 18.03.2020
828 Clouds -3 1019 97 16093 3.6 190 16:20 18.03.2020
829 Clouds -3 1019 97 16093 3.6 190 16:20 18.03.2020
830 Clouds -2 1019 97 16093 3.1 210 15:57 18.03.2020
831 Clouds -7 1018 97 0 2.3 182 15:38 18.03.2020
832 Clouds -2 1019 97 16093 3.1 210 15:19 18.03.2020
833 Clouds -2 1018 97 16093 3.6 220 14:42 18.03.2020
834 Clouds -2 1018 97 16093 3.6 220 14:21 18.03.2020
835 Clouds -2 1018 97 16093 3.6 220 14:21 18.03.2020
836 Clouds -2 1018 92 16093 3.6 230 13:41 18.03.2020
837 Clouds -2 1018 92 16093 3.6 230 13:19 18.03.2020
838 Clouds -2 1017 92 16093 5.1 230 12:54 18.03.2020
839 Clouds -2 1017 92 16093 5.1 230 12:36 18.03.2020
840 Clouds -2 1016 92 16093 5.1 230 12:18 18.03.2020
841 Clouds -2 1016 92 16093 5.1 230 12:18 18.03.2020
842 Clouds -2 1016 92 16093 5.1 230 11:38 18.03.2020
843 Clouds -2 1016 94 16093 5.1 230 11:19 18.03.2020
844 Clouds -1 1015 94 16093 7.2 260 10:56 18.03.2020
845 Clouds -1 1015 94 16093 7.2 260 10:37 18.03.2020
846 Clouds -1 1015 94 16093 7.2 260 10:18 18.03.2020
847 Clouds -1 1015 94 16093 7.2 260 10:18 18.03.2020
848 Clouds -1 1013 94 14484 9.3 270 09:42 18.03.2020
849 Clouds -1 1013 94 14484 9.3 270 09:23 18.03.2020
850 Snow -1 1013 94 6437 8.7 270 08:55 18.03.2020
851 Snow -2 1013 94 6437 8.7 270 08:37 18.03.2020
852 Snow -2 1012 86 4828 8.2 260 08:19 18.03.2020
853 Mist -2 1012 86 9656 7.7 260 07:41 18.03.2020
854 Clouds -2 1011 86 16093 8.2 250 07:23 18.03.2020
855 Clouds -2 1009 92 16093 6.7 260 06:43 18.03.2020
856 Clouds -1 1009 92 16093 7.7 260 05:53 18.03.2020
857 Clouds -1 1007 92 16093 6.2 270 05:19 18.03.2020
858 Snow -1 1006 92 1609 5.7 260 03:53 18.03.2020
859 Snow -1 1005 92 4828 1.55 218 02:37 18.03.2020
860 Mist -1 1004 92 3219 3.6 90 01:46 18.03.2020
861 Snow -1 1004 92 2414 4.6 80 01:20 18.03.2020
862 Snow -1 1004 92 4023 5.7 90 00:23 18.03.2020
863 Snow -1 1004 86 1609 6.2 80 23:43 17.03.2020
864 Snow -1 1004 86 1609 6.7 80 23:23 17.03.2020
865 Snow -1 1004 86 2012 6.7 90 22:47 17.03.2020
866 Snow -1 1004 86 2012 6.7 90 22:28 17.03.2020
867 Snow -2 1005 92 1609 6.7 90 21:57 17.03.2020
868 Snow -3 1005 92 1609 6.7 90 21:37 17.03.2020
869 Snow -3 1005 92 1609 7.7 90 21:19 17.03.2020
870 Snow -3 1006 92 1207 7.2 90 20:38 17.03.2020
871 Snow -3 1006 92 1207 7.2 90 20:20 17.03.2020
872 Snow -3 1007 86 1207 8.2 90 19:54 17.03.2020
873 Snow -3 1007 86 2012 8.2 90 19:36 17.03.2020
874 Snow -3 1007 86 2012 8.2 90 19:18 17.03.2020
875 Clouds -2 1008 74 16093 7.7 80 18:54 17.03.2020
876 Clouds -2 1008 74 16093 7.7 80 18:36 17.03.2020
877 Clouds -2 1008 74 16093 7.7 80 18:36 17.03.2020
878 Clouds -2 1008 74 16093 7.7 80 18:18 17.03.2020
879 Clouds -3 1010 79 16093 7.2 80 17:39 17.03.2020
880 Clouds -3 1010 79 16093 7.2 80 17:20 17.03.2020
881 Clouds -3 1011 92 16093 9.3 70 16:44 17.03.2020
882 Clouds -3 1011 92 16093 9.3 70 16:20 17.03.2020
883 Clouds -3 1013 92 16093 6.7 70 15:56 17.03.2020
884 Clouds -3 1013 92 16093 6.7 70 15:38 17.03.2020
885 Clouds -3 1013 92 16093 6.7 70 15:18 17.03.2020
886 Clouds -3 1014 92 16093 7.7 80 14:41 17.03.2020
887 Clouds -3 1014 93 16093 7.7 80 14:18 17.03.2020
888 Clouds -3 1016 93 16093 7.7 90 13:43 17.03.2020
889 Clouds -3 1016 93 16093 7.7 90 13:24 17.03.2020
890 Clouds -3 1017 93 16093 7.2 80 12:48 17.03.2020
891 Clouds -3 1017 93 16093 7.2 80 12:26 17.03.2020
892 Clear -4 1018 93 16093 7.2 70 11:59 17.03.2020
893 Clear -4 1018 93 16093 7.2 70 11:40 17.03.2020
894 Clear -4 1018 93 16093 7.2 70 11:22 17.03.2020
895 Clear -4 1019 93 16093 6.7 70 10:56 17.03.2020
896 Clear -4 1019 93 16093 6.7 70 10:37 17.03.2020
897 Clear -4 1019 95 16093 6.7 70 10:18 17.03.2020
898 Clear -3 1020 95 16093 5.1 80 09:45 17.03.2020
899 Clear -3 1020 95 16093 5.1 80 09:20 17.03.2020
900 Clouds -2 1021 86 16093 5.1 80 08:58 17.03.2020
901 Clouds -2 1021 86 16093 5.1 80 08:40 17.03.2020
902 Clouds -2 1021 86 16093 5.1 80 08:18 17.03.2020
903 Clouds -2 1022 86 16093 5.1 80 07:49 17.03.2020
904 Clouds -2 1022 86 16093 5.1 80 07:21 17.03.2020
905 Clouds -2 1023 86 16093 5.1 80 06:49 17.03.2020
906 Clouds -2 1023 86 16093 5.1 80 06:25 17.03.2020
907 Clouds -1 1024 86 16093 5.7 80 05:26 17.03.2020
908 Clouds -1 1026 86 16093 5.7 90 03:34 17.03.2020
909 Clouds -1 1027 92 14484 5.7 90 02:31 17.03.2020
910 Clouds -1 1028 92 16093 4.6 80 01:38 17.03.2020
911 Snow -1 1028 92 8047 5.1 80 00:54 17.03.2020
912 Snow -1 1028 92 8047 5.1 80 00:19 17.03.2020
913 Mist -2 1029 96 1609 4.6 90 23:38 16.03.2020
914 Mist -2 1029 96 1609 4.6 90 23:19 16.03.2020
915 Mist -1 1029 92 1207 3.6 90 22:38 16.03.2020
916 Fog -2 1029 96 805 3.1 100 22:20 16.03.2020
917 Fog -2 1029 96 402 2.6 80 21:45 16.03.2020
918 Fog -2 1029 92 805 2.6 90 21:27 16.03.2020
919 Fog -2 1029 92 805 2.6 100 20:59 16.03.2020
920 Fog -2 1029 92 805 2.6 100 20:40 16.03.2020
921 Mist -2 1029 92 1609 2.6 80 20:21 16.03.2020
922 Mist -2 1029 92 1207 2.6 90 19:46 16.03.2020
923 Clouds -3 1029 100 16093 2.1 100 19:25 16.03.2020
924 Clouds -3 1029 100 14484 2.1 70 18:59 16.03.2020
925 Clouds -3 1029 100 14484 2.1 70 18:39 16.03.2020
926 Clouds -3 1029 100 14484 2.1 70 18:20 16.03.2020
927 Snow -3 1029 92 4828 1.5 70 17:46 16.03.2020
928 Fog 0 1029 69 805 1.49 134 17:25 16.03.2020
929 Mist -2 1029 80 2414 1.99 164 16:57 16.03.2020
930 Mist -2 1029 80 2414 1.99 164 16:39 16.03.2020
931 Mist -2 1029 80 2414 1.99 164 16:39 16.03.2020
932 Mist -4 1029 98 2012 1.99 164 16:20 16.03.2020
933 Clouds -2 1029 98 0 1.99 164 15:43 16.03.2020
934 Clouds -2 1029 98 0 1.99 164 15:23 16.03.2020
935 Clouds -2 1029 98 0 1.99 164 14:47 16.03.2020
936 Clouds -1 1029 98 0 1.26 178 14:23 16.03.2020
937 Clouds -1 1029 98 0 1.26 178 13:48 16.03.2020
938 Clouds -1 1029 98 0 1.64 219 13:28 16.03.2020
939 Clouds -1 1029 98 0 1.64 219 12:58 16.03.2020
940 Clouds -1 1029 98 0 1.64 219 12:39 16.03.2020
941 Clouds -1 1029 98 0 1.64 219 12:20 16.03.2020
942 Clouds -1 1029 98 0 1.64 219 11:43 16.03.2020
943 Clouds -1 1029 98 0 1.64 219 11:25 16.03.2020
944 Snow -1 1028 98 0 2.34 211 10:45 16.03.2020
945 Snow -1 1028 98 0 2.34 211 10:24 16.03.2020
946 Snow -1 1028 98 0 2.34 211 09:59 16.03.2020
947 Snow -1 1028 98 0 2.34 211 09:38 16.03.2020
948 Snow -1 1028 98 0 2.34 211 09:19 16.03.2020
949 Snow -1 1028 98 0 2.34 211 08:43 16.03.2020
950 Snow -1 1028 98 0 2.34 211 08:23 16.03.2020
951 Snow -1 1027 98 0 2.11 207 07:43 16.03.2020
952 Snow -1 1027 98 0 2.11 207 07:21 16.03.2020
953 Snow -1 1027 98 0 2.11 207 06:41 16.03.2020
954 Snow -1 1027 98 0 2.11 207 06:22 16.03.2020
955 Snow -1 1025 98 0 3.47 193 04:26 16.03.2020
956 Snow -2 1026 97 0 3.77 170 01:47 16.03.2020
957 Snow -2 1025 96 0 3.19 161 00:45 16.03.2020
958 Snow -2 1025 96 0 3.19 161 00:27 16.03.2020
959 Snow -2 1027 92 2012 3.6 130 23:40 15.03.2020
960 Snow -2 1027 92 2012 3.6 130 23:19 15.03.2020
961 Snow -2 1027 92 2816 4.6 140 22:42 15.03.2020
962 Snow -2 1027 92 2816 4.6 140 22:21 15.03.2020
963 Snow -3 1027 100 2414 5.1 150 21:39 15.03.2020
964 Snow -3 1027 100 2414 5.1 150 21:21 15.03.2020
965 Snow -3 1027 100 2012 6.2 150 20:58 15.03.2020
966 Snow -3 1027 100 2012 6.2 150 20:40 15.03.2020
967 Snow -3 1027 100 2012 6.2 150 20:19 15.03.2020
968 Snow -1 1027 92 2012 5.7 150 19:55 15.03.2020
969 Snow -1 1027 92 2012 5.7 150 19:55 15.03.2020
970 Snow -1 1027 92 2012 5.7 150 19:37 15.03.2020
971 Snow -1 1027 92 2012 5.7 150 19:18 15.03.2020
972 Snow -4 1026 97 0 2.57 140 18:55 15.03.2020
973 Snow -4 1026 97 0 2.57 140 18:36 15.03.2020
974 Snow -4 1026 97 0 2.57 140 18:18 15.03.2020
975 Snow -2 1028 100 2012 6.7 150 17:40 15.03.2020
976 Snow -2 1028 100 2012 6.7 150 17:20 15.03.2020
977 Snow -3 1027 97 0 2.92 125 16:56 15.03.2020
978 Snow -3 1027 97 0 2.92 125 16:37 15.03.2020
979 Snow -3 1027 97 0 2.92 125 16:18 15.03.2020
980 Snow -3 1027 97 0 2.92 125 15:43 15.03.2020
981 Snow -3 1027 97 0 2.92 125 15:25 15.03.2020
982 Snow -3 1027 97 0 2.92 125 14:47 15.03.2020
983 Snow -3 1027 97 0 2.92 125 14:28 15.03.2020
984 Snow -2 1029 97 0 3.47 126 13:59 15.03.2020
985 Snow -2 1029 97 0 3.47 126 13:40 15.03.2020
986 Snow -2 1028 97 0 3.76 128 13:21 15.03.2020
987 Snow -2 1028 97 0 3.76 128 12:58 15.03.2020
988 Snow -2 1028 97 0 3.76 128 12:38 15.03.2020
989 Snow -2 1028 97 0 3.76 128 12:20 15.03.2020
990 Snow -2 1028 97 0 3.76 128 11:42 15.03.2020
991 Snow -2 1028 97 0 3.76 128 11:22 15.03.2020
992 Snow -2 1030 97 0 5.14 117 10:57 15.03.2020
993 Snow -2 1030 97 0 5.14 117 10:38 15.03.2020
994 Snow -2 1030 97 0 5.14 117 10:20 15.03.2020
995 Snow -2 1030 97 0 5.14 117 09:42 15.03.2020
996 Snow -2 1030 97 0 5.14 117 09:22 15.03.2020
997 Snow -2 1030 97 0 5.14 117 08:58 15.03.2020
998 Snow -2 1030 97 0 5.14 117 08:39 15.03.2020
999 Snow -1 1030 97 0 5.08 109 08:18 15.03.2020
1000 Snow -1 1030 97 0 5.08 109 07:44 15.03.2020
1001 Snow -1 1030 97 0 5.08 109 06:55 15.03.2020
1002 Snow -1 1030 97 0 5.08 109 06:34 15.03.2020
1003 Snow -1 1030 97 0 5.08 109 05:46 15.03.2020
1004 Snow -1 1032 92 1609 5.7 100 04:49 15.03.2020
1005 Snow -1 1032 92 1609 5.7 100 04:29 15.03.2020
1006 Snow 0 1031 98 0 4.16 96 03:55 15.03.2020
1007 Snow 0 1031 98 0 4.16 96 02:48 15.03.2020
1008 Snow 0 1033 99 0 2.01 113 01:50 15.03.2020
1009 Snow -1 1033 100 2012 4.6 90 00:51 15.03.2020
1010 Snow -1 1033 100 2012 4.6 90 00:51 15.03.2020
1011 Snow -1 1033 100 2012 4.6 90 00:28 15.03.2020
1012 Snow -1 1033 100 3219 4.6 90 23:58 14.03.2020
1013 Snow 0 1033 99 3219 4.1 80 23:37 14.03.2020
1014 Snow 0 1033 99 3219 4.1 80 23:19 14.03.2020
1015 Snow 0 1033 99 2012 2.6 80 22:44 14.03.2020
1016 Snow 0 1033 99 1207 2.6 80 22:26 14.03.2020
1017 Snow 1 1032 99 0 1.93 113 21:57 14.03.2020
1018 Snow 1 1032 99 0 1.93 113 21:37 14.03.2020
1019 Fog 0 1033 99 0 2.1 90 21:19 14.03.2020
1020 Fog 0 1033 99 0 2.1 90 21:19 14.03.2020
1021 Fog 0 1033 99 0 2.1 90 21:19 14.03.2020
1022 Fog 0 1033 99 402 2.1 100 20:59 14.03.2020
1023 Fog 0 1033 99 402 2.1 100 20:41 14.03.2020
1024 Fog -1 1032 100 402 0.32 327 20:20 14.03.2020
1025 Snow 0 1031 98 0 0.32 327 19:59 14.03.2020
1026 Snow 0 1031 98 0 0.32 327 19:40 14.03.2020
1027 Snow 0 1031 98 0 0.32 327 19:20 14.03.2020
1028 Fog 0 1031 98 805 0.32 327 18:39 14.03.2020
1029 Fog 0 1031 98 805 0.32 327 18:20 14.03.2020
1030 Snow 0 1031 98 0 0.32 327 17:41 14.03.2020
1031 Snow 0 1031 98 0 0.32 327 17:21 14.03.2020
1032 Snow 1 1028 98 0 3.77 214 16:58 14.03.2020
1033 Snow 1 1028 98 0 3.77 214 16:38 14.03.2020
1034 Snow 1 1028 98 0 3.77 214 16:18 14.03.2020
1035 Snow 1 1028 98 0 3.77 214 15:28 14.03.2020
1036 Snow 1 1028 98 0 3.77 214 14:59 14.03.2020
1037 Snow 1 1028 98 0 3.77 214 14:59 14.03.2020
1038 Snow 1 1028 98 0 3.77 214 14:39 14.03.2020
1039 Snow 0 1027 98 0 6.96 203 14:20 14.03.2020
1040 Snow 0 1027 98 0 6.96 203 13:56 14.03.2020
1041 Snow 0 1027 98 0 6.96 203 13:38 14.03.2020
1042 Snow 0 1027 98 0 6.96 203 13:19 14.03.2020
1043 Snow 1 1026 98 0 6.17 207 12:44 14.03.2020
1044 Snow 1 1026 98 0 6.17 207 12:25 14.03.2020
1045 Snow 1 1026 98 0 6.17 207 11:45 14.03.2020
1046 Snow 1 1026 98 0 6.17 207 11:26 14.03.2020
1047 Snow 0 1025 98 0 5.46 184 10:55 14.03.2020
1048 Snow 0 1025 98 0 5.46 184 10:36 14.03.2020
1049 Snow 0 1025 98 0 5.46 184 10:18 14.03.2020
1050 Snow 0 1025 98 0 5.46 184 09:41 14.03.2020
1051 Snow 0 1025 98 0 5.46 184 09:22 14.03.2020
1052 Snow 0 1025 98 0 5.46 184 08:47 14.03.2020
1053 Snow -1 1026 97 0 3.57 169 08:27 14.03.2020
1054 Rain 3 1026 86 3219 6.2 170 07:48 14.03.2020
1055 Snow 3 1027 86 2012 6.2 170 07:23 14.03.2020
1056 Rain 3 1026 97 805 5.1 160 06:59 14.03.2020
1057 Rain 1 1027 86 1207 5.7 150 06:39 14.03.2020
1058 Snow -1 1027 80 1207 6.7 150 04:57 14.03.2020
1059 Snow -3 1028 86 402 5.1 130 03:41 14.03.2020
1060 Snow -3 1028 86 402 5.1 130 03:20 14.03.2020
1061 Rain -4 1029 95 805 5.7 110 01:50 14.03.2020
1062 Snow -5 1029 85 1207 5.7 90 00:42 14.03.2020
1063 Mist -6 1030 95 16093 5.1 110 23:44 13.03.2020
1064 Mist -5 1030 85 9656 4.6 120 23:25 13.03.2020
1065 Mist -6 1030 92 4828 4.6 130 22:46 13.03.2020
1066 Mist -6 1030 92 8047 5.7 110 22:25 13.03.2020
1067 Clouds 2 1031 51 16093 4.1 110 21:42 13.03.2020
1068 Clouds 2 1031 51 16093 4.1 110 21:21 13.03.2020
1069 Clouds 0 1030 93 16093 8.7 190 20:57 13.03.2020
1070 Clouds 0 1030 93 16093 8.7 190 20:38 13.03.2020
1071 Clouds 0 1030 96 16093 8.7 190 20:19 13.03.2020
1072 Clouds 4 1030 41 16093 5.7 190 19:42 13.03.2020
1073 Clouds 4 1030 41 16093 5.7 190 19:23 13.03.2020
1074 Clouds 4 1030 41 16093 5.7 190 19:23 13.03.2020
1075 Clouds 3 1030 40 16093 2.6 170 18:44 13.03.2020
1076 Clouds 3 1030 40 16093 2.6 170 18:25 13.03.2020
1077 Clouds 1 1030 43 16093 3.1 160 17:55 13.03.2020
1078 Clouds 1 1030 43 16093 3.1 160 17:37 13.03.2020
1079 Clouds 1 1030 43 16093 3.1 160 17:18 13.03.2020
1080 Clouds -4 1029 46 16093 5.1 130 16:40 13.03.2020
1081 Clouds -3 1029 37 16093 3.6 110 16:22 13.03.2020
1082 Clouds -5 1029 92 16093 4.1 140 15:54 13.03.2020
1083 Clouds -4 1029 92 16093 4.1 140 15:36 13.03.2020
1084 Clouds -4 1029 92 16093 4.1 140 15:18 13.03.2020
1085 Clouds -3 1030 40 16093 3.6 120 14:40 13.03.2020
1086 Clouds -3 1030 40 16093 3.6 120 14:22 13.03.2020
1087 Clouds -3 1030 37 16093 3.1 150 13:55 13.03.2020
1088 Clouds -3 1030 43 16093 2.1 150 13:37 13.03.2020
1089 Clouds -3 1030 43 16093 2.1 150 13:18 13.03.2020
1090 Clouds -3 1030 43 16093 4.6 180 12:39 13.03.2020
1091 Clouds -3 1030 43 16093 4.6 180 12:21 13.03.2020
1092 Clear -4 1030 50 16093 6.7 170 11:57 13.03.2020
1093 Clear -4 1029 54 14484 10.8 170 11:37 13.03.2020
1094 Clear -6 1030 73 16093 8.7 180 11:19 13.03.2020
1095 Clear -6 1030 73 16093 8.7 180 10:47 13.03.2020
1096 Clear -6 1030 73 16093 8.7 180 10:26 13.03.2020
1097 Clear -6 1029 73 14484 10.3 170 09:56 13.03.2020
1098 Clear -6 1029 73 14484 10.3 170 09:38 13.03.2020
1099 Clear -6 1029 73 14484 10.3 170 09:20 13.03.2020
1100 Clear -5 1031 73 16093 8.2 170 08:42 13.03.2020
1101 Clear -5 1031 73 16093 8.2 170 08:22 13.03.2020
1102 Clear -5 1031 73 14484 9.3 170 07:47 13.03.2020
1103 Clear -5 1031 73 14484 9.3 170 07:27 13.03.2020
1104 Clouds -5 1031 79 11265 9.8 170 06:47 13.03.2020
1105 Clouds -6 1031 79 11265 9.8 170 06:26 13.03.2020
1106 Clouds -5 1031 85 11265 8.7 170 05:49 13.03.2020
1107 Clouds -6 1031 85 11265 8.7 170 05:20 13.03.2020
1108 Mist -6 1033 85 9656 8.7 170 04:37 13.03.2020
1109 Clouds -5 1033 79 14484 9.3 170 02:58 13.03.2020
1110 Clouds -4 1034 79 12874 8.2 170 01:45 13.03.2020
1111 Clouds -4 1034 79 12874 8.2 170 01:18 13.03.2020
1112 Clouds -4 1034 79 16093 6.2 150 00:47 13.03.2020
1113 Clouds -4 1034 79 16093 6.2 150 00:23 13.03.2020
1114 Clouds -4 1034 79 16093 6.2 150 23:48 12.03.2020
1115 Clouds -4 1034 79 16093 7.2 170 23:26 12.03.2020
1116 Clouds -4 1034 79 16093 7.2 160 22:56 12.03.2020
1117 Clouds -4 1034 79 16093 7.2 160 22:38 12.03.2020
1118 Clouds -4 1034 79 16093 7.2 160 22:19 12.03.2020
1119 Clouds -4 1034 79 16093 7.7 170 21:43 12.03.2020
1120 Clouds -4 1034 79 16093 7.7 170 21:24 12.03.2020
1121 Clouds -4 1034 79 16093 7.2 170 20:56 12.03.2020
1122 Clouds -4 1034 79 16093 7.2 170 20:37 12.03.2020
1123 Clouds -4 1034 79 16093 7.2 170 20:18 12.03.2020
1124 Clouds -4 1034 79 16093 8.2 170 19:39 12.03.2020
1125 Clouds -4 1034 79 16093 8.2 170 19:20 12.03.2020
1126 Clouds -4 1034 79 16093 8.2 170 19:20 12.03.2020
1127 Clouds -3 1034 79 14484 8.2 180 18:43 12.03.2020
1128 Clouds -3 1034 79 14484 8.2 180 18:24 12.03.2020
1129 Clouds -3 1034 79 14484 8.2 180 17:57 12.03.2020
1130 Clouds -3 1034 86 16093 6.7 170 17:37 12.03.2020
1131 Clouds -3 1034 86 16093 6.7 170 17:18 12.03.2020
1132 Mist -3 1034 86 9656 6.7 170 16:54 12.03.2020
1133 Clouds -3 1035 86 16093 5.1 180 16:36 12.03.2020
1134 Clouds -3 1035 86 16093 5.1 180 16:18 12.03.2020
1135 Clouds -4 1035 92 16093 3.1 130 15:41 12.03.2020
1136 Clouds -4 1035 92 16093 3.1 130 15:22 12.03.2020
1137 Clouds -6 1035 92 16093 3.1 110 14:39 12.03.2020
1138 Clouds -6 1035 92 16093 3.1 110 14:19 12.03.2020
1139 Snow -7 1036 85 12874 5.1 90 13:41 12.03.2020
1140 Snow -7 1036 85 12874 5.1 90 13:22 12.03.2020
1141 Snow -8 1036 92 8047 5.1 90 12:56 12.03.2020
1142 Snow -8 1036 92 8047 5.1 90 12:38 12.03.2020
1143 Snow -8 1036 92 8047 5.1 90 12:19 12.03.2020
1144 Snow -9 1036 85 1609 6.7 80 11:56 12.03.2020
1145 Snow -9 1036 85 2816 5.7 80 11:37 12.03.2020
1146 Snow -9 1036 85 2816 5.7 80 11:19 12.03.2020
1147 Snow -9 1036 85 2816 5.7 80 11:19 12.03.2020
1148 Snow -9 1036 85 3219 6.2 90 10:57 12.03.2020
1149 Snow -9 1036 85 3219 6.2 90 10:57 12.03.2020
1150 Snow -9 1036 85 3219 6.2 90 10:39 12.03.2020
1151 Snow -9 1036 85 3219 6.2 90 10:21 12.03.2020
1152 Clouds -10 1036 92 11265 6.2 80 09:43 12.03.2020
1153 Clouds -10 1036 92 11265 6.2 80 09:43 12.03.2020
1154 Clouds -10 1036 92 11265 6.2 80 09:25 12.03.2020
1155 Mist -10 1036 92 9656 6.2 90 08:41 12.03.2020
1156 Mist -11 1036 92 9656 6.2 90 08:20 12.03.2020
1157 Snow -11 1036 85 4828 7.7 90 07:53 12.03.2020
1158 Snow -11 1036 85 4828 7.7 90 07:23 12.03.2020
1159 Snow -12 1036 85 4828 6.7 80 06:52 12.03.2020
1160 Snow -12 1036 85 2012 6.7 80 05:41 12.03.2020
1161 Snow -12 1036 85 1207 5.7 80 04:29 12.03.2020
1162 Snow -12 1037 85 3219 5.1 120 02:38 12.03.2020
1163 Snow -13 1037 78 2414 4.1 110 01:31 12.03.2020
1164 Snow -13 1036 84 14484 3.6 150 00:44 12.03.2020
1165 Snow -13 1036 84 14484 3.6 150 00:26 12.03.2020
1166 Snow -13 1036 84 11265 3.1 150 23:45 11.03.2020
1167 Snow -13 1036 84 11265 3.1 150 23:24 11.03.2020
1168 Snow -13 1035 92 11265 3.6 190 22:48 11.03.2020
1169 Snow -13 1035 92 11265 3.6 190 22:29 11.03.2020
1170 Snow -13 1035 84 11265 2.1 0 21:59 11.03.2020
1171 Snow -13 1035 84 11265 2.1 0 21:59 11.03.2020
1172 Snow -13 1035 84 11265 2.1 0 21:41 11.03.2020
1173 Snow -14 1035 84 9656 2.6 150 21:22 11.03.2020
1174 Snow -14 1034 77 11265 2.1 110 20:58 11.03.2020
1175 Snow -14 1034 77 11265 2.1 110 20:39 11.03.2020
1176 Snow -14 1034 77 11265 2.1 110 20:19 11.03.2020
1177 Clouds -15 1033 84 16093 1.5 80 19:44 11.03.2020
1178 Clouds -15 1033 84 16093 1.5 80 19:25 11.03.2020
1179 Clouds -16 1032 84 16093 1.5 100 18:59 11.03.2020
1180 Clouds -16 1032 84 16093 1.5 100 18:40 11.03.2020
1181 Clouds -16 1032 84 16093 1.5 100 18:40 11.03.2020
1182 Clouds -16 1032 84 16093 1.5 100 18:21 11.03.2020
1183 Snow -16 1032 77 14484 0.89 94 17:58 11.03.2020
1184 Snow -16 1032 77 14484 0.89 94 17:39 11.03.2020
1185 Snow -16 1032 77 14484 0.78 80 17:20 11.03.2020
1186 Snow -17 1031 84 14484 0.78 80 16:46 11.03.2020
1187 Snow -17 1031 84 14484 0.78 80 16:23 11.03.2020
1188 Snow -17 1030 84 14484 0.78 80 15:57 11.03.2020
1189 Snow -17 1030 84 14484 0.78 80 15:39 11.03.2020
1190 Snow -17 1030 84 14484 0.78 80 15:21 11.03.2020
1191 Snow -16 1029 77 14484 0.78 80 14:42 11.03.2020
1192 Snow -16 1029 77 14484 0.78 80 14:22 11.03.2020
1193 Snow -15 1029 77 14484 1.52 73 13:45 11.03.2020
1194 Snow -15 1029 77 14484 1.52 73 13:27 11.03.2020
1195 Snow -16 1028 84 14484 1.78 68 12:58 11.03.2020
1196 Snow -16 1028 84 14484 1.78 68 12:40 11.03.2020
1197 Snow -16 1028 84 14484 1.78 68 12:20 11.03.2020
1198 Snow -16 1027 84 14484 1.78 68 11:55 11.03.2020
1199 Snow -16 1027 84 14484 1.78 68 11:36 11.03.2020
1200 Snow -16 1027 84 14484 2.25 61 11:18 11.03.2020
1201 Snow -16 1026 77 14484 2.6 350 10:42 11.03.2020
1202 Snow -16 1026 77 14484 2.6 350 10:18 11.03.2020
1203 Snow -16 1026 77 12874 2.25 61 09:43 11.03.2020
1204 Snow -16 1026 84 11265 2.25 61 09:25 11.03.2020
1205 Snow -16 1026 77 12874 2.6 10 08:58 11.03.2020
1206 Snow -16 1026 77 12874 2.6 10 08:39 11.03.2020
1207 Snow -16 1026 77 12874 2.6 10 08:18 11.03.2020
1208 Snow -16 1025 84 4828 2.1 360 07:42 11.03.2020
1209 Snow -16 1025 84 4828 2.1 360 07:19 11.03.2020
1210 Snow -16 1025 77 4828 3.6 70 06:43 11.03.2020
1211 Snow -17 1024 77 4828 5.1 80 05:36 11.03.2020
1212 Snow -17 1024 77 3219 4.1 80 04:29 11.03.2020
1213 Snow -17 1024 77 4828 4.6 90 02:20 11.03.2020
1214 Snow -17 1023 77 4828 4.1 80 01:27 11.03.2020
1215 Snow -17 1024 77 2414 2.6 100 00:46 11.03.2020
1216 Snow -18 1023 84 4828 2.1 100 23:58 10.03.2020
1217 Snow -18 1023 84 4828 2.1 100 23:40 10.03.2020
1218 Snow -18 1023 84 4828 2.1 100 23:21 10.03.2020
1219 Snow -18 1023 77 4828 2.6 110 22:39 10.03.2020
1220 Snow -18 1022 84 4828 1 182 22:20 10.03.2020
1221 Snow -18 1022 84 4828 1 182 22:20 10.03.2020
1222 Clouds -18 1022 77 14484 1 182 21:57 10.03.2020
1223 Clouds -18 1022 77 14484 1 182 21:57 10.03.2020
1224 Clouds -18 1022 77 14484 1 182 21:38 10.03.2020
1225 Clouds -18 1022 77 14484 1 182 21:38 10.03.2020
1226 Clouds -18 1022 77 14484 1 182 21:20 10.03.2020
1227 Clouds -19 1022 84 16093 1 182 20:58 10.03.2020
1228 Clouds -19 1022 84 16093 1 182 20:40 10.03.2020
1229 Clouds -19 1022 84 16093 1.26 235 20:18 10.03.2020
1230 Snow -21 1022 83 16093 0.93 222 19:56 10.03.2020
1231 Snow -21 1022 83 16093 0.93 222 19:37 10.03.2020
1232 Snow -21 1022 83 16093 0.93 222 19:19 10.03.2020
1233 Snow -21 1022 76 16093 0.93 222 18:44 10.03.2020
1234 Clouds -22 1021 83 16093 0.93 222 18:25 10.03.2020
1235 Clouds -23 1021 76 12874 0.93 222 17:57 10.03.2020
1236 Clouds -23 1021 76 12874 0.93 222 17:38 10.03.2020
1237 Clouds -23 1021 76 12874 1.28 265 17:20 10.03.2020
1238 Clouds -24 1021 75 16093 1.28 265 16:39 10.03.2020
1239 Clouds -24 1021 75 16093 1.28 265 16:19 10.03.2020
1240 Clouds -26 1020 82 16093 1.28 265 15:55 10.03.2020
1241 Clouds -26 1020 82 16093 1.28 265 15:55 10.03.2020
1242 Clouds -26 1020 82 16093 1.28 265 15:37 10.03.2020
1243 -273 0 0 0 0 0 15:37 10.03.2020
1244 Clouds -27 1020 82 16093 1.28 265 15:19 10.03.2020
1245 Clouds -32 1020 82 16093 1.28 265 14:41 10.03.2020
1246 Clouds -32 1020 82 16093 1.33 285 14:20 10.03.2020
1247 Clear -32 1019 82 16093 1.33 285 13:57 10.03.2020
1248 Clear -32 1019 82 16093 1.33 285 13:38 10.03.2020
1249 Clear -32 1019 82 16093 0.95 289 13:19 10.03.2020
1250 Clear -30 1019 74 16093 0.95 289 12:41 10.03.2020
1251 Clear -30 1019 74 16093 0.95 289 12:19 10.03.2020
1252 Clear -31 1019 74 16093 2.1 20 11:58 10.03.2020
1253 Clear -31 1019 74 16093 2.1 20 11:40 10.03.2020
1254 Clear -31 1019 74 16093 2.1 20 11:22 10.03.2020
1255 Clear -30 1019 82 16093 0.41 228 10:42 10.03.2020
1256 Clear -30 1019 82 16093 0.41 228 10:23 10.03.2020
1257 Clear -30 1019 82 16093 1.5 270 09:57 10.03.2020
1258 Clear -30 1019 82 16093 1.5 270 09:39 10.03.2020
1259 Clear -30 1019 82 16093 1.5 270 09:19 10.03.2020
1260 Clear -27 1018 75 16093 1.5 360 08:51 10.03.2020
1261 Clear -28 1018 75 16093 1.5 360 08:32 10.03.2020
1262 Clear -27 1017 75 16093 1.5 10 07:50 10.03.2020
1263 Clear -26 1017 75 16093 1.5 10 07:31 10.03.2020
1264 Clear -26 1017 68 16093 0.6 37 06:47 10.03.2020
1265 Clear -26 1017 68 16093 0.6 37 06:28 10.03.2020
1266 Clear -21 1016 69 16093 0.6 37 05:41 10.03.2020
1267 Clear -18 1016 59 16093 0.96 323 04:48 10.03.2020
1268 Clear -18 1016 59 16093 0.96 323 04:48 10.03.2020
1269 Clear -17 1016 64 16093 0.96 323 03:55 10.03.2020
1270 Clear -19 1016 64 16093 0.96 323 02:27 10.03.2020
1271 Clear -20 1015 58 16093 1.5 290 01:25 10.03.2020
1272 Clear -20 1015 64 16093 1.13 300 00:42 10.03.2020
1273 Clear -19 1015 64 16093 1.13 300 00:23 10.03.2020
1274 Clear -21 1015 83 16093 1.13 300 23:41 09.03.2020
1275 Clear -21 1015 83 16093 1.13 300 23:21 09.03.2020
1276 Clear -22 1015 83 16093 1.33 349 22:43 09.03.2020
1277 Clear -23 1015 83 16093 1.33 349 22:22 09.03.2020
1278 Clear -24 1014 82 16093 1.33 349 21:59 09.03.2020
1279 Clear -25 1014 82 16093 1.33 349 21:40 09.03.2020
1280 Clear -25 1014 82 16093 1.33 349 21:20 09.03.2020
1281 Clear -26 1014 100 16093 1.5 150 20:56 09.03.2020
1282 Clear -26 1014 100 16093 1.5 150 20:56 09.03.2020
1283 Clear -27 1014 100 16093 1.5 150 20:38 09.03.2020
1284 Clear -27 1014 100 16093 1.5 150 20:20 09.03.2020
1285 Clear -31 1013 82 16093 1.57 9 19:44 09.03.2020
1286 Clear -31 1013 82 16093 1.57 9 19:25 09.03.2020
1287 Clear -30 1013 74 16093 1.57 9 18:58 09.03.2020
1288 Clear -30 1013 74 16093 1.57 9 18:58 09.03.2020
1289 Clear -30 1013 74 16093 1.57 9 18:38 09.03.2020
1290 Clear -30 1013 74 16093 1.57 9 18:19 09.03.2020
1291 Clear -31 1013 74 16093 1.57 9 17:57 09.03.2020
1292 Clear -31 1013 74 16093 1.57 9 17:38 09.03.2020
1293 Clear -31 1013 74 16093 1.73 7 17:20 09.03.2020
1294 Clear -31 1012 74 16093 1.73 7 16:58 09.03.2020
1295 Clear -31 1012 74 16093 1.73 7 16:58 09.03.2020
1296 Clear -31 1012 74 16093 1.73 7 16:39 09.03.2020
1297 Clear -29 1012 68 16093 1.73 7 16:21 09.03.2020
1298 Clear -29 1012 68 16093 1.73 7 15:58 09.03.2020
1299 Clear -29 1012 68 16093 1.73 7 15:38 09.03.2020
1300 Clear -29 1012 68 16093 1.73 7 15:19 09.03.2020
1301 Clear -31 1012 82 16093 1.5 330 14:54 09.03.2020
1302 Clear -31 1012 82 16093 1.5 330 14:36 09.03.2020
1303 Clear -31 1012 82 16093 1.5 330 14:36 09.03.2020
1304 Clear -31 1012 82 16093 1.5 330 14:18 09.03.2020
1305 Clear -29 1012 82 16093 2.19 15 13:54 09.03.2020
1306 Clear -29 1012 82 16093 2.19 15 13:36 09.03.2020
1307 Clear -29 1012 82 16093 2.19 15 13:18 09.03.2020
1308 Clear -29 1012 82 16093 1.5 340 12:41 09.03.2020
1309 Clear -29 1012 82 16093 1.5 340 12:21 09.03.2020
1310 Clear -28 1012 75 16093 2.02 11 11:41 09.03.2020
1311 Clear -28 1012 75 16093 2.02 11 11:21 09.03.2020
1312 Clear -30 1012 82 16093 2.47 14 10:58 09.03.2020
1313 Clear -30 1012 82 16093 2.47 14 10:40 09.03.2020
1314 Clear -30 1012 82 16093 2.47 14 10:20 09.03.2020
1315 Clear -29 1011 75 16093 2.47 14 09:44 09.03.2020
1316 Clear -29 1011 75 16093 2.47 14 09:24 09.03.2020
1317 Clear -27 1011 82 16093 2.47 14 08:59 09.03.2020
1318 Clear -27 1011 82 16093 2.47 14 08:41 09.03.2020
1319 Clear -27 1011 82 16093 2.72 13 08:23 09.03.2020
1320 Mist -26 1011 83 9656 3.15 19 07:41 09.03.2020
1321 Mist -26 1011 83 9656 3.15 19 07:21 09.03.2020
1322 Fog -23 1011 76 9656 3.15 19 06:43 09.03.2020
1323 Fog -23 1011 76 9656 3.15 19 06:24 09.03.2020
1324 Clear -23 1011 76 16093 3.15 19 05:47 09.03.2020
1325 Mist -21 1011 83 6437 1.24 30 05:20 09.03.2020
1326 Mist -19 1011 84 9656 1.24 30 04:40 09.03.2020
1327 Mist -19 1011 84 9656 1.24 30 04:21 09.03.2020
1328 Clear -17 1011 84 16093 1.24 30 02:58 09.03.2020
1329 Clouds -17 1011 77 16093 2.1 280 01:26 09.03.2020
1330 Clouds -19 1011 84 16093 1.05 344 00:38 09.03.2020
1331 Clouds -19 1011 84 16093 1.05 344 00:20 09.03.2020
1332 Clouds -18 1011 91 16093 1.05 344 23:47 08.03.2020
1333 Clouds -18 1011 91 16093 1.05 344 23:21 08.03.2020
1334 Clouds -20 1010 91 16093 1.15 11 22:56 08.03.2020
1335 Clouds -20 1010 91 16093 1.15 11 22:38 08.03.2020
1336 Clouds -20 1010 91 16093 1.15 11 22:18 08.03.2020
1337 Clouds -21 1010 83 16093 1.15 11 21:54 08.03.2020
1338 Clouds -21 1010 83 16093 1.15 11 21:36 08.03.2020
1339 Clouds -21 1010 83 16093 1.15 11 21:18 08.03.2020
1340 Clouds -23 1010 91 16093 1.15 11 20:39 08.03.2020
1341 Clouds -23 1010 91 16093 1.19 23 20:21 08.03.2020
1342 Clouds -23 1010 91 16093 1.7 31 19:54 08.03.2020
1343 Clouds -24 1010 83 14484 1.7 31 19:36 08.03.2020
1344 Clouds -24 1010 83 14484 1.7 31 19:18 08.03.2020
1345 Clouds -25 1010 75 16093 1.7 31 18:40 08.03.2020
1346 Clouds -25 1010 75 16093 1.7 31 18:22 08.03.2020
1347 Clouds -21 1011 85 0 1.7 31 17:56 08.03.2020
1348 Clouds -21 1011 85 0 1.7 31 17:37 08.03.2020
1349 Clouds -23 1009 76 16093 1.88 22 17:18 08.03.2020
1350 Clouds -23 1009 76 16093 1.88 22 16:43 08.03.2020
1351 Clouds -23 1009 76 16093 1.88 22 16:25 08.03.2020
1352 Snow -21 1009 83 4828 1.88 22 15:56 08.03.2020
1353 Snow -21 1009 83 4828 1.88 22 15:37 08.03.2020
1354 Snow -21 1009 83 4828 1.88 22 15:18 08.03.2020
1355 Clouds -24 1009 83 16093 1.5 10 14:40 08.03.2020
1356 Clouds -24 1009 83 16093 1.5 10 14:21 08.03.2020
1357 Clouds -25 1009 75 16093 2.6 350 13:57 08.03.2020
1358 Clouds -25 1009 75 16093 2.6 350 13:38 08.03.2020
1359 Clouds -25 1009 75 16093 2.6 350 13:19 08.03.2020
1360 Clouds -23 1009 83 12874 1.9 19 12:39 08.03.2020
1361 Clouds -24 1009 83 16093 1.9 19 12:20 08.03.2020
1362 Clouds -22 1009 76 16093 1.9 19 11:44 08.03.2020
1363 Clouds -19 1010 90 0 1.9 19 11:25 08.03.2020
1364 Clear -22 1009 91 16093 1.3 31 10:59 08.03.2020
1365 Clear -22 1009 91 16093 1.3 31 10:41 08.03.2020
1366 Clear -22 1009 91 16093 1.3 31 10:22 08.03.2020
1367 Clouds -22 1009 83 14484 1.5 360 09:40 08.03.2020
1368 Clouds -22 1009 83 14484 1.5 360 09:22 08.03.2020
1369 Clear -24 1009 83 16093 1.3 31 08:49 08.03.2020
1370 Clear -24 1009 83 16093 1.3 31 08:27 08.03.2020
1371 Clouds -23 1009 83 16093 2.1 10 07:51 08.03.2020
1372 Clouds -23 1009 83 16093 2.1 10 07:29 08.03.2020
1373 Clouds -22 1009 83 16093 0.63 32 06:58 08.03.2020
1374 Clouds -22 1009 83 16093 0.63 32 06:37 08.03.2020
1375 Clouds -22 1009 83 16093 0.63 32 06:18 08.03.2020
1376 Clouds -14 1009 77 16093 0.26 15 05:18 08.03.2020
1377 Clouds -13 1009 71 16093 0.26 15 03:50 08.03.2020
1378 Clear -14 1009 84 16093 0.26 15 02:28 08.03.2020
1379 Clouds -12 1010 72 14484 0.4 2 01:23 08.03.2020
1380 Clear -13 1010 78 16093 0.4 2 00:44 08.03.2020
1381 Clouds -14 1011 93 0 0.4 2 00:25 08.03.2020
1382 Clouds -13 1010 78 16093 0.4 2 23:44 07.03.2020
1383 Clouds -13 1010 78 16093 0.4 2 23:23 07.03.2020
1384 Snow -14 1011 92 9656 0.14 135 22:40 07.03.2020
1385 Snow -14 1011 92 9656 0.14 135 22:21 07.03.2020
1386 Snow -14 1011 84 6437 0.14 135 21:49 07.03.2020
1387 Snow -14 1011 84 6437 0.14 135 21:25 07.03.2020
1388 Snow -14 1011 84 6437 0.14 135 20:42 07.03.2020
1389 Snow -14 1011 84 6437 0.52 73 20:24 07.03.2020
1390 Snow -14 1011 77 4828 1.5 30 19:59 07.03.2020
1391 Snow -14 1011 77 4828 1.5 30 19:41 07.03.2020
1392 Snow -14 1011 77 4828 1.5 30 19:21 07.03.2020
1393 Snow -14 1011 77 4828 0.44 173 18:43 07.03.2020
1394 Snow -14 1011 77 4828 0.44 173 18:25 07.03.2020
1395 Snow -16 1011 91 6437 0.44 173 17:56 07.03.2020
1396 Snow -16 1011 91 6437 0.44 173 17:38 07.03.2020
1397 Snow -16 1011 91 6437 0.89 305 17:18 07.03.2020
1398 Clouds -17 1012 91 16093 0.89 305 16:43 07.03.2020
1399 Clouds -17 1012 91 16093 0.89 305 16:23 07.03.2020
1400 Clouds -17 1012 91 16093 0.89 305 16:23 07.03.2020
1401 Clouds -17 1012 84 16093 0.89 305 15:58 07.03.2020
1402 Clouds -17 1012 84 16093 0.89 305 15:40 07.03.2020
1403 Clouds -17 1012 84 16093 0.89 305 15:21 07.03.2020
1404 Clouds -18 1012 84 16093 0.89 305 14:58 07.03.2020
1405 Clouds -18 1012 84 16093 0.89 305 14:39 07.03.2020
1406 Clouds -18 1012 84 16093 0.89 305 14:21 07.03.2020
1407 Clouds -20 1013 83 16093 0.28 232 13:40 07.03.2020
1408 Clouds -20 1013 83 16093 0.28 232 13:21 07.03.2020
1409 Clouds -22 1013 83 16093 0.64 263 12:45 07.03.2020
1410 Clouds -22 1013 83 16093 0.64 263 12:23 07.03.2020
1411 Clouds -23 1013 91 12874 0.64 263 11:59 07.03.2020
1412 Clouds -23 1013 91 12874 0.64 263 11:40 07.03.2020
1413 Clouds -23 1013 91 12874 0.64 263 11:22 07.03.2020
1414 Snow -22 1013 91 6437 0.89 244 10:44 07.03.2020
1415 Clouds -21 1013 83 14484 0.89 244 10:22 07.03.2020
1416 Clear -19 1013 84 16093 0.89 244 09:59 07.03.2020
1417 Clear -19 1013 84 16093 0.89 244 09:40 07.03.2020
1418 Clear -19 1013 84 16093 0.89 244 09:19 07.03.2020
1419 Clear -17 1013 84 16093 0.89 244 08:44 07.03.2020
1420 Clear -17 1013 84 16093 0.89 244 08:44 07.03.2020
1421 Clear -17 1013 84 16093 0.89 244 08:25 07.03.2020
1422 Snow -15 1013 84 9656 1 262 07:59 07.03.2020
1423 Snow -15 1013 84 9656 1 262 07:41 07.03.2020
1424 Snow -14 1012 96 0 1 262 07:20 07.03.2020
1425 Snow -14 1012 96 0 1 262 06:38 07.03.2020
1426 Snow -14 1012 96 0 1 262 05:57 07.03.2020
1427 Snow -12 1013 78 3219 1 262 05:35 07.03.2020
1428 Clouds -12 1013 85 0 0.89 265 02:58 07.03.2020
1429 Clouds -12 1013 84 0 0.89 265 02:39 07.03.2020
1430 Clouds -12 1013 78 16093 1.5 130 01:51 07.03.2020
1431 Snow -12 1013 78 9656 2.1 90 00:43 07.03.2020
1432 Snow -12 1013 78 9656 2.1 90 00:23 07.03.2020
1433 Snow -13 1013 84 6437 2.6 100 23:56 06.03.2020
1434 Snow -13 1013 84 6437 2.6 100 23:38 06.03.2020
1435 Snow -13 1013 84 6437 2.6 100 23:20 06.03.2020
1436 Snow -13 1014 84 6437 2.1 90 22:42 06.03.2020
1437 Snow -13 1014 84 6437 2.1 90 22:19 06.03.2020
1438 Snow -13 1014 84 6437 2.1 90 22:19 06.03.2020
1439 Snow -13 1014 84 4828 1.5 80 21:45 06.03.2020
1440 Snow -13 1014 84 4828 1.5 80 21:19 06.03.2020
1441 Mist -13 1014 84 4828 3.1 130 20:42 06.03.2020
1442 Mist -13 1014 84 4828 3.1 130 20:21 06.03.2020
1443 Mist -13 1014 84 4828 2.6 120 19:54 06.03.2020
1444 Mist -13 1014 78 4828 2.6 120 19:36 06.03.2020
1445 Mist -13 1014 78 4828 2.6 120 19:18 06.03.2020
1446 Mist -13 1014 78 4828 3.1 100 18:41 06.03.2020
1447 Mist -13 1014 78 4828 3.1 100 18:20 06.03.2020
1448 Mist -13 1014 78 4828 3.1 100 18:20 06.03.2020
1449 Mist -13 1014 78 4828 3.1 100 17:56 06.03.2020
1450 Mist -13 1014 78 4828 3.6 90 17:36 06.03.2020
1451 Mist -13 1014 78 4828 4.1 80 17:18 06.03.2020
1452 Mist -13 1014 78 4828 4.1 80 16:42 06.03.2020
1453 Mist -13 1014 78 4828 4.1 80 16:21 06.03.2020
1454 Snow -13 1015 78 6437 3.6 80 15:58 06.03.2020
1455 Snow -13 1015 78 6437 3.6 80 15:39 06.03.2020
1456 Snow -13 1015 78 6437 3.6 80 15:20 06.03.2020
1457 Snow -13 1015 78 4828 4.6 80 14:39 06.03.2020
1458 Snow -13 1015 78 4828 4.6 80 14:21 06.03.2020
1459 Snow -13 1016 78 3219 4.1 90 13:43 06.03.2020
1460 Snow -13 1016 78 3219 4.1 90 13:43 06.03.2020
1461 Snow -13 1016 78 3219 5.7 100 13:23 06.03.2020
1462 Snow -13 1017 78 2816 5.7 90 12:58 06.03.2020
1463 Snow -13 1017 78 2816 5.7 90 12:38 06.03.2020
1464 Snow -13 1017 78 2816 5.7 90 12:38 06.03.2020
1465 Snow -13 1017 78 2816 5.7 90 12:20 06.03.2020
1466 Snow -13 1017 78 3219 5.7 80 11:58 06.03.2020
1467 Snow -13 1017 78 3219 5.7 80 11:40 06.03.2020
1468 Snow -13 1017 78 3219 5.7 80 11:20 06.03.2020
1469 Snow -13 1017 78 2414 5.1 70 10:40 06.03.2020
1470 -273 0 0 0 0 0 10:21 06.03.2020
1471 Snow -13 1017 78 2816 5.7 70 09:55 06.03.2020
1472 Snow -13 1018 78 6437 5.7 70 09:37 06.03.2020
1473 Snow -13 1018 78 6437 5.7 70 09:19 06.03.2020
1474 Snow -13 1018 78 3219 5.1 80 08:45 06.03.2020
1475 Snow -13 1018 78 2012 6.2 80 08:27 06.03.2020
1476 Snow -13 1019 78 2414 6.2 90 07:57 06.03.2020
1477 Snow -13 1019 78 4023 6.2 90 07:39 06.03.2020
1478 Snow -13 1019 78 8047 6.7 90 06:59 06.03.2020
1479 Snow -13 1019 78 8047 6.7 90 06:41 06.03.2020
1480 Snow -13 1020 78 4828 6.7 90 05:47 06.03.2020
1481 Snow -13 1020 78 4828 6.7 90 05:28 06.03.2020
1482 Snow -13 1020 78 3219 5.7 80 04:58 06.03.2020
1483 Snow -14 1022 77 6437 6.7 90 02:55 06.03.2020
1484 Snow -14 1022 77 4023 7.2 90 01:41 06.03.2020
1485 Snow -15 1023 84 1609 7.7 80 01:23 06.03.2020
1486 Snow -15 1024 84 4828 6.2 80 00:37 06.03.2020
1487 Snow -15 1024 84 4828 6.2 80 00:18 06.03.2020
1488 Snow -15 1024 77 4828 5.7 80 23:42 05.03.2020
1489 Snow -15 1024 77 4828 5.7 80 23:19 05.03.2020
1490 Clouds -16 1025 84 11265 5.7 80 22:40 05.03.2020
1491 Clouds -16 1025 84 11265 5.7 80 22:22 05.03.2020
1492 Clouds -16 1025 84 11265 5.7 80 22:22 05.03.2020
1493 Snow -17 1024 84 4828 6.2 70 21:58 05.03.2020
1494 Mist -17 1025 84 4828 5.7 90 21:38 05.03.2020
1495 Mist -17 1025 84 4828 5.7 90 21:20 05.03.2020
1496 Mist -17 1026 84 4023 5.1 90 20:59 05.03.2020
1497 Mist -17 1026 84 4023 5.1 90 20:40 05.03.2020
1498 Mist -17 1026 84 4023 5.1 90 20:20 05.03.2020
1499 Snow -18 1025 84 8047 6.2 110 19:58 05.03.2020
1500 Snow -16 1025 84 6437 6.2 70 19:39 05.03.2020
1501 Snow -16 1025 84 6437 6.2 70 19:19 05.03.2020
1502 Mist -17 1026 91 8047 5.1 110 18:55 05.03.2020
1503 Mist -17 1026 91 8047 5.1 110 18:36 05.03.2020
1504 Mist -17 1026 91 8047 5.1 110 18:18 05.03.2020
1505 Snow -17 1026 91 4828 5.1 90 17:42 05.03.2020
1506 Snow -17 1026 91 4828 5.1 90 17:22 05.03.2020
1507 Clouds -17 1027 84 12874 5.1 100 16:58 05.03.2020
1508 Clouds -17 1027 84 12874 5.1 100 16:40 05.03.2020
1509 Clouds -17 1027 84 12874 5.1 100 16:21 05.03.2020
1510 Clouds -18 1027 91 16093 3.1 100 15:45 05.03.2020
1511 Clouds -18 1027 91 16093 3.1 100 15:24 05.03.2020
1512 Clouds -15 1028 84 12874 3.1 80 14:59 05.03.2020
1513 Clouds -15 1028 84 12874 3.1 80 14:41 05.03.2020
1514 Clouds -15 1028 84 12874 3.1 80 14:21 05.03.2020
1515 Clouds -15 1028 84 16093 3.1 80 13:56 05.03.2020
1516 Clouds -15 1028 84 16093 3.1 80 13:38 05.03.2020
1517 Clouds -15 1028 84 16093 3.1 80 13:19 05.03.2020
1518 Clouds -14 1028 77 16093 3.1 90 12:41 05.03.2020
1519 Clouds -14 1029 77 12874 2.6 90 12:21 05.03.2020
1520 Mist -14 1029 77 8047 4.1 100 11:57 05.03.2020
1521 Mist -14 1029 77 8047 4.1 100 11:57 05.03.2020
1522 Mist -14 1029 77 8047 4.1 100 11:37 05.03.2020
1523 Mist -14 1029 77 8047 4.1 100 11:19 05.03.2020
1524 Snow -14 1029 77 11265 3.1 80 10:57 05.03.2020
1525 Snow -14 1029 77 11265 3.1 80 10:39 05.03.2020
1526 Snow -14 1029 77 11265 3.1 80 10:21 05.03.2020
1527 Mist -16 1029 84 9656 1.5 20 09:47 05.03.2020
1528 Mist -16 1029 84 9656 1.5 20 09:28 05.03.2020
1529 Mist -16 1029 84 9656 1.5 20 09:28 05.03.2020
1530 Snow -16 1029 77 6437 1.7 88 08:59 05.03.2020
1531 Snow -16 1029 77 6437 1.7 88 08:41 05.03.2020
1532 Snow -16 1029 77 6437 1.79 87 08:22 05.03.2020
1533 Clouds -16 1028 84 16093 1.5 0 07:42 05.03.2020
1534 Clouds -16 1028 84 16093 1.5 0 07:21 05.03.2020
1535 Clouds -18 1028 77 12874 2.6 20 06:44 05.03.2020
1536 Clouds -18 1028 77 12874 2.6 20 06:44 05.03.2020
1537 Clouds -18 1028 77 12874 2.6 20 06:20 05.03.2020
1538 Clouds -17 1028 70 16093 1.5 60 05:35 05.03.2020
1539 Clouds -17 1028 70 16093 1.5 60 05:35 05.03.2020
1540 Clouds -16 1029 77 16093 0.75 124 04:24 05.03.2020
1541 Clouds -14 1029 71 16093 1.5 130 03:58 05.03.2020
1542 Clear -14 1028 71 16093 2.6 110 02:32 05.03.2020
1543 Clear -14 1028 77 16093 0.68 181 01:26 05.03.2020
1544 Clear -14 1027 77 16093 1.5 30 00:50 05.03.2020
1545 Clear -15 1027 70 16093 1.5 290 23:57 04.03.2020
1546 Clear -16 1027 70 16093 1.5 290 23:39 04.03.2020
1547 Clear -16 1027 70 16093 1.5 290 23:21 04.03.2020
1548 Clear -18 1026 70 16093 1.5 310 22:56 04.03.2020
1549 Clear -18 1026 70 16093 1.5 310 22:37 04.03.2020
1550 Clear -18 1026 70 16093 1.5 310 22:18 04.03.2020
1551 Clear -20 1025 83 16093 0.42 34 21:42 04.03.2020
1552 Clear -19 1025 83 16093 0.42 34 21:23 04.03.2020
1553 Clear -20 1024 76 16093 1.5 0 21:00 04.03.2020
1554 Clear -20 1024 76 16093 1.5 0 20:40 04.03.2020
1555 Clear -21 1024 76 16093 1.5 0 20:21 04.03.2020
1556 Clear -21 1024 76 16093 1.5 0 20:21 04.03.2020
1557 Clear -20 1023 83 16093 2.23 359 19:56 04.03.2020
1558 Clear -20 1023 83 16093 2.23 359 19:38 04.03.2020
1559 Clear -21 1023 83 16093 2.23 359 19:20 04.03.2020
1560 Clear -21 1023 83 16093 2.23 359 19:20 04.03.2020
1561 Clear -19 1022 77 16093 2.23 359 18:42 04.03.2020
1562 Clear -18 1022 77 16093 2.23 359 18:23 04.03.2020
1563 Clear -17 1021 77 16093 1.5 0 17:59 04.03.2020
1564 Clear -18 1021 77 16093 1.5 0 17:39 04.03.2020
1565 Clear -17 1021 77 16093 1.5 0 17:20 04.03.2020
1566 Clear -16 1020 70 16093 3.6 110 16:55 04.03.2020
1567 Clear -16 1020 70 16093 3.6 110 16:55 04.03.2020
1568 Clear -16 1020 70 16093 3.6 110 16:55 04.03.2020
1569 Clear -16 1020 70 16093 3.6 110 16:55 04.03.2020
1570 Clear -16 1020 70 16093 3.6 110 16:36 04.03.2020
1571 Clear -16 1020 70 16093 3.6 110 16:18 04.03.2020
1572 Clear -17 1019 70 16093 3.1 340 15:42 04.03.2020
1573 Clear -17 1019 70 16093 3.1 340 15:24 04.03.2020
1574 Clear -18 1019 77 16093 3.1 330 14:58 04.03.2020
1575 Clear -18 1019 77 16093 3.1 330 14:39 04.03.2020
1576 Clear -16 1019 77 16093 3.1 330 14:19 04.03.2020
1577 Clear -15 1018 71 16093 3.6 320 13:58 04.03.2020
1578 Clear -15 1018 71 16093 3.6 320 13:39 04.03.2020
1579 Clear -15 1018 71 16093 3.6 320 13:39 04.03.2020
1580 Clear -15 1018 71 16093 3.6 320 13:20 04.03.2020
1581 Clear -16 1017 77 16093 2.6 90 12:55 04.03.2020
1582 Clear -17 1017 77 16093 2.6 90 12:37 04.03.2020
1583 Clear -16 1017 77 16093 2.6 90 12:19 04.03.2020
1584 Clear -17 1016 77 16093 2.04 331 11:42 04.03.2020
1585 Clear -15 1016 77 16093 2.04 331 11:23 04.03.2020
1586 Clear -15 1015 77 16093 4.6 330 10:58 04.03.2020
1587 Clear -15 1015 77 16093 4.6 330 10:40 04.03.2020
1588 Clear -16 1015 77 16093 4.6 330 10:19 04.03.2020
1589 Clouds -15 1015 77 16093 5.7 280 09:43 04.03.2020
1590 Clouds -15 1015 77 16093 5.7 280 09:21 04.03.2020
1591 Clear -14 1014 77 16093 7.2 310 08:48 04.03.2020
1592 Clear -14 1014 77 16093 7.2 310 08:28 04.03.2020
1593 Clouds -13 1013 78 11265 6.2 300 07:57 04.03.2020
1594 Clouds -13 1013 78 11265 6.2 300 07:38 04.03.2020
1595 Clouds -13 1013 78 11265 6.2 300 07:20 04.03.2020
1596 Clouds -12 1013 72 12874 8.2 310 06:43 04.03.2020
1597 Clouds -12 1013 72 12874 8.2 310 06:23 04.03.2020
1598 Mist -12 1013 78 8047 8.7 300 05:50 04.03.2020
1599 Mist -12 1012 72 4828 9.3 300 04:30 04.03.2020
1600 Mist -13 1012 78 6437 5.7 300 03:44 04.03.2020
1601 Mist -13 1012 78 6437 5.7 300 03:25 04.03.2020
1602 Clouds -12 1012 72 16093 7.7 310 02:55 04.03.2020
1603 Clouds -12 1012 72 16093 7.7 310 02:21 04.03.2020
1604 Haze -12 1012 78 4828 6.7 300 01:54 04.03.2020
1605 Haze -12 1012 78 4828 6.7 300 00:52 04.03.2020
1606 Haze -12 1012 78 4828 6.7 300 00:52 04.03.2020
1607 Snow -13 1012 92 1609 7.2 270 00:27 04.03.2020
1608 Snow -13 1012 92 1609 7.2 270 00:27 04.03.2020
1609 Snow -13 1012 78 1609 9.3 280 23:47 03.03.2020
1610 Snow -14 1012 84 1609 7.7 290 23:28 03.03.2020
1611 Snow -14 1012 84 1609 5.1 280 22:59 03.03.2020
1612 Snow -15 1012 84 1609 5.1 280 22:40 03.03.2020
1613 Snow -16 1013 84 4828 4.6 290 22:20 03.03.2020
1614 Snow -16 1013 84 4828 2.6 270 21:58 03.03.2020
1615 Snow -17 1013 84 8047 5.1 280 21:39 03.03.2020
1616 Snow -17 1013 84 8047 5.1 280 21:20 03.03.2020
1617 Clouds -17 1013 70 16093 7.7 290 20:55 03.03.2020
1618 Clouds -17 1013 70 16093 7.7 290 20:37 03.03.2020
1619 Clouds -17 1013 70 16093 7.7 290 20:18 03.03.2020
1620 Clouds -17 1013 70 16093 7.7 290 20:18 03.03.2020
1621 Clouds -17 1013 70 16093 7.7 290 20:18 03.03.2020
1622 Clouds -17 1013 64 16093 7.7 300 19:54 03.03.2020
1623 Clouds -17 1013 64 16093 7.7 300 19:36 03.03.2020
1624 Clouds -17 1013 64 16093 7.7 300 19:18 03.03.2020
1625 Clear -18 1013 59 16093 2.1 310 18:55 03.03.2020
1626 Clear -18 1013 59 16093 2.1 310 18:36 03.03.2020
1627 Clear -18 1013 59 16093 2.1 310 18:18 03.03.2020
1628 Clear -18 1013 70 16093 6.2 280 17:40 03.03.2020
1629 Clear -19 1013 70 16093 6.2 280 17:21 03.03.2020
1630 Clear -19 1013 64 16093 4.6 280 16:59 03.03.2020
1631 Clear -19 1013 64 16093 4.6 280 16:38 03.03.2020
1632 Clear -19 1013 64 16093 4.6 280 16:20 03.03.2020
1633 Clear -20 1013 64 16093 2.1 300 15:57 03.03.2020
1634 Clear -20 1013 64 16093 2.1 300 15:39 03.03.2020
1635 Clear -19 1013 64 16093 2.1 300 15:19 03.03.2020
1636 Clear -20 1013 64 16093 6.7 300 14:41 03.03.2020
1637 Clear -19 1013 64 16093 6.7 300 14:20 03.03.2020
1638 Clear -19 1013 53 16093 4.6 290 13:58 03.03.2020
1639 Clear -19 1013 53 16093 4.6 290 13:40 03.03.2020
1640 Clear -19 1013 53 16093 4.6 290 13:21 03.03.2020
1641 Clear -19 1013 53 16093 4.6 290 13:21 03.03.2020
1642 Clear -19 1012 64 16093 5.1 300 12:47 03.03.2020
1643 Clear -19 1012 64 16093 5.1 300 12:27 03.03.2020
1644 Clear -19 1012 58 16093 4.6 350 11:58 03.03.2020
1645 Clear -19 1012 58 16093 4.6 350 11:37 03.03.2020
1646 Clear -19 1012 58 16093 4.6 350 11:19 03.03.2020
1647 Clear -20 1012 63 16093 2.6 160 10:56 03.03.2020
1648 Clear -20 1012 63 16093 2.6 160 10:56 03.03.2020
1649 Clear -21 1012 63 16093 2.6 160 10:37 03.03.2020
1650 Clear -21 1012 63 16093 2.6 160 10:19 03.03.2020
1651 Clear -19 1011 59 16093 2.1 40 09:44 03.03.2020
1652 Clear -18 1011 59 16093 2.1 40 09:23 03.03.2020
1653 Clouds -18 1011 64 16093 4.6 330 08:58 03.03.2020
1654 Clouds -18 1011 64 16093 4.6 330 08:39 03.03.2020
1655 Clouds -18 1011 64 16093 4.6 330 08:20 03.03.2020
1656 Clouds -17 1010 59 16093 6.7 350 07:44 03.03.2020
1657 Clouds -17 1010 59 16093 6.7 350 07:22 03.03.2020
1658 Clouds -17 1009 70 16093 2.8 311 06:49 03.03.2020
1659 Clouds -17 1009 70 16093 2.8 311 06:49 03.03.2020
1660 Clouds -18 1009 70 16093 2.8 311 06:23 03.03.2020
1661 Clouds -17 1008 64 16093 1.5 20 05:47 03.03.2020
1662 Clouds -17 1008 64 16093 1.5 20 05:28 03.03.2020
1663 Clouds -16 1008 65 16093 3.1 330 04:30 03.03.2020
1664 Clouds -16 1008 77 16093 2.1 110 01:40 03.03.2020
1665 Clouds -17 1008 91 16093 0.9 320 00:49 03.03.2020
1666 Clouds -17 1008 91 16093 0.9 320 00:27 03.03.2020
1667 Clouds -18 1009 84 16093 0.9 320 23:59 02.03.2020
1668 Clouds -18 1009 84 16093 0.9 320 23:40 02.03.2020
1669 Clouds -19 1009 84 16093 0.9 320 23:22 02.03.2020
1670 Clouds -21 1009 83 16093 0.46 13 22:55 02.03.2020
1671 Clouds -20 1009 83 16093 0.46 13 22:37 02.03.2020
1672 Clouds -21 1009 83 16093 0.46 13 22:18 02.03.2020
1673 Clouds -24 1009 83 16093 0.46 13 21:42 02.03.2020
1674 Clouds -24 1009 83 16093 0.46 13 21:23 02.03.2020
1675 Clouds -25 1008 83 16093 0.46 13 20:58 02.03.2020
1676 Clouds -25 1008 83 16093 0.46 13 20:58 02.03.2020
1677 Clouds -25 1008 83 16093 0.46 13 20:40 02.03.2020
1678 Clouds -26 1008 83 16093 0.45 118 20:20 02.03.2020
1679 Clear -24 1008 83 16093 0.45 118 19:57 02.03.2020
1680 Clear -26 1008 83 16093 0.45 118 19:38 02.03.2020
1681 Clear -26 1008 83 16093 0.45 118 19:20 02.03.2020
1682 Clear -25 1008 76 16093 2.6 70 18:54 02.03.2020
1683 Clear -25 1008 76 16093 2.6 70 18:36 02.03.2020
1684 Clear -23 1008 76 16093 2.6 70 18:18 02.03.2020
1685 Clear -25 1008 82 16093 0.45 118 17:54 02.03.2020
1686 Clear -27 1008 82 16093 0.45 118 17:36 02.03.2020
1687 Clear -27 1008 82 16093 0.68 15 17:18 02.03.2020
1688 Clear -26 1008 83 16093 1.5 20 16:39 02.03.2020
1689 Clear -26 1008 83 16093 1.5 20 16:20 02.03.2020
1690 Clear -24 1008 83 16093 2.1 50 15:44 02.03.2020
1691 Clear -24 1008 83 16093 2.1 50 15:21 02.03.2020
1692 Clouds -23 1008 69 16093 2.1 70 14:57 02.03.2020
1693 Clouds -23 1008 69 16093 2.1 70 14:37 02.03.2020
1694 Clouds -23 1008 69 16093 2.1 70 14:19 02.03.2020
1695 Clear -24 1008 83 16093 0.87 349 13:44 02.03.2020
1696 Clear -24 1008 83 16093 0.72 331 13:19 02.03.2020
1697 Clear -24 1007 76 16093 2.1 10 12:57 02.03.2020
1698 Clear -24 1007 76 16093 2.1 10 12:57 02.03.2020
1699 Clear -24 1007 76 16093 2.1 10 12:39 02.03.2020
1700 Clear -24 1007 76 16093 2.1 10 12:18 02.03.2020
1701 Clear -22 1007 91 16093 0.72 331 11:38 02.03.2020
1702 Clear -22 1007 91 16093 1.89 345 11:19 02.03.2020
1703 Clear -22 1006 91 16093 1.89 345 10:55 02.03.2020
1704 Clear -22 1006 91 16093 1.89 345 10:36 02.03.2020
1705 Clear -22 1006 91 16093 1.89 345 10:18 02.03.2020
1706 Clear -20 1006 76 16093 2.1 80 09:45 02.03.2020
1707 Clear -20 1006 76 16093 2.1 80 09:26 02.03.2020
1708 Clear -21 1005 83 16093 1.5 80 08:48 02.03.2020
1709 Clear -21 1005 83 16093 1.5 80 08:22 02.03.2020
1710 Clear -18 1005 64 16093 2.6 90 07:50 02.03.2020
1711 Clear -18 1005 64 16093 2.6 90 07:31 02.03.2020
1712 Clear -17 1004 54 16093 3.1 240 06:50 02.03.2020
1713 Clear -17 1004 54 16093 3.1 240 06:20 02.03.2020
1714 Clear -15 1003 50 16093 3.6 40 05:23 02.03.2020
1715 Clear -13 1001 65 16093 2.1 100 03:25 02.03.2020
1716 Clear -14 1000 55 16093 4.1 300 02:53 02.03.2020
1717 Clear -14 1000 55 16093 4.1 300 02:29 02.03.2020
1718 Clear -13 1000 50 16093 8.2 330 01:33 02.03.2020
1719 Clear -13 999 50 16093 8.2 350 00:48 02.03.2020
1720 Clear -13 999 50 16093 8.2 350 00:22 02.03.2020
1721 Clear -13 999 50 16093 6.2 360 23:41 01.03.2020
1722 Clear -13 999 50 16093 6.2 360 23:21 01.03.2020
1723 Clear -14 998 50 16093 8.2 360 22:44 01.03.2020
1724 Clear -14 998 50 16093 8.2 360 22:21 01.03.2020
1725 Clear -14 997 50 16093 8.2 360 21:58 01.03.2020
1726 Clear -14 997 50 16093 8.2 360 21:39 01.03.2020
1727 Clear -14 997 50 16093 8.2 360 21:20 01.03.2020
1728 Clear -15 997 54 16093 4.6 350 20:45 01.03.2020
1729 Clear -15 997 54 16093 4.6 350 20:26 01.03.2020
1730 Clear -16 996 59 16093 8.7 350 19:59 01.03.2020
1731 Clear -16 996 59 16093 8.7 350 19:41 01.03.2020
1732 Clear -16 996 59 16093 8.7 350 19:21 01.03.2020
1733 Clear -16 996 59 16093 8.7 350 19:21 01.03.2020
1734 Clear -16 996 59 16093 6.2 300 18:56 01.03.2020
1735 Clear -16 996 59 16093 6.2 300 18:38 01.03.2020
1736 Clear -16 996 59 16093 6.2 300 18:18 01.03.2020
1737 Clear -14 995 55 16093 5.7 350 17:55 01.03.2020
1738 Clear -14 995 55 16093 5.7 350 17:36 01.03.2020
1739 Clear -14 995 55 16093 5.7 350 17:18 01.03.2020
1740 Clear -16 994 65 14484 11.8 10 16:40 01.03.2020
1741 Clear -16 994 65 14484 11.8 10 16:40 01.03.2020
1742 Clear -16 994 65 14484 11.8 10 16:20 01.03.2020
1743 Haze -15 993 60 9656 12.9 10 15:59 01.03.2020
1744 Haze -15 993 60 9656 12.9 10 15:40 01.03.2020
1745 Haze -15 993 60 9656 12.9 10 15:40 01.03.2020
1746 Haze -15 993 60 9656 12.9 10 15:22 01.03.2020
1747 Haze -15 993 60 4828 12.9 20 14:58 01.03.2020
1748 Haze -15 993 60 4828 12.9 20 14:39 01.03.2020
1749 Haze -15 993 60 4828 12.9 20 14:21 01.03.2020
1750 Clear -15 993 60 3219 12.9 20 13:59 01.03.2020
1751 Clear -15 993 60 3219 12.9 20 13:59 01.03.2020
1752 Clear -15 993 60 3219 12.9 20 13:41 01.03.2020
1753 Clear -15 993 65 4023 12.9 10 13:20 01.03.2020
1754 Clear -14 993 60 3219 14.4 10 12:56 01.03.2020
1755 Clear -14 994 60 11265 11.8 360 12:38 01.03.2020
1756 Clear -14 994 60 11265 11.8 360 12:19 01.03.2020
1757 Clear -13 993 60 8047 11.8 20 11:40 01.03.2020
1758 Clear -13 993 60 8047 11.8 20 11:20 01.03.2020
1759 Clear -12 994 55 16093 8.7 20 10:56 01.03.2020
1760 Clear -12 994 55 16093 8.7 20 10:37 01.03.2020
1761 Clear -12 994 55 16093 8.7 20 10:37 01.03.2020
1762 Clear -12 994 55 16093 8.7 20 10:37 01.03.2020
1763 Clear -12 994 55 16093 8.7 20 10:37 01.03.2020
1764 Clear -12 994 55 16093 8.7 20 10:18 01.03.2020
1765 Clear -12 994 51 16093 9.8 10 09:45 01.03.2020
1766 Clear -12 994 51 16093 9.8 10 09:26 01.03.2020
1767 Clear -12 995 51 16093 9.8 360 08:51 01.03.2020
1768 Clear -12 995 51 16093 9.8 360 08:29 01.03.2020
1769 Clear -12 996 51 16093 7.7 360 07:59 01.03.2020
1770 Clear -12 996 51 16093 7.7 360 07:40 01.03.2020
1771 Clear -12 996 51 16093 7.7 360 07:22 01.03.2020
1772 Clear -12 997 46 16093 6.2 40 06:43 01.03.2020
1773 Clear -12 997 46 16093 6.2 40 06:21 01.03.2020
1774 Clear -15 1000 55 16093 2.1 20 03:40 01.03.2020
1775 Clear -13 1001 55 16093 1.5 360 02:23 01.03.2020
1776 Clear -14 1003 55 16093 3.6 20 01:46 01.03.2020
1777 Clear -14 1003 55 16093 3.6 20 01:20 01.03.2020
1778 Clear -14 1003 55 16093 3.6 20 01:20 01.03.2020
1779 Clear -16 1005 70 16093 2.1 290 00:40 01.03.2020
1780 Clear -16 1005 70 16093 2.1 290 00:19 01.03.2020
1781 Clear -20 1006 91 16093 3.3 17 23:42 29.02.2020
1782 Clear -21 1006 91 16093 3.3 17 23:23 29.02.2020
1783 Clear -23 1007 76 16093 2.1 350 22:40 29.02.2020
1784 Clear -24 1007 76 16093 2.1 350 22:22 29.02.2020
1785 Clear -24 1009 91 16093 1.5 180 21:42 29.02.2020
1786 Clear -23 1009 91 16093 1.5 180 21:22 29.02.2020
1787 Clear -24 1009 91 16093 1.97 30 20:43 29.02.2020
1788 Clear -24 1009 91 16093 1.94 30 20:21 29.02.2020
1789 Clear -25 1010 91 16093 1.54 71 19:56 29.02.2020
1790 Clear -25 1010 91 16093 1.54 71 19:37 29.02.2020
1791 Clear -24 1010 91 16093 1.54 71 19:19 29.02.2020
1792 Clear -24 1011 83 16093 1.54 71 18:42 29.02.2020
1793 Clear -24 1011 83 16093 1.54 71 18:23 29.02.2020
1794 Clear -23 1012 91 16093 2.6 30 17:57 29.02.2020
1795 Clear -24 1012 91 16093 2.6 30 17:39 29.02.2020
1796 Clear -23 1012 91 16093 2.6 30 17:20 29.02.2020
1797 Clouds -22 1013 83 16093 3.1 60 16:45 29.02.2020
1798 Clouds -21 1013 83 16093 3.1 60 16:21 29.02.2020
1799 Clouds -21 1013 83 16093 4.1 70 15:58 29.02.2020
1800 Clear -21 1014 83 16093 4.6 70 15:39 29.02.2020
1801 Clear -21 1014 83 16093 4.6 70 15:21 29.02.2020
1802 Clear -23 1014 75 16093 1.5 80 14:41 29.02.2020
1803 Clear -23 1014 75 16093 1.5 80 14:22 29.02.2020
1804 Clear -23 1015 83 16093 2.6 40 13:46 29.02.2020
1805 Clear -22 1015 83 16093 2.6 40 13:28 29.02.2020
1806 Clouds -22 1016 83 16093 3.1 50 12:59 29.02.2020
1807 Clouds -21 1016 83 16093 3.1 50 12:40 29.02.2020
1808 Clouds -22 1016 83 16093 3.1 50 12:21 29.02.2020
1809 Clear -23 1016 76 16093 3.6 30 11:55 29.02.2020
1810 Clear -23 1016 76 16093 3.6 30 11:37 29.02.2020
1811 Clear -22 1016 76 16093 3.6 30 11:18 29.02.2020
1812 Clouds -20 1016 77 16093 3.6 60 10:44 29.02.2020
1813 Clouds -19 1016 77 16093 3.6 60 10:26 29.02.2020
1814 Clear -21 1016 83 16093 3.1 70 09:47 29.02.2020
1815 Clear -21 1016 83 16093 3.1 70 09:23 29.02.2020
1816 Clear -20 1017 77 16093 3.6 70 08:42 29.02.2020
1817 Clear -19 1017 77 16093 3.6 70 08:22 29.02.2020
1818 Clear -20 1017 77 16093 2.6 70 07:56 29.02.2020
1819 Clear -20 1017 77 16093 2.6 70 07:36 29.02.2020
1820 Clear -19 1017 77 16093 2.6 70 07:18 29.02.2020
1821 Clear -19 1018 77 16093 3.1 60 06:41 29.02.2020
1822 Clear -19 1018 77 16093 3.1 60 06:22 29.02.2020
1823 Clear -20 1018 77 16093 3.6 70 05:40 29.02.2020
1824 Clear -19 1019 77 16093 4.1 70 04:45 29.02.2020
1825 Clear -19 1019 70 16093 3.6 80 03:40 29.02.2020
1826 Clear -18 1019 70 16093 3.6 80 03:21 29.02.2020
1827 Clear -18 1019 70 16093 3.6 80 02:37 29.02.2020
1828 Clear -18 1019 70 16093 3.6 80 02:37 29.02.2020
1829 Clear -18 1020 77 16093 4.1 90 00:58 29.02.2020
1830 Clear -18 1020 77 16093 4.1 90 00:36 29.02.2020
1831 Clear -19 1020 84 16093 3.6 90 23:43 28.02.2020
1832 Clear -19 1020 84 16093 3.6 90 23:25 28.02.2020
1833 Clear -20 1020 83 16093 1.27 111 22:55 28.02.2020
1834 Clear -20 1020 83 16093 1.27 111 22:36 28.02.2020
1835 Clear -21 1020 83 16093 1.27 111 22:18 28.02.2020
1836 Mist -23 1020 76 9656 1.27 111 21:41 28.02.2020
1837 Mist -23 1020 76 9656 1.27 111 21:21 28.02.2020
1838 Clear -25 1020 75 11265 1.27 111 20:41 28.02.2020
1839 Clear -25 1020 75 11265 1.02 125 20:22 28.02.2020
1840 Clear -25 1020 75 11265 1.02 125 20:22 28.02.2020
1841 Clear -27 1020 82 16093 0.97 127 19:59 28.02.2020
1842 Clear -26 1020 82 16093 0.97 127 19:39 28.02.2020
1843 Clear -26 1020 82 16093 0.97 127 19:39 28.02.2020
1844 Clear -26 1020 82 16093 0.97 127 19:21 28.02.2020
1845 Clear -25 1020 75 16093 0.97 127 18:57 28.02.2020
1846 Clear -27 1020 75 16093 0.97 127 18:39 28.02.2020
1847 Clear -27 1020 75 16093 0.97 127 18:20 28.02.2020
1848 Clear -28 1019 82 16093 0.97 127 17:41 28.02.2020
1849 Clear -28 1019 82 16093 0.97 127 17:22 28.02.2020
1850 Clear -28 1019 82 16093 2.1 360 16:47 28.02.2020
1851 Clear -27 1019 82 16093 2.1 360 16:21 28.02.2020
1852 Clear -27 1019 75 16093 1 95 15:59 28.02.2020
1853 Clear -27 1019 75 16093 1 95 15:40 28.02.2020
1854 Clear -27 1019 75 16093 1 95 15:20 28.02.2020
1855 Clear -27 1019 75 16093 1.5 360 14:57 28.02.2020
1856 Clear -27 1019 75 16093 1.5 360 14:39 28.02.2020
1857 Clear -28 1019 75 16093 1.5 360 14:18 28.02.2020
1858 Clear -27 1018 90 16093 0.89 97 13:54 28.02.2020
1859 Clear -27 1018 90 16093 0.89 97 13:36 28.02.2020
1860 Clear -29 1018 90 16093 0.89 97 13:18 28.02.2020
1861 Clouds -27 1018 82 16093 0.44 100 12:41 28.02.2020
1862 Clouds -27 1018 82 16093 0.44 100 12:22 28.02.2020
1863 Clear -26 1017 82 16093 0.44 100 11:42 28.02.2020
1864 Clear -27 1017 82 16093 0.44 100 11:24 28.02.2020
1865 Clear -28 1017 82 16093 0.46 102 10:58 28.02.2020
1866 Clear -28 1017 82 16093 0.46 102 10:39 28.02.2020
1867 Clear -28 1017 82 16093 0.46 102 10:20 28.02.2020
1868 Clear -26 1017 82 16093 1.5 350 09:44 28.02.2020
1869 Clear -26 1017 82 16093 1.5 350 09:21 28.02.2020
1870 Clear -25 1016 83 16093 0.46 102 08:56 28.02.2020
1871 Clear -26 1016 83 16093 0.46 102 08:36 28.02.2020
1872 Clear -26 1016 83 16093 0.67 9 08:18 28.02.2020
1873 Clear -24 1016 75 16093 0.67 9 07:39 28.02.2020
1874 Clear -24 1016 75 16093 0.67 9 07:19 28.02.2020
1875 Clear -22 1015 76 16093 2.1 30 06:41 28.02.2020
1876 Clear -21 1015 76 16093 0.67 9 05:51 28.02.2020
1877 Clear -16 1015 77 16093 0.44 250 04:34 28.02.2020
1878 Clear -16 1015 84 16093 0.44 250 03:48 28.02.2020
1879 Clouds -15 1014 65 16093 1.5 10 02:45 28.02.2020
1880 Clouds -15 1014 65 16093 1.5 10 02:25 28.02.2020
1881 Clear -16 1014 64 16093 0.47 225 00:46 28.02.2020
1882 Clear -17 1014 64 16093 0.47 225 00:25 28.02.2020
1883 Clear -17 1014 64 12874 0.47 225 23:41 27.02.2020
1884 Clear -18 1014 64 12874 0.4 108 23:19 27.02.2020
1885 Clear -20 1014 69 16093 0.4 108 22:43 27.02.2020
1886 Clear -21 1014 69 16093 0.4 108 22:24 27.02.2020
1887 Clear -23 1013 69 16093 0.4 108 21:56 27.02.2020
1888 Clear -23 1013 69 16093 0.4 108 21:38 27.02.2020
1889 Clear -22 1013 69 16093 0.4 108 21:18 27.02.2020
1890 Clear -26 1013 75 14484 0.4 108 20:56 27.02.2020
1891 Clear -26 1013 75 14484 0.4 108 20:56 27.02.2020
1892 Clear -26 1013 75 14484 0.4 108 20:37 27.02.2020
1893 Clear -26 1013 75 14484 0.4 108 20:37 27.02.2020
1894 Clear -25 1013 75 14484 0.9 38 20:19 27.02.2020
1895 Clear -26 1013 75 16093 0.9 38 19:42 27.02.2020
1896 Clear -28 1013 75 16093 0.9 38 19:23 27.02.2020
1897 Clear -27 1013 75 16093 0.9 38 18:58 27.02.2020
1898 Clear -27 1013 75 16093 0.9 38 18:40 27.02.2020
1899 Clear -27 1013 75 16093 0.9 38 18:21 27.02.2020
1900 Clear -26 1013 75 16093 0.9 38 17:57 27.02.2020
1901 Clear -26 1013 75 16093 0.9 38 17:38 27.02.2020
1902 Clear -26 1013 75 16093 0.7 51 17:19 27.02.2020
1903 Clear -26 1013 75 16093 0.7 51 16:55 27.02.2020
1904 Clear -26 1013 75 16093 0.7 51 16:36 27.02.2020
1905 Clear -26 1013 75 16093 0.7 51 16:18 27.02.2020
1906 Clear -27 1013 75 16093 1.5 10 15:54 27.02.2020
1907 Clear -27 1013 75 16093 1.5 10 15:36 27.02.2020
1908 Clear -26 1013 75 16093 1.5 10 15:18 27.02.2020
1909 Clear -26 1013 83 16093 0.7 51 14:40 27.02.2020
1910 Clear -26 1013 83 16093 0.7 51 14:21 27.02.2020
1911 Clear -26 1013 83 16093 1.5 10 13:56 27.02.2020
1912 Clear -23 1013 83 16093 1.5 10 13:37 27.02.2020
1913 Clear -25 1013 83 16093 1.5 10 13:19 27.02.2020
1914 Clear -23 1013 76 16093 0.88 29 12:44 27.02.2020
1915 Clear -22 1013 76 16093 0.88 29 12:20 27.02.2020
1916 -273 0 0 0 0 0 11:46 27.02.2020
1917 Clear -23 1014 76 16093 0.88 29 11:23 27.02.2020
1918 Clear -19 1014 83 16093 1.32 29 10:56 27.02.2020
1919 Clear -20 1014 83 16093 1.32 29 10:37 27.02.2020
1920 Clear -21 1014 83 16093 1.32 29 10:19 27.02.2020
1921 Clear -21 1014 76 16093 1.32 29 09:41 27.02.2020
1922 Clear -21 1014 76 16093 1.32 29 09:23 27.02.2020
1923 Clear -22 1013 83 16093 1.32 29 08:44 27.02.2020
1924 Clear -22 1013 83 16093 1.32 29 08:26 27.02.2020
1925 Clear -21 1013 69 16093 2.12 16 07:59 27.02.2020
1926 Clear -21 1013 69 16093 2.12 16 07:39 27.02.2020
1927 Clear -22 1013 69 16093 2.12 16 07:19 27.02.2020
1928 Clear -19 1014 76 16093 1.5 50 06:20 27.02.2020
1929 Clear -15 1014 65 16093 2.07 33 04:48 27.02.2020
1930 Clear -12 1014 55 16093 2.07 33 02:58 27.02.2020
1931 Clear -13 1015 71 16093 3.04 20 01:28 27.02.2020
1932 Clear -13 1015 50 16093 3.04 20 00:41 27.02.2020
1933 Clear -13 1015 50 16093 3.04 20 00:41 27.02.2020
1934 Clear -14 1015 59 16093 3.04 20 23:41 26.02.2020
1935 Clear -16 1015 59 16093 3.04 20 23:23 26.02.2020
1936 Clear -16 1015 64 16093 3.23 19 22:59 26.02.2020
1937 Clear -17 1015 64 16093 3.23 19 22:40 26.02.2020
1938 Clear -17 1015 64 16093 3.23 19 22:22 26.02.2020
1939 Clear -17 1015 64 16093 3.23 19 21:59 26.02.2020
1940 Clear -17 1015 64 16093 3.23 19 21:39 26.02.2020
1941 Clear -17 1015 64 16093 3.23 19 21:19 26.02.2020
1942 Clear -17 1015 49 16093 5.1 320 20:56 26.02.2020
1943 Clear -17 1015 49 16093 5.1 320 20:38 26.02.2020
1944 Clear -17 1015 49 16093 5.1 320 20:19 26.02.2020
1945 Clear -17 1015 54 16093 3.64 14 19:55 26.02.2020
1946 Clear -17 1015 54 16093 3.64 14 19:36 26.02.2020
1947 Clear -17 1015 54 16093 3.64 14 19:36 26.02.2020
1948 Clear -17 1015 54 16093 3.64 14 19:18 26.02.2020
1949 Clear -18 1015 49 16093 3.64 14 18:54 26.02.2020
1950 Clear -18 1015 49 16093 3.64 14 18:36 26.02.2020
1951 Clear -18 1015 49 16093 3.64 14 18:18 26.02.2020
1952 Clear -22 1015 63 16093 3.64 14 17:40 26.02.2020
1953 Clear -19 1015 63 16093 4.26 19 17:19 26.02.2020
1954 Clear -18 1015 58 16093 4.26 19 16:56 26.02.2020
1955 Clear -18 1015 58 16093 4.26 19 16:38 26.02.2020
1956 Clear -18 1015 58 16093 4.26 19 16:19 26.02.2020
1957 Clear -17 1016 54 16093 1.5 190 15:44 26.02.2020
1958 Clear -17 1016 54 16093 1.5 190 15:25 26.02.2020
1959 Clear -16 1016 54 16093 2.6 150 14:43 26.02.2020
1960 Clear -16 1016 54 16093 2.6 150 14:23 26.02.2020
1961 Clear -16 1016 54 16093 5.7 320 13:56 26.02.2020
1962 Clear -16 1016 54 16093 5.7 320 13:38 26.02.2020
1963 Clear -16 1016 54 16093 5.7 320 13:18 26.02.2020
1964 -273 0 0 0 0 0 12:38 26.02.2020
1965 Clear -14 1016 50 16093 6.2 350 12:18 26.02.2020
1966 Clear -12 1016 43 16093 5.7 50 11:43 26.02.2020
1967 Clear -12 1016 43 16093 5.7 50 11:23 26.02.2020
1968 Clear -12 1017 51 16093 9.8 360 10:59 26.02.2020
1969 Clear -12 1017 51 16093 9.8 360 10:39 26.02.2020
1970 Clear -12 1017 51 16093 9.8 360 10:21 26.02.2020
1971 Clear -9 1017 43 16093 7.7 40 09:44 26.02.2020
1972 Clear -9 1017 43 16093 7.7 40 09:24 26.02.2020
1973 Clear -12 1017 66 16093 4.21 18 08:59 26.02.2020
1974 Clear -12 1017 66 16093 4.21 18 08:37 26.02.2020
1975 Clear -12 1017 66 16093 4.68 18 08:18 26.02.2020
1976 Clear -12 1017 66 16093 4.68 18 07:43 26.02.2020
1977 Clear -12 1017 66 16093 4.68 18 07:25 26.02.2020
1978 Clear -15 1018 65 16093 4.68 18 06:52 26.02.2020
1979 Clear -15 1018 65 16093 4.68 18 06:34 26.02.2020
1980 Clear -16 1018 65 16093 2.1 0 05:53 26.02.2020
1981 Clear -16 1018 65 16093 2.1 0 05:53 26.02.2020
1982 Clear -14 1018 65 16093 2.1 0 05:24 26.02.2020
1983 Clear -13 1018 65 16093 3.77 19 04:23 26.02.2020
1984 Clear -12 1018 71 16093 3.77 19 02:23 26.02.2020
1985 Clear -11 1019 65 16093 2.47 20 01:45 26.02.2020
1986 Clear -12 1020 65 16093 2.45 18 00:48 26.02.2020
1987 Clear -13 1020 65 16093 2.45 18 00:24 26.02.2020
1988 Clear -13 1020 65 16093 2.45 18 00:24 26.02.2020
1989 Clear -12 1020 55 16093 2.45 18 23:45 25.02.2020
1990 Clear -12 1020 55 16093 2.45 18 23:27 25.02.2020
1991 Clear -14 1021 54 16093 2.49 21 22:59 25.02.2020
1992 Clear -15 1021 54 16093 2.49 21 22:41 25.02.2020
1993 Clear -14 1021 54 16093 2.49 21 22:19 25.02.2020
1994 Clear -17 1021 54 16093 2.49 21 21:55 25.02.2020
1995 Clear -15 1021 54 16093 2.49 21 21:36 25.02.2020
1996 Clear -15 1021 54 16093 2.49 21 21:18 25.02.2020
1997 Clear -16 1021 58 16093 2.49 21 20:54 25.02.2020
1998 Clear -20 1021 58 16093 2.49 21 20:36 25.02.2020
1999 Clear -17 1021 58 16093 1.93 3 20:18 25.02.2020
2000 Clear -16 1022 53 16093 2.1 10 19:40 25.02.2020
2001 Clear -18 1022 53 16093 2.1 10 19:19 25.02.2020
2002 Clear -19 1022 63 16093 2.05 1 18:42 25.02.2020
2003 Clear -19 1022 63 16093 2.05 1 18:22 25.02.2020
2004 Clear -18 1022 63 16093 2.1 20 17:59 25.02.2020
2005 Clear -17 1022 63 16093 2.1 20 17:38 25.02.2020
2006 Clear -17 1022 63 16093 2.1 20 17:20 25.02.2020
2007 Clear -17 1023 69 16093 2.08 31 16:59 25.02.2020
2008 Clear -18 1023 69 16093 2.08 31 16:40 25.02.2020
2009 Clear -18 1023 69 16093 2.08 31 16:40 25.02.2020
2010 Clear -19 1023 69 16093 2.08 31 16:22 25.02.2020
2011 Clear -19 1023 63 16093 3.1 50 15:57 25.02.2020
2012 Clear -18 1023 63 16093 3.1 50 15:38 25.02.2020
2013 Clear -18 1023 63 16093 3.1 50 15:18 25.02.2020
2014 Clear -17 1024 59 16093 3.1 10 14:56 25.02.2020
2015 Clear -15 1024 59 16093 3.1 10 14:37 25.02.2020
2016 Clear -15 1024 59 16093 3.1 10 14:18 25.02.2020
2017 Clear -15 1025 70 16093 2.56 52 13:55 25.02.2020
2018 Clear -16 1025 70 16093 2.56 52 13:37 25.02.2020
2019 Clear -16 1025 70 16093 2.3 52 13:18 25.02.2020
2020 Clear -14 1025 54 16093 3.6 20 12:41 25.02.2020
2021 Clear -14 1025 54 16093 3.6 20 12:21 25.02.2020
2022 Clear -15 1026 59 16093 3.1 20 11:57 25.02.2020
2023 Clear -16 1026 59 16093 3.1 20 11:38 25.02.2020
2024 Clear -16 1026 59 16093 3.1 20 11:19 25.02.2020
2025 Clear -15 1027 59 16093 3.1 40 10:59 25.02.2020
2026 Clear -15 1027 59 16093 3.1 40 10:40 25.02.2020
2027 Clear -17 1027 59 16093 3.1 40 10:21 25.02.2020
2028 Clear -14 1027 54 16093 3.6 50 09:41 25.02.2020
2029 Clear -14 1027 54 16093 3.6 50 09:22 25.02.2020
2030 Clear -13 1027 50 16093 3.6 70 08:47 25.02.2020
2031 Clear -13 1027 50 16093 3.6 70 08:28 25.02.2020
2032 Clear -14 1027 54 16093 1.5 360 07:58 25.02.2020
2033 Clear -15 1027 54 16093 1.5 360 07:39 25.02.2020
2034 Clear -15 1027 54 16093 1.5 360 07:18 25.02.2020
2035 Clear -14 1028 55 16093 2.85 56 06:28 25.02.2020
2036 Clear -14 1028 60 16093 4.6 80 05:27 25.02.2020
2037 Clear -12 1029 55 16093 3.01 66 03:30 25.02.2020
2038 Clear -13 1029 60 16093 4.1 70 01:31 25.02.2020
2039 Clear -14 1030 71 16093 5.1 80 00:43 25.02.2020
2040 Clear -14 1030 71 16093 5.1 80 00:22 25.02.2020
2041 Clear -15 1029 71 16093 4.6 70 23:40 24.02.2020
2042 Clear -14 1029 71 16093 4.6 70 23:20 24.02.2020
2043 Clear -16 1030 84 16093 5.7 90 22:39 24.02.2020
2044 Clear -16 1030 84 16093 5.7 90 22:19 24.02.2020
2045 Clouds -17 1029 84 16093 5.7 80 21:57 24.02.2020
2046 Clouds -17 1029 84 16093 5.7 80 21:39 24.02.2020
2047 Clouds -17 1029 84 16093 5.7 80 21:19 24.02.2020
2048 Clouds -16 1029 77 16093 5.1 90 20:58 24.02.2020
2049 Clouds -16 1029 77 16093 5.1 90 20:39 24.02.2020
2050 Clouds -16 1029 77 16093 5.1 90 20:19 24.02.2020
2051 Clouds -15 1029 71 16093 5.7 90 19:56 24.02.2020
2052 Clouds -15 1029 71 16093 5.7 90 19:38 24.02.2020
2053 Clouds -15 1029 71 16093 5.7 90 19:19 24.02.2020
2054 Clouds -13 1028 71 16093 5.1 80 18:42 24.02.2020
2055 Clouds -13 1028 71 16093 5.1 80 18:24 24.02.2020
2056 Snow -14 1028 77 14484 4.6 80 17:58 24.02.2020
2057 Snow -14 1028 77 14484 4.6 80 17:39 24.02.2020
2058 Snow -15 1028 77 14484 4.6 80 17:20 24.02.2020
2059 Snow -15 1028 77 14484 4.1 90 16:55 24.02.2020
2060 Snow -14 1028 77 14484 4.1 90 16:37 24.02.2020
2061 Snow -14 1028 77 14484 4.1 90 16:19 24.02.2020
2062 Snow -12 1028 85 14484 5.7 110 15:57 24.02.2020
2063 Snow -12 1028 85 14484 5.7 110 15:38 24.02.2020
2064 Snow -12 1028 85 14484 5.7 110 15:20 24.02.2020
2065 Snow -12 1027 85 14484 5.7 80 14:42 24.02.2020
2066 Snow -12 1027 85 14484 5.7 80 14:24 24.02.2020
2067 Snow -12 1027 85 14484 5.7 80 14:24 24.02.2020
2068 Snow -12 1028 85 4828 6.2 90 13:59 24.02.2020
2069 Snow -12 1028 85 4828 6.2 90 13:41 24.02.2020
2070 Snow -12 1028 85 4828 6.2 90 13:23 24.02.2020
2071 Snow -12 1027 85 4023 6.2 90 12:59 24.02.2020
2072 Snow -12 1027 85 4023 6.2 90 12:41 24.02.2020
2073 Snow -13 1027 84 4023 5.7 80 12:23 24.02.2020
2074 Snow -13 1027 84 4023 5.7 80 11:50 24.02.2020
2075 Snow -13 1027 78 2816 5.7 80 11:32 24.02.2020
2076 Snow -13 1027 84 14484 3.1 80 10:54 24.02.2020
2077 Snow -13 1027 84 14484 3.1 80 10:36 24.02.2020
2078 Snow -13 1027 84 14484 3.1 80 10:18 24.02.2020
2079 Snow -13 1027 78 12874 4.6 90 09:40 24.02.2020
2080 Snow -13 1027 78 12874 4.6 90 09:19 24.02.2020
2081 Snow -13 1027 78 12874 4.6 90 09:19 24.02.2020
2082 Snow -14 1027 77 11265 5.1 80 08:51 24.02.2020
2083 Snow -14 1027 77 11265 5.1 80 08:29 24.02.2020
2084 Snow -14 1027 77 11265 5.1 80 08:29 24.02.2020
2085 Snow -15 1027 84 9656 4.6 90 07:55 24.02.2020
2086 Snow -15 1026 77 14484 5.1 80 07:33 24.02.2020
2087 Snow -15 1026 77 14484 5.7 80 06:50 24.02.2020
2088 Snow -16 1026 84 6437 4.6 70 06:23 24.02.2020
2089 Snow -16 1025 84 6437 3.1 80 05:44 24.02.2020
2090 Snow -16 1025 84 6437 3.1 80 05:24 24.02.2020
2091 Snow -14 1024 77 8047 4.1 80 02:57 24.02.2020
2092 Snow -14 1024 77 8047 4.1 80 02:18 24.02.2020
2093 Clouds -14 1024 77 16093 4.6 80 01:30 24.02.2020
2094 Snow -15 1024 77 4828 4.6 90 00:44 24.02.2020
2095 Snow -15 1024 77 4828 4.6 90 00:20 24.02.2020
2096 Snow -15 1024 77 11265 4.1 80 23:45 23.02.2020
2097 Snow -15 1024 77 11265 4.1 80 23:24 23.02.2020
2098 Snow -16 1023 84 4828 4.6 70 22:59 23.02.2020
2099 Snow -16 1023 84 4828 4.6 70 22:41 23.02.2020
2100 Snow -16 1023 84 4828 4.6 70 22:21 23.02.2020
2101 Snow -16 1022 77 9656 4.6 70 21:54 23.02.2020
2102 Snow -16 1022 77 9656 4.6 70 21:36 23.02.2020
2103 Snow -16 1022 77 9656 4.6 70 21:18 23.02.2020
2104 Snow -17 1022 84 9656 4.1 70 20:55 23.02.2020
2105 Snow -17 1022 84 9656 4.1 70 20:36 23.02.2020
2106 Snow -17 1022 84 9656 4.1 70 20:18 23.02.2020
2107 Mist -17 1022 84 8047 5.1 80 19:41 23.02.2020
2108 Mist -17 1022 84 8047 5.1 80 19:20 23.02.2020
2109 Haze -17 1022 84 8047 5.1 80 18:59 23.02.2020
2110 Haze -17 1022 84 8047 5.1 80 18:40 23.02.2020
2111 Haze -17 1022 84 8047 5.1 80 18:20 23.02.2020
2112 Mist -17 1021 84 8047 5.1 70 17:58 23.02.2020
2113 Mist -17 1021 84 8047 5.1 70 17:39 23.02.2020
2114 Mist -17 1021 84 8047 5.1 70 17:21 23.02.2020
2115 Mist -17 1021 84 4828 5.7 80 16:56 23.02.2020
2116 Mist -18 1021 84 4828 6.2 70 16:37 23.02.2020
2117 Mist -18 1021 84 4828 6.2 70 16:18 23.02.2020
2118 Snow -18 1020 84 4828 6.2 70 15:54 23.02.2020
2119 Snow -18 1021 77 3219 6.2 80 15:36 23.02.2020
2120 Snow -18 1021 77 3219 6.2 80 15:18 23.02.2020
2121 Snow -18 1021 77 2816 7.2 80 14:41 23.02.2020
2122 Snow -18 1021 77 3219 6.2 80 14:23 23.02.2020
2123 Snow -18 1020 77 2816 7.7 90 13:59 23.02.2020
2124 Snow -18 1020 77 2816 7.7 90 13:41 23.02.2020
2125 Snow -18 1020 77 2414 7.2 90 13:22 23.02.2020
2126 Snow -18 1020 77 2414 7.2 90 13:22 23.02.2020
2127 Snow -18 1020 77 2414 7.7 80 12:59 23.02.2020
2128 Snow -19 1021 77 1609 6.7 80 12:38 23.02.2020
2129 Snow -19 1021 77 1609 6.7 80 12:19 23.02.2020
2130 Snow -18 1020 77 2414 6.2 80 11:38 23.02.2020
2131 Snow -18 1020 77 2414 6.2 80 11:20 23.02.2020
2132 Snow -19 1021 84 3219 6.2 80 10:56 23.02.2020
2133 Clouds -19 1021 77 16093 5.7 70 10:38 23.02.2020
2134 Clouds -19 1021 77 16093 5.7 70 10:20 23.02.2020
2135 Clouds -20 1020 83 16093 4.6 80 09:54 23.02.2020
2136 Clouds -20 1020 83 16093 4.6 80 09:36 23.02.2020
2137 Clouds -20 1020 83 16093 4.6 80 09:36 23.02.2020
2138 Clouds -20 1020 83 16093 4.6 80 09:18 23.02.2020
2139 Clouds -21 1020 83 16093 5.1 80 08:42 23.02.2020
2140 Clouds -21 1020 83 16093 5.1 80 08:23 23.02.2020
2141 Clouds -21 1020 83 12874 5.1 80 07:43 23.02.2020
2142 Clouds -21 1020 83 16093 5.1 90 07:25 23.02.2020
2143 Mist -21 1019 76 16093 4.6 90 06:20 23.02.2020
2144 Clouds -21 1018 76 14484 3.6 70 04:51 23.02.2020
2145 Clouds -21 1017 76 11265 3.1 80 03:52 23.02.2020
2146 Clear -21 1017 76 16093 1.39 121 02:38 23.02.2020
2147 Mist -21 1016 83 9656 1.38 200 01:27 23.02.2020
2148 Clear -22 1015 83 16093 1.55 191 00:58 23.02.2020
2149 Clear -22 1015 83 16093 1.55 191 00:37 23.02.2020
2150 Clear -22 1015 83 16093 1.55 191 00:18 23.02.2020
2151 Clear -25 1015 75 16093 1.55 191 23:42 22.02.2020
2152 Clear -25 1015 75 16093 1.45 254 23:20 22.02.2020
2153 Clear -27 1014 82 16093 1.45 254 22:44 22.02.2020
2154 Clear -27 1014 82 16093 1.45 254 22:19 22.02.2020
2155 Clear -29 1013 82 16093 1.45 254 21:43 22.02.2020
2156 Clear -29 1013 82 16093 1.45 254 21:24 22.02.2020
2157 Clear -31 1012 82 16093 1.45 254 20:57 22.02.2020
2158 Clear -31 1012 82 16093 1.45 254 20:38 22.02.2020
2159 Clear -31 1012 82 16093 1.45 254 20:38 22.02.2020
2160 Clear -31 1012 82 16093 1.6 250 20:20 22.02.2020
2161 Clouds -32 1012 82 16093 1.5 40 19:42 22.02.2020
2162 Clouds -32 1012 82 16093 1.5 40 19:23 22.02.2020
2163 Clear -32 1011 82 16093 1.5 20 18:54 22.02.2020
2164 Clear -32 1011 82 16093 1.5 20 18:36 22.02.2020
2165 Clear -32 1011 82 16093 1.5 20 18:18 22.02.2020
2166 Clear -31 1010 74 16093 1.6 250 17:43 22.02.2020
2167 Clear -31 1010 74 16093 1.6 250 17:25 22.02.2020
2168 Clear -32 1010 82 16093 1.7 254 16:58 22.02.2020
2169 Clear -32 1010 82 16093 1.7 254 16:40 22.02.2020
2170 Clear -32 1010 82 16093 1.7 254 16:20 22.02.2020
2171 Clear -31 1009 74 16093 1.5 20 15:46 22.02.2020
2172 Clear -31 1009 74 16093 1.5 20 15:27 22.02.2020
2173 Clear -31 1008 74 16093 1.5 10 14:58 22.02.2020
2174 Clear -31 1008 74 16093 1.5 10 14:39 22.02.2020
2175 Clear -31 1008 74 16093 1.5 10 14:20 22.02.2020
2176 Clear -31 1008 74 16093 0.83 232 13:42 22.02.2020
2177 Clear -31 1008 74 16093 0.68 228 13:20 22.02.2020
2178 Clear -30 1007 82 16093 0.68 228 12:58 22.02.2020
2179 Clear -30 1007 82 16093 0.68 228 12:39 22.02.2020
2180 Clear -30 1007 82 16093 0.68 228 12:20 22.02.2020
2181 Clear -29 1006 75 16093 1.5 10 11:42 22.02.2020
2182 Clear -29 1006 75 16093 1.5 10 11:23 22.02.2020
2183 Clouds -29 1006 75 16093 1.5 350 10:42 22.02.2020
2184 Clouds -29 1006 75 16093 1.5 350 10:21 22.02.2020
2185 Clouds -28 1005 75 16093 0.38 309 09:59 22.02.2020
2186 Clouds -28 1005 75 16093 0.38 309 09:40 22.02.2020
2187 Clouds -28 1005 75 16093 0.38 309 09:22 22.02.2020
2188 Clear -28 1004 75 16093 0.38 309 08:51 22.02.2020
2189 Clear -28 1004 75 16093 0.38 309 08:28 22.02.2020
2190 Clear -27 1003 75 16093 2.1 280 07:58 22.02.2020
2191 Clear -27 1003 75 16093 2.1 280 07:38 22.02.2020
2192 Clear -27 1003 75 16093 2.1 280 07:18 22.02.2020
2193 Clear -25 1002 69 16093 1.57 324 06:41 22.02.2020
2194 Clear -22 1001 69 16093 1.5 170 04:44 22.02.2020
2195 Clear -20 1000 58 16093 2.21 318 03:47 22.02.2020
2196 Clear -20 1000 58 16093 2.21 318 02:34 22.02.2020
2197 Clear -20 999 53 16093 2.1 280 01:47 22.02.2020
2198 Clear -19 999 53 16093 2.1 280 01:28 22.02.2020
2199 Clear -19 999 58 16093 2.49 311 00:46 22.02.2020
2200 Clear -19 999 58 16093 2.49 311 00:28 22.02.2020
2201 Clouds -20 998 58 16093 2.6 310 23:52 21.02.2020
2202 Clouds -21 998 58 16093 2.6 310 23:25 21.02.2020
2203 Clear -22 997 63 16093 3.6 290 22:58 21.02.2020
2204 Clear -22 997 63 16093 3.6 290 22:39 21.02.2020
2205 Clear -22 997 63 16093 3.6 290 22:39 21.02.2020
2206 -273 0 0 0 0 0 22:21 21.02.2020
2207 Clear -22 997 63 16093 1.5 10 21:42 21.02.2020
2208 Clear -21 997 63 16093 1.5 10 21:24 21.02.2020
2209 Clear -21 996 63 16093 3.1 340 20:58 21.02.2020
2210 Clear -22 996 63 16093 3.1 340 20:38 21.02.2020
2211 Clear -22 996 63 16093 3.1 340 20:19 21.02.2020
2212 Clouds -23 995 63 16093 2.33 324 19:39 21.02.2020
2213 Clouds -23 995 63 16093 2.33 324 19:39 21.02.2020
2214 Clouds -22 995 63 16093 2.33 324 19:19 21.02.2020
2215 Clear -21 995 76 16093 2.6 280 18:42 21.02.2020
2216 Clear -21 995 76 16093 2.6 280 18:23 21.02.2020
2217 Clouds -19 994 70 16093 2.1 110 17:56 21.02.2020
2218 Clouds -20 994 70 16093 2.1 110 17:36 21.02.2020
2219 Clouds -19 994 70 16093 2.1 110 17:18 21.02.2020
2220 Clouds -18 993 64 16093 4.1 20 16:42 21.02.2020
2221 Clouds -18 993 64 16093 4.1 20 16:22 21.02.2020
2222 Clouds -17 993 59 16093 8.2 350 15:58 21.02.2020
2223 Clouds -17 993 59 16093 8.2 350 15:38 21.02.2020
2224 Clouds -17 993 59 16093 8.2 350 15:18 21.02.2020
2225 Clouds -17 993 59 16093 8.2 350 15:18 21.02.2020
2226 Clouds -17 993 64 16093 5.1 330 14:42 21.02.2020
2227 Clouds -17 993 64 16093 5.1 330 14:21 21.02.2020
2228 Clouds -17 992 64 16093 6.7 350 13:58 21.02.2020
2229 Clouds -17 992 64 16093 6.7 350 13:38 21.02.2020
2230 Clouds -17 992 64 16093 6.7 350 13:20 21.02.2020
2231 Clouds -17 992 70 16093 5.1 10 12:42 21.02.2020
2232 Clouds -17 992 70 16093 5.1 10 12:24 21.02.2020
2233 Clouds -17 992 70 16093 5.7 350 11:55 21.02.2020
2234 Clouds -17 992 70 16093 5.7 350 11:55 21.02.2020
2235 Clouds -17 992 70 16093 5.7 350 11:36 21.02.2020
2236 Clouds -17 992 70 16093 5.7 350 11:18 21.02.2020
2237 Clouds -16 991 65 16093 5.7 350 10:41 21.02.2020
2238 Clouds -16 991 65 16093 5.7 350 10:20 21.02.2020
2239 Clouds -16 991 71 16093 4.6 350 09:58 21.02.2020
2240 Clouds -16 991 71 16093 4.6 350 09:38 21.02.2020
2241 Clouds -16 991 71 16093 4.6 350 09:20 21.02.2020
2242 Clouds -16 990 65 16093 6.2 350 08:45 21.02.2020
2243 Clouds -16 990 65 16093 6.2 350 08:23 21.02.2020
2244 Clouds -15 990 65 16093 6.7 350 07:59 21.02.2020
2245 Clouds -15 990 65 16093 6.7 350 07:41 21.02.2020
2246 Clouds -15 990 65 16093 6.7 350 07:20 21.02.2020
2247 Clouds -14 989 71 16093 5.7 360 06:55 21.02.2020
2248 Clouds -14 989 71 16093 5.7 360 06:31 21.02.2020
2249 Clouds -14 989 65 16093 8.7 350 05:52 21.02.2020
2250 Clouds -14 989 71 16093 6.2 360 04:39 21.02.2020
2251 Clouds -14 989 71 16093 6.2 360 04:20 21.02.2020
2252 Clouds -14 988 71 16093 5.7 340 03:44 21.02.2020
2253 Clouds -13 989 65 16093 4.1 350 02:58 21.02.2020
2254 Clouds -12 989 72 16093 3.34 6 01:28 21.02.2020
2255 Clouds -13 989 78 16093 3.34 6 00:46 21.02.2020
2256 Clouds -13 989 78 16093 3.34 6 00:24 21.02.2020
2257 Clouds -13 989 78 16093 3.34 6 00:24 21.02.2020
2258 Clouds -13 989 65 16093 5.1 350 23:46 20.02.2020
2259 Clouds -13 989 65 16093 5.1 350 23:26 20.02.2020
2260 Clouds -13 989 65 16093 4.58 355 23:00 20.02.2020
2261 Clouds -13 989 65 16093 4.58 355 22:39 20.02.2020
2262 Clouds -13 989 65 16093 4.58 355 22:20 20.02.2020
2263 Clouds -15 990 77 16093 1.5 280 21:56 20.02.2020
2264 Clouds -15 990 77 16093 1.5 280 21:37 20.02.2020
2265 Clouds -15 990 77 16093 1.5 280 21:19 20.02.2020
2266 Clouds -15 990 77 16093 4.58 355 20:55 20.02.2020
2267 Clouds -15 990 77 16093 4.58 355 20:37 20.02.2020
2268 Clouds -15 990 77 16093 3.94 359 20:19 20.02.2020
2269 Clouds -15 990 71 16093 3.51 356 19:58 20.02.2020
2270 Clouds -15 990 71 16093 3.51 356 19:39 20.02.2020
2271 Clouds -15 990 71 16093 3.51 356 19:21 20.02.2020
2272 Clouds -16 990 77 16093 3.51 356 18:39 20.02.2020
2273 Clouds -16 990 77 16093 3.51 356 18:20 20.02.2020
2274 Clouds -16 990 71 16093 3.1 300 17:55 20.02.2020
2275 Clouds -16 990 71 16093 3.1 300 17:36 20.02.2020
2276 Clouds -16 990 71 16093 5.1 330 17:18 20.02.2020
2277 Clouds -16 990 71 16093 5.1 330 16:55 20.02.2020
2278 Clouds -16 990 71 16093 5.1 330 16:37 20.02.2020
2279 Clouds -16 990 71 16093 5.1 330 16:18 20.02.2020
2280 Clouds -17 991 70 16093 4.69 358 15:41 20.02.2020
2281 Clouds -17 991 70 16093 4.69 358 15:21 20.02.2020
2282 Clouds -17 991 70 16093 4.69 358 14:56 20.02.2020
2283 Clouds -17 991 70 16093 4.69 358 14:38 20.02.2020
2284 Clouds -17 991 70 16093 3.56 6 14:20 20.02.2020
2285 Clouds -17 992 70 16093 5.1 360 13:45 20.02.2020
2286 Clouds -17 992 70 16093 5.1 360 13:20 20.02.2020
2287 Clouds -16 992 71 16093 3.52 6 12:58 20.02.2020
2288 Clouds -16 992 71 16093 3.52 6 12:39 20.02.2020
2289 Clouds -16 992 71 16093 3.52 6 12:19 20.02.2020
2290 Clouds -17 992 70 16093 4.6 350 11:54 20.02.2020
2291 Clouds -17 992 70 16093 4.6 350 11:36 20.02.2020
2292 Clouds -17 992 70 16093 4.6 350 11:18 20.02.2020
2293 Clouds -17 992 70 16093 4.6 340 10:42 20.02.2020
2294 Clouds -17 992 70 16093 4.6 340 10:42 20.02.2020
2295 Clouds -17 992 70 16093 4.6 340 10:22 20.02.2020
2296 Clouds -17 992 77 16093 3.6 360 09:55 20.02.2020
2297 Clouds -17 992 77 16093 3.6 360 09:36 20.02.2020
2298 Clouds -17 992 77 16093 3.6 360 09:18 20.02.2020
2299 Clouds -16 992 77 16093 3.6 340 08:39 20.02.2020
2300 Clouds -16 992 77 16093 3.6 340 08:21 20.02.2020
2301 Snow -15 992 77 9656 5.7 340 07:46 20.02.2020
2302 Snow -15 992 77 9656 5.7 340 07:26 20.02.2020
2303 Clouds -15 992 71 16093 5.1 350 06:55 20.02.2020
2304 Clouds -14 992 71 16093 5.1 350 06:30 20.02.2020
2305 Snow -14 992 71 8047 5.7 350 05:47 20.02.2020
2306 Snow -14 992 71 8047 5.7 350 05:18 20.02.2020
2307 Clouds -13 992 71 16093 2.6 360 04:28 20.02.2020
2308 Clouds -13 992 78 16093 2.1 330 03:40 20.02.2020
2309 Snow -12 992 85 6437 3.6 50 02:37 20.02.2020
2310 Snow -11 992 78 4828 5.1 40 01:21 20.02.2020
2311 Snow -11 992 78 3219 4.1 40 00:34 20.02.2020
2312 Snow -11 992 78 4828 2.1 10 23:54 19.02.2020
2313 Snow -11 992 78 4828 2.1 10 23:23 19.02.2020
2314 Snow -10 991 72 4828 5.1 360 22:56 19.02.2020
2315 Snow -10 991 78 12874 5.1 20 22:38 19.02.2020
2316 Snow -10 991 78 12874 5.1 20 22:20 19.02.2020
2317 Snow -10 991 78 1609 5.7 40 21:55 19.02.2020
2318 Snow -10 991 78 1609 3.1 50 21:37 19.02.2020
2319 Snow -9 991 78 1609 3.1 50 21:18 19.02.2020
2320 Clouds -10 990 78 11265 4.6 350 20:55 19.02.2020
2321 Clouds -9 990 72 16093 6.2 10 20:36 19.02.2020
2322 Clouds -9 990 72 16093 6.2 10 20:18 19.02.2020
2323 Clouds -9 990 72 14484 5.1 30 19:55 19.02.2020
2324 Clouds -9 990 72 14484 5.1 30 19:36 19.02.2020
2325 Clouds -9 990 72 14484 5.1 30 19:18 19.02.2020
2326 Snow -9 989 78 14484 2.6 340 18:55 19.02.2020
2327 Snow -9 989 78 14484 2.6 340 18:37 19.02.2020
2328 Snow -9 989 78 14484 2.6 340 18:19 19.02.2020
2329 Snow -7 989 85 8047 4.19 27 17:42 19.02.2020
2330 Snow -7 989 73 8047 4.13 16 17:19 19.02.2020
2331 Clouds -7 989 73 16093 2.1 20 16:44 19.02.2020
2332 Clouds -7 988 73 16093 3.1 30 16:19 19.02.2020
2333 Clouds -8 988 78 16093 4.1 350 15:58 19.02.2020
2334 Clouds -8 988 78 16093 4.1 350 15:39 19.02.2020
2335 Clouds -8 988 78 16093 4.1 350 15:20 19.02.2020
2336 Clouds -8 988 85 16093 1.5 70 14:42 19.02.2020
2337 Clouds -7 988 85 16093 1.5 70 14:23 19.02.2020
2338 Clouds -7 987 85 16093 2.1 340 13:59 19.02.2020
2339 Clouds -7 987 85 16093 2.1 340 13:40 19.02.2020
2340 Clouds -7 987 85 16093 2.1 340 13:20 19.02.2020
2341 Clouds -6 987 92 14484 1.5 0 12:41 19.02.2020
2342 Clouds -6 987 92 14484 1.5 0 12:19 19.02.2020
2343 Clouds -6 987 92 14484 1.5 0 12:19 19.02.2020
2344 Clouds -6 987 92 16093 3.72 15 11:58 19.02.2020
2345 Clouds -6 987 92 16093 3.72 15 11:37 19.02.2020
2346 Clouds -6 987 92 16093 3.32 358 11:19 19.02.2020
2347 Clouds -6 987 92 16093 3.32 358 11:19 19.02.2020
2348 Clouds -5 987 92 16093 3.6 360 10:56 19.02.2020
2349 Clouds -6 987 92 16093 3.6 360 10:38 19.02.2020
2350 Clouds -6 987 92 16093 3.6 360 10:19 19.02.2020
2351 Clouds -5 987 85 14484 2.1 260 09:56 19.02.2020
2352 Clouds -5 987 85 14484 2.1 260 09:37 19.02.2020
2353 Clouds -5 987 85 14484 2.1 260 09:18 19.02.2020
2354 Snow -4 986 85 11265 2.1 340 08:44 19.02.2020
2355 Snow -4 986 85 11265 2.1 340 08:23 19.02.2020
2356 Snow -4 986 85 3219 4.1 350 07:41 19.02.2020
2357 Snow -4 986 85 3219 4.1 350 07:20 19.02.2020
2358 Snow -4 986 85 3219 4.1 340 06:53 19.02.2020
2359 Snow -4 986 85 2414 3.6 10 06:20 19.02.2020
2360 Snow -4 985 85 4828 6.7 40 04:20 19.02.2020
2361 Clouds -4 985 85 16093 6.7 30 02:56 19.02.2020
2362 Clouds -4 985 85 14484 6.7 30 02:30 19.02.2020
2363 Clouds -4 985 85 14484 5.7 30 01:24 19.02.2020
2364 Clouds -4 985 85 14484 6.7 30 00:49 19.02.2020
2365 Clouds -4 985 85 14484 6.7 30 00:29 19.02.2020
2366 Clouds -4 986 85 16093 6.2 40 23:44 18.02.2020
2367 Clouds -4 986 85 16093 6.2 40 23:20 18.02.2020
2368 Clouds -4 986 92 14484 6.2 50 22:57 18.02.2020
2369 Clouds -4 986 92 14484 6.2 50 22:39 18.02.2020
2370 Clouds -4 986 92 14484 6.2 50 22:19 18.02.2020
2371 Mist -4 985 92 4828 5.7 60 21:55 18.02.2020
2372 Mist -4 985 92 4828 5.7 60 21:37 18.02.2020
2373 Mist -4 985 92 4828 5.7 60 21:19 18.02.2020
2374 Snow -4 985 92 2816 6.2 70 20:56 18.02.2020
2375 Snow -4 985 92 2816 6.2 70 20:56 18.02.2020
2376 Mist -4 985 85 8047 6.7 70 20:38 18.02.2020
2377 Mist -4 985 85 8047 6.7 70 20:38 18.02.2020
2378 Mist -4 985 85 8047 6.7 70 20:19 18.02.2020
2379 Snow -4 985 85 8047 5.7 70 19:43 18.02.2020
2380 Clouds -4 985 85 12874 6.7 70 19:20 18.02.2020
2381 Snow -4 985 85 4828 7.7 80 18:59 18.02.2020
2382 Snow -4 985 85 4828 7.7 80 18:41 18.02.2020
2383 Snow -4 985 85 4828 7.7 80 18:20 18.02.2020
2384 Snow -4 985 85 4828 8.2 80 17:55 18.02.2020
2385 Snow -4 985 85 4828 8.2 80 17:37 18.02.2020
2386 Snow -4 985 85 4828 8.2 80 17:18 18.02.2020
2387 Snow -5 985 85 4023 8.2 80 16:39 18.02.2020
2388 Snow -5 985 85 4023 8.2 80 16:19 18.02.2020
2389 Snow -5 985 85 6437 7.2 70 15:40 18.02.2020
2390 Snow -6 985 85 6437 6.2 60 15:20 18.02.2020
2391 Snow -6 985 85 3219 6.7 60 14:57 18.02.2020
2392 Snow -6 985 85 3219 6.7 60 14:57 18.02.2020
2393 Snow -6 985 85 14484 5.7 40 14:38 18.02.2020
2394 Snow -6 985 85 14484 5.7 40 14:20 18.02.2020
2395 Snow -6 985 85 11265 7.2 40 13:42 18.02.2020
2396 Snow -6 986 85 3219 6.2 40 13:23 18.02.2020
2397 Snow -7 986 92 2012 5.7 40 12:56 18.02.2020
2398 Snow -7 986 92 1609 4.6 40 12:38 18.02.2020
2399 Snow -7 986 92 1609 4.6 40 12:19 18.02.2020
2400 Snow -7 986 92 1609 5.7 30 11:44 18.02.2020
2401 Snow -7 986 85 2012 8.2 40 11:26 18.02.2020
2402 Snow -7 987 92 2012 5.1 350 10:57 18.02.2020
2403 Snow -7 987 92 2012 5.1 350 10:39 18.02.2020
2404 Snow -7 987 92 2012 5.1 350 10:18 18.02.2020
2405 Snow -7 987 92 1207 5.1 20 09:56 18.02.2020
2406 Snow -7 987 92 1207 5.1 20 09:37 18.02.2020
2407 Snow -7 987 92 1207 5.1 20 09:37 18.02.2020
2408 Snow -7 987 92 1207 5.1 20 09:18 18.02.2020
2409 Snow -6 988 79 3219 3.6 20 08:43 18.02.2020
2410 Snow -6 988 79 3219 3.6 20 08:21 18.02.2020
2411 Snow -6 988 79 3219 2.1 70 07:57 18.02.2020
2412 Snow -6 988 79 3219 2.1 70 07:34 18.02.2020
2413 Snow -6 988 79 3219 6.2 10 06:57 18.02.2020
2414 Snow -7 989 85 4023 5.7 20 06:39 18.02.2020
2415 Snow -7 989 85 4023 5.7 20 06:20 18.02.2020
2416 Snow -7 989 79 3219 7.7 30 05:34 18.02.2020
2417 Snow -8 990 78 2816 8.2 30 04:28 18.02.2020
2418 Snow -8 990 78 4023 7.2 40 03:31 18.02.2020
2419 Snow -9 991 85 1609 9.3 40 01:59 18.02.2020
2420 Snow -9 992 85 1609 9.8 40 00:56 18.02.2020
2421 Snow -9 992 85 402 10.8 40 00:22 18.02.2020
2422 Snow -8 992 78 805 10.8 40 23:56 17.02.2020
2423 Snow -8 993 85 805 10.8 40 23:37 17.02.2020
2424 Snow -8 993 85 805 10.8 40 23:19 17.02.2020
2425 Snow -8 993 78 1609 10.3 40 22:41 17.02.2020
2426 Snow -8 993 78 1609 10.3 40 22:21 17.02.2020
2427 Snow -7 994 73 1609 10.3 40 21:59 17.02.2020
2428 Snow -7 994 73 1609 10.3 40 21:38 17.02.2020
2429 Snow -7 994 73 1609 10.3 40 21:18 17.02.2020
2430 Clouds -7 995 73 8047 11.3 40 20:42 17.02.2020
2431 Clouds -7 995 73 8047 11.3 40 20:21 17.02.2020
2432 Clouds -7 995 73 8047 11.3 40 20:21 17.02.2020
2433 Clouds -7 995 73 8047 11.3 40 20:21 17.02.2020
2434 Snow -7 996 73 11265 8.7 50 19:58 17.02.2020
2435 Snow -7 996 73 11265 8.7 50 19:40 17.02.2020
2436 Snow -7 996 73 11265 8.7 50 19:20 17.02.2020
2437 Clouds -7 997 73 16093 9.3 40 18:38 17.02.2020
2438 Clouds -7 997 73 16093 9.3 40 18:20 17.02.2020
2439 Clouds -6 998 73 16093 7.7 50 17:58 17.02.2020
2440 Clouds -6 998 73 16093 7.7 50 17:58 17.02.2020
2441 Clouds -6 998 73 16093 7.7 50 17:38 17.02.2020
2442 Clouds -6 998 73 16093 7.7 50 17:38 17.02.2020
2443 Clouds -6 998 73 16093 7.7 50 17:19 17.02.2020
2444 Clouds -6 998 73 16093 7.7 50 17:19 17.02.2020
2445 Clear -7 999 73 16093 6.7 50 16:55 17.02.2020
2446 Clear -7 999 73 16093 6.7 50 16:37 17.02.2020
2447 Clear -7 999 73 16093 6.7 50 16:18 17.02.2020
2448 Clouds -7 1000 73 16093 7.7 40 15:44 17.02.2020
2449 Clouds -7 1000 73 16093 7.7 40 15:44 17.02.2020
2450 Clouds -7 1000 73 16093 7.7 40 15:26 17.02.2020
2451 Clear -8 1001 78 16093 7.2 30 14:55 17.02.2020
2452 Clear -8 1001 78 16093 7.2 30 14:37 17.02.2020
2453 Clear -8 1001 78 16093 7.2 30 14:19 17.02.2020
2454 Clear -8 1001 78 16093 7.2 30 14:19 17.02.2020
2455 Clouds -7 1002 79 16093 4.1 60 13:40 17.02.2020
2456 Clouds -7 1002 79 16093 4.1 60 13:20 17.02.2020
2457 Clouds -7 1003 79 16093 2.6 70 12:56 17.02.2020
2458 Clouds -7 1003 79 16093 2.6 70 12:38 17.02.2020
2459 Clouds -7 1003 79 16093 2.6 70 12:19 17.02.2020
2460 Clouds -7 1003 79 16093 3.6 50 11:45 17.02.2020
2461 Clouds -8 1004 78 16093 1.5 20 11:26 17.02.2020
2462 Clouds -9 1005 78 16093 4.6 70 10:57 17.02.2020
2463 Clouds -9 1005 78 16093 4.6 70 10:39 17.02.2020
2464 Clouds -9 1005 78 16093 4.6 70 10:20 17.02.2020
2465 Clouds -9 1005 78 16093 5.1 70 09:56 17.02.2020
2466 Clouds -9 1005 78 16093 4.6 80 09:38 17.02.2020
2467 Clouds -9 1005 78 16093 4.6 80 09:18 17.02.2020
2468 Clouds -9 1005 78 16093 5.1 80 08:42 17.02.2020
2469 Clouds -10 1006 85 16093 3.6 80 08:23 17.02.2020
2470 Clouds -11 1006 85 16093 3.6 60 07:59 17.02.2020
2471 Clouds -11 1006 85 16093 3.6 60 07:28 17.02.2020
2472 Clouds -11 1006 78 16093 5.1 80 06:58 17.02.2020
2473 Clouds -11 1006 78 16093 5.1 80 06:39 17.02.2020
2474 Clouds -11 1006 78 16093 5.1 80 06:19 17.02.2020
2475 Clouds -12 1006 85 16093 6.2 80 05:40 17.02.2020
2476 Clouds -12 1007 78 16093 6.7 90 04:23 17.02.2020
2477 Clouds -12 1007 78 16093 7.2 90 02:44 17.02.2020
2478 Clouds -13 1008 78 14484 6.7 90 00:59 17.02.2020
2479 Clouds -13 1008 78 14484 6.7 90 00:37 17.02.2020
2480 Clouds -13 1008 78 14484 6.7 90 00:18 17.02.2020
2481 Clouds -13 1008 78 14484 6.7 80 23:41 16.02.2020
2482 Clouds -13 1008 78 14484 6.7 80 23:22 16.02.2020
2483 Snow -13 1008 78 14484 6.2 80 22:55 16.02.2020
2484 Snow -13 1008 78 8047 7.2 90 22:37 16.02.2020
2485 Snow -13 1008 78 8047 7.2 90 22:18 16.02.2020
2486 Clouds -14 1007 77 16093 7.2 90 21:43 16.02.2020
2487 Clouds -14 1007 77 16093 7.2 90 21:24 16.02.2020
2488 Snow -14 1008 77 11265 7.7 90 20:59 16.02.2020
2489 Snow -14 1008 77 11265 7.7 90 20:40 16.02.2020
2490 Snow -14 1008 77 11265 7.7 90 20:22 16.02.2020
2491 Snow -14 1007 77 6437 6.2 80 19:59 16.02.2020
2492 Snow -14 1007 77 4828 6.7 90 19:40 16.02.2020
2493 Snow -14 1007 77 4828 6.7 90 19:19 16.02.2020
2494 Snow -14 1007 77 4828 7.7 90 18:59 16.02.2020
2495 Snow -14 1007 77 4828 7.7 90 18:41 16.02.2020
2496 Snow -14 1007 77 4828 7.7 90 18:22 16.02.2020
2497 Snow -14 1007 77 4828 8.7 90 17:44 16.02.2020
2498 Snow -14 1007 77 4023 8.2 90 17:20 16.02.2020
2499 Snow -14 1007 77 3219 8.7 90 16:57 16.02.2020
2500 Snow -14 1007 77 3219 8.2 90 16:39 16.02.2020
2501 Snow -14 1007 77 3219 8.2 90 16:21 16.02.2020
2502 Snow -14 1007 77 2816 8.7 80 15:56 16.02.2020
2503 Snow -14 1007 77 2012 7.7 80 15:37 16.02.2020
2504 Snow -14 1007 77 2012 7.7 80 15:18 16.02.2020
2505 Snow -15 1007 77 2414 7.7 70 14:39 16.02.2020
2506 Snow -15 1007 77 2414 7.7 70 14:21 16.02.2020
2507 Snow -15 1008 77 1207 6.7 80 13:46 16.02.2020
2508 Snow -15 1007 77 6437 7.2 70 13:24 16.02.2020
2509 Snow -15 1007 77 4828 6.7 80 12:55 16.02.2020
2510 Snow -15 1007 77 2816 6.2 80 12:36 16.02.2020
2511 Snow -15 1007 77 2816 6.2 80 12:18 16.02.2020
2512 Snow -15 1007 77 2414 6.2 80 11:39 16.02.2020
2513 Snow -15 1007 77 2414 6.2 80 11:18 16.02.2020
2514 Snow -15 1007 71 2816 6.2 80 10:56 16.02.2020
2515 Snow -15 1007 71 9656 6.2 80 10:38 16.02.2020
2516 Snow -15 1007 71 9656 6.2 80 10:20 16.02.2020
2517 Snow -15 1006 71 6437 5.7 70 09:55 16.02.2020
2518 Snow -15 1006 71 6437 5.7 70 09:36 16.02.2020
2519 Snow -15 1006 71 6437 5.7 70 09:18 16.02.2020
2520 Snow -14 1006 65 6437 6.7 80 08:45 16.02.2020
2521 Snow -14 1006 65 6437 6.7 80 08:21 16.02.2020
2522 Snow -14 1006 60 9656 6.7 80 07:54 16.02.2020
2523 Snow -14 1006 60 9656 6.7 80 07:34 16.02.2020
2524 Snow -14 1006 55 14484 6.7 90 06:33 16.02.2020
2525 Clouds -14 1005 55 14484 7.7 90 04:45 16.02.2020
2526 Clouds -14 1005 50 16093 5.7 80 03:33 16.02.2020
2527 Clouds -14 1005 50 16093 7.7 70 02:32 16.02.2020
2528 Clouds -14 1005 46 16093 6.7 70 01:44 16.02.2020
2529 Clouds -14 1005 46 16093 6.7 70 01:44 16.02.2020
2530 Clouds -14 1005 46 16093 6.7 70 01:26 16.02.2020
2531 Clouds -15 1005 50 16093 7.2 70 00:58 16.02.2020
2532 Clouds -15 1005 50 16093 7.2 70 00:34 16.02.2020
2533 Clouds -16 1005 49 16093 7.2 70 23:58 15.02.2020
2534 Clouds -16 1005 49 16093 7.2 70 23:40 15.02.2020
2535 Clouds -16 1005 49 16093 7.2 70 23:22 15.02.2020
2536 Clouds -16 1005 49 16093 6.7 70 22:56 15.02.2020
2537 Clouds -16 1005 49 16093 6.7 70 22:37 15.02.2020
2538 Clouds -16 1005 49 16093 6.7 70 22:18 15.02.2020
2539 Clouds -16 1005 49 16093 5.1 80 21:42 15.02.2020
2540 Clouds -16 1005 49 16093 5.1 80 21:23 15.02.2020
2541 Clouds -16 1005 49 16093 5.1 80 20:42 15.02.2020
2542 Clouds -16 1005 49 16093 5.1 80 20:42 15.02.2020
2543 Clouds -16 1005 49 16093 5.1 80 20:21 15.02.2020
2544 Clouds -16 1005 49 16093 5.1 80 20:21 15.02.2020
2545 Clouds -16 1005 49 16093 5.1 70 19:57 15.02.2020
2546 Clouds -16 1005 49 16093 5.1 70 19:39 15.02.2020
2547 Clouds -16 1005 49 16093 5.1 70 19:20 15.02.2020
2548 Clouds -16 1005 49 16093 5.7 70 18:40 15.02.2020
2549 Clouds -16 1005 49 16093 5.7 70 18:20 15.02.2020
2550 Clouds -16 1005 49 16093 5.7 80 17:44 15.02.2020
2551 Clouds -16 1005 49 16093 5.7 80 17:24 15.02.2020
2552 Clouds -16 1005 45 16093 4.1 70 16:59 15.02.2020
2553 Clouds -16 1005 45 16093 4.1 70 16:39 15.02.2020
2554 Clouds -16 1005 45 16093 4.1 70 16:20 15.02.2020
2555 Clear -17 1005 49 16093 3.6 70 15:49 15.02.2020
2556 Clear -17 1005 49 16093 3.6 70 15:30 15.02.2020
2557 Clear -18 1006 54 16093 3.1 50 14:46 15.02.2020
2558 Clear -18 1006 54 16093 3.1 50 14:24 15.02.2020
2559 Clear -17 1006 49 16093 3.6 70 13:58 15.02.2020
2560 Clear -17 1006 49 16093 3.6 70 13:40 15.02.2020
2561 Clear -17 1006 49 16093 3.6 70 13:21 15.02.2020
2562 Clear -16 1006 45 16093 3.1 70 12:44 15.02.2020
2563 Clear -16 1006 45 16093 3.1 70 12:26 15.02.2020
2564 Clear -16 1006 45 16093 4.1 70 11:56 15.02.2020
2565 Clear -16 1006 45 16093 4.1 70 11:36 15.02.2020
2566 Clear -16 1006 45 16093 4.1 70 11:18 15.02.2020
2567 Clouds -17 1005 54 16093 3.1 40 10:46 15.02.2020
2568 Clouds -17 1005 54 16093 3.1 40 10:27 15.02.2020
2569 Clouds -17 1005 54 16093 3.1 40 10:27 15.02.2020
2570 Clouds -15 1006 45 16093 3.6 60 09:45 15.02.2020
2571 Clouds -15 1006 45 16093 3.6 60 09:25 15.02.2020
2572 Clouds -18 1006 59 16093 4.1 20 08:59 15.02.2020
2573 Clouds -18 1006 59 16093 4.1 20 08:59 15.02.2020
2574 Clouds -18 1006 59 16093 4.1 20 08:39 15.02.2020
2575 Clouds -18 1006 59 16093 4.1 20 08:20 15.02.2020
2576 Clear -18 1006 49 16093 4.1 50 07:42 15.02.2020
2577 Clear -18 1006 49 16093 4.1 50 07:23 15.02.2020
2578 Clear -18 1006 54 16093 1.5 110 06:39 15.02.2020
2579 Clear -18 1006 54 16093 1.5 110 06:20 15.02.2020
2580 Clouds -16 1006 49 16093 2.6 70 04:52 15.02.2020
2581 Clouds -16 1006 49 16093 2.6 70 04:26 15.02.2020
2582 Clear -12 1006 39 16093 3.6 70 02:59 15.02.2020
2583 Clear -12 1006 39 16093 3.6 70 02:28 15.02.2020
2584 Clear -13 1007 50 16093 4.6 70 01:59 15.02.2020
2585 Clear -13 1007 50 16093 4.6 70 01:36 15.02.2020
2586 Clear -13 1007 42 16093 4.6 50 00:30 15.02.2020
2587 Clear -14 1007 54 16093 2.23 92 23:57 14.02.2020
2588 Clear -15 1007 54 16093 2.23 92 23:36 14.02.2020
2589 Clear -16 1007 54 16093 2.36 84 23:18 14.02.2020
2590 Clear -16 1007 49 16093 3.1 20 22:42 14.02.2020
2591 Clear -16 1007 49 16093 3.1 20 22:22 14.02.2020
2592 Clear -17 1007 54 16093 4.1 20 21:49 14.02.2020
2593 Clear -17 1007 54 16093 4.1 20 21:31 14.02.2020
2594 Clear -17 1007 54 16093 2.1 120 20:48 14.02.2020
2595 Clear -17 1007 54 16093 2.1 120 20:21 14.02.2020
2596 Clear -15 1007 46 16093 5.7 40 19:59 14.02.2020
2597 Clear -15 1007 46 16093 5.7 40 19:41 14.02.2020
2598 Clear -15 1007 46 16093 5.7 40 19:41 14.02.2020
2599 Clear -14 1007 46 16093 5.7 40 19:23 14.02.2020
2600 Clear -16 1008 49 16093 4.1 30 18:57 14.02.2020
2601 Clear -16 1008 49 16093 4.1 30 18:39 14.02.2020
2602 Clear -16 1008 49 16093 4.1 30 18:20 14.02.2020
2603 Clear -16 1008 49 16093 5.1 40 17:44 14.02.2020
2604 Clear -16 1008 49 16093 5.1 40 17:22 14.02.2020
2605 Clear -15 1008 45 16093 4.1 40 16:59 14.02.2020
2606 Clear -15 1008 45 16093 4.1 40 16:40 14.02.2020
2607 Clear -15 1008 45 16093 4.1 40 16:22 14.02.2020
2608 Clear -14 1008 42 16093 4.1 50 15:56 14.02.2020
2609 Clear -14 1008 42 16093 4.1 50 15:38 14.02.2020
2610 Clear -14 1008 42 16093 4.1 50 15:19 14.02.2020
2611 Clear -14 1009 42 16093 4.1 80 14:58 14.02.2020
2612 Clear -14 1009 42 16093 4.1 80 14:40 14.02.2020
2613 Clear -14 1009 42 16093 4.1 80 14:21 14.02.2020
2614 Clear -15 1010 49 16093 2.1 100 13:54 14.02.2020
2615 Clear -16 1010 49 16093 2.1 100 13:36 14.02.2020
2616 Clear -16 1010 49 16093 2.1 100 13:18 14.02.2020
2617 Clear -17 1011 53 16093 2.1 120 12:56 14.02.2020
2618 Clear -16 1011 53 16093 2.1 120 12:37 14.02.2020
2619 Clear -17 1011 53 16093 2.1 120 12:18 14.02.2020
2620 Clear -18 1011 58 16093 1.98 72 11:41 14.02.2020
2621 Clear -19 1011 58 16093 2.33 54 11:21 14.02.2020
2622 Clear -18 1012 53 16093 1.5 50 10:57 14.02.2020
2623 Clear -18 1012 53 16093 1.5 50 10:38 14.02.2020
2624 Clear -18 1012 53 16093 1.5 50 10:20 14.02.2020
2625 Clear -18 1012 69 16093 1.5 130 09:44 14.02.2020
2626 Clear -20 1012 69 16093 1.5 130 09:22 14.02.2020
2627 Clear -20 1013 69 16093 2.33 54 08:56 14.02.2020
2628 Clear -20 1013 69 16093 2.33 54 08:37 14.02.2020
2629 Clear -22 1013 69 16093 1.43 120 08:18 14.02.2020
2630 Clear -21 1014 69 16093 1.5 350 07:44 14.02.2020
2631 Clear -21 1014 69 16093 1.5 350 07:24 14.02.2020
2632 Clouds -24 1015 69 16093 2.6 10 06:32 14.02.2020
2633 Clouds -23 1015 63 16093 1.23 105 05:59 14.02.2020
2634 Clouds -23 1015 63 16093 1.23 105 05:27 14.02.2020
2635 Clear -20 1017 63 16093 2.06 63 03:31 14.02.2020
2636 Clear -20 1018 64 16093 1.5 10 02:52 14.02.2020
2637 Clear -20 1019 70 16093 1.19 99 01:54 14.02.2020
2638 Clear -20 1020 70 16093 0.78 101 00:44 14.02.2020
2639 Clear -21 1020 70 16093 0.78 101 00:25 14.02.2020
2640 Clear -22 1020 69 16093 0.78 101 23:52 13.02.2020
2641 Clear -22 1020 69 16093 1.55 93 23:25 13.02.2020
2642 Clear -23 1021 76 16093 1.55 93 22:59 13.02.2020
2643 Clear -23 1021 76 16093 1.55 93 22:38 13.02.2020
2644 Clear -22 1021 76 16093 1.55 93 22:19 13.02.2020
2645 Clear -23 1021 69 16093 1.5 260 21:43 13.02.2020
2646 Clear -22 1021 69 16093 1.5 260 21:24 13.02.2020
2647 Clear -22 1022 83 16093 3.6 70 20:59 13.02.2020
2648 Clear -22 1022 83 16093 3.6 70 20:40 13.02.2020
2649 Clear -22 1022 83 16093 3.6 70 20:22 13.02.2020
2650 Clear -22 1023 83 16093 1.73 84 19:57 13.02.2020
2651 Clear -22 1023 83 16093 1.73 84 19:37 13.02.2020
2652 Clear -21 1023 83 16093 1.73 84 19:19 13.02.2020
2653 Clear -22 1023 83 16093 4.1 90 18:55 13.02.2020
2654 Clear -21 1023 83 16093 4.1 90 18:37 13.02.2020
2655 Clear -21 1023 83 16093 4.1 90 18:19 13.02.2020
2656 Clear -21 1023 76 16093 4.1 80 17:41 13.02.2020
2657 Clear -21 1023 76 16093 4.1 80 17:22 13.02.2020
2658 Clear -21 1023 76 16093 5.1 80 16:59 13.02.2020
2659 Clear -21 1023 76 16093 5.1 80 16:40 13.02.2020
2660 Clear -21 1023 76 16093 5.1 80 16:20 13.02.2020
2661 Clear -20 1024 70 16093 2.6 90 15:57 13.02.2020
2662 Clear -20 1024 70 16093 2.6 90 15:38 13.02.2020
2663 Clear -19 1024 70 16093 2.6 90 15:19 13.02.2020
2664 Clear -20 1024 63 16093 2.44 98 14:58 13.02.2020
2665 Clear -20 1024 63 16093 2.44 98 14:39 13.02.2020
2666 Clear -20 1024 63 16093 1.47 132 14:21 13.02.2020
2667 Clear -20 1024 63 16093 1.47 132 14:21 13.02.2020
2668 Clear -22 1024 76 16093 1.47 132 13:48 13.02.2020
2669 Clear -22 1024 76 16093 1.77 130 13:19 13.02.2020
2670 Clear -23 1024 75 16093 2.1 30 12:56 13.02.2020
2671 Clear -23 1024 75 16093 2.1 30 12:56 13.02.2020
2672 Clear -23 1024 75 16093 2.1 30 12:56 13.02.2020
2673 Clear -24 1024 75 16093 2.1 30 12:38 13.02.2020
2674 Clear -24 1024 75 16093 2.1 30 12:19 13.02.2020
2675 Clear -24 1024 83 16093 1.77 130 11:47 13.02.2020
2676 Clear -24 1024 83 16093 0.34 112 11:21 13.02.2020
2677 Clear -24 1024 83 16093 0.34 112 10:56 13.02.2020
2678 Clear -23 1024 83 16093 0.34 112 10:38 13.02.2020
2679 Clear -23 1024 83 16093 0.34 112 10:38 13.02.2020
2680 Clear -23 1024 83 16093 0.34 112 10:20 13.02.2020
2681 Clear -23 1023 76 16093 2.1 40 09:41 13.02.2020
2682 Clear -23 1023 76 16093 2.1 40 09:22 13.02.2020
2683 Clear -23 1023 76 16093 0.34 112 08:45 13.02.2020
2684 Clear -23 1023 76 16093 0.84 98 08:19 13.02.2020
2685 Clear -23 1023 69 16093 2.1 30 07:42 13.02.2020
2686 Clear -23 1023 69 16093 2.1 30 07:22 13.02.2020
2687 Clear -22 1022 69 16093 0.88 152 06:52 13.02.2020
2688 Clear -23 1022 69 16093 0.88 152 06:33 13.02.2020
2689 Clear -21 1022 70 16093 0.88 152 05:43 13.02.2020
2690 Clear -18 1021 58 16093 1.09 120 04:39 13.02.2020
2691 Clear -18 1021 58 16093 1.09 120 04:18 13.02.2020
2692 Clear -16 1021 54 16093 1.5 90 03:29 13.02.2020
2693 Clear -18 1021 64 16093 1.09 120 02:55 13.02.2020
2694 Clear -17 1021 64 16093 0.6 13 02:20 13.02.2020
2695 Clear -16 1020 54 16093 0.6 13 01:41 13.02.2020
2696 Clear -16 1020 59 16093 0.5 57 00:45 13.02.2020
2697 Clear -17 1020 59 16093 0.5 57 00:26 13.02.2020
2698 Clear -19 1020 63 16093 0.5 57 23:43 12.02.2020
2699 Clear -19 1020 63 16093 0.95 6 23:23 12.02.2020
2700 Clear -19 1020 63 16093 0.5 57 23:23 12.02.2020
2701 Clear -20 1020 63 16093 0.95 6 22:57 12.02.2020
2702 Clear -20 1020 63 16093 0.95 6 22:39 12.02.2020
2703 Clear -21 1020 63 16093 0.95 6 22:21 12.02.2020
2704 Clear -22 1019 69 16093 1.5 20 21:55 12.02.2020
2705 Clear -23 1019 69 16093 1.5 20 21:37 12.02.2020
2706 Clear -23 1019 69 16093 1.5 20 21:18 12.02.2020
2707 Clear -22 1019 63 16093 1.5 270 20:43 12.02.2020
2708 Clear -23 1019 63 16093 1.5 270 20:25 12.02.2020
2709 Clear -20 1019 63 16093 1.5 120 19:57 12.02.2020
2710 Clear -22 1019 63 16093 1.5 120 19:39 12.02.2020
2711 Clear -21 1019 63 16093 1.5 120 19:21 12.02.2020
2712 Clear -20 1018 58 16093 1.65 34 18:50 12.02.2020
2713 Clear -20 1018 58 16093 1.81 29 18:20 12.02.2020
2714 Clear -20 1018 63 16093 1.81 29 17:59 12.02.2020
2715 Clear -23 1018 63 16093 1.81 29 17:39 12.02.2020
2716 Clear -23 1018 63 16093 2.56 17 17:19 12.02.2020
2717 Clear -24 1018 63 16093 2.56 17 16:56 12.02.2020
2718 Clear -24 1018 63 16093 2.56 17 16:36 12.02.2020
2719 Clear -24 1018 63 16093 2.56 17 16:18 12.02.2020
2720 Clear -24 1018 63 16093 2.56 17 16:18 12.02.2020
2721 Clear -22 1018 63 16093 1.5 0 15:38 12.02.2020
2722 Clear -22 1018 63 16093 1.5 0 15:19 12.02.2020
2723 Clear -26 1018 68 16093 1.5 10 14:43 12.02.2020
2724 Clear -26 1018 68 16093 1.5 10 14:21 12.02.2020
2725 Clear -25 1019 69 16093 1.5 150 13:59 12.02.2020
2726 Clear -25 1019 69 16093 1.5 150 13:40 12.02.2020
2727 Clear -25 1019 69 16093 1.5 150 13:22 12.02.2020
2728 Clear -26 1019 75 16093 2.03 357 12:58 12.02.2020
2729 Clear -26 1019 75 16093 2.03 357 12:39 12.02.2020
2730 Clear -26 1019 75 16093 2.03 357 12:19 12.02.2020
2731 Clear -26 1019 75 16093 2.03 357 11:59 12.02.2020
2732 Clear -26 1019 75 16093 2.03 357 11:40 12.02.2020
2733 Clear -26 1019 75 16093 1.57 27 11:21 12.02.2020
2734 Clear -26 1020 75 16093 1.57 27 10:58 12.02.2020
2735 Clear -26 1020 75 16093 1.57 27 10:40 12.02.2020
2736 Clear -26 1020 75 16093 1.57 27 10:20 12.02.2020
2737 Clear -24 1020 69 16093 1.57 27 09:42 12.02.2020
2738 Clear -24 1020 69 16093 1.57 27 09:42 12.02.2020
2739 Clear -24 1020 69 16093 1.57 27 09:24 12.02.2020
2740 Clear -24 1020 69 16093 1.57 27 09:24 12.02.2020
2741 Clear -24 1020 69 16093 1.57 27 08:59 12.02.2020
2742 Clear -24 1020 69 16093 1.57 27 08:39 12.02.2020
2743 Clear -24 1020 69 16093 1.66 40 08:20 12.02.2020
2744 Clear -24 1020 69 16093 1.43 47 08:20 12.02.2020
2745 Clear -23 1021 69 16093 1.43 47 07:59 12.02.2020
2746 Clear -23 1021 69 16093 1.43 47 07:41 12.02.2020
2747 Clear -23 1021 69 16093 1.43 47 07:19 12.02.2020
2748 Clear -23 1021 69 16093 1.43 47 06:43 12.02.2020
2749 Clear -23 1021 69 16093 1.43 47 06:19 12.02.2020
2750 Clear -23 1022 69 16093 1.43 47 05:30 12.02.2020
2751 Clear -21 1022 70 16093 1.49 49 04:43 12.02.2020
2752 Clear -19 1023 64 16093 1.49 49 03:58 12.02.2020
2753 Clear -19 1023 64 16093 1.49 49 03:29 12.02.2020
2754 Clear -19 1024 70 16093 1.49 49 02:44 12.02.2020
2755 Clear -19 1024 70 16093 1.49 49 02:25 12.02.2020
2756 Clear -18 1024 64 16093 2.1 140 01:30 12.02.2020
2757 Clear -18 1025 64 16093 2.1 100 00:41 12.02.2020
2758 Clear -18 1025 64 16093 2.1 100 00:22 12.02.2020
2759 Clear -18 1026 64 16093 3.1 120 23:49 11.02.2020
2760 Clear -18 1026 64 16093 3.1 120 23:31 11.02.2020
2761 Clouds -19 1026 64 16093 3.1 80 22:58 11.02.2020
2762 Clouds -19 1026 64 16093 3.1 80 22:39 11.02.2020
2763 Clouds -19 1026 64 16093 3.1 80 22:20 11.02.2020
2764 Clouds -19 1027 58 16093 4.6 80 21:57 11.02.2020
2765 Clouds -19 1027 58 16093 4.6 80 21:38 11.02.2020
2766 Clouds -19 1027 58 16093 4.6 80 21:18 11.02.2020
2767 Clouds -20 1028 58 16093 3.6 100 20:58 11.02.2020
2768 Clouds -20 1028 58 16093 3.6 100 20:38 11.02.2020
2769 Clouds -20 1028 58 16093 3.6 100 20:19 11.02.2020
2770 Clouds -21 1028 63 16093 4.1 90 19:57 11.02.2020
2771 Clouds -21 1028 63 16093 4.1 90 19:39 11.02.2020
2772 Clouds -21 1028 63 16093 4.1 90 19:20 11.02.2020
2773 Clouds -21 1029 70 16093 3.6 80 18:45 11.02.2020
2774 Clouds -21 1029 70 16093 3.6 80 18:26 11.02.2020
2775 Clouds -21 1030 63 16093 4.1 80 17:57 11.02.2020
2776 -273 0 0 0 0 0 17:38 11.02.2020
2777 Clouds -21 1030 63 16093 4.1 80 17:19 11.02.2020
2778 Clouds -22 1030 63 16093 4.1 70 16:58 11.02.2020
2779 Clouds -22 1030 63 16093 4.1 70 16:38 11.02.2020
2780 Clouds -22 1030 63 16093 4.1 70 16:20 11.02.2020
2781 Clouds -23 1031 63 16093 3.6 80 15:57 11.02.2020
2782 Clouds -23 1031 63 16093 3.6 80 15:38 11.02.2020
2783 Clouds -23 1031 63 16093 3.6 80 15:18 11.02.2020
2784 Clear -23 1031 69 16093 3.1 70 14:41 11.02.2020
2785 Clear -23 1031 69 16093 3.1 70 14:19 11.02.2020
2786 Clear -24 1031 76 16093 3.6 70 13:55 11.02.2020
2787 Clear -24 1031 76 16093 3.6 70 13:37 11.02.2020
2788 Clear -24 1031 76 16093 3.6 70 13:18 11.02.2020
2789 Clear -24 1032 69 16093 2.6 120 12:41 11.02.2020
2790 Clear -24 1032 69 16093 2.6 120 12:22 11.02.2020
2791 Clear -24 1032 69 16093 3.6 60 11:58 11.02.2020
2792 Clear -23 1032 69 16093 3.6 60 11:40 11.02.2020
2793 Clear -23 1032 69 16093 3.6 60 11:19 11.02.2020
2794 Clear -27 1032 75 16093 3.6 20 10:40 11.02.2020
2795 Clear -27 1032 75 16093 3.6 20 10:21 11.02.2020
2796 Clear -29 1033 68 16093 2.1 30 09:58 11.02.2020
2797 Clear -27 1033 68 16093 2.1 30 09:40 11.02.2020
2798 Clear -28 1033 68 16093 2.1 30 09:22 11.02.2020
2799 Clear -28 1033 75 16093 2.79 66 08:49 11.02.2020
2800 Clear -28 1033 75 16093 2.77 60 08:25 11.02.2020
2801 Clear -28 1033 75 16093 1.85 67 07:55 11.02.2020
2802 Clear -29 1033 75 16093 1.85 67 07:34 11.02.2020
2803 Clear -28 1032 68 16093 1.85 67 06:58 11.02.2020
2804 Clear -28 1032 68 16093 1.85 67 06:39 11.02.2020
2805 Clear -28 1032 68 16093 1.85 67 06:20 11.02.2020
2806 Clear -28 1032 68 16093 1.85 67 06:20 11.02.2020
2807 Clear -28 1032 68 14484 3.6 20 05:47 11.02.2020
2808 Clear -28 1032 68 14484 3.6 20 05:47 11.02.2020
2809 Clear -28 1032 68 14484 3.6 20 05:20 11.02.2020
2810 Clear -27 1032 68 16093 1.5 20 04:34 11.02.2020
2811 Clear -26 1031 68 16093 2.1 210 02:40 11.02.2020
2812 Clear -26 1031 68 16093 2.1 210 02:22 11.02.2020
2813 Clear -25 1031 62 16093 3.1 360 01:32 11.02.2020
2814 Clear -25 1031 62 16093 1.11 62 00:28 11.02.2020
2815 Clear -26 1030 62 16093 2.1 130 23:50 10.02.2020
2816 Clear -26 1030 62 16093 2.1 130 23:30 10.02.2020
2817 Clear -26 1029 75 16093 0.36 310 22:58 10.02.2020
2818 Clear -26 1029 75 16093 0.36 310 22:38 10.02.2020
2819 Clear -27 1029 75 16093 0.36 310 22:20 10.02.2020
2820 Clear -27 1029 68 16093 3.6 300 21:43 10.02.2020
2821 Clear -27 1029 68 16093 3.6 300 21:25 10.02.2020
2822 Clear -27 1029 68 16093 3.6 300 21:25 10.02.2020
2823 Clear -25 1028 68 16093 4.1 290 20:57 10.02.2020
2824 Clear -25 1028 68 16093 4.1 290 20:57 10.02.2020
2825 Clear -26 1028 68 16093 4.1 290 20:38 10.02.2020
2826 Clear -26 1028 68 16093 4.1 290 20:20 10.02.2020
2827 Clear -25 1027 69 16093 4.1 290 19:58 10.02.2020
2828 Clear -25 1027 69 16093 4.1 290 19:38 10.02.2020
2829 Clear -25 1027 69 16093 4.1 290 19:19 10.02.2020
2830 Clear -25 1026 69 16093 4.6 290 18:58 10.02.2020
2831 Clear -25 1026 69 16093 4.6 290 18:39 10.02.2020
2832 Clear -25 1026 69 16093 4.6 290 18:20 10.02.2020
2833 Clear -25 1026 69 16093 5.7 280 17:57 10.02.2020
2834 Clear -25 1026 69 16093 5.7 280 17:57 10.02.2020
2835 Clear -25 1026 69 16093 5.7 280 17:37 10.02.2020
2836 Clear -25 1026 69 16093 5.7 280 17:19 10.02.2020
2837 Clouds -25 1025 69 16093 4.6 330 16:58 10.02.2020
2838 Clouds -25 1025 69 16093 4.6 330 16:39 10.02.2020
2839 Clouds -25 1025 69 16093 4.6 330 16:39 10.02.2020
2840 Clouds -25 1025 69 16093 4.6 330 16:19 10.02.2020
2841 Clear -25 1025 62 16093 5.1 290 15:56 10.02.2020
2842 Clear -26 1025 62 16093 5.1 290 15:38 10.02.2020
2843 Clear -26 1025 62 16093 5.1 290 15:20 10.02.2020
2844 Clear -26 1024 68 16093 1.5 260 14:56 10.02.2020
2845 Clear -26 1024 68 16093 1.5 260 14:36 10.02.2020
2846 Clear -26 1024 68 16093 1.5 260 14:18 10.02.2020
2847 Clouds -26 1024 70 0 2.24 317 13:42 10.02.2020
2848 Clouds -25 1022 68 16093 5.7 280 13:24 10.02.2020
2849 Clouds -26 1022 68 16093 5.7 280 12:51 10.02.2020
2850 Clouds -26 1022 68 16093 5.7 280 12:27 10.02.2020
2851 Clouds -26 1022 75 16093 2.1 300 11:56 10.02.2020
2852 Clouds -26 1022 75 16093 2.1 300 11:38 10.02.2020
2853 Clouds -26 1022 75 16093 2.1 300 11:20 10.02.2020
2854 Clear -26 1021 68 16093 4.6 280 10:47 10.02.2020
2855 Clear -25 1021 68 16093 4.6 280 10:28 10.02.2020
2856 Clear -25 1020 75 16093 4.6 280 09:48 10.02.2020
2857 Clear -25 1020 75 16093 4.6 280 09:27 10.02.2020
2858 Mist -23 1019 69 4828 5.1 290 08:58 10.02.2020
2859 Mist -23 1019 69 4828 5.1 290 08:38 10.02.2020
2860 Mist -23 1019 69 4828 5.1 290 08:19 10.02.2020
2861 Snow -22 1018 76 4828 6.2 230 07:51 10.02.2020
2862 Snow -21 1018 76 4828 6.2 230 07:31 10.02.2020
2863 Mist -21 1017 76 6437 7.2 240 06:23 10.02.2020
2864 Mist -21 1016 70 8047 8.2 240 04:47 10.02.2020
2865 Mist -21 1016 70 12874 7.2 240 03:52 10.02.2020
2866 Mist -21 1016 76 4828 8.2 240 02:56 10.02.2020
2867 Mist -21 1016 76 8047 8.2 240 02:35 10.02.2020
2868 Mist -21 1015 76 4828 8.2 230 00:55 10.02.2020
2869 Mist -21 1015 76 4828 8.2 230 00:36 10.02.2020
2870 Mist -22 1014 76 4828 6.7 230 23:58 09.02.2020
2871 Mist -22 1014 76 4828 8.2 230 23:40 09.02.2020
2872 Mist -22 1014 76 4828 8.2 230 23:22 09.02.2020
2873 Mist -22 1014 76 4828 7.2 230 22:43 09.02.2020
2874 Mist -22 1013 69 2414 7.2 240 22:21 09.02.2020
2875 Mist -22 1013 69 4828 8.7 230 21:45 09.02.2020
2876 Snow -22 1012 69 1609 9.3 240 21:25 09.02.2020
2877 Clouds -23 1011 76 4828 10.3 240 20:59 09.02.2020
2878 Clouds -23 1011 76 4828 10.3 240 20:41 09.02.2020
2879 Clouds -23 1011 76 4828 10.3 240 20:19 09.02.2020
2880 Clouds -22 1009 69 6437 8.2 240 19:40 09.02.2020
2881 Clouds -22 1009 69 6437 8.2 240 19:22 09.02.2020
2882 Clouds -22 1008 76 2816 8.2 240 18:59 09.02.2020
2883 Clouds -22 1008 76 2816 8.2 240 18:40 09.02.2020
2884 Clouds -22 1008 76 2816 8.2 240 18:22 09.02.2020
2885 Snow -22 1007 83 4828 9.3 230 17:43 09.02.2020
2886 Snow -22 1007 83 4828 9.3 230 17:43 09.02.2020
2887 Clouds -22 1006 76 4023 10.3 240 17:23 09.02.2020
2888 Snow -22 1005 83 2816 10.3 250 16:57 09.02.2020
2889 Clouds -21 1004 76 4828 9.8 240 16:38 09.02.2020
2890 Clouds -21 1004 76 4828 9.8 240 16:20 09.02.2020
2891 Mist -21 1003 83 3219 11.3 240 15:56 09.02.2020
2892 Mist -21 1003 83 3219 11.3 240 15:38 09.02.2020
2893 Mist -21 1003 83 3219 11.3 240 15:20 09.02.2020
2894 Mist -20 1002 83 2816 10.3 240 14:42 09.02.2020
2895 Mist -19 1001 77 4023 8.7 240 14:23 09.02.2020
2896 Haze -19 999 77 6437 10.3 250 13:55 09.02.2020
2897 Mist -19 999 84 4828 10.3 250 13:36 09.02.2020
2898 Mist -19 999 84 4828 10.3 250 13:18 09.02.2020
2899 Snow -18 997 77 2012 10.3 240 12:42 09.02.2020
2900 Clouds -21 996 83 16093 3.6 90 12:20 09.02.2020
2901 Clouds -21 995 83 16093 3.6 120 11:57 09.02.2020
2902 Clouds -22 995 91 14484 3.1 120 11:38 09.02.2020
2903 Clouds -22 995 91 14484 3.1 120 11:18 09.02.2020
2904 Clouds -22 995 91 14484 3.1 120 11:18 09.02.2020
2905 Clouds -23 994 91 16093 1.5 130 10:42 09.02.2020
2906 Clouds -23 994 91 16093 1.5 130 10:23 09.02.2020
2907 Clouds -22 993 83 16093 2.01 220 09:57 09.02.2020
2908 Clouds -22 993 83 16093 2.01 220 09:38 09.02.2020
2909 Clouds -22 993 83 16093 2.01 220 09:38 09.02.2020
2910 Clouds -22 993 83 16093 2.01 220 09:19 09.02.2020
2911 Snow -17 992 84 11265 1.5 10 08:39 09.02.2020
2912 Snow -17 992 84 11265 1.5 10 08:20 09.02.2020
2913 Snow -17 992 84 6437 2.1 350 07:51 09.02.2020
2914 Snow -17 992 84 6437 2.1 350 07:26 09.02.2020
2915 Snow -17 991 77 3219 5.7 340 06:37 09.02.2020
2916 Snow -17 991 84 3219 3.6 340 05:55 09.02.2020
2917 Snow -17 991 84 2414 4.1 340 05:32 09.02.2020
2918 Snow -17 990 84 1207 3.1 20 04:48 09.02.2020
2919 Snow -17 990 84 1207 4.1 360 02:58 09.02.2020
2920 Snow -17 990 84 3219 3.6 340 02:36 09.02.2020
2921 Snow -17 991 77 2816 2.6 340 01:39 09.02.2020
2922 Snow -17 991 77 2816 2.6 340 01:19 09.02.2020
2923 Snow -17 991 64 6437 3.6 340 00:31 09.02.2020
2924 Snow -19 991 70 6437 4.08 18 23:50 08.02.2020
2925 Snow -19 991 70 6437 4.08 18 23:25 08.02.2020
2926 Clouds -19 991 49 16093 2.1 110 22:59 08.02.2020
2927 Clouds -19 991 49 16093 2.1 110 22:40 08.02.2020
2928 Clouds -19 991 49 16093 2.1 110 22:20 08.02.2020
2929 Clouds -20 992 48 16093 4.1 330 21:47 08.02.2020
2930 Clouds -20 992 48 16093 4.1 330 21:29 08.02.2020
2931 Clouds -22 993 57 16093 4.1 320 20:59 08.02.2020
2932 Clouds -22 993 57 16093 4.1 320 20:40 08.02.2020
2933 Clouds -22 993 57 16093 4.1 320 20:40 08.02.2020
2934 Clouds -22 993 57 16093 4.1 320 20:20 08.02.2020
2935 Clouds -24 995 63 16093 1.5 190 19:58 08.02.2020
2936 Clouds -24 995 63 16093 1.5 190 19:39 08.02.2020
2937 Clouds -24 995 63 16093 1.5 190 19:20 08.02.2020
2938 Clouds -24 995 57 16093 3.1 270 18:57 08.02.2020
2939 Clouds -25 995 57 16093 3.1 270 18:39 08.02.2020
2940 Clouds -25 995 57 16093 3.1 270 18:19 08.02.2020
2941 Clouds -26 997 62 16093 5.1 320 17:42 08.02.2020
2942 Clouds -27 997 62 16093 5.1 320 17:20 08.02.2020
2943 Clear -28 1000 61 16093 1.5 300 16:42 08.02.2020
2944 Clear -28 1000 61 16093 1.5 300 16:23 08.02.2020
2945 Clouds -29 1001 61 16093 4.6 320 15:59 08.02.2020
2946 Clouds -29 1001 61 16093 4.6 320 15:40 08.02.2020
2947 Clouds -29 1001 61 16093 4.6 320 15:18 08.02.2020
2948 Clear -30 1003 60 16093 5.7 340 14:46 08.02.2020
2949 Clear -32 1003 60 16093 5.7 340 14:24 08.02.2020
2950 Clear -32 1005 60 16093 6.2 340 13:59 08.02.2020
2951 Clear -32 1005 60 16093 6.2 340 13:41 08.02.2020
2952 Clear -33 1005 60 16093 6.2 340 13:23 08.02.2020
2953 Clear -32 1007 67 16093 5.1 340 12:49 08.02.2020
2954 Clear -32 1007 67 16093 5.1 340 12:23 08.02.2020
2955 Clear -32 1007 67 16093 5.1 340 12:23 08.02.2020
2956 Clear -33 1009 60 16093 3.6 350 11:58 08.02.2020
2957 Clear -33 1009 60 16093 3.6 350 11:40 08.02.2020
2958 Clear -33 1009 60 16093 3.6 350 11:20 08.02.2020
2959 Clear -33 1010 66 16093 4.6 360 10:42 08.02.2020
2960 Clear -34 1010 66 16093 4.6 360 10:22 08.02.2020
2961 Clear -33 1011 85 16093 2.1 50 09:53 08.02.2020
2962 Clear -33 1011 85 16093 2.1 50 09:29 08.02.2020
2963 Clear -33 1013 85 16093 3.49 14 08:57 08.02.2020
2964 Clear -33 1013 85 16093 3.49 14 08:38 08.02.2020
2965 Clear -33 1013 85 16093 2.75 27 08:20 08.02.2020
2966 Clear -34 1013 84 16093 2.78 25 07:48 08.02.2020
2967 Clear -33 1013 84 16093 2.78 25 07:30 08.02.2020
2968 Clear -33 1014 84 16093 2.78 25 06:33 08.02.2020
2969 Clear -33 1015 60 16093 2.6 10 05:49 08.02.2020
2970 Clear -33 1015 60 16093 2.6 10 05:30 08.02.2020
2971 Clear -33 1015 60 16093 3.1 360 04:50 08.02.2020
2972 Clear -31 1016 61 16093 2.59 16 03:53 08.02.2020
2973 Clear -30 1016 55 16093 2.6 340 02:52 08.02.2020
2974 Clear -31 1016 55 16093 2.6 340 02:20 08.02.2020
2975 Clear -31 1017 61 16093 1.85 21 01:26 08.02.2020
2976 Clear -31 1018 60 16093 1.5 340 00:45 08.02.2020
2977 Clear -31 1018 60 16093 1.5 340 00:22 08.02.2020
2978 Clear -32 1018 67 16093 1.89 18 23:55 07.02.2020
2979 Clear -32 1018 67 16093 1.89 18 23:37 07.02.2020
2980 Clear -32 1018 67 16093 2.02 7 23:18 07.02.2020
2981 Clear -33 1018 84 16093 2.02 7 22:40 07.02.2020
2982 Clear -33 1018 84 16093 2.02 7 22:19 07.02.2020
2983 Clear -34 1018 84 16093 2.02 7 21:44 07.02.2020
2984 Clear -34 1018 84 16093 2.02 7 21:23 07.02.2020
2985 Clear -34 1017 84 16093 2.6 340 20:59 07.02.2020
2986 Clear -34 1017 84 16093 2.6 340 20:38 07.02.2020
2987 Clear -34 1017 85 16093 2.6 340 20:18 07.02.2020
2988 Clear -34 1017 85 16093 2.6 340 20:18 07.02.2020
2989 Clear -35 1017 85 16093 1.5 10 19:43 07.02.2020
2990 Clear -34 1017 85 16093 1.5 10 19:22 07.02.2020
2991 Clear -34 1017 85 16093 1.5 10 18:59 07.02.2020
2992 Clear -32 1017 85 16093 1.5 10 18:40 07.02.2020
2993 Clear -34 1017 85 16093 1.5 10 18:21 07.02.2020
2994 Clear -33 1017 73 16093 2.3 4 17:43 07.02.2020
2995 Clear -33 1017 73 16093 2.3 4 17:22 07.02.2020
2996 Clear -33 1017 66 16093 2.6 360 16:57 07.02.2020
2997 Clear -33 1017 66 16093 2.6 360 16:39 07.02.2020
2998 Clear -33 1017 66 16093 2.6 360 16:20 07.02.2020
2999 Clouds -33 1017 66 16093 3.6 20 15:49 07.02.2020
3000 Clouds -32 1018 60 16093 3.1 350 15:27 07.02.2020
3001 Clouds -32 1018 60 16093 2.6 10 14:46 07.02.2020
3002 Clear -32 1017 67 16093 3.1 10 14:27 07.02.2020
3003 Clear -32 1018 67 16093 1.5 20 13:59 07.02.2020
3004 Clear -31 1018 67 16093 1.5 20 13:40 07.02.2020
3005 Clear -31 1018 67 16093 1.5 20 13:22 07.02.2020
3006 Clear -32 1018 67 16093 2.1 10 12:57 07.02.2020
3007 Clear -33 1018 67 16093 2.1 10 12:39 07.02.2020
3008 Clear -32 1018 67 16093 2.1 10 12:21 07.02.2020
3009 Clouds -33 1017 73 16093 2.1 10 11:42 07.02.2020
3010 Clouds -33 1017 74 16093 2.58 359 11:22 07.02.2020
3011 Clouds -33 1017 74 16093 2.36 349 10:42 07.02.2020
3012 Clear -32 1017 67 16093 1.5 10 10:24 07.02.2020
3013 Clear -32 1017 67 16093 1.5 10 10:24 07.02.2020
3014 Clear -32 1017 67 16093 1.5 10 10:24 07.02.2020
3015 Clear -32 1017 67 16093 3.1 360 09:58 07.02.2020
3016 Clear -32 1017 67 16093 3.1 360 09:39 07.02.2020
3017 Clear -32 1017 67 16093 3.1 360 09:39 07.02.2020
3018 Clear -31 1017 67 16093 3.1 360 09:21 07.02.2020
3019 Clear -32 1016 67 16093 2.36 349 08:43 07.02.2020
3020 Clear -32 1016 67 16093 2.51 7 08:21 07.02.2020
3021 Clear -32 1016 67 16093 2.51 7 08:21 07.02.2020
3022 Clear -31 1016 67 16093 2.51 7 07:49 07.02.2020
3023 Clear -32 1016 67 16093 2.51 7 07:30 07.02.2020
3024 Clear -31 1016 67 16093 2.51 7 06:47 07.02.2020
3025 Clear -31 1016 67 16093 2.51 7 06:47 07.02.2020
3026 Clear -32 1016 67 16093 2.51 7 06:26 07.02.2020
3027 Clear -30 1016 67 16093 2.51 7 05:57 07.02.2020
3028 Clear -30 1016 67 16093 2.51 7 05:35 07.02.2020
3029 Clear -28 1015 68 16093 2.38 10 03:19 07.02.2020
3030 Clear -27 1015 68 16093 2.35 12 01:51 07.02.2020
3031 Clear -27 1015 68 16093 1.5 360 00:49 07.02.2020
3032 Clear -28 1015 68 16093 1.5 360 00:25 07.02.2020
3033 Clear -28 1015 67 16093 1.5 350 23:38 06.02.2020
3034 Clear -30 1015 67 16093 1.5 350 23:19 06.02.2020
3035 Clear -28 1014 61 16093 2.64 16 22:46 06.02.2020
3036 Clear -28 1014 61 16093 2.64 16 22:25 06.02.2020
3037 Clear -29 1013 67 16093 2.6 30 21:57 06.02.2020
3038 Clear -29 1013 67 16093 2.6 30 21:36 06.02.2020
3039 Clear -30 1013 67 16093 2.6 30 21:18 06.02.2020
3040 Clear -30 1013 67 16093 2.64 16 20:54 06.02.2020
3041 Clear -30 1013 67 16093 2.64 16 20:36 06.02.2020
3042 Clear -30 1013 67 16093 2.44 9 20:18 06.02.2020
3043 Clear -29 1012 61 16093 2.44 9 19:55 06.02.2020
3044 Clear -29 1012 61 16093 2.44 9 19:55 06.02.2020
3045 Clear -29 1012 61 16093 2.44 9 19:36 06.02.2020
3046 Clear -29 1012 61 16093 2.44 9 19:18 06.02.2020
3047 Clear -29 1011 67 16093 2.44 9 18:40 06.02.2020
3048 Clear -29 1011 67 16093 2.44 9 18:22 06.02.2020
3049 Clear -29 1011 67 16093 2.44 9 18:22 06.02.2020
3050 Clear -28 1011 61 16093 1.5 340 17:55 06.02.2020
3051 Clear -28 1011 61 16093 1.5 340 17:37 06.02.2020
3052 Clear -28 1011 61 16093 1.5 340 17:18 06.02.2020
3053 Clear -27 1009 61 16093 2.51 356 16:41 06.02.2020
3054 Clear -27 1009 61 16093 2.51 356 16:23 06.02.2020
3055 Clear -26 1009 51 16093 4.6 340 15:43 06.02.2020
3056 Clear -26 1009 51 16093 4.6 340 15:22 06.02.2020
3057 Clear -26 1008 51 16093 5.7 340 14:57 06.02.2020
3058 Clear -26 1008 51 16093 5.7 340 14:39 06.02.2020
3059 Clear -26 1008 51 16093 5.7 340 14:20 06.02.2020
3060 Clear -26 1008 56 16093 3.1 20 13:41 06.02.2020
3061 Clear -25 1008 56 16093 3.1 20 13:22 06.02.2020
3062 Clear -25 1007 51 16093 3.1 360 12:44 06.02.2020
3063 Clear -25 1007 51 16093 3.1 360 12:19 06.02.2020
3064 Clear -25 1006 51 16093 4.6 340 11:58 06.02.2020
3065 Clear -25 1006 51 16093 4.6 340 11:39 06.02.2020
3066 Clear -25 1006 51 16093 4.6 340 11:19 06.02.2020
3067 Clear -23 1005 52 16093 6.2 340 10:57 06.02.2020
3068 Clear -23 1005 52 16093 6.2 340 10:38 06.02.2020
3069 Clear -23 1005 52 16093 6.2 340 10:38 06.02.2020
3070 Clear -24 1005 52 16093 6.2 340 10:20 06.02.2020
3071 Clear -24 1004 52 16093 6.2 340 09:56 06.02.2020
3072 Clear -24 1004 52 16093 6.2 340 09:37 06.02.2020
3073 Clear -24 1004 52 16093 6.2 340 09:19 06.02.2020
3074 Clear -23 1002 47 16093 5.7 330 08:41 06.02.2020
3075 Clear -23 1002 47 16093 5.7 330 08:22 06.02.2020
3076 Clear -22 1002 52 16093 5.1 330 07:48 06.02.2020
3077 Clear -22 1002 52 16093 5.1 330 07:27 06.02.2020
3078 Clear -22 1001 52 16093 6.7 350 06:37 06.02.2020
3079 Clear -22 1001 52 16093 6.7 350 06:37 06.02.2020
3080 Clear -22 1001 52 16093 6.7 350 06:18 06.02.2020
3081 Clear -21 999 53 16093 4.1 340 04:53 06.02.2020
3082 Clear -20 999 53 16093 4.6 340 03:21 06.02.2020
3083 Clear -19 998 53 16093 5.7 350 02:37 06.02.2020
3084 Clear -18 998 49 16093 2.1 60 01:37 06.02.2020
3085 Clear -18 997 49 16093 2.1 0 00:59 06.02.2020
3086 Clear -18 997 49 16093 2.1 0 00:26 06.02.2020
3087 Clear -19 997 49 16093 3.43 4 23:48 05.02.2020
3088 Clear -19 997 49 16093 3.43 4 23:29 05.02.2020
3089 Clouds -18 996 49 16093 3.93 7 22:59 05.02.2020
3090 Clouds -19 996 49 16093 3.93 7 22:40 05.02.2020
3091 Clouds -19 996 49 16093 3.93 7 22:40 05.02.2020
3092 Clouds -19 996 49 16093 3.93 7 22:22 05.02.2020
3093 Clouds -19 996 49 16093 3.93 7 22:22 05.02.2020
3094 Clouds -17 996 59 16093 3.93 7 21:55 05.02.2020
3095 Clouds -17 996 59 16093 3.93 7 21:36 05.02.2020
3096 Clouds -17 996 59 16093 3.93 7 21:18 05.02.2020
3097 Clouds -19 995 53 16093 4.6 340 20:39 05.02.2020
3098 Clouds -19 995 53 16093 4.6 340 20:39 05.02.2020
3099 Clouds -19 995 53 16093 4.6 340 20:39 05.02.2020
3100 Clouds -19 995 53 16093 4.6 340 20:20 05.02.2020
3101 Clear -18 994 49 16093 3.6 360 19:58 05.02.2020
3102 Clear -18 994 49 16093 3.6 360 19:38 05.02.2020
3103 Clear -18 994 49 16093 3.6 360 19:19 05.02.2020
3104 Clear -16 994 45 16093 2.6 340 18:55 05.02.2020
3105 Clear -16 994 45 16093 2.6 340 18:36 05.02.2020
3106 Clear -16 994 45 16093 2.6 340 18:18 05.02.2020
3107 Clouds -17 994 54 16093 2.6 350 17:38 05.02.2020
3108 Clouds -17 994 54 16093 2.6 350 17:18 05.02.2020
3109 Clouds -16 994 54 16093 3.6 360 16:57 05.02.2020
3110 Clouds -16 994 54 16093 3.6 360 16:38 05.02.2020
3111 Clouds -16 994 54 16093 3.6 360 16:19 05.02.2020
3112 Clouds -15 994 60 16093 2.6 20 15:42 05.02.2020
3113 Clouds -15 994 60 16093 2.6 20 15:19 05.02.2020
3114 Clouds -13 993 50 16093 3.6 20 14:57 05.02.2020
3115 Clouds -13 993 50 16093 3.6 20 14:38 05.02.2020
3116 Clouds -13 993 50 16093 3.6 20 14:20 05.02.2020
3117 Clouds -13 994 50 16093 5.1 350 13:42 05.02.2020
3118 Clouds -13 994 50 16093 5.1 350 13:22 05.02.2020
3119 Clouds -13 993 50 16093 7.2 10 12:55 05.02.2020
3120 Clouds -13 993 50 16093 7.2 10 12:36 05.02.2020
3121 Clouds -13 993 50 16093 7.2 10 12:18 05.02.2020
3122 Clouds -14 993 60 16093 2.6 10 11:41 05.02.2020
3123 Clouds -14 993 60 16093 2.6 10 11:22 05.02.2020
3124 Clouds -15 993 65 16093 4.6 360 10:44 05.02.2020
3125 Clouds -15 993 65 16093 4.6 360 10:26 05.02.2020
3126 Clouds -16 993 77 16093 4.68 14 09:59 05.02.2020
3127 Clouds -16 993 77 16093 4.68 14 09:38 05.02.2020
3128 Clouds -16 993 77 16093 4.68 14 09:20 05.02.2020
3129 Clouds -17 993 77 16093 4.1 350 08:46 05.02.2020
3130 Clouds -17 993 77 16093 4.1 350 08:25 05.02.2020
3131 Clouds -13 992 71 16093 3.1 330 07:57 05.02.2020
3132 Clouds -13 992 71 16093 3.1 330 07:37 05.02.2020
3133 Clouds -13 992 78 16093 3.1 350 06:58 05.02.2020
3134 Clouds -13 992 78 16093 3.1 350 06:39 05.02.2020
3135 Clouds -13 992 78 16093 3.1 350 06:19 05.02.2020
3136 Snow -12 992 78 4828 2.6 360 05:20 05.02.2020
3137 Clouds -11 992 66 16093 7.2 360 04:54 05.02.2020
3138 Snow -12 992 78 8047 6.7 30 03:57 05.02.2020
3139 Snow -11 992 78 3219 3.6 10 02:39 05.02.2020
3140 Snow -11 992 78 3219 3.6 10 02:19 05.02.2020
3141 Snow -11 992 78 4828 3.1 30 00:54 05.02.2020
3142 Snow -11 992 85 1609 3.6 30 23:59 04.02.2020
3143 Snow -11 991 85 1609 4.6 20 23:39 04.02.2020
3144 Snow -11 991 85 1609 4.6 20 23:19 04.02.2020
3145 Snow -11 991 85 1609 5.1 20 22:56 04.02.2020
3146 Snow -11 991 85 1609 5.1 20 22:38 04.02.2020
3147 Snow -11 991 85 1609 5.1 20 22:20 04.02.2020
3148 Snow -11 991 85 3219 5.1 30 21:54 04.02.2020
3149 Snow -11 991 78 3219 7.2 20 21:36 04.02.2020
3150 Snow -11 991 78 3219 7.2 20 21:18 04.02.2020
3151 Snow -11 990 78 4828 6.2 30 20:42 04.02.2020
3152 Snow -11 990 78 4828 6.2 30 20:21 04.02.2020
3153 Snow -11 990 78 4828 6.7 30 19:59 04.02.2020
3154 Snow -11 990 78 3219 7.7 30 19:40 04.02.2020
3155 Snow -11 990 78 3219 7.7 30 19:22 04.02.2020
3156 Snow -11 990 78 3219 6.2 20 18:56 04.02.2020
3157 Snow -11 990 78 3219 6.2 20 18:38 04.02.2020
3158 Snow -11 990 78 3219 6.2 20 18:38 04.02.2020
3159 Snow -11 990 78 3219 6.2 20 18:19 04.02.2020
3160 Snow -11 990 78 3219 7.7 30 17:43 04.02.2020
3161 Snow -11 990 78 3219 7.7 30 17:21 04.02.2020
3162 Rain -11 990 85 2816 6.2 30 16:57 04.02.2020
3163 Rain -10 990 78 4023 3.1 60 16:38 04.02.2020
3164 Rain -10 990 78 4023 3.1 60 16:19 04.02.2020
3165 Rain -11 989 85 4828 6.2 30 15:56 04.02.2020
3166 Rain -11 989 85 4828 6.2 30 15:56 04.02.2020
3167 Rain -10 990 78 3219 5.1 20 15:38 04.02.2020
3168 Rain -10 990 78 3219 5.1 20 15:19 04.02.2020
3169 Rain -9 990 72 3219 7.2 20 14:42 04.02.2020
3170 Haze -9 990 78 6437 6.2 10 14:23 04.02.2020
3171 Haze -9 990 78 4828 6.2 30 13:58 04.02.2020
3172 Haze -9 990 78 4828 6.2 30 13:39 04.02.2020
3173 Haze -9 990 78 4828 6.2 30 13:20 04.02.2020
3174 Rain -10 990 78 4023 8.2 10 12:44 04.02.2020
3175 Rain -9 990 78 4828 7.7 20 12:26 04.02.2020
3176 Clouds -10 990 78 16093 7.7 30 11:58 04.02.2020
3177 Clouds -10 990 78 16093 7.7 30 11:39 04.02.2020
3178 Clouds -10 990 78 16093 7.7 30 11:21 04.02.2020
3179 Clouds -11 990 85 11265 8.2 40 10:56 04.02.2020
3180 Clouds -11 990 85 11265 8.2 40 10:36 04.02.2020
3181 Clouds -11 990 85 11265 8.2 40 10:18 04.02.2020
3182 Clouds -9 990 72 11265 8.2 40 09:41 04.02.2020
3183 Clouds -9 990 72 11265 8.2 40 09:41 04.02.2020
3184 Clouds -9 990 72 11265 8.2 40 09:23 04.02.2020
3185 Clouds -9 989 78 11265 8.2 30 08:50 04.02.2020
3186 Clouds -9 989 78 11265 8.2 30 08:29 04.02.2020
3187 Clouds -9 990 78 14484 8.7 20 07:59 04.02.2020
3188 Clouds -9 990 78 14484 8.7 20 07:39 04.02.2020
3189 Clouds -9 990 78 14484 8.7 20 07:39 04.02.2020
3190 Clouds -9 990 78 14484 8.7 20 07:21 04.02.2020
3191 Snow -9 990 78 4828 9.3 20 06:43 04.02.2020
3192 Snow -9 990 78 3219 9.3 30 05:50 04.02.2020
3193 Snow -9 990 78 3219 9.3 30 05:28 04.02.2020
3194 Snow -10 990 85 3219 10.3 30 03:51 04.02.2020
3195 Snow -10 990 85 3219 10.3 30 03:31 04.02.2020
3196 Snow -9 991 78 2012 8.2 30 02:53 04.02.2020
3197 Snow -9 991 78 2012 8.2 30 02:31 04.02.2020
3198 Snow -9 991 78 2816 8.7 30 01:52 04.02.2020
3199 Snow -9 991 78 3219 10.8 30 01:33 04.02.2020
3200 Rain -10 992 78 1609 10.3 30 00:41 04.02.2020
3201 Rain -10 992 78 1609 10.3 30 00:20 04.02.2020
3202 Rain -10 992 78 3219 9.8 30 23:39 03.02.2020
3203 Rain -10 992 78 3219 9.8 30 23:19 03.02.2020
3204 Snow -11 992 85 1207 10.8 30 22:39 03.02.2020
3205 Snow -11 992 85 1207 10.8 30 22:20 03.02.2020
3206 Snow -12 992 85 805 12.9 30 21:54 03.02.2020
3207 Snow -12 992 85 805 12.9 30 21:36 03.02.2020
3208 Snow -12 992 85 805 12.9 30 21:18 03.02.2020
3209 Rain -12 993 85 1609 11.3 30 20:41 03.02.2020
3210 Rain -12 993 85 1609 11.3 30 20:19 03.02.2020
3211 Rain -12 993 85 805 12.9 30 19:56 03.02.2020
3212 Snow -12 993 85 1207 11.8 30 19:38 03.02.2020
3213 Snow -12 993 85 1207 11.8 30 19:19 03.02.2020
3214 Snow -12 993 85 1207 11.8 30 19:19 03.02.2020
3215 Snow -12 994 78 3219 12.3 30 18:43 03.02.2020
3216 Snow -12 994 78 3219 12.3 30 18:24 03.02.2020
3217 Snow -13 994 84 805 13.4 30 17:59 03.02.2020
3218 Snow -13 994 84 1207 11.3 40 17:39 03.02.2020
3219 Snow -13 994 84 1207 11.3 40 17:20 03.02.2020
3220 Snow -13 994 84 1207 11.3 40 17:20 03.02.2020
3221 Snow -13 994 84 1207 11.3 40 17:20 03.02.2020
3222 Snow -13 994 84 1207 11.3 40 17:20 03.02.2020
3223 Snow -13 995 84 1609 10.8 30 16:55 03.02.2020
3224 Snow -12 995 78 2414 11.3 40 16:37 03.02.2020
3225 Snow -12 995 78 2414 11.3 40 16:18 03.02.2020
3226 Snow -13 995 78 1609 11.8 30 15:54 03.02.2020
3227 Snow -13 995 78 1609 11.8 30 15:36 03.02.2020
3228 Snow -13 995 78 1609 11.8 30 15:18 03.02.2020
3229 Snow -13 995 78 1609 11.8 30 15:18 03.02.2020
3230 Snow -13 996 78 2012 10.8 30 14:39 03.02.2020
3231 Snow -13 996 78 2012 10.8 30 14:21 03.02.2020
3232 Snow -12 996 72 2816 11.3 30 13:55 03.02.2020
3233 Snow -12 996 72 2816 11.3 30 13:36 03.02.2020
3234 Snow -12 996 72 2816 11.3 30 13:18 03.02.2020
3235 Snow -12 996 72 6437 8.7 20 12:40 03.02.2020
3236 Snow -12 996 72 6437 8.7 20 12:40 03.02.2020
3237 Snow -12 996 72 6437 8.7 20 12:22 03.02.2020
3238 Snow -12 996 72 3219 8.7 10 11:58 03.02.2020
3239 Snow -12 997 72 3219 11.3 20 11:37 03.02.2020
3240 Snow -12 997 72 3219 11.3 20 11:18 03.02.2020
3241 Snow -14 997 71 4828 10.8 360 10:41 03.02.2020
3242 Snow -14 997 71 4828 10.8 360 10:23 03.02.2020
3243 Rain -14 997 71 2816 11.8 30 09:49 03.02.2020
3244 Snow -14 997 71 4828 9.3 20 09:27 03.02.2020
3245 Rain -14 997 71 3219 13.4 30 08:58 03.02.2020
3246 Rain -14 997 71 3219 13.4 30 08:40 03.02.2020
3247 Rain -14 997 71 3219 13.4 30 08:40 03.02.2020
3248 Rain -14 997 71 3219 13.4 30 08:21 03.02.2020
3249 Snow -15 997 77 3219 13.4 30 07:41 03.02.2020
3250 Snow -15 997 77 3219 13.4 30 07:22 03.02.2020
3251 Snow -15 997 77 3219 13.4 30 07:22 03.02.2020
3252 Snow -14 998 71 4828 12.9 30 06:55 03.02.2020
3253 Snow -14 998 71 4828 12.9 30 06:30 03.02.2020
3254 Snow -14 999 71 4828 9.3 20 05:48 03.02.2020
3255 Snow -14 999 71 4828 9.3 20 05:30 03.02.2020
3256 Clouds -16 999 77 4828 12.3 40 04:35 03.02.2020
3257 Snow -15 1001 77 4828 9.8 30 02:38 03.02.2020
3258 Snow -15 1001 77 4828 9.8 30 02:38 03.02.2020
3259 Snow -15 1001 77 4828 9.8 30 02:18 03.02.2020
3260 Mist -17 1002 77 6437 7.7 40 00:48 03.02.2020
3261 Mist -17 1002 77 6437 7.7 40 00:25 03.02.2020
3262 Mist -18 1003 77 6437 9.3 40 23:40 02.02.2020
3263 Mist -18 1003 77 6437 9.3 40 23:40 02.02.2020
3264 Mist -18 1003 77 6437 9.3 40 23:40 02.02.2020
3265 Mist -18 1003 77 6437 9.3 40 23:22 02.02.2020
3266 Mist -18 1003 70 4828 8.7 40 22:58 02.02.2020
3267 Mist -18 1003 70 4828 8.7 40 22:39 02.02.2020
3268 Mist -18 1003 70 4828 8.7 40 22:21 02.02.2020
3269 Mist -18 1003 70 4828 8.7 40 22:21 02.02.2020
3270 Mist -18 1004 77 9656 8.2 30 21:57 02.02.2020
3271 Mist -18 1004 77 9656 8.2 30 21:38 02.02.2020
3272 Mist -18 1004 77 9656 8.2 30 21:20 02.02.2020
3273 Mist -18 1004 77 9656 8.2 30 21:20 02.02.2020
3274 Snow -18 1005 70 4828 8.7 30 20:57 02.02.2020
3275 Snow -18 1005 70 4828 8.7 30 20:57 02.02.2020
3276 Snow -18 1005 70 4828 8.7 30 20:38 02.02.2020
3277 Snow -18 1005 70 4828 8.7 30 20:20 02.02.2020
3278 Snow -17 1005 70 4828 8.7 30 19:56 02.02.2020
3279 Clouds -17 1005 70 4828 7.7 30 19:38 02.02.2020
3280 Clouds -17 1005 70 4828 7.7 30 19:38 02.02.2020
3281 Clouds -17 1005 70 4828 7.7 30 19:19 02.02.2020
3282 Clouds -17 1005 70 16093 7.2 20 18:54 02.02.2020
3283 Clouds -17 1006 70 16093 6.2 20 18:36 02.02.2020
3284 Clouds -17 1006 70 16093 6.2 20 18:18 02.02.2020
3285 Clouds -16 1006 65 16093 5.7 20 17:55 02.02.2020
3286 Clouds -16 1006 65 16093 5.7 20 17:36 02.02.2020
3287 Clouds -16 1006 65 16093 5.7 20 17:18 02.02.2020
3288 Clouds -17 1006 70 16093 6.7 10 16:54 02.02.2020
3289 Clouds -17 1006 70 16093 6.7 10 16:36 02.02.2020
3290 Clouds -17 1006 70 16093 6.7 10 16:18 02.02.2020
3291 Clouds -17 1006 70 16093 6.7 10 16:18 02.02.2020
3292 Clouds -17 1007 64 16093 4.6 20 15:40 02.02.2020
3293 Clouds -17 1007 64 16093 4.6 20 15:20 02.02.2020
3294 Clouds -17 1007 70 16093 5.1 20 14:59 02.02.2020
3295 Clouds -17 1007 70 16093 5.1 20 14:40 02.02.2020
3296 Clouds -17 1007 70 16093 5.1 20 14:18 02.02.2020
3297 Clouds -17 1008 70 16093 6.2 30 13:56 02.02.2020
3298 Clouds -17 1008 70 16093 6.2 30 13:37 02.02.2020
3299 Clouds -17 1008 70 16093 6.2 30 13:19 02.02.2020
3300 Clouds -17 1008 70 16093 6.7 30 12:45 02.02.2020
3301 Clouds -17 1008 70 16093 6.7 30 12:23 02.02.2020
3302 Clouds -17 1008 70 16093 4.1 40 11:59 02.02.2020
3303 Clouds -17 1008 70 16093 4.1 40 11:41 02.02.2020
3304 Clouds -17 1008 70 16093 4.1 40 11:19 02.02.2020
3305 Snow -17 1008 70 11265 4.6 20 10:56 02.02.2020
3306 Snow -17 1008 70 11265 4.6 20 10:37 02.02.2020
3307 Snow -17 1008 70 11265 4.6 20 10:19 02.02.2020
3308 Clouds -17 1008 70 16093 5.1 40 09:55 02.02.2020
3309 Clouds -17 1008 70 16093 5.1 40 09:37 02.02.2020
3310 Clouds -17 1008 70 16093 5.1 40 09:19 02.02.2020
3311 Snow -18 1008 77 9656 4.1 40 08:42 02.02.2020
3312 Snow -18 1008 77 9656 4.1 40 08:24 02.02.2020
3313 Snow -18 1008 77 9656 4.1 40 08:24 02.02.2020
3314 Rain -17 1009 77 4828 4.6 50 07:46 02.02.2020
3315 Rain -17 1009 77 4828 4.6 50 07:28 02.02.2020
3316 Rain -17 1009 77 3219 5.1 60 06:43 02.02.2020
3317 Rain -17 1009 77 2414 5.1 70 06:25 02.02.2020
3318 Snow -18 1009 77 2816 5.1 70 05:47 02.02.2020
3319 Snow -18 1009 77 4023 5.7 70 04:47 02.02.2020
3320 Rain -17 1010 77 1609 6.7 100 03:26 02.02.2020
3321 Rain -18 1011 84 1609 6.7 100 02:31 02.02.2020
3322 Snow -18 1011 84 1207 6.7 100 01:54 02.02.2020
3323 Snow -18 1011 77 1609 7.7 110 01:23 02.02.2020
3324 Snow -18 1012 77 1609 7.7 110 00:44 02.02.2020
3325 Rain -18 1012 77 2012 6.2 110 00:22 02.02.2020
3326 Snow -18 1012 77 1207 8.2 110 23:47 01.02.2020
3327 Snow -18 1012 77 1207 8.2 110 23:22 01.02.2020
3328 Rain -18 1012 77 2012 8.7 90 22:51 01.02.2020
3329 Rain -18 1012 77 2012 8.7 90 22:20 01.02.2020
3330 Rain -18 1012 77 2012 8.7 90 22:20 01.02.2020
3331 Rain -18 1012 77 3219 7.7 90 21:59 01.02.2020
3332 Rain -18 1012 77 3219 7.7 90 21:39 01.02.2020
3333 Rain -18 1012 77 3219 7.7 90 21:18 01.02.2020
3334 Rain -18 1012 77 2414 7.7 90 20:41 01.02.2020
3335 Rain -18 1012 77 2414 7.7 90 20:20 01.02.2020
3336 Rain -18 1012 77 1609 7.7 90 19:57 01.02.2020
3337 Rain -18 1012 77 1609 7.7 90 19:39 01.02.2020
3338 Rain -18 1012 77 1609 7.7 90 19:19 01.02.2020
3339 Snow -18 1012 77 1609 7.2 90 18:58 01.02.2020
3340 Snow -18 1012 77 1609 7.2 90 18:40 01.02.2020
3341 Snow -18 1012 77 1609 7.2 90 18:21 01.02.2020
3342 Rain -19 1012 77 1609 7.2 70 17:57 01.02.2020
3343 Rain -19 1012 77 1609 7.2 70 17:39 01.02.2020
3344 Rain -19 1012 77 1609 7.2 70 17:19 01.02.2020
3345 Snow -19 1012 77 2816 7.7 70 16:43 01.02.2020
3346 Snow -19 1012 77 6437 6.7 70 16:24 01.02.2020
3347 Rain -19 1012 77 3219 7.2 70 15:58 01.02.2020
3348 Rain -18 1013 77 1609 6.2 80 15:40 01.02.2020
3349 Rain -18 1013 77 1609 6.2 80 15:20 01.02.2020
3350 Snow -18 1013 70 2816 7.2 80 14:41 01.02.2020
3351 Snow -18 1012 70 2816 7.2 80 14:21 01.02.2020
3352 Snow -18 1013 70 3219 6.2 80 13:58 01.02.2020
3353 Snow -18 1013 70 4828 7.2 70 13:39 01.02.2020
3354 Snow -18 1013 70 4828 7.2 70 13:18 01.02.2020
3355 Snow -18 1013 70 4023 6.2 70 12:42 01.02.2020
3356 Snow -18 1013 70 4023 6.2 70 12:24 01.02.2020
3357 Rain -19 1013 77 3219 5.1 80 11:45 01.02.2020
3358 Rain -19 1013 77 1609 5.1 80 11:24 01.02.2020
3359 Rain -19 1013 77 2816 3.6 80 10:59 01.02.2020
3360 Snow -19 1013 77 3219 3.6 70 10:41 01.02.2020
3361 Snow -19 1013 77 3219 3.6 70 10:22 01.02.2020
3362 Rain -19 1012 77 3219 4.6 70 09:59 01.02.2020
3363 Rain -19 1012 77 2414 3.6 80 09:40 01.02.2020
3364 Rain -19 1012 77 2414 3.6 80 09:21 01.02.2020
3365 Rain -19 1012 77 4828 2.6 70 08:54 01.02.2020
3366 Snow -20 1012 76 12874 2.1 70 07:59 01.02.2020
3367 Snow -20 1012 76 12874 2.1 70 07:40 01.02.2020
3368 Snow -20 1012 76 12874 2.1 70 07:40 01.02.2020
3369 Snow -20 1012 76 12874 2.1 70 07:22 01.02.2020
3370 Snow -21 1012 76 14484 3.6 80 06:43 01.02.2020
3371 Snow -21 1012 76 14484 3.6 80 06:43 01.02.2020
3372 Snow -21 1012 76 8047 2.1 80 05:54 01.02.2020
3373 Snow -21 1012 76 8047 2.1 80 05:54 01.02.2020
3374 Snow -21 1012 76 8047 2.1 80 05:54 01.02.2020
3375 Clouds -22 1012 76 16093 1.5 50 04:22 01.02.2020
3376 Clouds -21 1012 76 16093 2.6 70 03:25 01.02.2020
3377 Clouds -21 1012 70 16093 1.71 103 02:55 01.02.2020
3378 Clouds -21 1012 70 16093 1.71 103 02:37 01.02.2020
3379 Clouds -21 1012 70 16093 1.36 138 02:18 01.02.2020
3380 Clouds -22 1012 69 16093 1.36 138 01:39 01.02.2020
3381 Clouds -25 1012 68 16093 1 120 00:47 01.02.2020
3382 Clouds -26 1012 68 16093 1 120 00:23 01.02.2020
3383 Clear -27 1012 68 16093 1 120 23:40 31.01.2020
3384 Clear -27 1012 68 16093 0.86 127 23:18 31.01.2020
3385 Clear -28 1011 75 16093 0.86 127 22:56 31.01.2020
3386 Clear -28 1011 75 16093 0.86 127 22:37 31.01.2020
3387 Clear -27 1011 75 16093 0.86 127 22:19 31.01.2020
3388 Clear -27 1011 75 16093 0.86 127 21:40 31.01.2020
3389 Clear -27 1011 75 16093 0.86 127 21:40 31.01.2020
3390 Clear -28 1011 75 16093 0.86 127 21:21 31.01.2020
3391 Clear -29 1011 75 16093 1.5 50 20:57 31.01.2020
3392 Clear -29 1011 75 16093 1.5 50 20:39 31.01.2020
3393 Clear -29 1011 75 16093 1.5 50 20:21 31.01.2020
3394 Clear -29 1010 75 16093 0.22 183 19:57 31.01.2020
3395 Clear -29 1010 75 16093 0.22 183 19:38 31.01.2020
3396 Clear -29 1010 75 16093 0.22 183 19:20 31.01.2020
3397 Clear -28 1010 68 16093 0.22 183 18:56 31.01.2020
3398 Clear -28 1010 68 16093 0.22 183 18:36 31.01.2020
3399 Clear -28 1010 68 16093 0.22 183 18:18 31.01.2020
3400 Clear -29 1010 74 16093 0.22 183 17:43 31.01.2020
3401 Clear -29 1010 74 16093 0.22 183 17:24 31.01.2020
3402 Clear -29 1009 75 16093 1.5 10 16:56 31.01.2020
3403 Clear -29 1009 75 16093 1.5 10 16:38 31.01.2020
3404 Clear -28 1009 75 16093 1.5 10 16:19 31.01.2020
3405 Clear -28 1009 75 16093 2.1 20 15:57 31.01.2020
3406 Clear -28 1009 75 16093 2.1 20 15:38 31.01.2020
3407 Clear -28 1009 75 16093 2.1 20 15:38 31.01.2020
3408 Clear -28 1009 75 16093 2.1 20 15:19 31.01.2020
3409 Clear -27 1008 68 16093 0.92 1 14:42 31.01.2020
3410 Clear -27 1008 68 16093 0.92 1 14:42 31.01.2020
3411 Clear -26 1008 68 16093 0.92 1 14:23 31.01.2020
3412 Clear -25 1007 62 16093 1.57 343 13:52 31.01.2020
3413 Clear -26 1007 62 16093 1.57 343 13:32 31.01.2020
3414 Clear -24 1007 57 16093 3.6 100 12:56 31.01.2020
3415 Clear -24 1007 57 16093 3.6 100 12:56 31.01.2020
3416 Clear -24 1007 57 16093 3.6 100 12:38 31.01.2020
3417 Clear -24 1007 57 16093 3.6 100 12:20 31.01.2020
3418 Clear -28 1007 68 16093 2.6 110 11:42 31.01.2020
3419 Clear -26 1007 68 16093 2.6 110 11:23 31.01.2020
3420 Clear -26 1006 62 16093 1.5 0 10:58 31.01.2020
3421 Clear -26 1006 62 16093 1.5 0 10:58 31.01.2020
3422 Clear -26 1006 62 16093 1.5 0 10:39 31.01.2020
3423 Clear -26 1006 62 16093 1.5 0 10:20 31.01.2020
3424 Clear -26 1006 62 16093 1.66 336 09:56 31.01.2020
3425 Clear -25 1006 62 16093 1.37 338 09:38 31.01.2020
3426 Clear -25 1006 62 16093 1.66 336 09:18 31.01.2020
3427 Clear -25 1006 62 16093 1.66 336 08:49 31.01.2020
3428 Clear -25 1006 62 16093 1.66 336 08:24 31.01.2020
3429 Clear -24 1006 57 16093 3.1 310 07:52 31.01.2020
3430 Clear -24 1006 57 16093 3.1 310 07:24 31.01.2020
3431 Clear -24 1005 57 16093 1.75 344 06:42 31.01.2020
3432 Clear -22 1005 52 16093 4.6 280 05:58 31.01.2020
3433 Clear -23 1005 52 16093 4.6 280 05:37 31.01.2020
3434 Clear -22 1004 57 16093 4.6 350 04:47 31.01.2020
3435 Clear -21 1004 53 16093 1.97 346 02:58 31.01.2020
3436 Clear -21 1003 53 16093 6.2 330 01:32 31.01.2020
3437 Clear -21 1003 53 16093 3.1 300 00:43 31.01.2020
3438 Clear -21 1003 53 16093 3.1 300 00:24 31.01.2020
3439 Clear -22 1003 63 16093 1.5 240 23:48 30.01.2020
3440 Clear -24 1003 63 16093 1.5 240 23:24 30.01.2020
3441 Clear -23 1002 63 16093 4.1 290 22:56 30.01.2020
3442 Clear -23 1002 63 16093 4.1 290 22:36 30.01.2020
3443 Clear -23 1002 63 16093 4.1 290 22:36 30.01.2020
3444 Clear -23 1002 63 16093 4.1 290 22:18 30.01.2020
3445 Clear -23 1002 57 16093 5.7 340 21:43 30.01.2020
3446 Clear -23 1002 57 16093 5.7 340 21:19 30.01.2020
3447 Clear -23 1002 52 16093 5.1 290 20:59 30.01.2020
3448 Clear -23 1002 52 16093 5.1 290 20:39 30.01.2020
3449 Clear -23 1002 52 16093 5.1 290 20:21 30.01.2020
3450 Clear -26 1002 62 16093 3.6 330 19:55 30.01.2020
3451 Clear -26 1002 62 16093 3.6 330 19:36 30.01.2020
3452 Clear -26 1002 62 16093 3.6 330 19:18 30.01.2020
3453 Clear -23 1002 57 16093 2.1 10 18:39 30.01.2020
3454 Clear -23 1002 57 16093 2.1 10 18:20 30.01.2020
3455 Clear -23 1001 57 16093 3.1 300 17:55 30.01.2020
3456 Clear -23 1001 57 16093 3.1 300 17:36 30.01.2020
3457 Clear -23 1001 57 16093 3.1 300 17:18 30.01.2020
3458 Clear -24 1001 57 16093 2.6 40 16:56 30.01.2020
3459 Clear -24 1001 57 16093 2.6 40 16:36 30.01.2020
3460 Clear -24 1001 57 16093 2.6 40 16:18 30.01.2020
3461 Clear -22 1001 52 16093 4.1 320 15:41 30.01.2020
3462 Clear -22 1001 52 16093 4.1 320 15:19 30.01.2020
3463 Clear -22 1001 52 16093 4.1 320 15:19 30.01.2020
3464 Clear -22 1000 52 16093 4.6 310 14:44 30.01.2020
3465 Clear -22 1000 52 16093 4.6 310 14:26 30.01.2020
3466 Clear -23 1000 57 16093 8.2 330 13:43 30.01.2020
3467 Clear -23 1000 57 16093 8.2 330 13:24 30.01.2020
3468 Clear -23 1000 57 16093 2.21 333 12:58 30.01.2020
3469 Clear -23 1000 57 16093 2.21 333 12:39 30.01.2020
3470 Clear -23 1000 57 16093 2.21 333 12:21 30.01.2020
3471 Clear -22 1000 52 16093 3.6 330 11:41 30.01.2020
3472 Clear -22 1000 52 16093 3.6 330 11:23 30.01.2020
3473 Clear -22 1000 52 16093 2.6 260 10:59 30.01.2020
3474 Clear -22 1000 52 16093 2.6 260 10:59 30.01.2020
3475 Clear -22 1000 52 16093 2.6 260 10:41 30.01.2020
3476 Clear -22 1000 52 16093 2.6 260 10:21 30.01.2020
3477 Clear -23 999 63 16093 3.6 240 09:47 30.01.2020
3478 Clear -23 999 63 16093 3.6 240 09:28 30.01.2020
3479 Clear -23 999 57 16093 5.1 280 08:57 30.01.2020
3480 Clear -23 999 57 16093 5.1 280 08:37 30.01.2020
3481 Clear -23 999 57 16093 5.1 280 08:18 30.01.2020
3482 Clear -23 999 63 16093 6.7 340 07:48 30.01.2020
3483 Clear -24 999 63 16093 6.7 340 07:20 30.01.2020
3484 Clear -22 999 52 16093 6.2 320 06:47 30.01.2020
3485 Clear -22 999 52 16093 6.2 320 06:27 30.01.2020
3486 Clear -22 999 52 16093 4.6 340 05:43 30.01.2020
3487 Clear -22 999 52 16093 4.6 340 05:19 30.01.2020
3488 Clear -23 998 57 16093 1.5 10 03:52 30.01.2020
3489 Clear -23 998 57 16093 1.5 10 03:34 30.01.2020
3490 Clear -19 998 44 16093 1.5 40 02:19 30.01.2020
3491 Clear -22 999 52 16093 2.6 340 00:40 30.01.2020
3492 Clear -22 999 52 16093 2.6 340 00:20 30.01.2020
3493 Clear -23 999 62 16093 2.09 314 23:45 29.01.2020
3494 Clear -25 999 62 16093 2.62 324 23:21 29.01.2020
3495 Clear -25 999 62 16093 2.62 324 23:21 29.01.2020
3496 Clear -25 1000 68 16093 2.1 110 22:56 29.01.2020
3497 Clear -25 1000 68 16093 2.1 110 22:38 29.01.2020
3498 Clear -26 1000 68 16093 2.1 110 22:19 29.01.2020
3499 Clear -26 1000 62 16093 2.62 324 21:57 29.01.2020
3500 Clear -26 1000 62 16093 2.62 324 21:38 29.01.2020
3501 Clear -26 1000 62 16093 2.62 324 21:19 29.01.2020
3502 Clear -28 1001 61 16093 2.62 324 20:57 29.01.2020
3503 Clear -28 1001 61 16093 2.62 324 20:37 29.01.2020
3504 Clear -28 1001 61 16093 2.36 341 20:19 29.01.2020
3505 Clear -28 1001 61 16093 2.36 341 19:55 29.01.2020
3506 Clear -28 1001 61 16093 2.36 341 19:37 29.01.2020
3507 Clear -28 1001 61 16093 2.36 341 19:37 29.01.2020
3508 Clear -29 1001 61 16093 2.36 341 19:18 29.01.2020
3509 Clear -28 1002 68 16093 2.1 0 18:42 29.01.2020
3510 Clear -29 1002 68 16093 2.1 0 18:19 29.01.2020
3511 Clear -30 1002 74 16093 2.36 341 17:55 29.01.2020
3512 Clear -30 1002 74 16093 2.36 341 17:37 29.01.2020
3513 Clear -29 1002 74 16093 2.82 348 17:19 29.01.2020
3514 Clear -31 1003 74 16093 2.82 348 16:41 29.01.2020
3515 Clear -31 1003 74 16093 2.82 348 16:22 29.01.2020
3516 Clear -31 1004 74 16093 2.82 348 15:41 29.01.2020
3517 Clear -31 1004 74 16093 2.82 348 15:23 29.01.2020
3518 Clear -29 1005 67 16093 2.82 348 14:59 29.01.2020
3519 Clear -29 1005 67 16093 2.82 348 14:41 29.01.2020
3520 Clear -29 1005 67 16093 3.17 354 14:20 29.01.2020
3521 Clear -28 1005 68 16093 3.1 40 13:41 29.01.2020
3522 Clear -28 1005 68 16093 3.1 40 13:22 29.01.2020
3523 Clear -29 1006 61 16093 2.6 290 12:59 29.01.2020
3524 Clear -28 1006 61 16093 2.6 290 12:39 29.01.2020
3525 Clear -28 1006 61 16093 2.6 290 12:21 29.01.2020
3526 Clear -27 1007 62 16093 2.6 40 11:58 29.01.2020
3527 Clear -27 1007 62 16093 2.6 40 11:39 29.01.2020
3528 Clear -26 1007 62 16093 2.6 40 11:19 29.01.2020
3529 Clear -25 1008 57 16093 3.1 40 10:46 29.01.2020
3530 Clear -27 1008 61 16093 3.8 13 10:22 29.01.2020
3531 Clear -27 1008 61 16093 3.8 13 09:57 29.01.2020
3532 Clear -27 1008 61 16093 3.8 13 09:38 29.01.2020
3533 Clear -29 1008 61 16093 3.8 13 09:18 29.01.2020
3534 Clear -29 1009 61 16093 3.8 13 08:41 29.01.2020
3535 Clear -29 1009 61 16093 3.44 10 08:22 29.01.2020
3536 Clear -27 1009 68 16093 3.3 13 07:45 29.01.2020
3537 Clear -28 1009 68 16093 3.3 13 07:25 29.01.2020
3538 Clear -29 1010 67 16093 2.1 360 06:55 29.01.2020
3539 Clear -29 1010 67 16093 2.1 360 06:37 29.01.2020
3540 Clear -29 1010 67 16093 2.1 360 06:37 29.01.2020
3541 Clear -29 1010 67 16093 2.1 360 06:18 29.01.2020
3542 Clear -29 1010 68 16093 2.1 10 05:47 29.01.2020
3543 Clear -28 1010 68 16093 2.1 10 05:29 29.01.2020
3544 Clear -27 1011 62 16093 2.36 15 04:38 29.01.2020
3545 Clear -26 1011 62 16093 2.36 15 03:55 29.01.2020
3546 Clear -26 1010 69 0 1.79 97 02:33 29.01.2020
3547 Clear -27 1012 68 16093 1.5 30 00:57 29.01.2020
3548 Clear -27 1012 68 16093 1.5 30 00:36 29.01.2020
3549 Clear -27 1012 68 16093 1.5 30 00:18 29.01.2020
3550 Clear -28 1012 68 16093 2.6 20 23:38 28.01.2020
3551 Clear -28 1012 68 16093 2.6 20 23:19 28.01.2020
3552 Clear -29 1012 68 16093 2.1 10 22:46 28.01.2020
3553 Clear -29 1012 68 16093 2.1 10 22:27 28.01.2020
3554 Clear -29 1012 75 16093 2.1 50 21:54 28.01.2020
3555 Clear -29 1012 75 16093 2.1 50 21:36 28.01.2020
3556 Clear -29 1012 75 16093 2.1 50 21:18 28.01.2020
3557 Clear -29 1012 75 16093 2.1 50 21:18 28.01.2020
3558 Clear -28 1013 68 16093 2.6 17 20:45 28.01.2020
3559 Clear -28 1013 68 16093 2.31 19 20:25 28.01.2020
3560 Clear -27 1013 68 16093 3.03 2 19:55 28.01.2020
3561 Clear -27 1013 68 16093 3.03 2 19:37 28.01.2020
3562 Clear -27 1013 68 16093 3.03 2 19:19 28.01.2020
3563 Clear -28 1013 68 16093 3.03 2 18:41 28.01.2020
3564 Clear -27 1013 68 16093 3.03 2 18:23 28.01.2020
3565 Clear -26 1013 62 16093 3.1 340 17:59 28.01.2020
3566 Clear -26 1013 62 16093 3.1 340 17:59 28.01.2020
3567 Clear -26 1013 62 16093 3.1 340 17:39 28.01.2020
3568 Clear -26 1013 62 16093 3.1 340 17:21 28.01.2020
3569 Clear -24 1014 63 16093 4.6 360 16:58 28.01.2020
3570 Clear -24 1014 63 16093 4.6 360 16:40 28.01.2020
3571 Clear -24 1014 63 16093 4.6 360 16:21 28.01.2020
3572 Clear -24 1014 57 16093 1.5 280 15:47 28.01.2020
3573 Clear -24 1014 57 16093 1.5 280 15:19 28.01.2020
3574 Clear -23 1015 57 16093 3.6 300 14:58 28.01.2020
3575 Clear -23 1015 57 16093 3.6 300 14:39 28.01.2020
3576 Clear -23 1015 57 16093 3.6 300 14:18 28.01.2020
3577 Clear -23 1015 63 16093 3.6 330 13:41 28.01.2020
3578 Clear -23 1015 63 16093 3.6 330 13:23 28.01.2020
3579 Clear -27 1015 68 16093 3.44 359 12:43 28.01.2020
3580 Clear -27 1015 68 16093 3.44 359 12:24 28.01.2020
3581 Clear -24 1015 63 16093 1.5 20 11:58 28.01.2020
3582 Clear -24 1015 63 16093 1.5 20 11:39 28.01.2020
3583 Clear -24 1015 63 16093 1.5 20 11:20 28.01.2020
3584 Clear -24 1016 75 16093 3.57 355 10:42 28.01.2020
3585 Clear -26 1016 75 16093 3.57 355 10:24 28.01.2020
3586 Clear -26 1016 75 16093 3.57 355 09:58 28.01.2020
3587 Clear -27 1016 75 16093 3.57 355 09:38 28.01.2020
3588 Clear -27 1016 75 16093 3.57 355 09:19 28.01.2020
3589 Clear -26 1016 69 16093 1.5 180 08:44 28.01.2020
3590 Clear -26 1016 69 16093 1.5 180 08:22 28.01.2020
3591 Clear -23 1016 69 16093 3.71 349 07:42 28.01.2020
3592 Clear -23 1016 69 16093 3.71 349 07:23 28.01.2020
3593 Clear -22 1016 57 16093 2.6 50 06:44 28.01.2020
3594 Clear -22 1016 57 16093 2.6 50 06:23 28.01.2020
3595 Clear -18 1016 49 16093 6.7 330 05:35 28.01.2020
3596 Clear -19 1017 53 16093 4.1 340 04:40 28.01.2020
3597 Clear -18 1017 54 16093 1.5 0 03:41 28.01.2020
3598 Clear -21 1018 58 16093 3.84 354 02:43 28.01.2020
3599 Clear -21 1018 58 16093 3.84 354 02:24 28.01.2020
3600 Clear -25 1019 69 16093 2.1 40 01:50 28.01.2020
3601 Clear -24 1019 69 16093 3.27 352 00:58 28.01.2020
3602 Clear -24 1019 69 16093 3.27 352 00:39 28.01.2020
3603 Clear -24 1019 69 16093 3.27 352 00:19 28.01.2020
3604 Clear -26 1020 75 16093 3.27 352 23:42 27.01.2020
3605 Clear -26 1020 75 16093 3.04 353 23:18 27.01.2020
3606 Clear -28 1020 68 16093 1.5 230 22:44 27.01.2020
3607 Clear -28 1020 68 16093 1.5 230 22:20 27.01.2020
3608 Clear -28 1020 68 16093 1.5 230 22:20 27.01.2020
3609 Clear -29 1021 68 16093 1.5 0 21:57 27.01.2020
3610 Clear -29 1021 68 16093 1.5 0 21:38 27.01.2020
3611 Clear -29 1021 68 16093 1.5 0 21:38 27.01.2020
3612 Clear -29 1021 68 16093 1.5 0 21:18 27.01.2020
3613 Clear -28 1021 68 16093 2.6 0 20:56 27.01.2020
3614 Clear -27 1021 68 16093 2.6 0 20:37 27.01.2020
3615 Clear -27 1021 68 16093 2.6 0 20:18 27.01.2020
3616 Clear -27 1021 68 16093 1.5 10 19:42 27.01.2020
3617 Clear -27 1021 68 16093 1.5 10 19:23 27.01.2020
3618 Clear -26 1021 69 16093 1.5 40 18:59 27.01.2020
3619 Clear -25 1021 69 16093 1.5 40 18:39 27.01.2020
3620 Clear -25 1021 69 16093 1.5 40 18:21 27.01.2020
3621 Clear -25 1021 69 16093 1.5 40 18:20 27.01.2020
3622 Clear -26 1021 75 16093 3.5 2 17:57 27.01.2020
3623 Clear -26 1021 72 0 1.79 329 17:37 27.01.2020
3624 Clear -26 1021 72 0 1.79 329 17:37 27.01.2020
3625 Clear -27 1022 68 16093 3.28 2 17:18 27.01.2020
3626 Clear -29 1022 68 16093 3.28 2 16:42 27.01.2020
3627 Clear -29 1022 68 16093 3.28 2 16:24 27.01.2020
3628 Clear -28 1022 68 16093 3.28 2 15:59 27.01.2020
3629 Clear -28 1022 68 16093 3.28 2 15:40 27.01.2020
3630 Clear -28 1022 68 16093 3.28 2 15:19 27.01.2020
3631 Clear -27 1022 62 16093 3.28 2 14:55 27.01.2020
3632 Clear -27 1022 62 16093 3.28 2 14:37 27.01.2020
3633 Clear -27 1022 62 16093 3.51 1 14:18 27.01.2020
3634 Clear -26 1022 62 16093 3.51 1 13:42 27.01.2020
3635 Clear -26 1022 62 16093 3.39 357 13:21 27.01.2020
3636 Clear -24 1022 57 16093 2.1 0 12:56 27.01.2020
3637 Clear -24 1022 57 16093 2.1 0 12:38 27.01.2020
3638 Clear -24 1022 57 16093 2.1 0 12:19 27.01.2020
3639 Clear -23 1022 57 16093 2.1 180 11:42 27.01.2020
3640 Clear -23 1022 57 16093 2.1 180 11:42 27.01.2020
3641 Clear -23 1022 57 16093 2.1 180 11:21 27.01.2020
3642 Clear -23 1022 57 16093 2.1 180 11:21 27.01.2020
3643 Clear -24 1023 63 16093 1.5 210 10:55 27.01.2020
3644 Clear -24 1023 63 16093 1.5 210 10:36 27.01.2020
3645 Clear -24 1023 63 16093 1.5 210 10:18 27.01.2020
3646 Clear -23 1022 57 16093 3.1 359 09:39 27.01.2020
3647 Clear -23 1022 57 16093 3.1 359 09:18 27.01.2020
3648 Clear -25 1022 62 16093 3.1 359 08:47 27.01.2020
3649 Clear -25 1022 62 16093 3.1 359 08:23 27.01.2020
3650 Clear -22 1022 63 16093 2.6 10 07:55 27.01.2020
3651 Clear -22 1022 63 16093 2.6 10 07:36 27.01.2020
3652 Clear -24 1022 69 16093 3.05 357 06:55 27.01.2020
3653 Clear -24 1022 69 16093 3.05 357 06:32 27.01.2020
3654 Clear -21 1022 58 16093 2.6 80 05:37 27.01.2020
3655 Clear -21 1022 58 16093 2.6 80 05:37 27.01.2020
3656 Clear -22 1022 63 16093 5.1 340 04:20 27.01.2020
3657 Clear -22 1022 57 16093 4.6 330 03:27 27.01.2020
3658 Clear -21 1023 58 16093 4.1 340 01:32 27.01.2020
3659 Clear -19 1023 53 16093 4.1 310 00:59 27.01.2020
3660 Clear -19 1023 53 16093 4.1 310 00:38 27.01.2020
3661 Clear -19 1023 53 16093 4.1 310 00:19 27.01.2020
3662 Clear -19 1023 53 16093 4.6 310 23:42 26.01.2020
3663 Clear -19 1023 53 16093 4.6 310 23:20 26.01.2020
3664 Clear -20 1023 58 16093 5.7 340 22:57 26.01.2020
3665 Clear -20 1023 58 16093 5.7 340 22:37 26.01.2020
3666 Clear -20 1023 58 16093 5.7 340 22:18 26.01.2020
3667 Clear -19 1024 49 16093 6.2 340 21:57 26.01.2020
3668 Clear -19 1024 49 16093 6.2 340 21:38 26.01.2020
3669 Clear -19 1024 49 16093 6.2 340 21:19 26.01.2020
3670 Clear -19 1024 49 16093 6.2 340 21:19 26.01.2020
3671 Clear -22 1024 63 16093 4.1 360 20:56 26.01.2020
3672 Clear -22 1024 63 16093 4.1 360 20:38 26.01.2020
3673 Clear -22 1024 63 16093 4.1 360 20:18 26.01.2020
3674 Clear -22 1024 63 16093 5.1 340 19:56 26.01.2020
3675 Clear -22 1024 63 16093 5.1 340 19:37 26.01.2020
3676 Clear -22 1024 63 16093 5.1 340 19:18 26.01.2020
3677 Clear -22 1024 63 16093 5.1 340 18:41 26.01.2020
3678 Clear -22 1024 63 16093 5.1 340 18:22 26.01.2020
3679 Clear -23 1025 63 16093 4.1 290 17:59 26.01.2020
3680 Clear -23 1025 63 16093 4.1 290 17:59 26.01.2020
3681 Clear -23 1025 63 16093 4.1 290 17:39 26.01.2020
3682 Clear -23 1025 63 16093 4.1 290 17:20 26.01.2020
3683 Clear -22 1025 63 16093 1.5 30 16:58 26.01.2020
3684 Clear -22 1025 63 16093 1.5 30 16:40 26.01.2020
3685 Clear -22 1025 63 16093 1.5 30 16:21 26.01.2020
3686 Clear -23 1026 72 0 3.77 1 15:58 26.01.2020
3687 Clear -23 1026 72 0 3.77 1 15:58 26.01.2020
3688 Clear -23 1026 72 0 3.77 1 15:40 26.01.2020
3689 Clear -23 1026 72 0 3.77 1 15:19 26.01.2020
3690 Clear -23 1026 72 0 3.77 1 14:41 26.01.2020
3691 Clear -22 1027 69 0 3.43 358 14:22 26.01.2020
3692 Clear -22 1027 69 0 3.43 358 13:57 26.01.2020
3693 Clear -22 1027 69 0 3.43 358 13:37 26.01.2020
3694 Clear -22 1027 68 0 3.8 358 13:18 26.01.2020
3695 Clear -22 1027 68 0 3.8 358 12:42 26.01.2020
3696 Clear -22 1027 68 0 3.8 358 12:24 26.01.2020
3697 Clear -22 1027 68 0 3.8 358 11:58 26.01.2020
3698 Clear -22 1027 68 0 3.8 358 11:39 26.01.2020
3699 Clear -28 1027 75 16093 1.5 360 11:19 26.01.2020
3700 Clear -28 1027 75 16093 1.5 360 10:59 26.01.2020
3701 Clear -28 1027 75 16093 1.5 360 10:38 26.01.2020
3702 Clear -28 1027 75 16093 1.5 360 10:20 26.01.2020
3703 Clear -28 1027 75 16093 3.6 1 09:58 26.01.2020
3704 Clear -28 1027 75 16093 3.6 1 09:40 26.01.2020
3705 Clear -28 1027 75 16093 3.6 1 09:21 26.01.2020
3706 Clear -26 1027 75 16093 3.6 1 08:44 26.01.2020
3707 Clear -26 1027 75 16093 3.6 1 08:23 26.01.2020
3708 Clear -28 1026 75 16093 3.9 6 07:58 26.01.2020
3709 Clear -28 1026 75 16093 3.9 6 07:40 26.01.2020
3710 Clear -28 1026 75 16093 3.9 6 07:21 26.01.2020
3711 Clear -28 1026 75 16093 3.9 6 06:31 26.01.2020
3712 Clear -28 1026 75 16093 3.9 6 05:32 26.01.2020
3713 Clear -28 1026 75 16093 1.5 350 04:45 26.01.2020
3714 Clear -25 1026 69 16093 1.5 30 02:58 26.01.2020
3715 Clear -27 1026 82 16093 3.81 8 01:50 26.01.2020
3716 Clear -27 1026 82 16093 3.81 8 01:25 26.01.2020
3717 Clear -25 1026 69 16093 3.51 7 00:58 26.01.2020
3718 Clear -25 1026 69 16093 3.51 7 00:37 26.01.2020
3719 Clear -25 1026 69 16093 3.51 7 00:19 26.01.2020
3720 Clear -22 1028 71 0 3.51 7 23:37 25.01.2020
3721 Clear -23 1027 71 0 3.16 8 23:18 25.01.2020
3722 Clear -23 1027 71 0 3.16 8 22:40 25.01.2020
3723 Clear -23 1027 71 0 3.16 8 22:19 25.01.2020
3724 Clear -23 1027 71 0 3.16 8 21:57 25.01.2020
3725 Clear -23 1027 71 0 3.16 8 21:39 25.01.2020
3726 Clear -23 1027 71 0 3.16 8 21:20 25.01.2020
3727 Clear -23 1027 71 0 3.16 8 20:44 25.01.2020
3728 Clear -23 1027 71 0 3.16 8 20:25 25.01.2020
3729 Clear -23 1027 72 0 3.37 6 19:56 25.01.2020
3730 Clear -23 1027 73 0 3.21 7 19:37 25.01.2020
3731 Clear -23 1027 73 0 3.21 7 19:19 25.01.2020
3732 Clear -23 1027 72 0 3.37 6 18:44 25.01.2020
3733 Clear -23 1027 73 0 3.21 7 18:23 25.01.2020
3734 Clear -23 1027 73 0 3.21 7 17:59 25.01.2020
3735 Clear -23 1027 73 0 3.21 7 17:39 25.01.2020
3736 Clear -23 1026 72 0 3.05 4 17:19 25.01.2020
3737 Clear -23 1026 71 0 2.96 6 16:56 25.01.2020
3738 Clear -23 1026 72 0 3.05 4 16:36 25.01.2020
3739 Clear -23 1026 72 0 3.05 4 16:18 25.01.2020
3740 Clear -23 1026 72 0 3.05 4 15:42 25.01.2020
3741 Clear -23 1026 72 0 3.05 4 15:23 25.01.2020
3742 Clear -23 1026 72 0 3.05 4 14:44 25.01.2020
3743 Clear -23 1027 72 0 3.05 360 14:19 25.01.2020
3744 Clear -23 1027 72 0 3.05 360 13:56 25.01.2020
3745 Clear -23 1027 72 0 3.05 360 13:38 25.01.2020
3746 Clear -23 1027 72 0 3.05 360 13:18 25.01.2020
3747 Clear -23 1027 72 0 3.05 360 13:18 25.01.2020
3748 Clear -23 1027 73 0 3.03 2 12:42 25.01.2020
3749 Clear -29 1026 68 16093 1.5 10 12:21 25.01.2020
3750 Clear -29 1026 68 16093 1.5 10 11:43 25.01.2020
3751 Clear -29 1026 68 16093 1.5 10 11:21 25.01.2020
3752 Clear -30 1025 74 16093 2.95 360 10:56 25.01.2020
3753 Clear -30 1025 74 16093 2.95 360 10:38 25.01.2020
3754 Clear -30 1025 74 16093 2.95 360 10:19 25.01.2020
3755 Clear -29 1025 68 16093 2.1 10 09:40 25.01.2020
3756 Clear -29 1025 68 16093 2.1 10 09:21 25.01.2020
3757 Clear -29 1025 68 16093 2.95 360 08:43 25.01.2020
3758 Clear -29 1025 68 16093 2.99 358 08:21 25.01.2020
3759 Clear -28 1025 75 16093 2.77 359 07:42 25.01.2020
3760 Clear -27 1025 68 16093 1.5 90 06:45 25.01.2020
3761 Clear -27 1025 68 16093 1.5 90 06:24 25.01.2020
3762 Clear -28 1025 75 16093 2.77 359 05:44 25.01.2020
3763 Clear -25 1025 68 16093 3.62 6 04:26 25.01.2020
3764 Clear -21 1025 63 16093 1.5 0 03:50 25.01.2020
3765 Clear -24 1025 76 16093 2.1 10 02:53 25.01.2020
3766 Clear -21 1025 69 16093 3.94 10 01:59 25.01.2020
3767 Clear -21 1025 69 16093 3.94 10 01:59 25.01.2020
3768 Clear -23 1025 69 16093 3.94 10 01:37 25.01.2020
3769 Clear -23 1025 69 16093 3.94 10 01:37 25.01.2020
3770 Clear -23 1025 69 16093 1.5 0 00:42 25.01.2020
3771 Clear -23 1025 69 16093 1.5 0 00:23 25.01.2020
3772 Clear -25 1025 68 16093 3.36 11 23:57 24.01.2020
3773 Clear -25 1025 68 16093 3.36 11 23:38 24.01.2020
3774 Clear -25 1025 68 16093 3.36 11 23:38 24.01.2020
3775 Clear -26 1025 68 16093 2.67 353 23:20 24.01.2020
3776 Clear -25 1025 68 16093 2.67 353 22:42 24.01.2020
3777 Clear -27 1025 68 16093 2.67 353 22:24 24.01.2020
3778 Clear -28 1025 75 16093 2.67 353 21:43 24.01.2020
3779 Clear -27 1025 75 16093 2.67 353 21:20 24.01.2020
3780 Clear -26 1025 68 16093 2.6 50 20:56 24.01.2020
3781 Clear -26 1025 68 16093 2.6 50 20:38 24.01.2020
3782 Clear -26 1025 68 16093 2.6 50 20:19 24.01.2020
3783 Clear -26 1025 68 16093 3.27 2 19:56 24.01.2020
3784 Clear -26 1025 68 16093 3.27 2 19:38 24.01.2020
3785 Clear -26 1025 68 16093 3.27 2 19:20 24.01.2020
3786 Clear -26 1025 75 16093 3.27 2 18:43 24.01.2020
3787 Clear -26 1025 75 16093 3.27 2 18:43 24.01.2020
3788 Clear -26 1025 75 16093 3.27 2 18:23 24.01.2020
3789 Clear -25 1025 75 16093 3.27 2 17:46 24.01.2020
3790 Clear -25 1025 75 16093 3.27 2 17:23 24.01.2020
3791 Clear -25 1025 75 16093 1.5 170 16:58 24.01.2020
3792 Clear -24 1025 75 16093 1.5 170 16:39 24.01.2020
3793 Clear -25 1025 75 16093 1.5 170 16:20 24.01.2020
3794 Clear -25 1025 75 16093 3.17 7 15:43 24.01.2020
3795 Clear -25 1025 75 16093 3.17 7 15:22 24.01.2020
3796 Clear -25 1025 75 16093 3.17 7 15:22 24.01.2020
3797 Clear -24 1025 75 16093 1.5 360 14:56 24.01.2020
3798 Clear -24 1025 75 16093 1.5 360 14:38 24.01.2020
3799 Clear -24 1025 75 16093 1.5 360 14:19 24.01.2020
3800 Clear -25 1026 68 16093 3.07 7 13:42 24.01.2020
3801 Clear -24 1026 68 16093 3.07 7 13:22 24.01.2020
3802 Clear -25 1026 82 16093 1.5 0 12:44 24.01.2020
3803 Clear -25 1026 82 16093 1.5 0 12:44 24.01.2020
3804 Clear -25 1026 82 16093 1.5 0 12:22 24.01.2020
3805 Clear -26 1025 75 16093 3.1 360 11:45 24.01.2020
3806 Clear -26 1025 75 16093 3.1 360 11:20 24.01.2020
3807 Clear -25 1025 69 16093 2.96 357 10:59 24.01.2020
3808 Clear -26 1025 69 16093 2.96 357 10:41 24.01.2020
3809 Clear -24 1025 69 16093 2.96 357 10:19 24.01.2020
3810 Clear -25 1025 82 16093 2.96 357 09:42 24.01.2020
3811 Clear -25 1025 82 16093 2.96 357 09:42 24.01.2020
3812 Clear -25 1025 82 16093 2.96 357 09:24 24.01.2020
3813 Clear -23 1025 75 16093 2.96 357 08:59 24.01.2020
3814 Clear -24 1025 75 16093 2.96 357 08:38 24.01.2020
3815 Clear -24 1025 75 16093 2.52 9 08:18 24.01.2020
3816 Clear -24 1024 83 16093 2.69 2 07:43 24.01.2020
3817 Clear -24 1024 83 16093 2.69 2 07:21 24.01.2020
3818 Clear -23 1024 83 16093 1.5 0 06:43 24.01.2020
3819 Clear -23 1024 83 16093 1.5 0 06:43 24.01.2020
3820 Clear -24 1024 83 16093 1.5 0 06:23 24.01.2020
3821 Clear -23 1024 63 16093 2.1 120 05:22 24.01.2020
3822 Clear -22 1023 76 16093 2.6 20 03:34 24.01.2020
3823 Clear -22 1023 76 16093 2.46 359 02:39 24.01.2020
3824 Clear -22 1023 76 16093 2.21 359 02:20 24.01.2020
3825 Clear -22 1023 69 16093 2.21 359 01:38 24.01.2020
3826 Clear -20 1022 76 16093 2.12 356 00:42 24.01.2020
3827 Clear -20 1022 76 16093 2.12 356 00:19 24.01.2020
3828 Clear -19 1021 64 16093 2.12 356 23:41 23.01.2020
3829 Clear -19 1021 64 16093 2.37 355 23:21 23.01.2020
3830 Clear -20 1021 70 16093 2.6 20 22:58 23.01.2020
3831 Clear -20 1021 70 16093 2.6 20 22:37 23.01.2020
3832 Clear -20 1021 70 16093 2.6 20 22:37 23.01.2020
3833 Clear -20 1021 70 16093 2.6 20 22:18 23.01.2020
3834 Clear -19 1020 64 16093 4.6 340 21:55 23.01.2020
3835 Clear -19 1020 64 16093 4.6 340 21:37 23.01.2020
3836 Clear -19 1020 64 16093 4.6 340 21:19 23.01.2020
3837 Clear -17 1019 64 16093 2.6 360 20:54 23.01.2020
3838 Clear -17 1019 64 16093 2.6 360 20:36 23.01.2020
3839 Clear -17 1019 64 16093 2.6 360 20:18 23.01.2020
3840 Clouds -16 1019 65 16093 4.6 340 19:42 23.01.2020
3841 Clouds -16 1019 65 16093 4.6 340 19:23 23.01.2020
3842 Clouds -16 1018 71 16093 3.1 340 18:57 23.01.2020
3843 Clouds -16 1018 71 16093 3.1 340 18:38 23.01.2020
3844 Clouds -16 1018 71 16093 3.1 340 18:19 23.01.2020
3845 Clouds -14 1017 71 16093 5.7 350 17:45 23.01.2020
3846 Clouds -14 1017 71 16093 5.7 350 17:21 23.01.2020
3847 Clouds -13 1017 71 16093 2.94 352 16:59 23.01.2020
3848 Clouds -13 1017 71 16093 2.94 352 16:39 23.01.2020
3849 Clouds -13 1017 71 16093 2.94 352 16:20 23.01.2020
3850 Clouds -13 1016 71 16093 1.5 70 15:58 23.01.2020
3851 Clouds -13 1016 71 16093 1.5 70 15:39 23.01.2020
3852 Clouds -13 1016 71 16093 1.5 70 15:19 23.01.2020
3853 Clouds -14 1015 77 16093 2.1 360 14:58 23.01.2020
3854 Clouds -14 1015 77 16093 2.1 360 14:40 23.01.2020
3855 Clouds -14 1015 77 16093 2.1 360 14:22 23.01.2020
3856 Clouds -14 1015 77 16093 3.1 340 13:54 23.01.2020
3857 Clouds -14 1015 77 16093 3.1 340 13:36 23.01.2020
3858 Clouds -14 1015 77 16093 3.1 340 13:18 23.01.2020
3859 Clouds -14 1014 77 16093 2.71 343 12:40 23.01.2020
3860 Clouds -14 1014 77 16093 2.71 343 12:22 23.01.2020
3861 Clouds -15 1013 84 16093 2.6 280 11:55 23.01.2020
3862 Clouds -15 1013 84 16093 2.6 280 11:37 23.01.2020
3863 Clouds -15 1013 84 16093 2.6 280 11:18 23.01.2020
3864 Clouds -14 1013 77 16093 3.6 260 10:41 23.01.2020
3865 Clouds -14 1013 77 16093 3.6 260 10:19 23.01.2020
3866 Clouds -15 1012 84 16093 4.6 280 09:42 23.01.2020
3867 Clouds -15 1012 84 16093 4.6 280 09:23 23.01.2020
3868 Clouds -15 1011 84 16093 5.1 280 08:57 23.01.2020
3869 Clouds -15 1011 84 16093 5.1 280 08:38 23.01.2020
3870 Clouds -15 1011 84 16093 5.1 280 08:20 23.01.2020
3871 Clouds -15 1011 84 16093 4.1 270 07:42 23.01.2020
3872 Clouds -14 1011 84 16093 5.1 270 07:24 23.01.2020
3873 Clouds -14 1010 84 16093 5.1 260 06:46 23.01.2020
3874 Clouds -14 1010 84 16093 5.1 260 06:19 23.01.2020
3875 Clouds -14 1009 84 16093 6.2 270 04:44 23.01.2020
3876 Clouds -14 1009 84 16093 6.2 270 04:21 23.01.2020
3877 Clouds -16 1007 91 16093 1.5 300 01:58 23.01.2020
3878 Snow -14 1007 84 4828 3.3 270 00:56 23.01.2020
3879 Snow -16 1007 91 4828 3.3 270 00:26 23.01.2020
3880 Snow -15 1007 84 4828 3.3 270 23:47 22.01.2020
3881 Clouds -15 1006 84 16093 3.3 270 23:29 22.01.2020
3882 Snow -14 1006 84 6437 2.28 264 22:56 22.01.2020
3883 Snow -14 1006 84 6437 2.28 264 22:38 22.01.2020
3884 Snow -14 1006 84 6437 2.28 264 22:20 22.01.2020
3885 Clouds -14 1005 84 16093 2.28 264 21:39 22.01.2020
3886 Clouds -14 1005 84 16093 2.28 264 21:21 22.01.2020
3887 Clouds -15 1004 84 16093 2.6 20 20:56 22.01.2020
3888 Clouds -15 1004 84 16093 2.6 20 20:36 22.01.2020
3889 Clouds -15 1004 84 16093 2.6 20 20:18 22.01.2020
3890 Clouds -14 1004 84 11265 2 239 19:55 22.01.2020
3891 Clouds -14 1004 84 11265 2 239 19:37 22.01.2020
3892 Clouds -14 1004 84 11265 2 239 19:18 22.01.2020
3893 Clouds -14 1003 84 16093 2 239 18:55 22.01.2020
3894 Clouds -14 1003 84 16093 2 239 18:36 22.01.2020
3895 Clouds -14 1003 84 16093 2 239 18:18 22.01.2020
3896 Clouds -14 1003 84 16093 2 239 18:18 22.01.2020
3897 Clouds -14 1003 77 16093 2 239 17:40 22.01.2020
3898 Clouds -14 1003 77 16093 0.63 226 17:21 22.01.2020
3899 Snow -15 1003 84 6437 0.63 226 16:58 22.01.2020
3900 Snow -15 1003 84 6437 0.63 226 16:39 22.01.2020
3901 Snow -15 1003 84 6437 0.63 226 16:21 22.01.2020
3902 Clouds -14 1002 84 16093 0.63 226 15:55 22.01.2020
3903 Clouds -14 1002 84 16093 0.63 226 15:37 22.01.2020
3904 Clouds -14 1002 84 16093 0.63 226 15:18 22.01.2020
3905 Clouds -14 1002 84 16093 1.5 110 14:39 22.01.2020
3906 Clouds -14 1002 84 16093 1.5 110 14:20 22.01.2020
3907 Clouds -14 1002 84 16093 1.5 110 14:20 22.01.2020
3908 Clouds -16 1002 91 16093 2.1 120 13:58 22.01.2020
3909 Clouds -16 1002 91 16093 2.1 120 13:37 22.01.2020
3910 Clouds -16 1002 91 16093 2.1 120 13:19 22.01.2020
3911 Clouds -13 1001 78 16093 2.1 90 12:57 22.01.2020
3912 Clouds -13 1001 78 16093 2.1 90 12:39 22.01.2020
3913 Clouds -13 1001 78 16093 2.1 90 12:19 22.01.2020
3914 Snow -13 1001 84 14484 2.1 100 11:57 22.01.2020
3915 Snow -13 1001 84 14484 2.1 100 11:39 22.01.2020
3916 Snow -13 1001 84 14484 2.1 100 11:19 22.01.2020
3917 Clouds -13 1000 84 16093 2.1 120 10:46 22.01.2020
3918 Clouds -13 1000 84 16093 2.1 120 10:21 22.01.2020
3919 Snow -12 1000 85 8047 1.5 80 09:59 22.01.2020
3920 Snow -12 1000 85 8047 1.5 80 09:40 22.01.2020
3921 Snow -12 1000 85 8047 1.5 80 09:22 22.01.2020
3922 Clouds -12 999 78 16093 1.5 60 08:56 22.01.2020
3923 Clouds -12 999 78 16093 1.5 60 08:37 22.01.2020
3924 Clouds -12 999 78 16093 1.5 60 08:19 22.01.2020
3925 Clouds -13 999 84 16093 1.5 70 07:44 22.01.2020
3926 Clouds -13 999 84 16093 1.5 70 07:26 22.01.2020
3927 Clouds -13 999 78 16093 2.6 70 06:36 22.01.2020
3928 Clouds -13 999 78 16093 2.6 50 05:57 22.01.2020
3929 Clouds -16 999 96 0 2.09 74 04:26 22.01.2020
3930 Clouds -13 998 78 16093 3.6 70 03:27 22.01.2020
3931 Clouds -13 998 78 16093 3.1 70 02:48 22.01.2020
3932 Clouds -14 998 77 16093 3.1 50 00:47 22.01.2020
3933 Clouds -14 998 77 16093 3.1 50 00:28 22.01.2020
3934 Clouds -14 998 77 16093 3.1 50 23:57 21.01.2020
3935 Clouds -13 998 84 16093 2.6 60 23:37 21.01.2020
3936 Clouds -13 998 84 16093 2.6 60 23:19 21.01.2020
3937 Clouds -13 998 84 16093 3.1 70 22:41 21.01.2020
3938 Clouds -13 998 84 16093 3.1 70 22:23 21.01.2020
3939 Clouds -13 998 78 16093 2.6 80 21:58 21.01.2020
3940 Clouds -13 998 78 16093 2.6 80 21:39 21.01.2020
3941 Clouds -13 998 78 16093 2.6 80 21:20 21.01.2020
3942 Clouds -14 998 84 16093 2.6 60 20:57 21.01.2020
3943 Clouds -14 998 84 16093 2.6 60 20:57 21.01.2020
3944 Clouds -14 998 84 16093 2.6 60 20:39 21.01.2020
3945 Clouds -14 998 84 16093 2.6 60 20:20 21.01.2020
3946 Clouds -13 998 84 16093 3.1 60 19:57 21.01.2020
3947 Clouds -13 998 84 16093 3.1 60 19:39 21.01.2020
3948 Clouds -13 998 84 16093 3.1 60 19:20 21.01.2020
3949 Snow -13 998 92 9656 3.1 60 18:56 21.01.2020
3950 Clouds -13 998 92 16093 2.6 70 18:38 21.01.2020
3951 Clouds -13 998 92 16093 2.6 70 18:19 21.01.2020
3952 Snow -13 998 84 12874 4.1 80 17:45 21.01.2020
3953 Snow -13 998 84 12874 4.1 80 17:21 21.01.2020
3954 Snow -12 998 85 6437 3.1 70 16:59 21.01.2020
3955 Snow -12 998 85 6437 3.1 70 16:59 21.01.2020
3956 Rain -13 998 84 12874 3.6 80 16:37 21.01.2020
3957 Rain -13 998 84 12874 3.6 80 16:19 21.01.2020
3958 Rain -13 998 84 16093 3.6 80 15:56 21.01.2020
3959 Rain -12 998 92 6437 4.1 90 15:37 21.01.2020
3960 Rain -12 998 92 6437 4.1 90 15:18 21.01.2020
3961 Snow -11 998 85 11265 5.7 90 14:38 21.01.2020
3962 Snow -11 998 85 11265 5.7 90 14:20 21.01.2020
3963 Snow -11 998 85 2816 4.6 80 13:41 21.01.2020
3964 Snow -12 998 85 6437 4.1 70 13:19 21.01.2020
3965 Clouds -14 998 84 14484 3.6 50 12:57 21.01.2020
3966 Rain -13 998 92 16093 3.1 60 12:39 21.01.2020
3967 Rain -13 998 92 16093 3.1 60 12:20 21.01.2020
3968 Rain -12 998 92 6437 4.1 80 11:41 21.01.2020
3969 Rain -12 998 92 6437 4.1 80 11:22 21.01.2020
3970 Snow -11 998 85 2012 4.1 70 10:59 21.01.2020
3971 Snow -11 998 85 2012 4.1 70 10:41 21.01.2020
3972 Clouds -11 998 92 16093 4.1 70 10:22 21.01.2020
3973 Clouds -11 998 92 16093 4.1 70 09:43 21.01.2020
3974 Clouds -11 998 92 16093 4.6 70 09:23 21.01.2020
3975 Snow -11 997 92 6437 4.6 80 08:56 21.01.2020
3976 Snow -11 997 92 12874 4.1 70 08:38 21.01.2020
3977 Snow -11 997 92 12874 4.1 70 08:19 21.01.2020
3978 Clouds -11 997 92 16093 3.6 70 07:41 21.01.2020
3979 Clouds -11 997 92 16093 3.6 70 07:22 21.01.2020
3980 Clouds -11 997 92 16093 4.1 70 06:49 21.01.2020
3981 Clouds -11 997 92 16093 4.1 70 06:30 21.01.2020
3982 Clouds -11 997 92 16093 4.6 70 05:44 21.01.2020
3983 Clouds -11 997 92 16093 4.1 70 04:41 21.01.2020
3984 Clouds -10 996 92 16093 4.1 100 02:58 21.01.2020
3985 Clouds -10 996 92 16093 4.1 100 02:26 21.01.2020
3986 Snow -10 996 92 4828 4.1 110 01:28 21.01.2020
3987 Snow -10 996 92 2012 5.1 110 00:40 21.01.2020
3988 Snow -10 996 92 4023 5.7 110 23:59 20.01.2020
3989 Snow -10 996 92 4023 5.7 110 23:41 20.01.2020
3990 Snow -11 996 100 4023 5.1 110 23:19 20.01.2020
3991 Snow -11 996 92 2012 6.2 110 22:58 20.01.2020
3992 Snow -11 996 92 2012 6.2 110 22:38 20.01.2020
3993 Snow -11 996 92 2012 6.2 110 22:20 20.01.2020
3994 Snow -11 996 92 2012 6.2 110 22:20 20.01.2020
3995 Clouds -10 995 92 2414 6.7 120 21:58 20.01.2020
3996 Rain -10 995 92 2414 6.2 120 21:37 20.01.2020
3997 Rain -10 995 92 2414 6.2 120 21:19 20.01.2020
3998 Snow -11 995 92 2414 7.2 110 20:57 20.01.2020
3999 Snow -11 995 92 2414 7.2 110 20:38 20.01.2020
4000 Snow -11 995 92 2414 7.2 110 20:18 20.01.2020
4001 Snow -11 995 85 2414 7.2 90 19:56 20.01.2020
4002 Snow -12 995 92 1609 8.2 90 19:38 20.01.2020
4003 Snow -12 995 92 1609 8.2 90 19:18 20.01.2020
4004 Snow -12 995 92 1609 9.3 90 18:44 20.01.2020
4005 Snow -12 995 92 1609 9.8 90 18:23 20.01.2020
4006 Rain -12 995 92 1609 9.3 90 17:58 20.01.2020
4007 Rain -12 995 92 1609 9.3 90 17:36 20.01.2020
4008 Rain -12 995 92 1609 9.3 90 17:18 20.01.2020
4009 Rain -12 995 92 1207 10.3 90 16:43 20.01.2020
4010 Rain -12 995 92 2414 9.3 90 16:25 20.01.2020
4011 Snow -12 996 85 2012 8.7 80 15:58 20.01.2020
4012 Snow -12 996 85 2012 8.7 80 15:39 20.01.2020
4013 Snow -12 996 85 2012 8.7 80 15:21 20.01.2020
4014 Snow -12 996 85 2816 8.2 80 14:42 20.01.2020
4015 Snow -12 996 85 2816 8.2 80 14:24 20.01.2020
4016 Snow -12 996 85 3219 8.2 80 13:59 20.01.2020
4017 Snow -12 996 85 3219 8.2 80 13:40 20.01.2020
4018 Snow -12 996 85 3219 8.2 80 13:22 20.01.2020
4019 Rain -12 997 85 4023 6.7 80 12:47 20.01.2020
4020 Rain -13 997 84 3219 7.2 80 12:29 20.01.2020
4021 Snow -13 997 84 2816 5.7 80 11:59 20.01.2020
4022 Clouds -13 997 78 16093 6.2 80 11:40 20.01.2020
4023 Clouds -13 997 78 16093 6.2 80 11:21 20.01.2020
4024 Clouds -13 997 78 16093 5.7 80 10:55 20.01.2020
4025 Clouds -13 997 78 16093 5.7 80 10:37 20.01.2020
4026 Clouds -13 997 78 16093 5.7 80 10:37 20.01.2020
4027 Clouds -13 997 78 16093 5.7 80 10:18 20.01.2020
4028 Clouds -14 998 84 16093 4.1 70 09:40 20.01.2020
4029 Clouds -14 998 84 16093 4.1 70 09:40 20.01.2020
4030 Clouds -14 998 84 16093 4.1 70 09:20 20.01.2020
4031 Clouds -14 998 77 16093 6.2 90 08:46 20.01.2020
4032 Clouds -14 998 77 16093 6.2 90 08:28 20.01.2020
4033 Clouds -15 998 84 14484 5.1 80 07:45 20.01.2020
4034 Clouds -15 998 84 14484 5.1 80 07:26 20.01.2020
4035 Clouds -16 998 91 16093 5.1 80 06:59 20.01.2020
4036 Clouds -15 998 77 16093 4.6 80 06:28 20.01.2020
4037 Clouds -16 998 84 16093 5.7 80 05:43 20.01.2020
4038 Clouds -16 998 84 16093 5.7 80 05:43 20.01.2020
4039 Clear -14 998 77 16093 4.6 70 05:23 20.01.2020
4040 Clear -14 998 77 16093 4.6 70 04:48 20.01.2020
4041 Clear -13 998 71 16093 4.6 70 02:59 20.01.2020
4042 Clouds -13 999 71 16093 4.6 80 01:57 20.01.2020
4043 Clouds -13 999 71 16093 4.6 80 01:37 20.01.2020
4044 Clear -13 999 71 16093 4.6 80 00:45 20.01.2020
4045 Clear -13 999 71 16093 4.6 80 00:25 20.01.2020
4046 Clouds -12 999 66 16093 3.1 80 23:40 19.01.2020
4047 Clouds -12 999 66 16093 3.1 80 23:20 19.01.2020
4048 Clouds -13 999 71 16093 3.6 70 22:57 19.01.2020
4049 Clouds -13 999 71 16093 3.6 70 22:39 19.01.2020
4050 Clouds -13 999 71 16093 3.6 70 22:21 19.01.2020
4051 Clouds -12 999 72 16093 4.1 90 21:57 19.01.2020
4052 Clouds -12 999 72 16093 4.1 90 21:39 19.01.2020
4053 Clouds -12 999 72 16093 4.1 90 21:21 19.01.2020
4054 Clouds -11 999 66 16093 4.1 90 20:57 19.01.2020
4055 Clouds -11 999 66 16093 4.1 90 20:39 19.01.2020
4056 Clouds -11 999 66 16093 4.1 90 20:21 19.01.2020
4057 Clouds -11 999 61 16093 5.1 80 19:58 19.01.2020
4058 Clouds -11 999 61 16093 5.1 80 19:39 19.01.2020
4059 Clouds -11 999 61 16093 5.1 80 19:39 19.01.2020
4060 Clouds -11 999 61 16093 5.1 80 19:21 19.01.2020
4061 Clouds -10 999 56 16093 7.7 90 18:59 19.01.2020
4062 Clouds -10 999 56 16093 7.7 90 18:41 19.01.2020
4063 Clouds -10 999 56 16093 7.7 90 18:21 19.01.2020
4064 Clouds -10 1000 56 16093 4.1 80 17:59 19.01.2020
4065 Clouds -10 1000 56 16093 4.1 80 17:40 19.01.2020
4066 Clouds -10 1000 56 16093 4.1 80 17:40 19.01.2020
4067 Clouds -10 1000 56 16093 4.1 80 17:22 19.01.2020
4068 Clouds -11 1000 61 14484 4.6 80 17:00 19.01.2020
4069 Clouds -11 1000 61 14484 4.6 80 16:41 19.01.2020
4070 Clouds -11 1000 61 14484 4.6 80 16:22 19.01.2020
4071 Snow -11 1000 66 12874 6.2 70 16:00 19.01.2020
4072 Clouds -11 1000 56 16093 5.7 90 15:40 19.01.2020
4073 Clouds -11 1000 56 16093 5.7 90 15:22 19.01.2020
4074 Clouds -11 1000 51 16093 5.1 70 14:59 19.01.2020
4075 Clouds -11 1000 51 16093 5.1 70 14:59 19.01.2020
4076 Clouds -11 1000 51 16093 5.1 70 14:40 19.01.2020
4077 Clouds -11 1000 51 16093 5.1 70 14:19 19.01.2020
4078 Clouds -12 1001 55 16093 4.1 60 13:58 19.01.2020
4079 Clouds -12 1001 55 16093 4.1 60 13:38 19.01.2020
4080 Clouds -12 1001 55 16093 4.1 60 13:38 19.01.2020
4081 Clouds -12 1001 55 16093 4.1 60 13:20 19.01.2020
4082 Clouds -12 1001 55 16093 4.6 70 12:56 19.01.2020
4083 Clouds -12 1001 55 16093 4.6 70 12:37 19.01.2020
4084 Clouds -12 1001 55 16093 4.6 70 12:19 19.01.2020
4085 Clear -13 1001 60 16093 3.6 60 11:56 19.01.2020
4086 Clear -13 1001 60 16093 3.6 60 11:37 19.01.2020
4087 Clear -13 1001 60 16093 3.6 60 11:18 19.01.2020
4088 Clouds -13 1001 60 16093 4.1 70 10:39 19.01.2020
4089 Clouds -13 1001 60 16093 4.1 70 10:19 19.01.2020
4090 Clouds -13 1001 65 16093 4.1 60 09:57 19.01.2020
4091 Clouds -13 1001 65 16093 4.1 60 09:38 19.01.2020
4092 Clouds -13 1001 65 16093 4.1 60 09:19 19.01.2020
4093 Clouds -13 1001 65 16093 5.7 80 08:54 19.01.2020
4094 Clouds -13 1001 65 16093 5.7 80 08:31 19.01.2020
4095 Clouds -13 1001 65 16093 5.7 70 07:54 19.01.2020
4096 Clouds -13 1001 65 16093 5.7 70 07:28 19.01.2020
4097 Clouds -13 1002 65 16093 6.7 80 06:55 19.01.2020
4098 Clouds -13 1002 65 16093 6.7 80 06:22 19.01.2020
4099 Clouds -14 1002 65 16093 5.7 80 03:55 19.01.2020
4100 Clear -14 1002 65 16093 5.7 80 02:33 19.01.2020
4101 Clouds -14 1002 65 16093 6.2 80 01:39 19.01.2020
4102 Clouds -14 1002 65 16093 6.2 80 01:20 19.01.2020
4103 Clouds -15 1003 71 16093 7.2 90 00:44 19.01.2020
4104 Clouds -16 1003 71 16093 5.7 90 00:20 19.01.2020
4105 Clouds -16 1003 71 16093 5.7 90 23:47 18.01.2020
4106 Clear -17 1003 70 16093 5.7 90 23:25 18.01.2020
4107 Clear -17 1003 70 16093 6.2 80 22:59 18.01.2020
4108 Clear -17 1003 70 16093 6.2 80 22:41 18.01.2020
4109 Clear -17 1003 70 16093 6.2 80 22:21 18.01.2020
4110 Clear -17 1003 70 16093 6.2 80 21:58 18.01.2020
4111 Clear -17 1003 70 16093 6.2 80 21:38 18.01.2020
4112 Clear -17 1003 70 16093 6.2 80 21:20 18.01.2020
4113 Clear -16 1003 59 16093 7.2 70 20:56 18.01.2020
4114 Clear -16 1003 59 16093 7.2 70 20:38 18.01.2020
4115 Clear -16 1003 59 16093 7.2 70 20:18 18.01.2020
4116 Clear -16 1003 59 16093 7.2 70 20:18 18.01.2020
4117 Clear -16 1003 59 16093 5.7 80 19:42 18.01.2020
4118 Clear -16 1003 59 16093 5.7 80 19:24 18.01.2020
4119 Clear -16 1004 59 16093 5.7 70 18:43 18.01.2020
4120 Clear -16 1004 59 16093 5.7 70 18:25 18.01.2020
4121 Clear -15 1004 54 16093 5.1 80 17:59 18.01.2020
4122 Clear -15 1004 54 16093 5.1 80 17:40 18.01.2020
4123 Clear -15 1004 54 16093 5.1 80 17:20 18.01.2020
4124 Clear -15 1005 54 16093 3.6 70 16:57 18.01.2020
4125 Clear -15 1005 54 16093 3.6 70 16:38 18.01.2020
4126 Clear -15 1005 54 16093 3.6 70 16:38 18.01.2020
4127 Clear -15 1005 54 16093 3.6 70 16:19 18.01.2020
4128 Clear -16 1005 59 16093 4.1 60 15:44 18.01.2020
4129 Clear -16 1005 59 16093 4.1 60 15:26 18.01.2020
4130 Clear -15 1006 54 16093 4.1 70 14:59 18.01.2020
4131 Clear -15 1006 54 16093 4.1 70 14:40 18.01.2020
4132 Clear -15 1006 54 16093 4.1 70 14:19 18.01.2020
4133 Clear -15 1007 54 16093 4.6 70 13:56 18.01.2020
4134 Clear -15 1007 54 16093 4.6 70 13:36 18.01.2020
4135 Clear -15 1007 54 16093 4.6 70 13:18 18.01.2020
4136 Clear -15 1007 54 16093 3.6 60 12:41 18.01.2020
4137 Clear -15 1007 54 16093 3.6 60 12:21 18.01.2020
4138 Clear -16 1008 54 16093 3.6 60 11:56 18.01.2020
4139 Clear -16 1008 54 16093 3.6 60 11:37 18.01.2020
4140 Clear -16 1008 54 16093 3.6 60 11:18 18.01.2020
4141 Clear -18 1008 64 16093 3.6 50 10:41 18.01.2020
4142 Clear -18 1008 64 16093 3.6 50 10:20 18.01.2020
4143 Clear -18 1008 64 16093 3.6 50 10:20 18.01.2020
4144 Clear -19 1009 64 16093 3.6 40 09:50 18.01.2020
4145 Clear -19 1009 64 16093 3.6 40 09:32 18.01.2020
4146 Clear -16 1009 59 16093 2.6 60 08:59 18.01.2020
4147 Clear -16 1009 59 16093 2.6 60 08:41 18.01.2020
4148 Clear -16 1009 59 16093 2.6 60 08:19 18.01.2020
4149 Clear -14 1009 55 16093 3.6 70 07:52 18.01.2020
4150 Clear -14 1009 55 16093 3.6 70 07:32 18.01.2020
4151 Clear -17 1010 64 16093 4.1 40 06:48 18.01.2020
4152 Clear -17 1010 64 16093 4.1 40 06:18 18.01.2020
4153 Clear -16 1011 65 16093 3.1 40 05:25 18.01.2020
4154 Clear -13 1011 60 16093 4.6 70 03:39 18.01.2020
4155 Clear -13 1012 60 16093 5.7 70 01:59 18.01.2020
4156 Clear -13 1012 60 16093 5.7 70 01:36 18.01.2020
4157 Clear -13 1012 60 16093 4.6 80 00:38 18.01.2020
4158 Clear -13 1012 60 16093 4.6 80 00:19 18.01.2020
4159 Clear -13 1013 50 16093 3.1 60 23:44 17.01.2020
4160 Clear -13 1013 50 16093 3.1 60 23:20 17.01.2020
4161 Clear -16 1013 65 16093 3.1 50 22:59 17.01.2020
4162 Clear -16 1013 65 16093 3.1 50 22:40 17.01.2020
4163 Clear -16 1013 65 16093 3.1 50 22:19 17.01.2020
4164 Clear -13 1013 50 16093 3.6 70 21:42 17.01.2020
4165 Clear -13 1013 50 16093 3.6 70 21:24 17.01.2020
4166 Clear -16 1013 59 16093 3.1 50 20:59 17.01.2020
4167 Clear -16 1013 59 16093 3.1 50 20:40 17.01.2020
4168 Clear -15 1013 59 16093 3.1 50 20:20 17.01.2020
4169 Clear -16 1013 64 16093 3.6 40 19:57 17.01.2020
4170 Clear -16 1013 64 16093 3.6 40 19:38 17.01.2020
4171 Clear -16 1013 64 16093 3.6 40 19:19 17.01.2020
4172 Clear -15 1013 70 16093 1.72 99 18:57 17.01.2020
4173 Clear -16 1013 70 16093 1.72 99 18:37 17.01.2020
4174 Clear -16 1013 70 16093 1.72 99 18:19 17.01.2020
4175 Clear -15 1013 65 16093 2.6 20 17:39 17.01.2020
4176 Clear -16 1013 65 16093 2.6 20 17:21 17.01.2020
4177 Clear -14 1013 65 16093 3.1 40 16:44 17.01.2020
4178 Clear -14 1013 65 16093 3.1 40 16:21 17.01.2020
4179 Clear -15 1013 65 16093 2.6 40 15:58 17.01.2020
4180 Clear -15 1013 65 16093 2.6 40 15:58 17.01.2020
4181 Clear -15 1013 65 16093 2.6 40 15:40 17.01.2020
4182 Clear -15 1013 65 16093 2.6 40 15:22 17.01.2020
4183 Clear -14 1014 65 16093 4.1 70 14:43 17.01.2020
4184 Clear -13 1014 65 16093 4.1 70 14:25 17.01.2020
4185 Clear -13 1014 60 16093 5.1 80 13:46 17.01.2020
4186 Clear -12 1014 60 16093 5.1 80 13:23 17.01.2020
4187 Clear -12 1014 60 16093 5.7 80 12:56 17.01.2020
4188 Clear -12 1014 60 16093 5.7 80 12:37 17.01.2020
4189 Clear -12 1014 60 16093 5.7 80 12:18 17.01.2020
4190 Clear -12 1014 60 16093 4.6 80 11:38 17.01.2020
4191 Clear -12 1014 60 16093 4.6 80 11:18 17.01.2020
4192 Clear -12 1015 55 16093 4.6 70 10:42 17.01.2020
4193 Clear -12 1015 55 16093 4.6 70 10:22 17.01.2020
4194 Clear -13 1015 60 16093 4.6 70 09:57 17.01.2020
4195 Clear -13 1015 60 16093 4.6 70 09:37 17.01.2020
4196 Clear -13 1015 60 16093 4.6 70 09:18 17.01.2020
4197 Clear -13 1015 65 16093 4.1 80 08:42 17.01.2020
4198 Clear -13 1015 65 16093 4.1 80 08:24 17.01.2020
4199 Clear -13 1015 71 16093 5.1 80 07:53 17.01.2020
4200 Clear -13 1015 71 16093 5.1 80 07:31 17.01.2020
4201 Clear -13 1015 71 16093 6.2 80 06:57 17.01.2020
4202 Clear -13 1015 71 16093 6.2 80 06:38 17.01.2020
4203 Clear -13 1016 71 16093 6.7 80 05:28 17.01.2020
4204 Clear -17 1015 73 0 4.39 68 03:39 17.01.2020
4205 Clear -17 1015 73 0 4.39 68 02:45 17.01.2020
4206 Clouds -13 1016 79 0 8.94 84 01:46 17.01.2020
4207 Clouds -12 1016 79 0 9.83 95 01:27 17.01.2020
4208 Clouds -12 1016 79 0 9.39 85 00:46 17.01.2020
4209 Clear -12 1018 72 16093 8.7 80 00:21 17.01.2020
4210 Clear -12 1018 72 16093 8.7 80 23:43 16.01.2020
4211 Clear -12 1018 72 16093 8.7 80 23:25 16.01.2020
4212 Clear -12 1018 72 16093 8.7 90 22:55 16.01.2020
4213 Clear -12 1018 72 16093 8.7 90 22:36 16.01.2020
4214 Clear -12 1018 72 16093 8.7 90 22:18 16.01.2020
4215 Clear -12 1018 72 16093 10.8 100 21:54 16.01.2020
4216 Clear -12 1018 72 16093 10.8 100 21:36 16.01.2020
4217 Clear -12 1018 72 16093 10.8 100 21:18 16.01.2020
4218 Clear -12 1017 72 16093 10.8 100 20:40 16.01.2020
4219 Clear -12 1017 72 16093 10.8 100 20:21 16.01.2020
4220 Clear -11 1017 66 16093 11.8 90 19:57 16.01.2020
4221 Clear -11 1017 66 16093 11.8 90 19:39 16.01.2020
4222 Clear -11 1017 66 16093 11.8 90 19:20 16.01.2020
4223 Clear -11 1018 66 11265 12.3 90 18:57 16.01.2020
4224 Clear -11 1018 66 11265 12.3 90 18:37 16.01.2020
4225 Clear -11 1018 66 11265 12.3 90 18:18 16.01.2020
4226 Clear -10 1019 61 16093 9.8 90 17:58 16.01.2020
4227 Clear -10 1019 61 16093 9.8 90 17:39 16.01.2020
4228 Clear -10 1019 61 16093 9.8 90 17:20 16.01.2020
4229 Clear -9 1020 56 16093 8.7 90 16:41 16.01.2020
4230 Clear -9 1020 56 16093 8.7 90 16:21 16.01.2020
4231 Clear -10 1021 61 16093 9.8 100 15:57 16.01.2020
4232 Clear -10 1021 61 16093 9.8 100 15:38 16.01.2020
4233 Clear -10 1021 61 16093 9.8 100 15:20 16.01.2020
4234 Clear -10 1021 66 16093 9.8 90 14:42 16.01.2020
4235 Clear -11 1021 66 16093 9.8 90 14:24 16.01.2020
4236 Clear -10 1022 66 16093 10.3 90 13:55 16.01.2020
4237 Clear -11 1022 66 16093 10.3 90 13:37 16.01.2020
4238 Clear -11 1022 66 16093 10.3 90 13:19 16.01.2020
4239 Clear -12 1023 78 16093 10.3 90 12:41 16.01.2020
4240 Clear -12 1023 78 16093 10.3 90 12:21 16.01.2020
4241 Clear -12 1024 78 16093 10.3 90 11:43 16.01.2020
4242 Clear -12 1024 78 16093 10.3 90 11:24 16.01.2020
4243 Clear -12 1025 72 16093 9.8 90 10:59 16.01.2020
4244 Clear -12 1025 72 16093 9.8 90 10:38 16.01.2020
4245 Clear -12 1025 72 16093 9.8 90 10:20 16.01.2020
4246 Clear -12 1025 78 16093 9.8 90 09:56 16.01.2020
4247 Clear -12 1025 78 16093 9.8 90 09:37 16.01.2020
4248 Clear -12 1025 78 16093 9.8 90 09:18 16.01.2020
4249 Clear -11 1026 78 16093 8.7 90 08:44 16.01.2020
4250 Clear -11 1026 78 16093 8.7 90 08:23 16.01.2020
4251 Clear -11 1028 85 16093 9.3 90 07:43 16.01.2020
4252 Clear -11 1028 85 16093 9.3 90 07:25 16.01.2020
4253 Clear -10 1028 85 16093 9.8 90 06:56 16.01.2020
4254 Clear -10 1028 85 16093 9.8 90 06:37 16.01.2020
4255 Clear -8 1029 85 16093 8.7 90 05:56 16.01.2020
4256 Clear -8 1029 85 16093 8.7 90 05:31 16.01.2020
4257 Clear -7 1030 92 16093 8.7 90 04:37 16.01.2020
4258 Clouds -6 1030 92 16093 7.7 90 03:28 16.01.2020
4259 Mist -7 1031 92 8047 7.2 90 02:29 16.01.2020
4260 Mist -7 1033 92 1609 7.2 90 00:45 16.01.2020
4261 Mist -7 1033 92 1609 7.2 90 00:24 16.01.2020
4262 Clouds -7 1034 92 16093 7.2 90 23:48 15.01.2020
4263 Clouds -7 1034 92 16093 7.2 90 23:22 15.01.2020
4264 Mist -7 1034 92 9656 7.2 80 22:57 15.01.2020
4265 Mist -7 1034 92 9656 7.2 80 22:39 15.01.2020
4266 Mist -7 1034 92 9656 7.2 80 22:19 15.01.2020
4267 Clouds -7 1035 92 16093 6.7 80 21:57 15.01.2020
4268 Clouds -7 1035 92 16093 6.7 80 21:37 15.01.2020
4269 Clouds -7 1035 92 16093 6.7 80 21:19 15.01.2020
4270 Mist -7 1035 92 8047 5.7 80 20:57 15.01.2020
4271 Mist -7 1035 92 8047 5.7 80 20:39 15.01.2020
4272 Mist -7 1035 92 8047 5.7 80 20:39 15.01.2020
4273 Mist -7 1035 92 8047 5.7 80 20:20 15.01.2020
4274 Mist -7 1036 92 9656 5.1 80 19:55 15.01.2020
4275 Mist -7 1036 92 9656 5.1 80 19:37 15.01.2020
4276 Mist -7 1036 92 9656 5.1 80 19:18 15.01.2020
4277 Mist -7 1036 92 3219 6.2 80 18:56 15.01.2020
4278 Mist -7 1036 92 3219 6.2 80 18:56 15.01.2020
4279 Mist -7 1036 92 3219 6.2 80 18:38 15.01.2020
4280 Mist -7 1036 92 3219 6.2 80 18:38 15.01.2020
4281 Mist -7 1036 92 3219 6.2 80 18:19 15.01.2020
4282 Mist -7 1037 92 3219 6.2 80 17:56 15.01.2020
4283 Mist -7 1037 92 3219 6.2 80 17:37 15.01.2020
4284 Mist -7 1037 92 3219 6.2 80 17:18 15.01.2020
4285 Mist -7 1037 92 4023 6.2 80 16:41 15.01.2020
4286 Mist -7 1037 92 4023 6.2 80 16:22 15.01.2020
4287 Clear -8 1037 92 16093 5.7 80 15:57 15.01.2020
4288 Clear -8 1037 92 16093 5.7 80 15:39 15.01.2020
4289 Clear -8 1037 92 16093 5.7 80 15:19 15.01.2020
4290 Clear -8 1038 92 16093 5.1 80 14:43 15.01.2020
4291 Clear -8 1038 92 16093 5.1 80 14:20 15.01.2020
4292 Clear -7 1038 85 16093 4.1 80 13:46 15.01.2020
4293 Clear -7 1038 85 16093 4.1 80 13:27 15.01.2020
4294 Clear -9 1039 85 16093 1.87 100 12:59 15.01.2020
4295 Clear -9 1039 85 16093 1.87 100 12:40 15.01.2020
4296 Clear -9 1039 85 16093 1.87 100 12:20 15.01.2020
4297 Clear -8 1039 92 16093 3.1 90 11:58 15.01.2020
4298 Clear -8 1039 92 16093 3.1 90 11:37 15.01.2020
4299 Clear -8 1039 92 16093 3.1 90 11:19 15.01.2020
4300 Clouds -7 1038 92 16093 3.6 100 10:46 15.01.2020
4301 Clouds -7 1038 92 16093 3.6 100 10:27 15.01.2020
4302 Clouds -6 1038 92 16093 2.6 110 09:46 15.01.2020
4303 Clouds -6 1038 92 16093 2.6 110 09:26 15.01.2020
4304 Clouds -6 1038 92 16093 3.1 90 08:59 15.01.2020
4305 Clouds -6 1038 92 16093 3.1 90 08:41 15.01.2020
4306 Clouds -6 1038 92 16093 3.1 90 08:22 15.01.2020
4307 Clouds -7 1038 100 16093 3.6 100 07:52 15.01.2020
4308 Clouds -7 1038 100 16093 3.6 100 07:32 15.01.2020
4309 Clouds -7 1039 92 11265 3.6 100 06:46 15.01.2020
4310 Clouds -7 1039 92 11265 3.6 100 06:21 15.01.2020
4311 Mist -6 1038 92 8047 1.5 90 04:45 15.01.2020
4312 Rain -6 1038 100 1207 3.28 246 02:39 15.01.2020
4313 Rain -6 1038 100 1609 1.95 230 01:28 15.01.2020
4314 Rain -6 1038 100 1609 1.95 230 01:28 15.01.2020
4315 Mist -6 1038 92 3219 1.5 80 00:59 15.01.2020
4316 Mist -6 1038 92 3219 1.5 80 00:59 15.01.2020
4317 Mist -6 1038 92 3219 1.5 80 00:36 15.01.2020
4318 Mist -6 1038 92 3219 1.5 80 00:18 15.01.2020
4319 Clouds -6 1037 92 16093 1.5 160 23:45 14.01.2020
4320 Clouds -6 1037 92 16093 1.5 160 23:24 14.01.2020
4321 Clouds -7 1037 100 16093 1.84 255 22:41 14.01.2020
4322 Clouds -7 1037 100 16093 1.84 255 22:20 14.01.2020
4323 Clouds -6 1036 92 16093 4.1 260 21:59 14.01.2020
4324 Clouds -6 1036 92 16093 4.1 260 21:41 14.01.2020
4325 Clouds -6 1036 92 16093 4.1 260 21:23 14.01.2020
4326 Clouds -6 1036 92 16093 5.1 270 21:00 14.01.2020
4327 Clouds -6 1036 92 16093 5.1 270 20:41 14.01.2020
4328 Clouds -6 1035 85 16093 3.1 320 20:21 14.01.2020
4329 Clouds -6 1035 85 16093 3.1 320 19:56 14.01.2020
4330 Clouds -6 1035 85 16093 3.1 320 19:38 14.01.2020
4331 Clouds -6 1035 85 16093 3.1 320 19:19 14.01.2020
4332 Clouds -7 1035 92 16093 2.1 330 18:56 14.01.2020
4333 Clouds -6 1035 90 0 1.79 352 18:37 14.01.2020
4334 Clouds -8 1034 85 16093 1.59 286 18:19 14.01.2020
4335 Clouds -8 1034 85 16093 1.59 286 18:19 14.01.2020
4336 Clouds -8 1034 85 16093 1.59 286 17:39 14.01.2020
4337 Clouds -9 1034 85 16093 2.05 289 17:19 14.01.2020
4338 Clouds -11 1034 92 16093 2.05 289 16:56 14.01.2020
4339 Clouds -11 1034 92 16093 2.05 289 16:38 14.01.2020
4340 Clouds -10 1034 92 16093 2.05 289 16:19 14.01.2020
4341 Clouds -10 1033 85 16093 3.6 20 15:54 14.01.2020
4342 Clouds -10 1033 85 16093 3.6 20 15:36 14.01.2020
4343 Clouds -10 1033 85 16093 3.6 20 15:18 14.01.2020
4344 Clear -10 1033 85 16093 3.1 300 14:41 14.01.2020
4345 Clear -10 1033 85 16093 3.1 300 14:20 14.01.2020
4346 Clouds -10 1031 78 16093 2.1 280 13:42 14.01.2020
4347 Clouds -10 1031 78 16093 2.1 280 13:20 14.01.2020
4348 Clouds -10 1031 85 16093 1.5 10 12:57 14.01.2020
4349 Clouds -9 1031 85 16093 1.5 10 12:39 14.01.2020
4350 Clouds -9 1031 85 16093 1.5 10 12:20 14.01.2020
4351 Clouds -9 1031 85 16093 1.5 10 12:20 14.01.2020
4352 Snow -9 1030 78 12874 4.6 290 11:42 14.01.2020
4353 Snow -9 1030 78 12874 4.6 290 11:22 14.01.2020
4354 Clouds -9 1029 78 16093 3.6 290 10:57 14.01.2020
4355 Clouds -9 1029 78 16093 3.6 290 10:38 14.01.2020
4356 Clouds -9 1029 78 16093 3.6 290 10:19 14.01.2020
4357 Clouds -9 1028 78 16093 4.1 270 09:56 14.01.2020
4358 Clouds -9 1028 78 16093 4.1 270 09:38 14.01.2020
4359 Clouds -9 1028 78 16093 4.1 270 09:19 14.01.2020
4360 Clouds -8 1027 72 16093 5.7 270 08:41 14.01.2020
4361 Clouds -8 1027 72 16093 5.7 270 08:22 14.01.2020
4362 Clear -9 1026 78 12874 6.2 270 07:53 14.01.2020
4363 Clear -9 1026 78 12874 6.2 270 07:26 14.01.2020
4364 Clear -12 1025 92 16093 2.1 290 06:50 14.01.2020
4365 Clear -12 1025 92 16093 2.1 290 06:18 14.01.2020
4366 Clear -10 1024 78 16093 6.2 260 04:58 14.01.2020
4367 Clouds -7 1023 79 16093 6.2 280 03:48 14.01.2020
4368 Snow -7 1022 79 6437 9.3 260 02:41 14.01.2020
4369 Clouds -6 1021 73 14484 11.3 260 01:34 14.01.2020
4370 Snow -4 1020 79 11265 5.7 250 00:49 14.01.2020
4371 Snow -4 1020 79 11265 5.7 250 00:27 14.01.2020
4372 Snow -4 1019 79 11265 6.7 250 23:47 13.01.2020
4373 Snow -4 1019 79 11265 6.7 250 23:19 13.01.2020
4374 Clouds -4 1019 79 16093 7.7 240 22:59 13.01.2020
4375 Clouds -4 1019 79 16093 7.7 240 22:40 13.01.2020
4376 Clouds -4 1019 79 16093 7.7 240 22:20 13.01.2020
4377 Clouds -4 1018 79 16093 7.7 240 21:56 13.01.2020
4378 Clouds -4 1018 79 16093 7.7 240 21:37 13.01.2020
4379 Clouds -4 1018 79 16093 7.7 240 21:37 13.01.2020
4380 Clouds -4 1018 79 16093 7.7 240 21:18 13.01.2020
4381 Clouds -4 1017 79 14484 6.2 240 20:56 13.01.2020
4382 Clouds -4 1017 79 14484 6.2 240 20:38 13.01.2020
4383 Clouds -4 1017 79 14484 6.2 240 20:20 13.01.2020
4384 Clouds -4 1016 79 16093 6.2 230 19:56 13.01.2020
4385 Clouds -4 1016 79 16093 6.2 230 19:37 13.01.2020
4386 Clouds -4 1016 79 16093 6.2 230 19:18 13.01.2020
4387 Clouds -3 1016 79 16093 6.2 220 18:55 13.01.2020
4388 Clouds -3 1016 79 16093 6.2 220 18:36 13.01.2020
4389 Clouds -3 1016 79 16093 6.2 220 18:18 13.01.2020
4390 Clouds -3 1015 79 16093 6.7 230 17:40 13.01.2020
4391 Clouds -3 1015 79 16093 6.7 230 17:21 13.01.2020
4392 Clouds -2 1014 86 16093 11.3 220 16:56 13.01.2020
4393 Snow -4 1013 96 0 8.22 219 16:37 13.01.2020
4394 Snow -4 1013 96 0 8.22 219 16:18 13.01.2020
4395 Snow -4 1013 96 0 8.22 219 15:43 13.01.2020
4396 Snow -4 1013 96 0 8.22 219 15:22 13.01.2020
4397 Snow -4 1013 96 0 8.22 219 14:57 13.01.2020
4398 Snow -2 1012 92 0 9.39 232 14:37 13.01.2020
4399 Snow -2 1012 92 0 9.39 232 14:37 13.01.2020
4400 Snow -2 1012 92 0 9.39 232 14:18 13.01.2020
4401 Snow -2 1012 92 0 9.39 232 13:40 13.01.2020
4402 Snow -2 1012 92 0 9.39 232 13:40 13.01.2020
4403 Snow -2 1012 92 0 9.39 232 13:22 13.01.2020
4404 Snow -2 1012 93 0 7.6 216 12:58 13.01.2020
4405 Snow -2 1012 90 0 8.94 221 12:40 13.01.2020
4406 Snow -2 1012 86 4023 7.7 200 12:21 13.01.2020
4407 Snow -2 1012 86 4023 7.7 200 11:56 13.01.2020
4408 Snow -2 1012 86 4023 7.7 200 11:36 13.01.2020
4409 Snow -2 1012 86 4023 7.7 200 11:18 13.01.2020
4410 Clouds -3 1012 92 14484 6.7 200 10:55 13.01.2020
4411 Clouds -3 1012 92 14484 6.7 200 10:36 13.01.2020
4412 Clouds -3 1012 92 14484 6.7 200 10:18 13.01.2020
4413 Clouds -2 1011 86 16093 6.2 190 09:40 13.01.2020
4414 Clouds -2 1011 86 16093 6.2 190 09:22 13.01.2020
4415 Rain -3 1011 92 8047 6.2 200 08:42 13.01.2020
4416 Rain -3 1011 92 8047 6.2 200 08:21 13.01.2020
4417 Rain -3 1010 92 9656 7.7 190 07:57 13.01.2020
4418 Rain -3 1010 92 9656 7.7 190 07:38 13.01.2020
4419 Snow -3 1010 100 12874 2.6 190 06:55 13.01.2020
4420 Snow -3 1010 100 12874 2.6 190 06:36 13.01.2020
4421 Snow -3 1010 100 12874 2.6 190 06:36 13.01.2020
4422 Clouds -5 1010 92 16093 4.6 100 05:36 13.01.2020
4423 Clouds -7 1010 85 16093 7.2 80 04:25 13.01.2020
4424 Snow -8 1009 92 4828 8.7 90 03:31 13.01.2020
4425 Rain -8 1009 92 9656 7.2 100 02:47 13.01.2020
4426 Rain -8 1009 92 9656 7.2 100 02:29 13.01.2020
4427 Rain -8 1009 92 1609 8.2 90 01:32 13.01.2020
4428 Rain -8 1010 92 1207 5.7 100 00:42 13.01.2020
4429 Rain -8 1010 92 1207 5.7 100 00:24 13.01.2020
4430 Clouds -9 1009 92 16093 6.7 100 23:56 12.01.2020
4431 Clouds -9 1009 92 16093 6.7 100 23:37 12.01.2020
4432 Clouds -9 1009 92 16093 6.7 100 23:19 12.01.2020
4433 Rain -9 1009 85 4828 7.2 90 22:42 12.01.2020
4434 Rain -9 1009 85 4828 7.2 90 22:24 12.01.2020
4435 Rain -9 1009 85 3219 8.7 90 21:57 12.01.2020
4436 Rain -9 1009 85 3219 8.7 90 21:39 12.01.2020
4437 Rain -9 1009 85 3219 8.7 90 21:20 12.01.2020
4438 Snow -9 1009 85 4828 9.3 90 20:57 12.01.2020
4439 Snow -9 1009 85 4828 9.3 90 20:39 12.01.2020
4440 Snow -9 1009 85 4828 9.3 90 20:20 12.01.2020
4441 Snow -8 1009 78 3219 10.3 100 19:56 12.01.2020
4442 Snow -8 1009 78 3219 10.3 100 19:38 12.01.2020
4443 Snow -8 1009 78 3219 10.3 100 19:19 12.01.2020
4444 Mist -8 1009 85 8047 10.8 100 18:57 12.01.2020
4445 Mist -8 1009 85 8047 10.8 100 18:39 12.01.2020
4446 Mist -8 1009 85 8047 10.8 100 18:21 12.01.2020
4447 Clouds -8 1009 85 16093 10.8 100 17:56 12.01.2020
4448 Clouds -8 1009 85 16093 10.8 100 17:37 12.01.2020
4449 Clouds -8 1009 85 16093 10.8 100 17:18 12.01.2020
4450 Clouds -8 1009 85 12874 10.3 100 16:55 12.01.2020
4451 Clouds -8 1009 85 12874 10.3 100 16:37 12.01.2020
4452 Clouds -8 1009 85 12874 10.3 100 16:18 12.01.2020
4453 Clouds -8 1011 85 12874 11.8 90 15:42 12.01.2020
4454 Clouds -8 1011 85 12874 11.8 90 15:24 12.01.2020
4455 Clouds -8 1011 85 12874 11.8 90 15:24 12.01.2020
4456 Clouds -8 1011 85 16093 8.7 90 14:56 12.01.2020
4457 Clouds -8 1011 85 16093 8.7 90 14:37 12.01.2020
4458 Clouds -8 1011 85 16093 8.7 90 14:18 12.01.2020
4459 Snow -8 1012 85 6437 9.8 90 13:42 12.01.2020
4460 Snow -8 1012 85 6437 9.8 90 13:23 12.01.2020
4461 Rain -8 1013 78 14484 10.8 90 12:58 12.01.2020
4462 Rain -8 1013 78 14484 10.8 90 12:39 12.01.2020
4463 Rain -8 1013 78 14484 10.8 90 12:20 12.01.2020
4464 Mist -8 1013 85 9656 11.8 90 11:58 12.01.2020
4465 Mist -8 1013 85 9656 11.8 90 11:38 12.01.2020
4466 Mist -8 1013 85 9656 11.8 90 11:19 12.01.2020
4467 Rain -8 1013 85 2012 10.8 90 10:41 12.01.2020
4468 Rain -8 1013 85 2012 10.8 90 10:41 12.01.2020
4469 Rain -8 1013 85 2012 10.8 90 10:22 12.01.2020
4470 Rain -8 1013 92 1609 11.3 90 09:57 12.01.2020
4471 Rain -8 1013 92 1609 11.3 90 09:38 12.01.2020
4472 Rain -8 1013 92 1609 11.3 90 09:18 12.01.2020
4473 Rain -8 1013 92 1609 13.4 100 08:44 12.01.2020
4474 Rain -8 1013 92 1609 13.4 100 08:20 12.01.2020
4475 Snow -8 1014 92 1609 12.9 90 07:40 12.01.2020
4476 Snow -8 1014 92 1609 12.9 90 07:22 12.01.2020
4477 Rain -8 1014 85 2414 12.3 90 06:48 12.01.2020
4478 Rain -8 1014 85 2414 12.3 90 06:29 12.01.2020
4479 Snow -8 1014 85 2414 12.9 90 05:32 12.01.2020
4480 Rain -8 1015 85 2012 11.3 90 04:27 12.01.2020
4481 Rain -8 1015 85 402 11.8 90 03:23 12.01.2020
4482 Snow -9 1015 85 1207 11.3 90 02:33 12.01.2020
4483 Snow -9 1015 85 1207 10.3 80 01:51 12.01.2020
4484 Snow -9 1015 85 1207 10.3 80 01:29 12.01.2020
4485 Snow -10 1015 85 1207 9.3 80 00:41 12.01.2020
4486 Snow -10 1015 85 1207 9.3 80 00:20 12.01.2020
4487 Snow -10 1015 85 1207 9.3 80 00:20 12.01.2020
4488 Snow -10 1015 85 2012 8.2 80 23:42 11.01.2020
4489 Snow -10 1015 85 2012 8.2 80 23:42 11.01.2020
4490 Snow -10 1015 85 2012 8.2 80 23:20 11.01.2020
4491 Snow -11 1015 92 3219 8.7 90 22:59 11.01.2020
4492 Snow -11 1015 92 3219 8.7 90 22:41 11.01.2020
4493 Snow -11 1015 92 3219 8.7 90 22:21 11.01.2020
4494 Rain -11 1014 85 1207 8.7 80 21:59 11.01.2020
4495 Rain -11 1014 85 1207 8.7 80 21:41 11.01.2020
4496 Rain -11 1014 85 1207 8.7 80 21:18 11.01.2020
4497 Rain -11 1014 85 1207 8.7 80 21:18 11.01.2020
4498 Rain -11 1013 85 1207 11.3 90 20:42 11.01.2020
4499 Rain -12 1013 85 1207 11.3 90 20:22 11.01.2020
4500 Rain -12 1013 92 805 10.3 90 19:59 11.01.2020
4501 Rain -12 1013 92 805 10.3 90 19:40 11.01.2020
4502 Rain -12 1013 92 805 10.3 90 19:40 11.01.2020
4503 Rain -12 1013 92 805 10.3 90 19:22 11.01.2020
4504 Snow -12 1012 85 1207 12.9 100 18:59 11.01.2020
4505 Snow -12 1012 85 1207 12.9 100 18:39 11.01.2020
4506 Snow -12 1012 85 1207 12.9 100 18:20 11.01.2020
4507 Snow -12 1012 85 1207 12.9 100 18:20 11.01.2020
4508 Snow -12 1011 72 2816 13.4 100 17:58 11.01.2020
4509 Snow -12 1011 72 2816 13.4 100 17:58 11.01.2020
4510 Snow -12 1011 72 2816 13.4 100 17:40 11.01.2020
4511 Snow -12 1011 72 2816 13.4 100 17:20 11.01.2020
4512 Clouds -11 1011 61 16093 13.9 100 16:55 11.01.2020
4513 Clouds -11 1011 61 16093 13.9 100 16:55 11.01.2020
4514 Clouds -11 1011 61 16093 13.9 100 16:36 11.01.2020
4515 Clouds -11 1011 61 16093 13.9 100 16:36 11.01.2020
4516 Clouds -11 1011 61 16093 13.9 100 16:18 11.01.2020
4517 Clouds -11 1011 61 16093 12.9 100 15:41 11.01.2020
4518 Clouds -11 1011 61 16093 12.9 100 15:23 11.01.2020
4519 Clear -12 1010 60 16093 9.3 100 14:58 11.01.2020
4520 Clear -12 1010 60 16093 9.3 100 14:40 11.01.2020
4521 Clear -11 1010 60 16093 9.3 100 14:21 11.01.2020
4522 Clear -12 1009 55 16093 9.3 90 13:55 11.01.2020
4523 Clear -12 1009 55 16093 9.3 90 13:36 11.01.2020
4524 Clear -12 1009 55 16093 9.3 90 13:18 11.01.2020
4525 Clear -11 1009 51 16093 11.3 90 12:41 11.01.2020
4526 Clear -11 1009 51 16093 11.3 90 12:23 11.01.2020
4527 Clear -10 1009 47 16093 10.8 90 11:48 11.01.2020
4528 Clear -10 1009 47 16093 10.8 90 11:27 11.01.2020
4529 Clear -9 1009 43 16093 10.3 90 10:58 11.01.2020
4530 Clear -10 1009 43 16093 10.3 90 10:40 11.01.2020
4531 Clear -10 1009 43 16093 10.3 90 10:22 11.01.2020
4532 Clear -9 1009 43 16093 10.8 80 09:39 11.01.2020
4533 Clear -9 1009 43 16093 10.8 80 09:20 11.01.2020
4534 Clear -9 1009 40 16093 11.3 80 08:42 11.01.2020
4535 Clear -9 1009 40 16093 11.3 80 08:22 11.01.2020
4536 Clear -9 1010 43 16093 12.3 80 07:44 11.01.2020
4537 Clear -9 1010 43 16093 12.3 80 07:26 11.01.2020
4538 Clear -9 1011 40 16093 12.9 80 06:52 11.01.2020
4539 Clear -9 1012 40 16093 12.3 80 05:50 11.01.2020
4540 Clear -10 1012 43 16093 10.8 80 04:47 11.01.2020
4541 Clear -10 1012 43 16093 10.8 80 04:29 11.01.2020
4542 Clear -11 1014 39 16093 9.3 80 02:58 11.01.2020
4543 Clear -11 1014 39 16093 9.3 80 02:38 11.01.2020
4544 Clear -11 1015 39 16093 9.8 80 01:43 11.01.2020
4545 Clear -11 1015 39 16093 9.8 80 01:20 11.01.2020
4546 Clear -11 1015 39 16093 9.3 90 00:43 11.01.2020
4547 Clear -11 1015 39 16093 9.3 90 00:18 11.01.2020
4548 Clear -12 1015 43 16093 9.8 80 23:40 10.01.2020
4549 Clear -12 1015 43 16093 9.8 80 23:22 10.01.2020
4550 Clear -12 1015 39 16093 9.8 80 22:59 10.01.2020
4551 Clear -12 1015 39 16093 9.8 80 22:40 10.01.2020
4552 Clear -12 1015 39 16093 9.8 80 22:20 10.01.2020
4553 Clear -13 1016 42 16093 9.8 80 21:57 10.01.2020
4554 Clear -13 1016 42 16093 9.8 80 21:37 10.01.2020
4555 Clear -13 1016 42 16093 9.8 80 21:19 10.01.2020
4556 Clear -13 1017 42 16093 10.8 90 20:43 10.01.2020
4557 Clear -13 1017 42 16093 10.8 90 20:24 10.01.2020
4558 Clear -13 1017 42 16093 10.8 90 20:24 10.01.2020
4559 Clear -14 1018 42 16093 8.7 90 19:59 10.01.2020
4560 Clear -14 1018 42 16093 8.7 90 19:38 10.01.2020
4561 Clear -14 1018 42 16093 8.7 90 19:19 10.01.2020
4562 Clear -14 1018 46 16093 8.2 90 18:43 10.01.2020
4563 Clear -14 1018 46 16093 8.2 90 18:20 10.01.2020
4564 Clear -14 1019 42 16093 7.2 80 17:58 10.01.2020
4565 Clear -14 1019 42 16093 7.2 80 17:39 10.01.2020
4566 Clear -14 1019 42 16093 7.2 80 17:21 10.01.2020
4567 Clear -15 1019 49 16093 7.2 80 16:59 10.01.2020
4568 Clear -15 1019 49 16093 7.2 80 16:40 10.01.2020
4569 Clear -15 1019 49 16093 7.2 80 16:21 10.01.2020
4570 Clear -16 1019 54 16093 2.6 110 15:56 10.01.2020
4571 Clear -16 1019 54 16093 2.6 110 15:37 10.01.2020
4572 Clear -16 1019 54 16093 2.6 110 15:18 10.01.2020
4573 Clear -16 1019 45 16093 6.2 80 14:56 10.01.2020
4574 Clear -15 1019 45 16093 6.2 80 14:38 10.01.2020
4575 Clear -15 1019 45 16093 6.2 80 14:18 10.01.2020
4576 Clear -15 1019 42 16093 6.7 70 13:44 10.01.2020
4577 Clear -15 1019 42 16093 6.7 70 13:26 10.01.2020
4578 Clear -13 1019 39 16093 7.7 70 12:59 10.01.2020
4579 Clear -13 1019 39 16093 7.7 70 12:39 10.01.2020
4580 Clear -13 1019 39 16093 7.7 70 12:21 10.01.2020
4581 Clear -13 1019 39 16093 7.7 70 12:21 10.01.2020
4582 Clear -13 1019 39 16093 7.7 70 11:56 10.01.2020
4583 Clear -13 1019 39 16093 7.7 70 11:38 10.01.2020
4584 Clear -13 1019 39 16093 7.7 70 11:19 10.01.2020
4585 Clear -12 1019 35 16093 6.2 70 10:58 10.01.2020
4586 Clear -12 1019 35 16093 6.2 70 10:58 10.01.2020
4587 Clear -12 1019 35 16093 6.2 70 10:37 10.01.2020
4588 Clear -12 1019 35 16093 6.2 70 10:18 10.01.2020
4589 Clear -12 1018 35 16093 7.2 70 09:45 10.01.2020
4590 Clear -12 1018 35 16093 7.2 70 09:25 10.01.2020
4591 Clear -12 1018 35 16093 6.2 80 08:44 10.01.2020
4592 Clear -12 1018 35 16093 6.2 80 08:24 10.01.2020
4593 Clear -12 1018 35 16093 5.7 80 07:58 10.01.2020
4594 Clear -12 1018 35 16093 5.7 80 07:58 10.01.2020
4595 Clear -12 1018 35 16093 5.7 80 07:39 10.01.2020
4596 Clear -12 1018 35 16093 5.7 80 07:19 10.01.2020
4597 Clear -12 1017 35 16093 7.2 70 06:27 10.01.2020
4598 Clear -11 1018 33 16093 6.7 70 06:00 10.01.2020
4599 Clear -12 1017 35 16093 7.7 60 04:44 10.01.2020
4600 Clear -12 1017 35 16093 6.2 70 03:31 10.01.2020
4601 Clear -12 1017 35 16093 6.2 70 03:31 10.01.2020
4602 Clear -11 1017 36 16093 5.7 80 02:52 10.01.2020
4603 Clear -11 1017 36 16093 5.7 80 02:19 10.01.2020
4604 Clear -12 1017 39 16093 8.2 70 01:30 10.01.2020
4605 Clear -12 1017 39 0 6.7 60 00:51 10.01.2020
4606 Clear -12 1017 39 0 6.7 60 00:33 10.01.2020
4607 Clear -12 1017 39 16093 8.2 60 23:57 09.01.2020
4608 Clear -12 1017 39 16093 8.2 60 23:57 09.01.2020
4609 Clear -12 1017 39 16093 8.2 60 23:36 09.01.2020
4610 Clear -12 1017 39 16093 8.2 60 23:18 09.01.2020
4611 Clear -12 1017 35 16093 6.7 70 22:56 09.01.2020
4612 Clear -12 1017 35 16093 6.7 70 22:37 09.01.2020
4613 Clear -12 1017 35 16093 6.7 70 22:18 09.01.2020
4614 Clear -12 1017 39 16093 5.7 70 21:54 09.01.2020
4615 Clear -12 1017 39 16093 5.7 70 21:36 09.01.2020
4616 Clear -12 1017 39 16093 5.7 70 21:18 09.01.2020
4617 Clear -13 1017 42 16093 5.7 60 20:54 09.01.2020
4618 Clear -13 1017 42 16093 5.7 60 20:36 09.01.2020
4619 Clear -13 1017 42 16093 5.7 60 20:18 09.01.2020
4620 Clear -12 1016 39 16093 8.2 60 19:39 09.01.2020
4621 Clear -12 1016 39 16093 8.2 60 19:20 09.01.2020
4622 Clear -12 1017 43 16093 9.8 70 18:57 09.01.2020
4623 Clear -12 1017 43 16093 9.8 70 18:39 09.01.2020
4624 Clear -12 1017 43 16093 9.8 70 18:20 09.01.2020
4625 Clear -12 1017 43 16093 8.2 70 17:41 09.01.2020
4626 Clear -12 1017 43 16093 8.2 70 17:19 09.01.2020
4627 Clear -12 1018 43 16093 7.2 60 16:59 09.01.2020
4628 Clear -12 1018 43 16093 7.2 60 16:41 09.01.2020
4629 Clear -12 1018 43 16093 7.2 60 16:21 09.01.2020
4630 Clear -13 1018 42 16093 5.7 40 15:43 09.01.2020
4631 Clear -13 1018 42 16093 5.7 40 15:23 09.01.2020
4632 Clear -12 1018 39 16093 7.2 60 14:58 09.01.2020
4633 Clear -12 1018 39 16093 7.2 60 14:40 09.01.2020
4634 Clear -12 1018 39 16093 7.2 60 14:19 09.01.2020
4635 Clear -13 1019 42 16093 4.1 60 13:55 09.01.2020
4636 Clear -13 1019 42 16093 4.1 60 13:37 09.01.2020
4637 Clear -13 1019 42 16093 4.1 60 13:18 09.01.2020
4638 Clear -14 1020 42 16093 3.6 60 12:55 09.01.2020
4639 Clear -14 1020 42 16093 3.6 60 12:37 09.01.2020
4640 Clear -14 1020 42 16093 3.6 60 12:18 09.01.2020
4641 Clear -17 1021 54 16093 5.1 40 11:42 09.01.2020
4642 Clear -17 1021 54 16093 5.1 40 11:24 09.01.2020
4643 Clear -17 1021 54 16093 5.1 40 11:24 09.01.2020
4644 Clear -17 1021 54 16093 5.1 40 11:24 09.01.2020
4645 Clear -18 1021 54 16093 5.7 40 10:58 09.01.2020
4646 Clear -18 1021 54 16093 5.7 40 10:39 09.01.2020
4647 Clear -18 1021 54 16093 5.7 40 10:21 09.01.2020
4648 Clear -17 1022 54 16093 4.6 40 09:45 09.01.2020
4649 Clear -17 1022 54 16093 4.6 40 09:23 09.01.2020
4650 Clear -17 1022 54 16093 5.7 40 08:57 09.01.2020
4651 Clear -18 1022 54 16093 5.7 40 08:38 09.01.2020
4652 Clear -18 1022 54 16093 5.7 40 08:20 09.01.2020
4653 Clear -19 1022 53 16093 3.6 10 07:47 09.01.2020
4654 Clear -18 1022 53 16093 3.6 10 07:28 09.01.2020
4655 Clear -19 1023 58 16093 2.6 30 06:40 09.01.2020
4656 Clear -19 1023 58 16093 2.6 30 06:22 09.01.2020
4657 Clear -19 1023 58 16093 3.6 30 05:51 09.01.2020
4658 Clear -19 1023 58 16093 3.6 30 05:20 09.01.2020
4659 Clear -19 1023 58 16093 4.6 40 04:39 09.01.2020
4660 Clear -20 1024 63 16093 3.6 360 03:27 09.01.2020
4661 Clear -20 1025 63 16093 3.6 20 02:46 09.01.2020
4662 Clear -22 1025 69 16093 3.6 40 01:42 09.01.2020
4663 Clear -25 1026 75 16093 3.1 360 00:59 09.01.2020
4664 Clear -25 1026 75 16093 3.1 360 00:37 09.01.2020
4665 Clear -26 1026 75 16093 3.1 360 00:19 09.01.2020
4666 Clear -26 1025 68 16093 1.5 340 23:39 08.01.2020
4667 Clear -26 1025 68 16093 1.5 340 23:20 08.01.2020
4668 Clear -27 1026 68 16093 1.99 51 22:41 08.01.2020
4669 Clear -27 1026 68 16093 1.99 51 22:23 08.01.2020
4670 Clear -25 1026 62 16093 1.99 51 21:59 08.01.2020
4671 Clear -27 1026 62 16093 1.99 51 21:40 08.01.2020
4672 Clear -27 1026 62 16093 1.99 51 21:21 08.01.2020
4673 Clear -28 1026 75 16093 1.99 51 20:59 08.01.2020
4674 Clear -28 1026 75 16093 1.99 51 20:59 08.01.2020
4675 Clear -28 1026 75 16093 1.99 51 20:41 08.01.2020
4676 Clear -27 1026 75 16093 1.62 60 20:21 08.01.2020
4677 Clear -28 1026 68 16093 2.6 40 19:58 08.01.2020
4678 Clear -28 1026 68 16093 2.6 40 19:38 08.01.2020
4679 Clear -28 1026 68 16093 2.6 40 19:19 08.01.2020
4680 Clear -28 1026 75 16093 2.1 20 18:58 08.01.2020
4681 Clear -28 1026 75 16093 2.1 20 18:39 08.01.2020
4682 Clear -28 1026 75 16093 2.1 20 18:19 08.01.2020
4683 Clear -28 1026 75 16093 1.37 64 17:57 08.01.2020
4684 Clear -28 1026 75 16093 1.37 64 17:38 08.01.2020
4685 Clear -27 1026 75 16093 0.58 9 17:19 08.01.2020
4686 Clear -28 1026 75 16093 0.58 9 16:56 08.01.2020
4687 Clear -28 1026 75 16093 0.58 9 16:38 08.01.2020
4688 Clear -28 1026 75 16093 0.58 9 16:18 08.01.2020
4689 Clear -28 1026 68 16093 0.58 9 15:44 08.01.2020
4690 Clear -27 1026 68 16093 0.58 9 15:21 08.01.2020
4691 Clear -28 1026 75 16093 0.58 9 14:58 08.01.2020
4692 Clear -28 1026 75 16093 0.58 9 14:40 08.01.2020
4693 Clear -28 1026 75 16093 0.58 9 14:40 08.01.2020
4694 Clear -28 1026 75 16093 0.58 9 14:40 08.01.2020
4695 Clear -28 1026 75 16093 0.71 336 14:21 08.01.2020
4696 Clear -28 1026 68 16093 0.71 336 13:41 08.01.2020
4697 Clear -28 1026 68 16093 0.52 6 13:22 08.01.2020
4698 Clear -28 1026 68 16093 0.52 6 13:22 08.01.2020
4699 Clear -28 1026 75 16093 0.52 6 12:55 08.01.2020
4700 Clear -28 1026 75 16093 0.52 6 12:37 08.01.2020
4701 Clear -28 1026 75 16093 0.52 6 12:18 08.01.2020
4702 Clear -28 1026 75 16093 0.52 6 11:48 08.01.2020
4703 Clear -28 1026 75 16093 0.52 6 11:48 08.01.2020
4704 Clear -28 1026 75 16093 1.36 34 11:19 08.01.2020
4705 Clear -29 1025 75 16093 1.5 20 10:59 08.01.2020
4706 Clear -29 1025 75 16093 1.5 20 10:59 08.01.2020
4707 Clear -29 1025 75 16093 1.5 20 10:40 08.01.2020
4708 Clear -28 1025 75 16093 1.5 20 10:21 08.01.2020
4709 Clear -28 1025 75 16093 1.5 20 10:21 08.01.2020
4710 Clear -26 1025 68 16093 1.36 34 09:43 08.01.2020
4711 Clear -28 1025 68 16093 1.36 34 09:20 08.01.2020
4712 Clear -28 1024 68 16093 2.1 10 08:59 08.01.2020
4713 Clear -28 1024 68 16093 2.1 10 08:41 08.01.2020
4714 Clear -27 1024 68 16093 2.1 10 08:22 08.01.2020
4715 Clear -28 1024 75 16093 1.5 360 07:58 08.01.2020
4716 Clear -28 1024 75 16093 1.5 360 07:39 08.01.2020
4717 Clear -28 1024 75 16093 1.5 360 07:18 08.01.2020
4718 Clear -28 1024 75 16093 1.49 25 06:41 08.01.2020
4719 Clear -28 1024 75 16093 1.49 25 05:56 08.01.2020
4720 Clear -28 1024 75 16093 1.49 25 05:26 08.01.2020
4721 Clear -26 1024 75 16093 1.5 20 04:36 08.01.2020
4722 Clear -26 1024 82 16093 0.75 348 02:46 08.01.2020
4723 Clear -26 1024 82 16093 0.75 348 02:28 08.01.2020
4724 Clear -26 1024 75 16093 0.92 330 01:57 08.01.2020
4725 Clear -26 1024 75 16093 0.92 330 01:32 08.01.2020
4726 Clear -27 1024 75 16093 0.96 339 00:51 08.01.2020
4727 Clear -27 1024 75 16093 0.96 339 00:22 08.01.2020
4728 Snow -27 1023 68 402 1.5 350 23:46 07.01.2020
4729 Snow -27 1023 68 402 1.5 350 23:21 07.01.2020
4730 Clear -28 1024 75 16093 1.5 10 22:56 07.01.2020
4731 Clear -29 1024 75 16093 1.5 10 22:37 07.01.2020
4732 Clear -29 1024 75 16093 1.5 10 22:18 07.01.2020
4733 Clear -28 1024 75 16093 1.06 21 21:42 07.01.2020
4734 Clear -28 1024 75 16093 1.06 21 21:22 07.01.2020
4735 Clear -28 1023 75 16093 1.06 21 20:58 07.01.2020
4736 Clear -28 1023 75 16093 1.06 21 20:58 07.01.2020
4737 Clear -28 1023 75 16093 1.06 21 20:39 07.01.2020
4738 Clear -28 1023 75 16093 1.21 38 20:21 07.01.2020
4739 Clear -26 1024 82 16093 1.21 38 19:57 07.01.2020
4740 Clear -26 1024 82 16093 1.21 38 19:37 07.01.2020
4741 Clear -26 1024 82 16093 1.21 38 19:19 07.01.2020
4742 Clear -26 1024 82 16093 1.5 40 18:56 07.01.2020
4743 Clear -26 1024 82 16093 1.5 40 18:38 07.01.2020
4744 Clear -26 1024 82 16093 1.5 40 18:18 07.01.2020
4745 Clear -26 1024 75 16093 1.21 38 17:54 07.01.2020
4746 Clear -26 1024 75 16093 1.21 38 17:36 07.01.2020
4747 Clear -25 1024 75 16093 0.77 56 17:18 07.01.2020
4748 Clear -26 1024 75 16093 0.77 56 16:54 07.01.2020
4749 Clear -26 1024 75 16093 0.77 56 16:36 07.01.2020
4750 Clear -26 1024 75 16093 0.77 56 16:18 07.01.2020
4751 Clear -26 1024 75 16093 0.77 56 16:18 07.01.2020
4752 Clear -26 1024 75 16093 1.5 360 15:42 07.01.2020
4753 Clear -26 1024 75 16093 1.5 360 15:23 07.01.2020
4754 Clear -23 1024 69 16093 3.6 30 14:58 07.01.2020
4755 Clear -23 1024 69 16093 3.6 30 14:38 07.01.2020
4756 Clear -23 1024 69 16093 3.6 30 14:19 07.01.2020
4757 Clear -23 1024 69 16093 3.6 30 14:19 07.01.2020
4758 Clouds -26 1024 83 16093 1.5 10 13:46 07.01.2020
4759 Clouds -26 1024 83 16093 1.5 10 13:20 07.01.2020
4760 Clear -25 1024 75 16093 1.5 20 12:56 07.01.2020
4761 Clear -25 1024 75 16093 1.5 20 12:37 07.01.2020
4762 Clear -25 1024 75 16093 1.5 20 12:18 07.01.2020
4763 Clear -26 1024 75 16093 0.87 42 11:41 07.01.2020
4764 -273 0 0 0 0 0 11:22 07.01.2020
4765 Clear -25 1024 75 16093 2.1 50 10:56 07.01.2020
4766 Clear -25 1024 75 16093 2.1 50 10:37 07.01.2020
4767 Clear -25 1024 75 16093 2.1 50 10:37 07.01.2020
4768 Clear -25 1024 75 16093 2.1 50 10:19 07.01.2020
4769 Clear -27 1024 75 16093 1.5 360 09:39 07.01.2020
4770 Clear -27 1024 75 16093 1.5 360 09:21 07.01.2020
4771 Clear -26 1023 75 16093 1.43 8 08:57 07.01.2020
4772 Clear -26 1023 75 16093 1.43 8 08:38 07.01.2020
4773 Clear -26 1023 75 16093 1.09 16 08:18 07.01.2020
4774 Clouds -26 1023 75 16093 1.5 360 07:42 07.01.2020
4775 Clouds -26 1023 75 16093 1.5 360 07:18 07.01.2020
4776 Clouds -25 1023 75 16093 2.1 10 06:49 07.01.2020
4777 Clouds -25 1023 75 16093 2.1 10 06:29 07.01.2020
4778 Clouds -24 1023 76 16093 2.1 20 05:41 07.01.2020
4779 Clouds -22 1023 69 16093 0.95 16 03:47 07.01.2020
4780 Clouds -22 1023 69 16093 0.95 16 03:25 07.01.2020
4781 Clouds -24 1023 69 16093 1.5 360 02:19 07.01.2020
4782 Clouds -26 1023 75 16093 1.5 30 01:40 07.01.2020
4783 Clear -27 1023 82 16093 0.77 345 00:58 07.01.2020
4784 Clear -27 1023 82 16093 0.77 345 00:21 07.01.2020
4785 Clear -27 1023 82 16093 0.77 345 00:21 07.01.2020
4786 Clear -27 1023 82 16093 0.77 345 00:21 07.01.2020
4787 Clear -27 1023 68 16093 1.5 20 23:57 06.01.2020
4788 Clear -27 1023 68 16093 1.5 20 23:38 06.01.2020
4789 Clear -27 1023 68 16093 1.5 20 23:20 06.01.2020
4790 Clear -27 1023 75 14484 0.58 342 22:44 06.01.2020
4791 Clear -27 1023 75 14484 0.58 342 22:25 06.01.2020
4792 Clear -28 1022 75 16093 0.58 342 21:59 06.01.2020
4793 Clear -28 1022 75 16093 0.58 342 21:40 06.01.2020
4794 Clear -28 1022 75 16093 0.58 342 21:20 06.01.2020
4795 Clear -28 1022 75 16093 0.58 342 20:58 06.01.2020
4796 Clear -28 1022 75 16093 0.58 342 20:40 06.01.2020
4797 Clear -28 1022 75 16093 0.69 332 20:20 06.01.2020
4798 Clear -27 1022 75 16093 0.56 355 19:57 06.01.2020
4799 Clear -27 1022 75 16093 0.56 355 19:39 06.01.2020
4800 Clear -27 1022 75 16093 0.56 355 19:39 06.01.2020
4801 Clear -27 1022 75 16093 0.56 355 19:20 06.01.2020
4802 Clear -28 1021 75 16093 0.56 355 18:48 06.01.2020
4803 Clear -28 1021 75 16093 0.56 355 18:25 06.01.2020
4804 Clear -28 1021 75 16093 0.56 355 17:59 06.01.2020
4805 Clear -28 1021 75 16093 0.56 355 17:39 06.01.2020
4806 Clear -28 1021 75 16093 0.8 339 17:19 06.01.2020
4807 Clear -27 1021 68 16093 0.8 339 16:55 06.01.2020
4808 Clear -27 1021 68 16093 0.8 339 16:36 06.01.2020
4809 Clear -27 1021 68 16093 0.8 339 16:18 06.01.2020
4810 Clear -27 1021 82 16093 0.8 339 15:42 06.01.2020
4811 Clear -27 1021 82 16093 0.8 339 15:20 06.01.2020
4812 Clear -27 1021 75 16093 0.8 339 14:59 06.01.2020
4813 Clear -27 1021 75 16093 0.8 339 14:40 06.01.2020
4814 Clear -27 1021 75 16093 0.85 357 14:20 06.01.2020
4815 Clear -25 1021 69 16093 1.5 360 13:57 06.01.2020
4816 Clear -25 1021 69 16093 1.5 360 13:37 06.01.2020
4817 Clear -25 1021 69 16093 1.5 360 13:19 06.01.2020
4818 Clear -27 1021 75 16093 0.69 353 12:43 06.01.2020
4819 Clear -27 1021 75 16093 0.69 353 12:21 06.01.2020
4820 Clear -27 1020 68 16093 0.69 353 11:58 06.01.2020
4821 Clear -27 1020 68 16093 0.69 353 11:39 06.01.2020
4822 Clear -27 1020 68 16093 0.83 16 11:21 06.01.2020
4823 Clear -27 1020 68 16093 0.83 16 10:54 06.01.2020
4824 Clear -27 1020 68 16093 0.83 16 10:36 06.01.2020
4825 Clear -27 1020 68 16093 0.83 16 10:18 06.01.2020
4826 Clear -26 1020 75 16093 0.83 16 09:37 06.01.2020
4827 Clear -26 1020 75 16093 0.83 16 09:19 06.01.2020
4828 Clear -26 1019 75 16093 0.83 16 08:43 06.01.2020
4829 Clear -26 1019 75 16093 0.83 16 08:25 06.01.2020
4830 Clear -26 1019 68 16093 1.06 50 07:51 06.01.2020
4831 Clear -26 1019 68 16093 1.06 50 07:28 06.01.2020
4832 Clear -26 1019 75 16093 1.06 50 06:45 06.01.2020
4833 Clear -26 1019 75 16093 1.06 50 06:19 06.01.2020
4834 Clouds -26 1018 75 16093 1.06 50 05:42 06.01.2020
4835 Clouds -24 1018 69 16093 0.92 52 04:37 06.01.2020
4836 Clouds -24 1018 69 16093 0.92 52 04:18 06.01.2020
4837 Clear -23 1018 63 16093 0.92 52 02:46 06.01.2020
4838 Clear -23 1018 63 16093 0.92 52 02:23 06.01.2020
4839 Clear -23 1018 63 16093 2.1 20 01:44 06.01.2020
4840 Clear -23 1018 63 16093 2.1 20 01:24 06.01.2020
4841 Clear -25 1017 69 16093 1.06 72 00:41 06.01.2020
4842 Clear -25 1017 69 16093 1.06 72 00:20 06.01.2020
4843 Clear -25 1017 69 16093 1.06 72 23:41 05.01.2020
4844 Clear -25 1017 69 16093 1.06 72 23:22 05.01.2020
4845 Clear -27 1017 82 16093 1.76 43 22:56 05.01.2020
4846 Clear -27 1017 82 16093 1.76 43 22:38 05.01.2020
4847 Clear -27 1017 82 16093 1.76 43 22:19 05.01.2020
4848 Clear -26 1016 75 16093 1.5 50 21:54 05.01.2020
4849 Clear -26 1016 75 16093 1.5 50 21:36 05.01.2020
4850 Clear -26 1016 75 16093 1.5 50 21:18 05.01.2020
4851 Clear -27 1016 82 16093 1.76 43 20:55 05.01.2020
4852 Clear -27 1016 82 16093 1.19 53 20:36 05.01.2020
4853 Clear -27 1016 82 16093 1.23 20 20:18 05.01.2020
4854 Clear -25 1016 69 16093 1.5 10 19:56 05.01.2020
4855 Clear -25 1016 69 16093 1.5 10 19:37 05.01.2020
4856 Clear -25 1016 69 16093 1.5 10 19:18 05.01.2020
4857 Clear -23 1016 63 16093 1.23 20 18:54 05.01.2020
4858 Clear -23 1016 63 16093 1.23 20 18:36 05.01.2020
4859 Clear -23 1016 63 16093 1.23 20 18:18 05.01.2020
4860 Clear -22 1015 63 16093 1.23 20 17:55 05.01.2020
4861 Clear -22 1015 63 16093 1.23 20 17:37 05.01.2020
4862 Clear -22 1015 63 16093 1.78 29 17:18 05.01.2020
4863 Clear -23 1015 63 16093 3.6 360 16:54 05.01.2020
4864 Clear -23 1015 63 16093 3.6 360 16:36 05.01.2020
4865 Clear -23 1015 63 16093 3.6 360 16:18 05.01.2020
4866 Clear -22 1016 63 16093 2.1 20 15:36 05.01.2020
4867 Clear -22 1016 63 16093 2.1 20 15:18 05.01.2020
4868 Clear -21 1016 63 16093 2.6 30 14:54 05.01.2020
4869 Clear -21 1016 63 16093 2.6 30 14:36 05.01.2020
4870 Clear -21 1016 63 16093 2.6 30 14:18 05.01.2020
4871 Clear -20 1015 58 16093 3.1 30 13:39 05.01.2020
4872 Clear -20 1015 58 16093 3.1 30 13:21 05.01.2020
4873 Clouds -19 1016 64 16093 3.6 30 12:57 05.01.2020
4874 Clouds -19 1016 64 16093 3.6 30 12:57 05.01.2020
4875 Clouds -19 1016 64 16093 3.6 30 12:39 05.01.2020
4876 Clouds -19 1016 64 16093 3.6 30 12:39 05.01.2020
4877 Clouds -19 1016 64 16093 3.6 30 12:21 05.01.2020
4878 Clouds -19 1016 64 16093 3.6 30 12:21 05.01.2020
4879 Clouds -19 1015 64 16093 2.1 10 11:55 05.01.2020
4880 Clouds -19 1015 64 16093 2.1 10 11:37 05.01.2020
4881 Clouds -19 1015 64 16093 2.1 10 11:19 05.01.2020
4882 Clear -19 1015 64 16093 2.1 70 10:55 05.01.2020
4883 Clear -19 1015 64 16093 2.1 70 10:36 05.01.2020
4884 Clear -19 1015 64 16093 2.1 70 10:18 05.01.2020
4885 Clouds -19 1015 64 16093 2.6 60 09:41 05.01.2020
4886 Clouds -19 1015 64 16093 2.6 60 09:41 05.01.2020
4887 Clouds -19 1015 64 16093 2.6 60 09:21 05.01.2020
4888 Clear -18 1014 59 16093 4.1 70 08:45 05.01.2020
4889 Clear -18 1014 59 16093 4.1 70 08:26 05.01.2020
4890 Clouds -17 1014 64 16093 2.1 70 07:55 05.01.2020
4891 Clouds -17 1014 64 16093 2.1 70 07:32 05.01.2020
4892 Clouds -18 1014 64 16093 1.5 20 06:57 05.01.2020
4893 Clouds -17 1014 64 16093 2.6 50 05:55 05.01.2020
4894 Clouds -17 1014 64 16093 2.6 50 05:28 05.01.2020
4895 Clouds -17 1014 64 16093 1.5 70 04:24 05.01.2020
4896 Clouds -16 1014 59 16093 3.1 30 03:47 05.01.2020
4897 Clouds -16 1014 59 16093 1.5 60 02:43 05.01.2020
4898 Clouds -16 1014 59 16093 1.5 60 02:20 05.01.2020
4899 Clouds -16 1014 59 16093 2.1 40 01:40 05.01.2020
4900 Clouds -16 1014 59 16093 2.1 40 01:18 05.01.2020
4901 Clouds -17 1013 70 16093 2.1 360 00:41 05.01.2020
4902 Clouds -17 1013 70 16093 2.1 360 00:22 05.01.2020
4903 Clouds -17 1013 70 16093 1.27 45 23:59 04.01.2020
4904 Clouds -17 1013 70 16093 1.27 45 23:39 04.01.2020
4905 Clouds -17 1013 70 16093 1.65 23 23:19 04.01.2020
4906 Clouds -17 1013 64 16093 2.6 40 22:39 04.01.2020
4907 Clouds -17 1013 64 16093 2.6 40 22:21 04.01.2020
4908 Clouds -17 1013 64 16093 2.1 30 21:57 04.01.2020
4909 Clouds -17 1013 64 16093 2.1 30 21:38 04.01.2020
4910 Clouds -17 1013 64 16093 2.1 30 21:19 04.01.2020
4911 Clouds -17 1013 64 16093 1.65 23 20:57 04.01.2020
4912 Clouds -17 1013 64 16093 1.65 23 20:38 04.01.2020
4913 Clouds -17 1013 64 16093 2.11 50 20:19 04.01.2020
4914 Snow -17 1013 70 14484 2.1 40 19:42 04.01.2020
4915 Snow -17 1013 70 14484 2.1 40 19:42 04.01.2020
4916 Snow -17 1013 70 14484 2.1 40 19:24 04.01.2020
4917 Haze -17 1012 77 8047 1.5 10 18:58 04.01.2020
4918 Haze -17 1012 77 8047 1.5 10 18:39 04.01.2020
4919 Haze -17 1012 77 8047 1.5 10 18:21 04.01.2020
4920 Snow -17 1012 64 8047 2.11 50 17:58 04.01.2020
4921 Snow -17 1012 64 8047 2.11 50 17:40 04.01.2020
4922 -273 0 0 0 0 0 17:22 04.01.2020
4923 Clouds -17 1012 64 16093 1.5 10 16:42 04.01.2020
4924 Clouds -17 1012 64 16093 1.5 10 16:24 04.01.2020
4925 Clouds -17 1012 59 16093 3.1 40 15:59 04.01.2020
4926 Clouds -17 1012 59 16093 3.1 40 15:59 04.01.2020
4927 Clouds -17 1012 59 16093 3.1 40 15:41 04.01.2020
4928 Clouds -17 1012 59 16093 3.1 40 15:19 04.01.2020
4929 Clouds -17 1011 59 16093 2.6 70 14:58 04.01.2020
4930 Clouds -17 1011 59 16093 2.6 70 14:58 04.01.2020
4931 Clouds -17 1011 59 16093 2.6 70 14:39 04.01.2020
4932 Clouds -17 1011 59 16093 2.6 70 14:19 04.01.2020
4933 Clouds -17 1011 64 16093 1.5 360 13:56 04.01.2020
4934 Clouds -17 1011 64 16093 1.5 360 13:37 04.01.2020
4935 Clouds -17 1011 64 16093 1.5 360 13:18 04.01.2020
4936 Clouds -17 1011 64 16093 1.5 360 13:18 04.01.2020
4937 Clouds -17 1011 64 16093 3.6 50 12:42 04.01.2020
4938 Clouds -17 1011 64 16093 3.6 50 12:20 04.01.2020
4939 Clouds -17 1011 64 16093 3.6 50 12:20 04.01.2020
4940 Clouds -17 1011 64 16093 2.6 40 11:59 04.01.2020
4941 Clouds -17 1011 64 16093 2.6 40 11:40 04.01.2020
4942 Clouds -17 1011 64 16093 2.6 40 11:19 04.01.2020
4943 Clouds -17 1011 64 16093 2.15 36 10:55 04.01.2020
4944 Clouds -17 1011 64 16093 2.15 36 10:37 04.01.2020
4945 Clouds -17 1011 64 16093 2.15 36 10:19 04.01.2020
4946 Clouds -17 1011 64 16093 1.5 350 09:42 04.01.2020
4947 Clouds -17 1011 64 16093 1.5 350 09:23 04.01.2020
4948 Clouds -18 1011 70 16093 2.15 36 08:42 04.01.2020
4949 Clouds -18 1011 70 16093 1.91 33 08:21 04.01.2020
4950 Clouds -18 1011 64 16093 2.6 340 07:44 04.01.2020
4951 Clouds -18 1011 64 16093 2.6 340 07:26 04.01.2020
4952 Clouds -21 1011 76 16093 1.91 33 06:36 04.01.2020
4953 Clouds -22 1011 83 16093 1.91 33 05:45 04.01.2020
4954 Clouds -22 1011 76 16093 2.67 19 04:44 04.01.2020
4955 Clouds -22 1011 76 16093 2.67 19 04:26 04.01.2020
4956 Clouds -21 1011 70 16093 2.67 19 03:19 04.01.2020
4957 Clouds -20 1011 64 16093 2.6 10 02:23 04.01.2020
4958 Clear -19 1011 64 16093 3.1 10 01:57 04.01.2020
4959 Clear -19 1011 64 16093 3.1 10 01:32 04.01.2020
4960 Clear -19 1011 64 16093 3.1 10 01:32 04.01.2020
4961 Clear -20 1012 70 16093 3.1 350 00:56 04.01.2020
4962 Clear -20 1012 70 16093 3.1 350 00:28 04.01.2020
4963 Clear -19 1012 64 16093 2.6 10 23:52 03.01.2020
4964 Clear -19 1012 64 16093 2.6 10 23:27 03.01.2020
4965 Clouds -22 1013 90 0 2.87 14 22:55 03.01.2020
4966 Clouds -22 1013 90 0 2.87 14 22:37 03.01.2020
4967 Clouds -19 1012 70 16093 2.87 14 22:18 03.01.2020
4968 Clouds -19 1012 70 16093 2.87 14 21:56 03.01.2020
4969 Clouds -19 1012 70 16093 2.87 14 21:37 03.01.2020
4970 Clouds -19 1012 70 16093 2.87 14 21:18 03.01.2020
4971 Clear -18 1012 70 16093 2.1 340 20:43 03.01.2020
4972 Clear -18 1012 70 16093 2.1 340 20:19 03.01.2020
4973 Clear -19 1012 70 16093 2.6 20 19:59 03.01.2020
4974 Clear -19 1012 70 16093 2.6 20 19:41 03.01.2020
4975 Clear -19 1012 70 16093 2.6 20 19:22 03.01.2020
4976 Clear -20 1012 70 16093 3.6 340 18:46 03.01.2020
4977 Clear -20 1012 70 16093 3.6 340 18:26 03.01.2020
4978 Clouds -18 1012 64 16093 4.6 350 17:58 03.01.2020
4979 Clouds -18 1012 64 16093 4.6 350 17:39 03.01.2020
4980 Clouds -18 1012 64 16093 4.6 350 17:21 03.01.2020
4981 Clear -18 1012 64 16093 3.6 360 16:43 03.01.2020
4982 Clear -18 1012 64 16093 3.6 360 16:24 03.01.2020
4983 Clear -18 1012 70 16093 3.6 350 15:59 03.01.2020
4984 Clear -18 1012 70 16093 3.6 350 15:41 03.01.2020
4985 Clear -18 1012 70 16093 3.6 350 15:19 03.01.2020
4986 Clear -18 1012 70 16093 3.6 350 15:19 03.01.2020
4987 Clear -17 1013 70 16093 2.1 340 14:39 03.01.2020
4988 Clear -17 1013 70 16093 2.1 340 14:20 03.01.2020
4989 Clear -16 1013 65 16093 2.6 20 13:57 03.01.2020
4990 Clear -16 1013 65 16093 2.6 20 13:38 03.01.2020
4991 Clear -16 1013 65 16093 2.6 20 13:20 03.01.2020
4992 Clouds -17 1013 70 16093 3.6 350 12:40 03.01.2020
4993 Clouds -17 1013 70 16093 3.6 350 12:22 03.01.2020
4994 Clear -16 1013 65 16093 4.6 350 11:49 03.01.2020
4995 Clear -16 1013 65 16093 4.6 350 11:31 03.01.2020
4996 Clear -17 1013 64 16093 3.1 360 10:57 03.01.2020
4997 Clear -17 1013 64 16093 3.1 360 10:38 03.01.2020
4998 Clear -17 1013 64 16093 3.1 360 10:20 03.01.2020
4999 Clouds -16 1013 71 14484 5.1 30 09:41 03.01.2020
5000 Clouds -16 1013 71 14484 5.1 30 09:23 03.01.2020
5001 Clouds -16 1013 77 12874 3.1 10 08:57 03.01.2020
5002 Clouds -16 1013 77 12874 3.1 10 08:39 03.01.2020
5003 Clouds -16 1013 77 12874 3.1 10 08:21 03.01.2020
5004 Rain -16 1013 84 4828 3.1 20 07:42 03.01.2020
5005 Rain -16 1013 84 4828 3.1 20 07:19 03.01.2020
5006 Rain -15 1012 71 3219 3.6 40 06:57 03.01.2020
5007 Rain -15 1012 71 3219 3.6 40 06:37 03.01.2020
5008 Rain -15 1012 71 3219 3.6 40 06:18 03.01.2020
5009 Snow -14 1012 71 9656 3.1 30 04:43 03.01.2020
5010 Snow -14 1012 65 14484 5.1 10 03:37 03.01.2020
5011 Snow -14 1012 65 14484 4.6 20 02:50 03.01.2020
5012 Snow -14 1012 65 14484 2.6 10 01:48 03.01.2020
5013 Snow -14 1012 65 14484 1.5 20 00:57 03.01.2020
5014 Snow -14 1012 65 14484 1.5 20 00:33 03.01.2020
5015 Snow -14 1012 65 12874 4.1 360 23:58 02.01.2020
5016 Snow -14 1012 65 12874 4.1 360 23:39 02.01.2020
5017 Snow -14 1012 65 12874 4.1 360 23:39 02.01.2020
5018 Snow -14 1012 65 12874 4.1 360 23:20 02.01.2020
5019 Snow -14 1011 65 14484 5.1 360 22:58 02.01.2020
5020 Snow -14 1011 65 14484 5.1 360 22:39 02.01.2020
5021 Snow -14 1011 65 14484 5.1 360 22:19 02.01.2020
5022 Snow -14 1011 65 14484 6.2 10 21:55 02.01.2020
5023 Snow -14 1011 65 14484 6.2 10 21:36 02.01.2020
5024 Snow -14 1011 65 14484 6.2 10 21:18 02.01.2020
5025 Snow -14 1010 65 16093 5.1 350 20:55 02.01.2020
5026 Snow -14 1010 65 16093 5.1 350 20:36 02.01.2020
5027 Snow -14 1010 65 16093 5.1 350 20:18 02.01.2020
5028 Clouds -14 1010 65 16093 4.6 360 19:54 02.01.2020
5029 Clouds -14 1010 65 16093 4.6 360 19:36 02.01.2020
5030 Clouds -14 1010 65 16093 4.6 360 19:36 02.01.2020
5031 Clouds -14 1010 65 16093 4.6 360 19:18 02.01.2020
5032 Clouds -14 1009 65 16093 5.7 10 18:42 02.01.2020
5033 Clouds -14 1009 65 16093 5.7 10 18:23 02.01.2020
5034 Clouds -14 1009 65 16093 5.1 350 17:58 02.01.2020
5035 Clouds -14 1009 65 16093 5.1 350 17:38 02.01.2020
5036 Clouds -14 1009 65 16093 5.1 350 17:19 02.01.2020
5037 Clouds -14 1008 65 16093 5.7 360 16:58 02.01.2020
5038 Clouds -14 1008 65 16093 5.7 360 16:40 02.01.2020
5039 Clouds -14 1008 65 16093 5.7 360 16:20 02.01.2020
5040 Haze -16 1007 77 8047 8.2 360 15:57 02.01.2020
5041 Haze -16 1007 77 8047 8.2 360 15:57 02.01.2020
5042 Haze -16 1007 77 8047 8.2 360 15:39 02.01.2020
5043 Haze -16 1007 77 8047 8.2 360 15:19 02.01.2020
5044 Haze -16 1007 71 8047 8.2 350 14:55 02.01.2020
5045 Haze -16 1007 71 8047 8.2 350 14:55 02.01.2020
5046 Haze -16 1007 71 8047 8.2 350 14:36 02.01.2020
5047 Haze -16 1007 71 8047 8.2 350 14:18 02.01.2020
5048 Snow -16 1007 71 8047 4.1 360 13:47 02.01.2020
5049 Snow -16 1007 71 8047 4.1 360 13:29 02.01.2020
5050 Snow -16 1007 77 4828 5.7 340 12:45 02.01.2020
5051 Snow -16 1006 71 2012 8.2 10 12:25 02.01.2020
5052 Snow -16 1006 71 2012 8.2 10 11:57 02.01.2020
5053 Snow -16 1006 71 2012 8.2 10 11:37 02.01.2020
5054 Snow -16 1006 71 2012 8.2 10 11:19 02.01.2020
5055 Clouds -16 1005 65 16093 8.2 10 10:43 02.01.2020
5056 Clouds -16 1005 65 16093 8.2 10 10:25 02.01.2020
5057 Clouds -16 1005 59 16093 4.1 360 09:46 02.01.2020
5058 Clouds -16 1005 59 16093 4.1 360 09:28 02.01.2020
5059 Clouds -16 1004 65 16093 4.6 10 08:45 02.01.2020
5060 Clouds -16 1004 65 16093 4.6 10 08:27 02.01.2020
5061 Clouds -17 1004 70 16093 4.1 310 07:51 02.01.2020
5062 Clouds -17 1004 70 16093 4.1 310 07:30 02.01.2020
5063 Snow -17 1003 70 6437 4.6 30 06:45 02.01.2020
5064 Snow -17 1003 70 6437 4.6 30 06:26 02.01.2020
5065 Snow -17 1002 70 2816 7.7 340 05:21 02.01.2020
5066 Snow -18 1002 77 8047 5.7 340 04:31 02.01.2020
5067 Snow -18 1001 70 2414 10.3 360 02:37 02.01.2020
5068 Snow -18 1001 64 4828 9.3 10 01:59 02.01.2020
5069 Snow -18 1001 64 4828 9.3 10 01:37 02.01.2020
5070 Clouds -19 1000 64 9656 13.4 360 00:57 02.01.2020
5071 Clouds -19 1000 64 9656 13.4 360 00:33 02.01.2020
5072 Clouds -19 1000 58 9656 13.9 360 23:52 01.01.2020
5073 Clouds -19 1000 58 9656 13.9 360 23:28 01.01.2020
5074 Clouds -19 1000 53 9656 14.9 350 22:59 01.01.2020
5075 Clouds -19 1000 53 9656 14.9 350 22:38 01.01.2020
5076 Clouds -19 1000 53 9656 14.9 350 22:19 01.01.2020
5077 Clouds -20 1000 58 14484 11.8 360 21:56 01.01.2020
5078 Clouds -20 1000 58 14484 11.8 360 21:37 01.01.2020
5079 Clouds -20 1000 58 14484 11.8 360 21:18 01.01.2020
5080 Clouds -21 1000 63 16093 14.4 350 20:54 01.01.2020
5081 Clouds -21 1000 63 16093 14.4 350 20:36 01.01.2020
5082 Clouds -21 1000 63 16093 14.4 350 20:18 01.01.2020
5083 Clouds -21 1000 58 16093 13.9 360 19:54 01.01.2020
5084 Clouds -21 1000 58 16093 13.9 360 19:54 01.01.2020
5085 Clouds -21 1000 58 16093 13.9 360 19:36 01.01.2020
5086 Clouds -21 1000 58 16093 13.9 360 19:18 01.01.2020
5087 Clear -21 1001 58 16093 8.2 350 18:54 01.01.2020
5088 Clear -21 1001 58 16093 8.2 350 18:36 01.01.2020
5089 Clear -21 1001 58 16093 8.2 350 18:18 01.01.2020
5090 Clouds -24 1005 87 0 5.14 313 17:55 01.01.2020
5091 Clouds -24 1005 87 0 5.14 313 17:36 01.01.2020
5092 Clouds -21 1001 58 16093 10.3 350 17:18 01.01.2020
5093 Clouds -21 1001 58 16093 10.3 350 16:39 01.01.2020
5094 Clouds -21 1001 58 16093 10.3 350 16:20 01.01.2020
5095 Haze -21 1001 58 9656 14.4 360 15:57 01.01.2020
5096 Haze -21 1001 58 9656 14.4 360 15:39 01.01.2020
5097 Haze -21 1001 58 9656 14.4 360 15:20 01.01.2020
5098 Clouds -21 1001 53 12874 12.9 360 14:56 01.01.2020
5099 Clouds -21 1001 53 12874 12.9 360 14:38 01.01.2020
5100 Clouds -21 1001 53 12874 12.9 360 14:20 01.01.2020
5101 Clouds -21 1002 58 16093 11.3 350 13:55 01.01.2020
5102 Clouds -21 1002 58 16093 11.3 350 13:37 01.01.2020
5103 Clouds -21 1002 58 16093 11.3 350 13:37 01.01.2020
5104 Clouds -21 1002 58 16093 11.3 350 13:18 01.01.2020
5105 Clouds -21 1002 58 12874 13.9 360 12:55 01.01.2020
5106 Clouds -21 1002 58 12874 13.9 360 12:37 01.01.2020
5107 Clouds -21 1002 58 12874 13.9 360 12:18 01.01.2020
5108 Haze -21 1002 63 4828 15.9 360 11:43 01.01.2020
5109 Haze -21 1002 63 4828 15.9 360 11:21 01.01.2020
5110 Clouds -21 1001 58 14484 8.7 340 10:58 01.01.2020
5111 Clouds -21 1001 58 14484 8.7 340 10:39 01.01.2020
5112 Clouds -21 1001 58 14484 8.7 340 10:20 01.01.2020
5113 Clouds -24 1005 89 0 7.94 308 09:55 01.01.2020
5114 Clouds -24 1005 89 0 7.94 308 09:36 01.01.2020
5115 Clouds -24 1005 89 0 7.94 308 09:36 01.01.2020
5116 Clouds -24 1005 89 0 7.94 308 09:18 01.01.2020
5117 Clouds -24 1005 89 0 7.94 308 08:54 01.01.2020
5118 Clouds -24 1005 89 0 7.94 308 08:36 01.01.2020
5119 Clouds -23 1005 88 0 7.84 315 08:18 01.01.2020
5120 Clouds -23 1005 87 0 8.85 316 07:43 01.01.2020
5121 Clouds -23 1005 87 0 8.85 316 07:24 01.01.2020
5122 Clouds -23 1005 87 0 8.85 316 06:44 01.01.2020
5123 Clouds -23 1005 87 0 8.85 316 06:19 01.01.2020
5124 Clouds -24 1004 89 0 7.79 309 04:38 01.01.2020
5125 Clouds -21 1001 58 16093 7.7 330 03:41 01.01.2020
5126 Clouds -24 1004 89 0 7.79 309 03:22 01.01.2020
5127 Clouds -24 1004 89 0 7.79 309 02:55 01.01.2020
5128 Clouds -24 1004 89 0 7.79 309 02:32 01.01.2020
5129 Clouds -22 1001 63 16093 9.8 350 01:45 01.01.2020
5130 Clouds -22 1001 63 16093 9.8 350 01:24 01.01.2020
5131 Clouds -22 1001 57 16093 7.2 340 00:57 01.01.2020
5132 Clouds -22 1001 57 16093 7.2 340 00:37 01.01.2020
5133 Clouds -22 1001 57 16093 7.2 340 00:19 01.01.2020
5134 Clouds -22 1001 57 16093 8.2 360 23:40 31.12.2019
5135 Clouds -22 1001 57 16093 8.2 360 23:21 31.12.2019
5136 Clouds -22 1001 63 16093 3.6 320 22:57 31.12.2019
5137 Clouds -22 1001 63 16093 3.6 320 22:38 31.12.2019
5138 Clouds -22 1001 63 16093 3.6 320 22:18 31.12.2019
5139 Clouds -22 1001 57 16093 1.5 150 21:54 31.12.2019
5140 Clouds -22 1001 57 16093 1.5 150 21:36 31.12.2019
5141 Clouds -22 1001 57 16093 1.5 150 21:18 31.12.2019
5142 Clear -22 1000 57 16093 3.6 330 20:40 31.12.2019
5143 Clear -22 1000 57 16093 3.6 330 20:21 31.12.2019
5144 Clear -22 1000 57 16093 3.1 290 19:59 31.12.2019
5145 Clear -22 1000 57 16093 3.1 290 19:40 31.12.2019
5146 Clear -22 1000 57 16093 3.1 290 19:22 31.12.2019
5147 Clear -22 1000 52 16093 5.7 350 18:57 31.12.2019
5148 Clear -22 1000 52 16093 5.7 350 18:39 31.12.2019
5149 Clear -22 1000 52 16093 5.7 350 18:19 31.12.2019
5150 Clear -23 999 57 16093 3.6 190 17:56 31.12.2019
5151 Clear -23 999 57 16093 3.6 190 17:37 31.12.2019
5152 Clear -23 999 57 16093 3.6 190 17:19 31.12.2019
5153 Clear -23 999 57 16093 3.6 190 17:19 31.12.2019
5154 Clear -22 998 52 16093 12.9 340 16:56 31.12.2019
5155 Clear -22 998 52 16093 12.9 340 16:37 31.12.2019
5156 Clear -22 998 52 16093 12.9 340 16:19 31.12.2019
5157 Clear -22 998 52 16093 6.7 330 15:56 31.12.2019
5158 Clear -22 998 52 16093 6.7 330 15:38 31.12.2019
5159 Clear -22 998 52 16093 6.7 330 15:20 31.12.2019
5160 Clear -22 998 52 16093 5.1 340 14:57 31.12.2019
5161 Clear -22 998 52 16093 5.1 340 14:38 31.12.2019
5162 Clear -22 998 52 16093 5.1 340 14:19 31.12.2019
5163 Clear -22 998 57 16093 9.3 360 13:56 31.12.2019
5164 Clear -22 998 57 16093 9.3 360 13:38 31.12.2019
5165 Clear -22 998 57 16093 9.3 360 13:20 31.12.2019
5166 Clear -22 997 52 16093 12.9 350 12:56 31.12.2019
5167 Clear -22 997 52 16093 12.9 350 12:56 31.12.2019
5168 Clear -22 997 52 16093 12.9 350 12:38 31.12.2019
5169 Clear -22 997 52 16093 12.9 350 12:19 31.12.2019
5170 Clear -22 997 52 16093 12.9 350 12:19 31.12.2019
5171 Haze -21 997 53 9656 13.9 350 11:56 31.12.2019
5172 Haze -21 997 53 9656 13.9 350 11:37 31.12.2019
5173 Haze -21 997 53 9656 13.9 350 11:19 31.12.2019
5174 Clear -22 996 57 11265 14.4 360 10:57 31.12.2019
5175 Clear -22 996 57 11265 14.4 360 10:57 31.12.2019
5176 Clear -22 996 57 11265 14.4 360 10:38 31.12.2019
5177 Clear -22 996 57 11265 14.4 360 10:19 31.12.2019
5178 Clear -22 996 57 8047 11.8 10 09:58 31.12.2019
5179 Clear -22 996 57 8047 11.8 10 09:39 31.12.2019
5180 Clear -22 996 57 8047 11.8 10 09:20 31.12.2019
5181 Clear -22 995 57 14484 14.9 360 08:57 31.12.2019
5182 Clear -22 995 57 14484 14.9 360 08:37 31.12.2019
5183 Clear -22 995 57 14484 14.9 360 08:18 31.12.2019
5184 Clear -22 995 57 16093 8.7 10 07:41 31.12.2019
5185 Clear -22 995 57 16093 8.7 10 07:19 31.12.2019
5186 Clear -22 994 57 16093 9.8 360 06:48 31.12.2019
5187 Clear -22 994 57 16093 7.2 350 05:54 31.12.2019
5188 Clear -22 993 57 16093 6.2 350 04:27 31.12.2019
5189 Clear -22 993 63 16093 7.7 350 03:27 31.12.2019
5190 Clear -21 992 58 12874 10.8 10 02:43 31.12.2019
5191 Clear -21 992 58 16093 8.7 350 01:55 31.12.2019
5192 Clear -21 992 58 16093 8.7 350 01:34 31.12.2019
5193 Clear -21 992 58 16093 10.3 10 00:58 31.12.2019
5194 Clear -21 992 58 16093 10.3 10 00:39 31.12.2019
5195 Clear -21 992 58 16093 10.3 10 00:21 31.12.2019
5196 Clear -21 991 58 16093 8.2 10 23:56 30.12.2019
5197 Clear -21 991 58 16093 8.2 10 23:37 30.12.2019
5198 Clear -21 991 58 16093 8.2 10 23:19 30.12.2019
5199 Clear -20 991 58 16093 7.2 10 22:56 30.12.2019
5200 Clear -20 991 58 16093 7.2 10 22:37 30.12.2019
5201 Clear -20 991 58 16093 7.2 10 22:37 30.12.2019
5202 Clear -20 991 58 16093 7.2 10 22:18 30.12.2019
5203 Clear -19 990 53 12874 11.3 20 21:56 30.12.2019
5204 Clear -19 990 53 12874 11.3 20 21:38 30.12.2019
5205 Clear -19 990 53 12874 11.3 20 21:18 30.12.2019
5206 Clear -19 990 64 8047 6.2 30 20:56 30.12.2019
5207 Clear -19 990 64 8047 6.2 30 20:37 30.12.2019
5208 Clear -19 990 64 8047 6.2 30 20:19 30.12.2019
5209 Clouds -19 988 70 8047 13.4 360 19:55 30.12.2019
5210 Clouds -19 988 70 8047 13.4 360 19:37 30.12.2019
5211 Clouds -19 988 70 8047 13.4 360 19:37 30.12.2019
5212 Clouds -19 988 70 8047 13.4 360 19:18 30.12.2019
5213 Clear -18 989 64 14484 7.7 10 18:56 30.12.2019
5214 Clear -18 989 64 14484 7.7 10 18:36 30.12.2019
5215 Clear -18 989 64 14484 7.7 10 18:18 30.12.2019
5216 Clear -17 988 59 16093 3.6 210 17:54 30.12.2019
5217 Clear -17 988 59 16093 3.6 210 17:36 30.12.2019
5218 Clear -17 988 59 16093 3.6 210 17:36 30.12.2019
5219 Clear -17 988 59 16093 3.6 210 17:18 30.12.2019
5220 Haze -17 988 64 6437 12.3 10 16:41 30.12.2019
5221 Haze -17 988 64 6437 12.3 10 16:41 30.12.2019
5222 Haze -17 988 64 6437 12.3 10 16:21 30.12.2019
5223 Clouds -16 988 54 16093 10.8 360 15:58 30.12.2019
5224 Clouds -16 988 54 16093 10.8 360 15:39 30.12.2019
5225 Clouds -16 988 54 16093 10.8 360 15:20 30.12.2019
5226 Clear -16 989 54 16093 7.7 20 14:56 30.12.2019
5227 Clear -16 989 54 16093 7.7 20 14:38 30.12.2019
5228 Clear -16 989 54 16093 7.7 20 14:18 30.12.2019
5229 Clear -16 990 59 16093 8.7 20 13:42 30.12.2019
5230 Clear -16 990 59 16093 8.7 20 13:24 30.12.2019
5231 Clear -16 990 59 16093 8.7 10 12:59 30.12.2019
5232 Clear -16 990 59 16093 8.7 10 12:41 30.12.2019
5233 Clear -16 990 59 16093 8.7 10 12:19 30.12.2019
5234 Clear -16 990 59 16093 6.7 360 11:58 30.12.2019
5235 Clear -16 990 59 16093 6.7 360 11:39 30.12.2019
5236 Clear -16 990 59 16093 6.7 360 11:18 30.12.2019
5237 Clouds -15 991 54 16093 7.2 320 10:43 30.12.2019
5238 Clouds -15 991 54 16093 7.2 320 10:21 30.12.2019
5239 Clear -16 991 54 16093 2.6 340 09:55 30.12.2019
5240 Clear -16 991 54 16093 2.6 340 09:37 30.12.2019
5241 Clear -16 991 54 16093 2.6 340 09:19 30.12.2019
5242 Clear -16 992 59 16093 6.7 360 08:49 30.12.2019
5243 Clear -16 992 59 16093 6.7 360 08:23 30.12.2019
5244 Clear -16 993 54 16093 6.7 340 07:55 30.12.2019
5245 Clear -16 993 54 16093 6.7 340 07:33 30.12.2019
5246 Clouds -16 993 45 16093 1.5 330 06:51 30.12.2019
5247 Clear -14 994 42 16093 1.5 20 04:56 30.12.2019
5248 Clear -15 995 50 16093 7.2 350 03:53 30.12.2019
5249 Clear -15 996 45 16093 5.1 340 02:56 30.12.2019
5250 Clear -15 996 45 16093 5.1 340 02:37 30.12.2019
5251 Clear -16 997 49 16093 5.1 20 01:50 30.12.2019
5252 Clear -16 997 49 16093 5.1 20 01:20 30.12.2019
5253 Clear -16 997 49 16093 4.6 330 00:44 30.12.2019
5254 Clear -16 997 49 16093 4.6 330 00:19 30.12.2019
5255 Clouds -16 998 49 16093 3.6 340 23:39 29.12.2019
5256 Clouds -16 998 49 16093 3.6 340 23:39 29.12.2019
5257 Clouds -16 998 49 16093 3.6 340 23:21 29.12.2019
5258 Clouds -16 999 49 16093 8.2 40 22:54 29.12.2019
5259 Clouds -16 999 49 16093 8.2 40 22:36 29.12.2019
5260 Clouds -16 999 49 16093 8.2 40 22:18 29.12.2019
5261 Clear -16 999 54 16093 11.3 30 21:42 29.12.2019
5262 Clear -16 999 54 16093 11.3 30 21:21 29.12.2019
5263 Clear -17 1000 54 16093 9.3 30 20:57 29.12.2019
5264 Clear -17 1000 54 16093 9.3 30 20:39 29.12.2019
5265 Clear -17 1000 54 16093 9.3 30 20:20 29.12.2019
5266 Clear -17 1000 54 16093 9.3 30 20:20 29.12.2019
5267 Clear -17 1000 54 16093 9.3 30 19:59 29.12.2019
5268 Clear -17 1000 54 16093 9.3 30 19:40 29.12.2019
5269 Clear -17 1000 54 16093 9.3 30 19:21 29.12.2019
5270 Clouds -17 1000 54 16093 11.3 40 18:58 29.12.2019
5271 Clouds -17 1000 54 16093 11.3 40 18:38 29.12.2019
5272 Clouds -17 1000 54 16093 11.3 40 18:20 29.12.2019
5273 Clouds -17 1001 54 11265 12.3 40 17:58 29.12.2019
5274 Clouds -17 1001 54 11265 12.3 40 17:39 29.12.2019
5275 Clouds -17 1001 54 11265 12.3 40 17:20 29.12.2019
5276 Clouds -17 1002 64 2414 14.9 30 16:56 29.12.2019
5277 Clouds -17 1002 64 2414 14.9 30 16:37 29.12.2019
5278 -273 0 0 0 0 0 16:37 29.12.2019
5279 Clouds -17 1002 64 2414 14.9 30 16:19 29.12.2019
5280 Clouds -18 1003 59 8047 10.3 40 15:57 29.12.2019
5281 Clouds -18 1003 59 8047 10.3 40 15:39 29.12.2019
5282 Clouds -18 1003 59 8047 10.3 40 15:20 29.12.2019
5283 Clear -18 1003 64 2414 14.9 30 14:58 29.12.2019
5284 Clear -18 1003 64 2414 14.9 30 14:38 29.12.2019
5285 Clear -18 1003 64 2414 14.9 30 14:18 29.12.2019
5286 Clear -18 1004 59 6437 12.9 40 13:57 29.12.2019
5287 Clear -18 1004 59 6437 12.9 40 13:38 29.12.2019
5288 Clear -18 1004 59 6437 12.9 40 13:19 29.12.2019
5289 Clear -18 1004 54 12874 10.3 20 12:45 29.12.2019
5290 Clear -18 1004 54 12874 10.3 20 12:27 29.12.2019
5291 Clear -19 1006 49 16093 7.7 30 11:58 29.12.2019
5292 Clear -19 1006 49 16093 7.7 30 11:40 29.12.2019
5293 Clear -19 1006 49 16093 7.7 30 11:20 29.12.2019
5294 Clear -20 1007 53 16093 7.7 10 10:55 29.12.2019
5295 Clear -20 1007 53 16093 7.7 10 10:37 29.12.2019
5296 Clear -20 1007 53 16093 7.7 10 10:18 29.12.2019
5297 Clear -19 1007 49 16093 7.7 10 09:41 29.12.2019
5298 Clear -19 1007 49 16093 7.7 10 09:22 29.12.2019
5299 Haze -19 1008 53 9656 10.8 30 08:48 29.12.2019
5300 Haze -19 1008 53 9656 10.8 30 08:28 29.12.2019
5301 Clear -20 1008 48 16093 7.2 10 07:58 29.12.2019
5302 Clear -20 1008 48 16093 7.2 10 07:31 29.12.2019
5303 Clear -21 1009 53 16093 3.1 350 06:57 29.12.2019
5304 Clear -21 1009 53 16093 3.1 350 06:26 29.12.2019
5305 Clear -21 1009 53 16093 5.7 350 05:54 29.12.2019
5306 Clear -22 1010 52 16093 6.2 330 04:37 29.12.2019
5307 Clear -21 1011 48 16093 7.7 330 03:59 29.12.2019
5308 Clear -21 1011 48 16093 7.7 330 03:21 29.12.2019
5309 Clear -22 1012 52 16093 2.1 10 02:21 29.12.2019
5310 Clear -22 1012 52 16093 4.6 50 01:42 29.12.2019
5311 Clear -22 1012 52 16093 4.6 50 01:22 29.12.2019
5312 Clear -21 1012 53 16093 4.6 20 00:42 29.12.2019
5313 Clear -21 1012 53 16093 4.6 20 00:23 29.12.2019
5314 Clear -21 1011 48 16093 7.2 20 23:45 28.12.2019
5315 Clear -21 1011 48 16093 7.2 20 23:18 28.12.2019
5316 Clear -22 1012 52 16093 1.5 20 22:40 28.12.2019
5317 Clear -22 1012 52 16093 1.5 20 22:21 28.12.2019
5318 Clear -23 1012 52 16093 2.6 70 21:59 28.12.2019
5319 Clear -23 1012 52 16093 2.6 70 21:40 28.12.2019
5320 Clear -23 1012 52 16093 2.6 70 21:22 28.12.2019
5321 Clear -21 1012 39 16093 4.1 90 20:59 28.12.2019
5322 Clear -21 1012 39 16093 4.1 90 20:38 28.12.2019
5323 Clear -21 1012 39 16093 4.1 90 20:20 28.12.2019
5324 Clear -22 1012 43 16093 4.6 10 19:58 28.12.2019
5325 Clear -22 1012 43 16093 4.6 10 19:39 28.12.2019
5326 Clear -22 1012 43 16093 4.6 10 19:21 28.12.2019
5327 Clear -22 1012 43 16093 4.6 360 18:58 28.12.2019
5328 Clear -22 1012 43 16093 4.6 360 18:40 28.12.2019
5329 Clear -22 1012 43 16093 4.6 360 18:19 28.12.2019
5330 Clear -22 1013 48 16093 2.1 40 17:55 28.12.2019
5331 Clear -22 1013 48 16093 2.1 40 17:55 28.12.2019
5332 Clear -22 1013 48 16093 2.1 40 17:37 28.12.2019
5333 Clear -22 1013 48 16093 2.1 40 17:18 28.12.2019
5334 Clear -22 1013 48 16093 2.1 40 17:18 28.12.2019
5335 Clear -22 1013 52 16093 6.2 340 16:46 28.12.2019
5336 Clear -22 1013 52 16093 6.2 340 16:26 28.12.2019
5337 Clear -22 1013 52 16093 6.2 340 16:26 28.12.2019
5338 Clear -22 1013 52 16093 6.2 340 16:26 28.12.2019
5339 Clear -22 1013 52 16093 6.2 340 15:47 28.12.2019
5340 Clear -22 1013 52 16093 6.2 340 15:25 28.12.2019
5341 Clear -22 1013 52 16093 3.1 340 14:59 28.12.2019
5342 Clear -22 1013 52 16093 3.1 340 14:40 28.12.2019
5343 Clear -22 1013 52 16093 3.1 340 14:21 28.12.2019
5344 Clear -21 1013 48 16093 5.7 350 13:56 28.12.2019
5345 Clear -21 1013 48 16093 5.7 350 13:37 28.12.2019
5346 Clear -21 1013 48 16093 5.7 350 13:18 28.12.2019
5347 Clear -21 1013 53 16093 7.2 360 12:43 28.12.2019
5348 Clear -21 1013 53 16093 7.2 360 12:43 28.12.2019
5349 Clear -21 1013 53 16093 7.2 360 12:24 28.12.2019
5350 Clear -21 1014 53 16093 3.6 10 11:56 28.12.2019
5351 Clear -21 1014 53 16093 3.6 10 11:56 28.12.2019
5352 Clear -21 1014 53 16093 3.6 10 11:38 28.12.2019
5353 Clear -21 1014 53 16093 3.6 10 11:19 28.12.2019
5354 Clear -21 1014 53 16093 3.6 10 11:19 28.12.2019
5355 Clear -21 1014 53 16093 3.6 350 10:44 28.12.2019
5356 Clear -21 1014 53 16093 3.6 350 10:22 28.12.2019
5357 Clear -20 1015 53 16093 2.1 320 09:57 28.12.2019
5358 Clear -20 1015 53 16093 2.1 320 09:39 28.12.2019
5359 Clear -20 1015 53 16093 2.1 320 09:19 28.12.2019
5360 Clear -20 1015 58 16093 6.7 10 08:44 28.12.2019
5361 Clear -20 1015 58 16093 6.7 10 08:26 28.12.2019
5362 Clear -19 1016 64 16093 5.7 20 07:53 28.12.2019
5363 Clear -19 1016 64 16093 5.7 20 07:30 28.12.2019
5364 Clear -18 1016 59 16093 1.5 0 06:27 28.12.2019
5365 Clear -19 1016 64 16093 7.2 350 04:36 28.12.2019
5366 Clear -19 1017 58 16093 3.1 310 03:39 28.12.2019
5367 Clouds -19 1017 58 16093 3.1 50 02:48 28.12.2019
5368 Clouds -18 1018 49 16093 4.1 350 01:59 28.12.2019
5369 Clouds -18 1018 49 16093 4.1 350 01:30 28.12.2019
5370 Clouds -19 1018 53 16093 3.1 40 00:55 28.12.2019
5371 Clouds -19 1018 53 16093 3.1 40 00:37 28.12.2019
5372 Clouds -19 1018 53 16093 3.1 40 00:19 28.12.2019
5373 Clouds -19 1018 58 16093 4.1 40 23:43 27.12.2019
5374 Clouds -19 1018 58 16093 4.1 40 23:20 27.12.2019
5375 Clouds -21 1019 63 16093 3.08 344 22:57 27.12.2019
5376 Clouds -21 1019 63 16093 3.08 344 22:38 27.12.2019
5377 Clouds -21 1019 63 16093 3.08 344 22:20 27.12.2019
5378 Clouds -23 1018 63 16093 2.1 20 21:55 27.12.2019
5379 Clouds -23 1018 63 16093 2.1 20 21:37 27.12.2019
5380 Clouds -23 1018 63 16093 2.1 20 21:18 27.12.2019
5381 Clouds -22 1018 63 16093 3.08 344 20:41 27.12.2019
5382 Clouds -22 1018 63 16093 2.51 340 20:22 27.12.2019
5383 Clouds -21 1018 58 16093 1.5 30 19:43 27.12.2019
5384 Clouds -21 1018 58 16093 1.5 30 19:21 27.12.2019
5385 Clouds -20 1018 58 16093 2.51 340 18:59 27.12.2019
5386 Clouds -20 1018 58 16093 2.51 340 18:39 27.12.2019
5387 Clouds -20 1018 58 16093 2.51 340 18:21 27.12.2019
5388 Clear -19 1018 58 16093 1.5 190 17:58 27.12.2019
5389 Clear -19 1018 58 16093 1.5 190 17:39 27.12.2019
5390 Clear -19 1018 58 16093 1.5 190 17:19 27.12.2019
5391 Clear -18 1019 49 16093 6.2 350 16:58 27.12.2019
5392 Clear -18 1019 49 16093 6.2 350 16:38 27.12.2019
5393 Clear -18 1019 49 16093 6.2 350 16:19 27.12.2019
5394 Clear -19 1018 53 16093 9.3 360 15:45 27.12.2019
5395 Clear -19 1018 53 16093 9.3 360 15:22 27.12.2019
5396 Clear -20 1019 53 16093 7.7 10 14:58 27.12.2019
5397 Clear -20 1019 53 16093 7.7 10 14:39 27.12.2019
5398 Clear -20 1019 53 16093 7.7 10 14:20 27.12.2019
5399 Clear -19 1019 49 16093 2.1 340 13:55 27.12.2019
5400 Clear -19 1019 49 16093 2.1 340 13:37 27.12.2019
5401 Clear -19 1019 49 16093 2.1 340 13:18 27.12.2019
5402 Clear -20 1020 53 16093 2.6 350 12:40 27.12.2019
5403 Clear -20 1020 53 16093 2.6 350 12:22 27.12.2019
5404 Clear -19 1020 53 16093 6.2 90 11:46 27.12.2019
5405 Clear -19 1020 53 16093 6.2 90 11:26 27.12.2019
5406 Clear -20 1020 58 16093 4.6 350 10:59 27.12.2019
5407 Clear -20 1020 58 16093 4.6 350 10:40 27.12.2019
5408 Clear -20 1020 58 16093 4.6 350 10:22 27.12.2019
5409 Clear -24 1019 63 16093 3.6 10 09:46 27.12.2019
5410 Clear -24 1019 63 16093 3.6 10 09:22 27.12.2019
5411 Clear -23 1019 63 16093 2.1 120 08:59 27.12.2019
5412 Clear -23 1019 63 16093 2.1 120 08:37 27.12.2019
5413 Clear -23 1019 69 16093 3.1 350 07:53 27.12.2019
5414 Clear -23 1019 69 16093 3.1 350 07:34 27.12.2019
5415 Clear -22 1019 63 16093 2.6 330 06:39 27.12.2019
5416 Clear -23 1019 69 16093 3.1 10 05:52 27.12.2019
5417 Clear -23 1019 63 16093 4.1 350 03:47 27.12.2019
5418 Clear -23 1019 63 16093 2.6 360 02:25 27.12.2019
5419 Clear -22 1019 57 16093 3.6 320 01:42 27.12.2019
5420 Clear -22 1019 57 16093 3.6 320 01:20 27.12.2019
5421 Clear -23 1019 63 16093 1.5 20 00:46 27.12.2019
5422 Clear -23 1019 63 16093 1.5 20 00:24 27.12.2019
5423 Clear -23 1019 63 16093 1.5 20 00:24 27.12.2019
5424 Clear -23 1019 63 16093 2.1 20 23:42 26.12.2019
5425 Clear -23 1019 63 16093 2.1 20 23:24 26.12.2019
5426 Clear -22 1018 57 16093 1.5 0 22:58 26.12.2019
5427 Clear -22 1018 57 16093 1.5 0 22:37 26.12.2019
5428 Clear -22 1018 57 16093 1.5 0 22:18 26.12.2019
5429 Clear -23 1017 63 16093 7.2 360 21:39 26.12.2019
5430 Clear -23 1017 63 16093 7.2 360 21:39 26.12.2019
5431 Clear -23 1017 63 16093 7.2 360 21:21 26.12.2019
5432 Clear -22 1017 57 16093 7.7 350 20:54 26.12.2019
5433 Clear -22 1017 57 16093 7.7 350 20:36 26.12.2019
5434 Clear -22 1017 57 16093 7.7 350 20:18 26.12.2019
5435 Clear -22 1017 57 16093 7.7 350 20:18 26.12.2019
5436 Clear -21 1017 53 16093 5.1 340 19:54 26.12.2019
5437 Clear -21 1017 53 16093 5.1 340 19:36 26.12.2019
5438 Clear -21 1017 53 16093 5.1 340 19:18 26.12.2019
5439 Clear -22 1016 57 16093 5.1 360 18:55 26.12.2019
5440 Clear -22 1016 57 16093 5.1 360 18:36 26.12.2019
5441 Clear -22 1016 57 16093 5.1 360 18:18 26.12.2019
5442 Clear -23 1015 63 16093 3.53 0 17:40 26.12.2019
5443 Clear -23 1015 63 16093 3.19 356 17:20 26.12.2019
5444 Clear -22 1015 57 16093 4.1 340 16:48 26.12.2019
5445 Clear -22 1015 57 16093 4.1 340 16:26 26.12.2019
5446 Clear -24 1014 69 16093 2.6 350 15:57 26.12.2019
5447 Clear -24 1014 69 16093 2.6 350 15:38 26.12.2019
5448 Clear -24 1014 69 16093 2.6 350 15:19 26.12.2019
5449 Clear -24 1014 69 16093 2.6 350 15:19 26.12.2019
5450 Clear -22 1014 57 16093 4.1 360 14:41 26.12.2019
5451 Clear -22 1014 57 16093 4.1 360 14:23 26.12.2019
5452 Clear -22 1014 57 16093 4.1 360 14:23 26.12.2019
5453 Clear -22 1014 57 16093 4.1 360 14:23 26.12.2019
5454 Clear -22 1013 63 16093 2.61 351 13:45 26.12.2019
5455 Clear -22 1013 63 16093 2.61 351 13:24 26.12.2019
5456 Clear -20 1013 58 16093 4.1 350 12:59 26.12.2019
5457 Clear -20 1013 58 16093 4.1 350 12:41 26.12.2019
5458 Clear -20 1013 58 16093 4.1 350 12:23 26.12.2019
5459 Clear -22 1012 69 16093 2.6 10 11:58 26.12.2019
5460 Clear -22 1012 69 16093 2.6 10 11:40 26.12.2019
5461 Clear -22 1012 69 16093 2.6 10 11:21 26.12.2019
5462 Clear -21 1012 63 16093 2.6 350 10:50 26.12.2019
5463 Clear -21 1012 63 16093 2.6 350 10:25 26.12.2019
5464 Clear -19 1011 58 16093 4.6 300 09:54 26.12.2019
5465 Clear -19 1011 58 16093 4.6 300 09:33 26.12.2019
5466 Clear -22 1011 69 16093 4.6 310 08:58 26.12.2019
5467 Clear -22 1011 69 16093 4.6 310 08:39 26.12.2019
5468 Clear -22 1011 69 16093 4.6 310 08:20 26.12.2019
5469 Clear -23 1010 69 16093 3.1 280 07:38 26.12.2019
5470 Clear -23 1010 69 16093 3.1 280 07:19 26.12.2019
5471 Clear -23 1009 69 16093 1.5 40 06:37 26.12.2019
5472 Clear -23 1009 69 16093 1.5 40 06:19 26.12.2019
5473 Clear -22 1009 63 16093 1.93 354 05:40 26.12.2019
5474 Clear -24 1009 76 16093 2.16 0 04:33 26.12.2019
5475 Clear -26 1008 75 16093 2.1 10 03:31 26.12.2019
5476 Clear -24 1008 69 16093 2.16 0 02:46 26.12.2019
5477 Clear -24 1008 69 16093 2.16 0 02:25 26.12.2019
5478 Clear -27 1007 75 16093 1.5 10 01:44 26.12.2019
5479 Clear -27 1007 75 16093 1.5 10 01:24 26.12.2019
5480 Clear -27 1007 75 16093 3.1 360 00:44 26.12.2019
5481 Clear -27 1007 75 16093 3.1 360 00:23 26.12.2019
5482 Clear -26 1007 75 16093 2.45 0 23:57 25.12.2019
5483 Clear -26 1007 75 16093 2.45 0 23:37 25.12.2019
5484 Clear -26 1007 75 16093 2.84 358 23:18 25.12.2019
5485 Clear -26 1006 62 16093 2.1 30 22:56 25.12.2019
5486 Clear -26 1006 62 16093 2.1 30 22:37 25.12.2019
5487 Clear -26 1006 62 16093 2.1 30 22:18 25.12.2019
5488 Clear -24 1006 69 16093 2.84 358 21:55 25.12.2019
5489 Clear -24 1006 69 16093 2.84 358 21:55 25.12.2019
5490 Clear -24 1006 69 16093 2.84 358 21:37 25.12.2019
5491 Clear -24 1006 69 16093 2.84 358 21:18 25.12.2019
5492 Clear -26 1005 75 16093 1.5 360 20:40 25.12.2019
5493 Clear -26 1005 75 16093 1.5 360 20:21 25.12.2019
5494 Clear -26 1005 68 16093 1.5 360 19:59 25.12.2019
5495 Clear -26 1005 68 16093 1.5 360 19:41 25.12.2019
5496 Clear -26 1005 68 16093 1.5 360 19:21 25.12.2019
5497 Clear -26 1005 75 16093 2.26 357 18:40 25.12.2019
5498 Clear -26 1005 75 16093 2.26 357 18:21 25.12.2019
5499 Clear -26 1005 75 16093 2.26 357 18:21 25.12.2019
5500 Clear -25 1004 69 16093 3.1 30 17:57 25.12.2019
5501 Clear -25 1004 69 16093 3.1 30 17:39 25.12.2019
5502 Clear -25 1004 69 16093 3.1 30 17:18 25.12.2019
5503 Clear -26 1004 75 16093 2 20 16:54 25.12.2019
5504 Clear -26 1004 75 16093 2 20 16:36 25.12.2019
5505 Clear -26 1004 75 16093 2 20 16:18 25.12.2019
5506 Clear -27 1004 82 16093 2 20 15:55 25.12.2019
5507 Clear -27 1004 82 16093 2 20 15:36 25.12.2019
5508 Clear -27 1004 82 16093 2 20 15:18 25.12.2019
5509 Clear -27 1004 82 16093 2 20 14:42 25.12.2019
5510 Clear -27 1004 82 16093 2 20 14:23 25.12.2019
5511 Clear -26 1004 68 16093 1.91 8 13:58 25.12.2019
5512 Clear -26 1004 68 16093 1.91 8 13:39 25.12.2019
5513 Clear -26 1004 68 16093 1.82 5 13:20 25.12.2019
5514 Clear -25 1004 69 16093 2.1 30 12:43 25.12.2019
5515 Clear -25 1004 69 16093 2.1 30 12:22 25.12.2019
5516 Clear -26 1004 75 16093 1.82 5 11:58 25.12.2019
5517 Clear -26 1004 75 16093 1.82 5 11:40 25.12.2019
5518 Clear -26 1004 75 16093 1.64 22 11:20 25.12.2019
5519 Clear -27 1004 68 16093 1.5 0 10:39 25.12.2019
5520 Clear -27 1004 68 16093 1.5 0 10:21 25.12.2019
5521 Clear -26 1004 75 16093 1.5 330 09:52 25.12.2019
5522 Clear -26 1004 75 16093 1.5 330 09:34 25.12.2019
5523 Clear -26 1004 75 16093 1.64 22 08:56 25.12.2019
5524 Clear -26 1004 75 16093 1.64 22 08:38 25.12.2019
5525 Clear -26 1004 75 16093 1.74 26 08:19 25.12.2019
5526 Clear -26 1003 75 16093 1.74 26 07:42 25.12.2019
5527 Clear -26 1003 75 16093 1.74 26 07:22 25.12.2019
5528 Clear -26 1004 75 16093 1.74 26 06:24 25.12.2019
5529 Clear -25 1004 69 16093 1.74 26 05:49 25.12.2019
5530 Clear -24 1003 69 16093 1.35 18 04:42 25.12.2019
5531 Clear -24 1003 69 16093 1.35 18 04:24 25.12.2019
5532 Clear -23 1004 69 16093 1.35 18 03:43 25.12.2019
5533 Clear -23 1004 69 16093 1.35 18 02:58 25.12.2019
5534 Clear -23 1004 69 16093 1.35 18 02:29 25.12.2019
5535 Clear -23 1004 76 16093 2.24 28 01:44 25.12.2019
5536 Clear -24 1004 76 16093 2.11 31 01:19 25.12.2019
5537 Clear -23 1004 69 16093 2.11 31 00:42 25.12.2019
5538 Clear -22 1004 69 16093 2.11 31 00:23 25.12.2019
5539 Clear -26 1004 83 16093 1.5 20 23:40 24.12.2019
5540 Clear -24 1004 83 16093 1.5 20 23:20 24.12.2019
5541 Clear -25 1003 75 16093 1.52 31 22:55 24.12.2019
5542 Clear -25 1003 75 16093 1.52 31 22:37 24.12.2019
5543 Clear -25 1003 75 16093 1.52 31 22:19 24.12.2019
5544 Clear -24 1003 69 16093 1.5 330 21:41 24.12.2019
5545 Clear -24 1003 69 16093 1.5 330 21:20 24.12.2019
5546 Clear -24 1002 76 16093 1.52 31 20:43 24.12.2019
5547 Clear -24 1002 76 16093 1.78 32 20:23 24.12.2019
5548 Clear -24 1002 76 16093 2.6 40 19:56 24.12.2019
5549 Clear -24 1002 76 16093 2.6 40 19:37 24.12.2019
5550 Clear -24 1002 76 16093 2.6 40 19:18 24.12.2019
5551 Clear -23 1002 76 16093 3.6 20 18:42 24.12.2019
5552 Clear -24 1002 76 16093 3.6 20 18:19 24.12.2019
5553 Clear -22 1001 69 16093 2.12 30 17:44 24.12.2019
5554 Clear -22 1001 69 16093 2.12 30 17:22 24.12.2019
5555 Clear -21 1001 63 16093 2.3 23 16:58 24.12.2019
5556 Clear -21 1001 63 16093 2.3 23 16:40 24.12.2019
5557 Clear -21 1001 63 16093 2.3 23 16:21 24.12.2019
5558 Clear -21 1001 63 16093 2.3 23 16:21 24.12.2019
5559 Clear -21 1001 63 16093 3.1 300 15:58 24.12.2019
5560 Clear -21 1001 63 16093 3.1 300 15:58 24.12.2019
5561 Clear -21 1001 63 16093 3.1 300 15:37 24.12.2019
5562 Clear -21 1001 63 16093 3.1 300 15:19 24.12.2019
5563 Clear -19 1000 64 16093 3.6 350 14:58 24.12.2019
5564 Clear -19 1000 64 16093 3.6 350 14:58 24.12.2019
5565 Clear -19 1000 64 16093 3.6 350 14:40 24.12.2019
5566 Clear -19 1000 64 16093 3.6 350 14:40 24.12.2019
5567 Clear -19 1000 64 16093 3.6 350 14:22 24.12.2019
5568 Clear -21 1000 63 16093 2.6 40 13:56 24.12.2019
5569 Clear -21 1000 63 16093 2.6 40 13:38 24.12.2019
5570 Clear -21 1000 63 16093 2.6 40 13:20 24.12.2019
5571 Clear -21 999 63 16093 3.1 350 12:56 24.12.2019
5572 Clear -21 999 63 16093 3.1 350 12:38 24.12.2019
5573 Clear -21 999 63 16093 3.1 350 12:19 24.12.2019
5574 Clear -21 999 63 16093 2.25 14 11:56 24.12.2019
5575 Clear -21 999 63 16093 2.25 14 11:37 24.12.2019
5576 Clear -20 999 63 16093 2.66 6 11:19 24.12.2019
5577 Clear -19 998 64 16093 1.5 0 10:56 24.12.2019
5578 Clear -19 998 64 16093 1.5 0 10:38 24.12.2019
5579 Clear -19 998 64 16093 1.5 0 10:19 24.12.2019
5580 Clear -19 998 64 16093 1.5 0 10:19 24.12.2019
5581 Clear -19 998 64 16093 5.1 350 09:55 24.12.2019
5582 Clear -19 998 64 16093 5.1 350 09:37 24.12.2019
5583 Clear -19 998 64 16093 5.1 350 09:19 24.12.2019
5584 Clear -17 997 59 16093 4.6 350 08:46 24.12.2019
5585 Clear -17 997 59 16093 4.6 350 08:24 24.12.2019
5586 Clear -18 997 64 16093 5.1 340 07:54 24.12.2019
5587 Clear -18 997 64 16093 5.1 340 07:36 24.12.2019
5588 Clear -18 997 64 16093 5.1 340 07:18 24.12.2019
5589 Clear -17 997 64 16093 5.7 330 06:39 24.12.2019
5590 Clear -17 997 64 16093 5.7 330 06:19 24.12.2019
5591 Clear -16 997 65 16093 7.2 10 05:49 24.12.2019
5592 Clear -16 997 65 16093 7.2 10 05:19 24.12.2019
5593 Clear -16 996 65 16093 5.1 360 04:21 24.12.2019
5594 Clear -14 996 55 16093 7.7 10 03:45 24.12.2019
5595 Clear -14 996 55 16093 5.1 350 02:28 24.12.2019
5596 Clear -16 995 65 16093 3.8 1 01:53 24.12.2019
5597 Clear -16 995 65 16093 3.8 1 01:23 24.12.2019
5598 Clear -12 995 46 16093 6.2 340 00:56 24.12.2019
5599 Clear -12 995 46 16093 6.2 340 00:37 24.12.2019
5600 Clear -12 995 46 16093 6.2 340 00:19 24.12.2019
5601 Clear -15 995 54 16093 1.5 320 23:42 23.12.2019
5602 Clear -15 995 54 16093 1.5 320 23:23 23.12.2019
5603 Clear -15 995 60 16093 2.6 20 22:56 23.12.2019
5604 Clear -15 995 60 16093 2.6 20 22:38 23.12.2019
5605 Clear -15 995 60 16093 2.6 20 22:19 23.12.2019
5606 Clear -14 995 55 16093 3.6 20 21:56 23.12.2019
5607 Clear -14 995 55 16093 3.6 20 21:37 23.12.2019
5608 Clear -14 995 55 16093 3.6 20 21:19 23.12.2019
5609 Clear -14 994 60 16093 1.5 80 20:58 23.12.2019
5610 Clear -14 994 60 16093 1.5 80 20:40 23.12.2019
5611 Clear -14 994 60 16093 1.5 80 20:19 23.12.2019
5612 Clear -14 994 60 16093 1.5 80 20:19 23.12.2019
5613 Clear -13 994 60 16093 6.7 360 19:57 23.12.2019
5614 Clear -13 994 60 16093 6.7 360 19:38 23.12.2019
5615 Clear -13 994 60 16093 6.7 360 19:20 23.12.2019
5616 Clear -13 994 60 16093 9.3 360 18:58 23.12.2019
5617 Clear -13 994 60 16093 9.3 360 18:58 23.12.2019
5618 Clear -13 994 60 16093 9.3 360 18:39 23.12.2019
5619 Clear -13 994 60 16093 9.3 360 18:20 23.12.2019
5620 Clear -13 994 60 16093 9.3 360 18:20 23.12.2019
5621 Clear -13 993 60 16093 8.7 10 17:58 23.12.2019
5622 Clear -13 993 60 16093 8.7 10 17:39 23.12.2019
5623 Clear -13 993 60 16093 8.7 10 17:19 23.12.2019
5624 Clear -13 994 65 8047 9.8 10 16:57 23.12.2019
5625 Clear -13 994 65 8047 9.8 10 16:39 23.12.2019
5626 Clear -13 994 65 8047 9.8 10 16:18 23.12.2019
5627 Clear -14 994 65 11265 8.7 10 15:57 23.12.2019
5628 Clear -14 994 65 11265 8.7 10 15:37 23.12.2019
5629 Clear -14 994 65 11265 8.7 10 15:19 23.12.2019
5630 Clear -14 994 65 12874 9.8 10 14:56 23.12.2019
5631 Clear -14 994 65 12874 9.8 10 14:56 23.12.2019
5632 Clear -14 994 65 12874 9.8 10 14:38 23.12.2019
5633 Clear -14 994 65 12874 9.8 10 14:18 23.12.2019
5634 Clear -13 994 65 14484 9.3 10 13:56 23.12.2019
5635 Clear -13 994 65 14484 9.3 10 13:37 23.12.2019
5636 Clear -13 994 65 14484 9.3 10 13:19 23.12.2019
5637 Clear -13 994 65 11265 9.8 20 12:54 23.12.2019
5638 Clear -13 994 65 11265 9.8 20 12:36 23.12.2019
5639 Clear -13 994 65 11265 9.8 20 12:18 23.12.2019
5640 Clear -12 995 55 16093 3.63 8 11:42 23.12.2019
5641 -273 0 0 0 0 0 11:22 23.12.2019
5642 Clear -13 995 65 16093 2.6 20 10:56 23.12.2019
5643 Clear -13 995 65 16093 2.6 20 10:37 23.12.2019
5644 Clear -13 995 65 16093 2.6 20 10:18 23.12.2019
5645 Clear -13 995 65 16093 2.6 20 10:18 23.12.2019
5646 Clear -12 995 60 16093 4.6 360 09:56 23.12.2019
5647 Clear -12 995 60 16093 4.6 360 09:37 23.12.2019
5648 Clear -12 995 60 16093 4.6 360 09:19 23.12.2019
5649 Clear -12 995 60 16093 8.2 360 08:41 23.12.2019
5650 Clear -12 995 60 16093 8.2 360 08:22 23.12.2019
5651 Clear -12 996 60 16093 6.7 10 07:56 23.12.2019
5652 Clear -12 996 60 16093 6.7 10 07:38 23.12.2019
5653 Clear -12 996 60 16093 6.7 10 07:18 23.12.2019
5654 Clear -13 996 60 16093 5.7 330 06:39 23.12.2019
5655 Clear -13 996 60 16093 5.7 330 06:21 23.12.2019
5656 Clear -13 996 65 16093 5.7 350 05:45 23.12.2019
5657 Clear -12 996 66 16093 5.1 10 04:44 23.12.2019
5658 Clear -13 997 71 16093 5.1 10 03:58 23.12.2019
5659 Clear -14 997 77 16093 5.1 350 02:47 23.12.2019
5660 Clear -14 997 77 16093 5.1 350 02:20 23.12.2019
5661 Clear -13 997 78 16093 4.1 10 01:51 23.12.2019
5662 Clear -13 997 78 16093 4.1 10 01:32 23.12.2019
5663 Clouds -20 998 83 11265 4.34 16 00:49 23.12.2019
5664 Clouds -20 998 83 11265 4.34 16 00:30 23.12.2019
5665 Clouds -19 998 84 11265 4.34 16 23:57 22.12.2019
5666 Clouds -19 998 84 11265 4.34 16 23:38 22.12.2019
5667 Clouds -19 998 84 11265 3.86 17 23:20 22.12.2019
5668 Mist -18 999 77 1609 1.5 230 22:56 22.12.2019
5669 Mist -18 999 77 1609 1.5 230 22:38 22.12.2019
5670 Mist -18 999 77 1609 1.5 230 22:19 22.12.2019
5671 Clouds -20 999 76 12874 2.1 180 21:56 22.12.2019
5672 Clouds -20 999 76 12874 2.1 180 21:38 22.12.2019
5673 Clouds -20 999 76 12874 2.1 180 21:20 22.12.2019
5674 Clear -22 999 83 16093 3.86 17 20:41 22.12.2019
5675 Clear -22 999 83 16093 2.98 28 20:19 22.12.2019
5676 Clouds -22 1000 83 16093 2.98 28 19:58 22.12.2019
5677 Clouds -22 1000 83 16093 2.98 28 19:39 22.12.2019
5678 Clouds -22 1000 83 16093 2.98 28 19:20 22.12.2019
5679 Clouds -22 1000 91 16093 2.98 28 18:55 22.12.2019
5680 Clouds -22 1000 91 16093 2.98 28 18:37 22.12.2019
5681 Clouds -22 1000 91 16093 2.98 28 18:18 22.12.2019
5682 Clouds -22 1001 91 16093 2.1 10 17:54 22.12.2019
5683 Clouds -22 1001 91 16093 2.1 10 17:36 22.12.2019
5684 Clouds -22 1001 91 16093 2.1 10 17:18 22.12.2019
5685 Mist -17 1001 91 1609 1.5 50 16:42 22.12.2019
5686 Mist -17 1001 91 1609 1.5 50 16:42 22.12.2019
5687 Mist -17 1001 91 1609 1.5 50 16:23 22.12.2019
5688 Mist -15 1002 84 1207 2.1 30 15:57 22.12.2019
5689 Mist -15 1002 84 1207 2.1 30 15:39 22.12.2019
5690 Mist -15 1002 84 1207 2.1 30 15:21 22.12.2019
5691 Mist -14 1002 100 1207 2.1 50 14:57 22.12.2019
5692 Mist -14 1002 100 1207 2.1 50 14:38 22.12.2019
5693 Mist -14 1002 100 1207 2.1 50 14:19 22.12.2019
5694 Mist -13 1003 92 1207 2.6 40 13:56 22.12.2019
5695 Mist -13 1003 92 1207 2.6 40 13:38 22.12.2019
5696 Mist -13 1003 92 1207 2.6 40 13:19 22.12.2019
5697 Mist -12 1004 92 1609 2.1 350 12:57 22.12.2019
5698 Mist -12 1004 92 1609 2.1 350 12:38 22.12.2019
5699 Mist -12 1004 92 1609 2.1 350 12:19 22.12.2019
5700 Clouds -12 1004 92 12874 2.3 51 11:57 22.12.2019
5701 Clouds -12 1004 92 12874 2.3 51 11:38 22.12.2019
5702 Clouds -12 1004 92 12874 1.66 66 11:19 22.12.2019
5703 Mist -11 1004 92 9656 2.6 50 10:57 22.12.2019
5704 Mist -11 1004 92 9656 2.6 50 10:57 22.12.2019
5705 Mist -11 1004 92 9656 2.6 50 10:38 22.12.2019
5706 Mist -11 1004 92 9656 2.6 50 10:19 22.12.2019
5707 Clouds -11 1004 92 16093 2.6 80 09:57 22.12.2019
5708 Clouds -11 1004 92 16093 2.6 80 09:57 22.12.2019
5709 Clouds -11 1004 92 16093 2.6 80 09:39 22.12.2019
5710 Clouds -11 1004 92 16093 2.6 80 09:20 22.12.2019
5711 Clouds -11 1005 92 16093 1.5 100 08:45 22.12.2019
5712 Clouds -11 1005 92 16093 1.5 100 08:22 22.12.2019
5713 Clouds -11 1005 92 16093 2.6 80 07:44 22.12.2019
5714 Clouds -11 1005 92 16093 2.6 80 07:21 22.12.2019
5715 Clouds -11 1005 85 16093 3.1 80 06:55 22.12.2019
5716 Clouds -11 1005 85 16093 3.1 80 06:26 22.12.2019
5717 Clouds -11 1006 85 16093 3.1 110 05:33 22.12.2019
5718 Clouds -11 1006 85 16093 1.5 60 04:55 22.12.2019
5719 Clouds -11 1006 85 16093 1.5 60 04:25 22.12.2019
5720 Clouds -12 1006 85 16093 3.6 70 02:46 22.12.2019
5721 Clouds -12 1006 85 16093 3.6 70 02:23 22.12.2019
5722 Snow -16 1007 84 9656 2.1 80 01:32 22.12.2019
5723 Clouds -18 1007 91 16093 2.07 60 00:56 22.12.2019
5724 Clouds -18 1007 91 16093 2.07 60 00:56 22.12.2019
5725 Clouds -18 1007 91 16093 2.07 60 00:36 22.12.2019
5726 Clouds -18 1007 91 16093 2.07 60 00:18 22.12.2019
5727 Clouds -16 1006 84 16093 2.1 190 23:41 21.12.2019
5728 Clouds -16 1006 84 16093 2.1 190 23:21 21.12.2019
5729 Clouds -17 1006 84 16093 2.6 40 22:57 21.12.2019
5730 Clouds -17 1006 84 16093 2.6 40 22:37 21.12.2019
5731 Clouds -17 1006 84 16093 2.6 40 22:18 21.12.2019
5732 Clouds -16 1006 91 16093 1.48 91 21:54 21.12.2019
5733 Clouds -16 1006 91 16093 1.48 91 21:36 21.12.2019
5734 Clouds -16 1006 91 16093 1.48 91 21:18 21.12.2019
5735 Snow -17 1005 91 12874 1.48 91 20:56 21.12.2019
5736 Snow -17 1005 91 12874 1.48 91 20:37 21.12.2019
5737 Snow -17 1005 91 12874 1.45 33 20:19 21.12.2019
5738 Clouds -12 1005 85 16093 2.1 80 19:55 21.12.2019
5739 Clouds -12 1005 85 16093 2.1 80 19:36 21.12.2019
5740 Clouds -12 1005 85 16093 2.1 80 19:18 21.12.2019
5741 Clouds -10 1004 85 16093 2.1 130 18:41 21.12.2019
5742 Clouds -10 1004 85 16093 2.1 130 18:23 21.12.2019
5743 Clouds -10 1004 85 16093 2.6 70 17:56 21.12.2019
5744 Clouds -10 1004 85 16093 2.6 70 17:37 21.12.2019
5745 Clouds -10 1004 85 16093 2.6 70 17:19 21.12.2019
5746 Rain -11 1003 85 12874 3.1 80 16:56 21.12.2019
5747 Rain -11 1003 85 12874 3.1 80 16:38 21.12.2019
5748 Rain -11 1003 85 12874 3.1 80 16:18 21.12.2019
5749 Rain -11 1003 92 2816 3.6 70 15:55 21.12.2019
5750 Rain -11 1003 92 2816 3.6 70 15:37 21.12.2019
5751 Rain -11 1003 92 2816 3.6 70 15:18 21.12.2019
5752 Snow -11 1002 85 9656 4.6 70 14:41 21.12.2019
5753 Snow -11 1002 85 9656 4.6 70 14:23 21.12.2019
5754 Clouds -11 1002 92 16093 5.1 70 13:58 21.12.2019
5755 Clouds -11 1002 92 16093 5.1 70 13:58 21.12.2019
5756 Clouds -11 1002 92 16093 5.1 70 13:39 21.12.2019
5757 Clouds -11 1002 92 16093 5.1 70 13:19 21.12.2019
5758 Clouds -11 1002 92 16093 5.1 70 13:19 21.12.2019
5759 Snow -11 1001 85 6437 5.7 80 12:56 21.12.2019
5760 Snow -11 1001 85 6437 5.7 80 12:38 21.12.2019
5761 Snow -11 1001 85 6437 5.7 80 12:20 21.12.2019
5762 Snow -11 1001 85 8047 5.7 80 11:46 21.12.2019
5763 Snow -11 1001 85 8047 5.7 80 11:27 21.12.2019
5764 Clouds -11 1001 85 16093 6.7 70 10:59 21.12.2019
5765 Clouds -11 1001 85 16093 6.7 70 10:40 21.12.2019
5766 Clouds -11 1001 85 16093 6.7 70 10:21 21.12.2019
5767 Clouds -11 1001 85 16093 6.7 70 10:21 21.12.2019
5768 Clouds -11 1001 85 16093 6.2 80 09:58 21.12.2019
5769 Clouds -11 1001 85 16093 6.2 80 09:39 21.12.2019
5770 Clouds -11 1001 85 16093 6.2 80 09:19 21.12.2019
5771 Clouds -12 1000 92 14484 5.1 80 08:47 21.12.2019
5772 Clouds -12 1000 92 14484 5.1 80 08:27 21.12.2019
5773 Clouds -12 1000 85 16093 5.1 70 07:47 21.12.2019
5774 Clouds -12 1000 85 16093 5.1 70 07:23 21.12.2019
5775 Clouds -12 1000 85 16093 6.2 80 06:58 21.12.2019
5776 Clouds -12 1000 85 16093 6.2 80 06:40 21.12.2019
5777 Clouds -12 1000 85 16093 6.2 80 06:21 21.12.2019
5778 Clouds -12 999 85 16093 6.2 70 05:25 21.12.2019
5779 Snow -12 999 85 6437 6.7 80 04:34 21.12.2019
5780 Snow -12 999 92 4828 5.7 80 03:56 21.12.2019
5781 Snow -12 999 85 4828 7.2 70 02:25 21.12.2019
5782 Snow -12 999 92 4828 6.7 80 01:43 21.12.2019
5783 Snow -12 999 92 4828 6.7 80 01:24 21.12.2019
5784 Snow -11 999 85 4828 6.7 80 00:40 21.12.2019
5785 Snow -11 999 85 4828 6.7 80 00:21 21.12.2019
5786 Rain -12 1000 92 1609 8.7 80 23:39 20.12.2019
5787 Rain -12 1000 92 1609 8.7 80 23:21 20.12.2019
5788 Rain -12 1000 85 2414 7.7 80 22:59 20.12.2019
5789 Rain -12 1000 85 2414 7.7 80 22:39 20.12.2019
5790 Rain -12 1000 85 2414 7.7 80 22:18 20.12.2019
5791 Rain -12 1000 85 3219 9.8 90 21:41 20.12.2019
5792 Rain -12 1000 85 3219 9.8 90 21:21 20.12.2019
5793 Rain -12 1000 85 2414 9.3 90 20:59 20.12.2019
5794 Rain -12 1000 85 2414 9.3 90 20:38 20.12.2019
5795 Rain -12 1000 85 2414 9.3 90 20:19 20.12.2019
5796 Snow -12 1000 85 2414 9.8 100 19:56 20.12.2019
5797 Snow -12 1000 85 2414 9.8 100 19:38 20.12.2019
5798 Snow -12 1000 85 2414 9.8 100 19:18 20.12.2019
5799 Snow -12 1000 72 4828 11.8 90 18:41 20.12.2019
5800 Snow -12 1000 72 4828 11.8 90 18:22 20.12.2019
5801 Clouds -12 1001 66 16093 11.8 90 17:58 20.12.2019
5802 Clouds -12 1001 66 16093 11.8 90 17:39 20.12.2019
5803 Clouds -12 1001 66 16093 11.8 90 17:20 20.12.2019
5804 Clouds -12 1001 60 16093 12.9 90 16:57 20.12.2019
5805 Clouds -12 1001 60 16093 12.9 90 16:38 20.12.2019
5806 Clouds -12 1001 60 16093 12.9 90 16:19 20.12.2019
5807 Clouds -13 1002 71 16093 9.3 90 15:55 20.12.2019
5808 Clouds -13 1002 71 16093 9.3 90 15:37 20.12.2019
5809 Clouds -13 1002 71 16093 9.3 90 15:18 20.12.2019
5810 Clouds -13 1003 71 16093 9.8 90 14:42 20.12.2019
5811 Clouds -13 1003 71 16093 9.8 90 14:24 20.12.2019
5812 Clouds -13 1004 71 16093 9.8 80 13:57 20.12.2019
5813 Clouds -13 1004 71 16093 9.8 80 13:37 20.12.2019
5814 Clouds -13 1004 71 16093 9.8 80 13:19 20.12.2019
5815 Clouds -14 1005 71 16093 8.2 90 12:56 20.12.2019
5816 Clouds -14 1005 71 16093 8.2 90 12:36 20.12.2019
5817 Clouds -14 1005 71 16093 8.2 90 12:18 20.12.2019
5818 Clouds -14 1007 77 16093 9.3 90 11:57 20.12.2019
5819 Clouds -14 1007 77 16093 9.3 90 11:38 20.12.2019
5820 Clouds -14 1007 77 16093 9.3 90 11:38 20.12.2019
5821 Clouds -14 1007 77 16093 9.3 90 11:18 20.12.2019
5822 Clouds -14 1007 71 16093 9.3 90 10:56 20.12.2019
5823 Clouds -14 1007 71 16093 9.3 90 10:37 20.12.2019
5824 Clouds -14 1007 71 16093 9.3 90 10:19 20.12.2019
5825 Clear -14 1007 71 16093 8.2 80 09:43 20.12.2019
5826 Clear -14 1007 71 16093 8.2 80 09:21 20.12.2019
5827 Clear -14 1008 55 16093 8.2 90 08:55 20.12.2019
5828 Clear -14 1008 55 16093 8.2 90 08:37 20.12.2019
5829 Clear -14 1008 55 16093 8.2 90 08:19 20.12.2019
5830 Clear -15 1008 60 16093 6.7 80 07:57 20.12.2019
5831 Clear -15 1008 60 16093 6.7 80 07:37 20.12.2019
5832 Clear -15 1008 60 16093 6.7 80 07:18 20.12.2019
5833 Clear -15 1009 60 16093 5.7 90 06:44 20.12.2019
5834 Clear -15 1009 60 16093 5.7 90 06:26 20.12.2019
5835 Clear -15 1009 54 16093 5.7 80 05:47 20.12.2019
5836 Clear -15 1010 60 16093 5.7 80 04:59 20.12.2019
5837 Clear -16 1010 65 16093 4.1 80 03:49 20.12.2019
5838 Clear -15 1011 65 16093 4.6 80 02:55 20.12.2019
5839 Clear -16 1011 59 16093 4.1 70 01:59 20.12.2019
5840 Clear -16 1011 59 16093 4.1 70 01:35 20.12.2019
5841 Clear -16 1012 54 16093 4.1 80 00:55 20.12.2019
5842 Clear -16 1012 54 16093 4.1 80 00:35 20.12.2019
5843 Clear -17 1012 64 16093 1.5 30 23:58 19.12.2019
5844 Clear -17 1012 64 16093 1.5 30 23:40 19.12.2019
5845 Clear -17 1012 64 16093 1.5 30 23:19 19.12.2019
5846 Clear -18 1012 70 16093 1.97 81 22:40 19.12.2019
5847 Clear -18 1012 70 16093 1.97 81 22:22 19.12.2019
5848 Clear -20 1011 70 16093 2.6 40 21:57 19.12.2019
5849 Clear -20 1011 70 16093 2.6 40 21:39 19.12.2019
5850 Clear -20 1011 70 16093 2.6 40 21:19 19.12.2019
5851 Clear -20 1011 70 16093 1.97 81 20:57 19.12.2019
5852 Clear -20 1011 70 16093 1.97 81 20:37 19.12.2019
5853 Clear -18 1011 70 16093 1.79 68 20:19 19.12.2019
5854 Clear -19 1011 76 16093 1.79 68 19:58 19.12.2019
5855 Clear -19 1011 76 16093 1.79 68 19:39 19.12.2019
5856 Clear -19 1011 76 16093 1.79 68 19:19 19.12.2019
5857 Clear -19 1011 76 16093 1.79 68 19:19 19.12.2019
5858 Clear -19 1011 76 16093 1.79 68 19:19 19.12.2019
5859 Clear -19 1010 76 16093 1.79 68 18:57 19.12.2019
5860 Clear -19 1010 76 16093 1.79 68 18:57 19.12.2019
5861 Clear -19 1010 76 16093 1.79 68 18:39 19.12.2019
5862 Clear -19 1010 76 16093 1.79 68 18:19 19.12.2019
5863 Clear -20 1010 83 16093 2.1 50 17:56 19.12.2019
5864 Clear -20 1010 83 16093 2.1 50 17:37 19.12.2019
5865 Clear -19 1010 83 16093 2.1 50 17:18 19.12.2019
5866 Clear -19 1009 76 16093 1.4 36 16:56 19.12.2019
5867 Clear -19 1009 76 16093 1.4 36 16:37 19.12.2019
5868 Clear -19 1009 76 16093 1.4 36 16:19 19.12.2019
5869 Clear -18 1009 76 16093 1.4 36 15:56 19.12.2019
5870 Clear -18 1009 76 16093 1.4 36 15:37 19.12.2019
5871 Clear -19 1009 76 16093 1.4 36 15:19 19.12.2019
5872 Clear -19 1009 76 16093 1.4 36 15:19 19.12.2019
5873 Clear -18 1009 77 16093 1.4 36 14:43 19.12.2019
5874 Clear -18 1009 77 16093 1.65 39 14:20 19.12.2019
5875 Clear -18 1008 77 16093 1.65 39 13:59 19.12.2019
5876 Clear -18 1008 77 16093 1.65 39 13:38 19.12.2019
5877 Clear -18 1008 77 16093 1.65 39 13:38 19.12.2019
5878 Clear -17 1008 77 16093 1.66 42 13:19 19.12.2019
5879 Clear -18 1007 77 16093 1.66 42 12:57 19.12.2019
5880 Clear -18 1007 77 16093 1.66 42 12:39 19.12.2019
5881 Clear -18 1007 77 16093 1.66 42 12:19 19.12.2019
5882 Clear -18 1007 76 16093 1.5 340 11:58 19.12.2019
5883 Clear -18 1007 76 16093 1.5 340 11:40 19.12.2019
5884 Clear -19 1007 76 16093 1.5 340 11:18 19.12.2019
5885 Clear -18 1006 84 16093 2.31 38 10:58 19.12.2019
5886 Clear -18 1006 84 16093 2.31 38 10:38 19.12.2019
5887 Clear -18 1006 84 16093 2.31 38 10:20 19.12.2019
5888 Clear -18 1006 84 16093 2.31 38 09:55 19.12.2019
5889 Clear -18 1006 84 16093 2.31 38 09:37 19.12.2019
5890 Clear -18 1006 84 16093 2.31 38 09:18 19.12.2019
5891 Clear -18 1005 84 16093 2.31 38 08:42 19.12.2019
5892 Clear -17 1005 84 16093 1.75 55 08:20 19.12.2019
5893 Clear -17 1005 84 16093 1.75 55 08:20 19.12.2019
5894 Clear -17 1005 84 16093 1.75 55 08:20 19.12.2019
5895 Clear -16 1004 84 16093 1.95 50 07:59 19.12.2019
5896 Clear -18 1004 84 16093 1.95 50 07:40 19.12.2019
5897 Clear -16 1004 84 16093 1.95 50 07:22 19.12.2019
5898 Clear -17 1004 84 16093 1.95 50 06:52 19.12.2019
5899 Clear -17 1004 84 16093 1.95 50 06:52 19.12.2019
5900 Clear -17 1004 84 16093 1.95 50 06:52 19.12.2019
5901 Clear -18 1004 84 16093 1.95 50 06:33 19.12.2019
5902 Clear -17 1003 84 16093 1.95 50 05:59 19.12.2019
5903 Clear -17 1003 84 16093 1.95 50 05:41 19.12.2019
5904 Clear -17 1003 84 16093 1.35 52 05:18 19.12.2019
5905 Clear -16 1002 91 16093 1.35 52 03:46 19.12.2019
5906 Clear -16 1002 84 16093 1.35 52 02:25 19.12.2019
5907 Clear -16 1002 77 16093 1.81 28 01:24 19.12.2019
5908 Clear -16 1001 84 16093 1.81 28 00:55 19.12.2019
5909 Clear -16 1001 84 16093 1.81 28 00:36 19.12.2019
5910 Clear -15 1001 84 16093 1.81 28 00:18 19.12.2019
5911 Clear -16 1001 84 16093 1.5 360 23:43 18.12.2019
5912 Clear -15 1001 84 16093 1.5 360 23:19 18.12.2019
5913 Clear -15 1001 84 16093 1.88 350 22:56 18.12.2019
5914 Clear -16 1001 84 16093 1.88 350 22:37 18.12.2019
5915 Clear -16 1001 84 16093 1.88 350 22:19 18.12.2019
5916 Clear -13 1000 71 16093 2.1 360 21:57 18.12.2019
5917 Clear -13 1000 71 16093 2.1 360 21:39 18.12.2019
5918 Clear -13 1000 71 16093 2.1 360 21:19 18.12.2019
5919 Clear -16 1000 77 16093 4.6 320 20:55 18.12.2019
5920 Clear -16 1000 77 16093 4.6 320 20:37 18.12.2019
5921 Clear -16 1000 77 16093 4.6 320 20:37 18.12.2019
5922 Clear -15 1000 77 16093 4.6 320 20:19 18.12.2019
5923 Clear -15 1000 84 16093 2.11 17 19:55 18.12.2019
5924 Clear -15 1000 84 16093 2.11 17 19:37 18.12.2019
5925 Clear -15 1000 84 16093 2.11 17 19:18 18.12.2019
5926 Clear -16 1000 77 16093 2.11 17 18:45 18.12.2019
5927 Clear -16 1000 77 16093 2.11 17 18:25 18.12.2019
5928 Clear -16 999 77 16093 1.5 0 17:57 18.12.2019
5929 Clear -16 999 77 16093 1.5 0 17:39 18.12.2019
5930 Clear -16 999 77 16093 1.5 0 17:39 18.12.2019
5931 Clear -16 999 77 16093 1.5 0 17:20 18.12.2019
5932 Clear -16 999 84 16093 2.43 31 16:58 18.12.2019
5933 Clear -17 999 84 16093 2.43 31 16:40 18.12.2019
5934 Clear -17 999 84 16093 2.43 31 16:21 18.12.2019
5935 Clear -16 999 77 16093 2.43 31 15:56 18.12.2019
5936 Clear -16 999 77 16093 2.43 31 15:38 18.12.2019
5937 Clear -16 999 77 16093 2.43 31 15:20 18.12.2019
5938 Clear -15 998 84 16093 2.43 31 14:43 18.12.2019
5939 Clear -15 998 84 16093 2.31 38 14:22 18.12.2019
5940 Clear -16 998 84 16093 2.31 38 13:58 18.12.2019
5941 Clear -16 998 84 16093 2.31 38 13:39 18.12.2019
5942 Clear -17 998 84 16093 1.89 53 13:21 18.12.2019
5943 Clear -16 998 91 16093 1.89 53 12:59 18.12.2019
5944 Clear -17 998 91 16093 1.89 53 12:40 18.12.2019
5945 Clear -14 998 91 16093 1.89 53 12:21 18.12.2019
5946 Clear -15 998 84 16093 1.89 53 11:56 18.12.2019
5947 Clear -16 998 84 16093 1.89 53 11:38 18.12.2019
5948 Clear -15 998 84 16093 1.22 75 11:20 18.12.2019
5949 Clear -15 998 84 16093 2.1 20 10:57 18.12.2019
5950 Clear -15 998 84 16093 2.1 20 10:39 18.12.2019
5951 Clear -16 998 84 16093 2.1 20 10:20 18.12.2019
5952 Clear -14 997 84 16093 1.22 75 09:57 18.12.2019
5953 Clear -14 997 84 16093 1.22 75 09:19 18.12.2019
5954 Clear -15 997 84 16093 1.22 75 08:42 18.12.2019
5955 Clear -15 997 84 16093 1.22 75 08:24 18.12.2019
5956 Clear -15 997 77 16093 2.1 260 07:56 18.12.2019
5957 Clear -15 997 77 16093 2.1 260 07:56 18.12.2019
5958 Clear -15 997 77 16093 2.1 260 07:38 18.12.2019
5959 Clear -15 997 77 16093 2.1 260 07:19 18.12.2019
5960 Clear -14 997 71 16093 1.5 0 06:50 18.12.2019
5961 Clear -15 997 71 16093 1.5 0 06:22 18.12.2019
5962 Clear -14 997 84 16093 2.6 350 05:30 18.12.2019
5963 Clear -15 996 91 16093 1.85 19 03:45 18.12.2019
5964 Clear -15 996 84 16093 1.85 19 02:43 18.12.2019
5965 Clear -15 996 84 16093 1.85 19 02:25 18.12.2019
5966 Clear -13 996 77 16093 1.13 20 01:43 18.12.2019
5967 Clear -13 996 77 16093 1.13 20 01:24 18.12.2019
5968 Clear -13 996 71 16093 0.98 32 00:42 18.12.2019
5969 Clear -13 996 71 16093 0.98 32 00:24 18.12.2019
5970 Clear -15 996 84 16093 0.98 32 23:58 17.12.2019
5971 Clear -15 996 84 16093 0.98 32 23:39 17.12.2019
5972 Clear -15 996 84 16093 1.76 27 23:20 17.12.2019
5973 Clear -15 996 84 16093 1.5 340 22:57 17.12.2019
5974 Clear -15 996 84 16093 1.5 340 22:38 17.12.2019
5975 Clear -16 996 84 16093 1.5 340 22:19 17.12.2019
5976 Clear -16 996 84 16093 1.76 27 21:57 17.12.2019
5977 Clear -16 996 84 16093 1.76 27 21:38 17.12.2019
5978 Clear -16 996 84 16093 1.76 27 21:19 17.12.2019
5979 Clear -16 996 84 16093 1.76 27 20:58 17.12.2019
5980 Clear -16 996 84 16093 1.76 27 20:39 17.12.2019
5981 Clear -14 996 84 16093 1.08 44 20:18 17.12.2019
5982 Clear -15 995 84 16093 1.08 44 19:56 17.12.2019
5983 Clear -15 995 84 16093 1.08 44 19:38 17.12.2019
5984 Clear -15 995 84 16093 1.08 44 19:19 17.12.2019
5985 Clear -14 995 77 16093 1.08 44 18:55 17.12.2019
5986 Clear -13 995 77 16093 1.08 44 18:37 17.12.2019
5987 Clear -13 995 77 16093 1.08 44 18:19 17.12.2019
5988 Clear -13 995 84 16093 1.08 44 17:42 17.12.2019
5989 Clear -13 995 84 16093 1.08 44 17:42 17.12.2019
5990 Clear -14 995 84 16093 0.88 43 17:21 17.12.2019
5991 Clear -13 996 84 16093 0.88 43 16:57 17.12.2019
5992 Clear -13 996 84 16093 0.88 43 16:38 17.12.2019
5993 Clear -14 996 84 16093 0.88 43 16:19 17.12.2019
5994 Clear -14 996 84 16093 1.5 360 15:59 17.12.2019
5995 Clear -14 996 84 16093 1.5 360 15:38 17.12.2019
5996 Clear -15 996 84 16093 1.5 360 15:19 17.12.2019
5997 Clear -14 996 84 16093 0.88 43 14:56 17.12.2019
5998 Clear -13 996 84 16093 0.88 43 14:38 17.12.2019
5999 Clear -13 996 84 16093 0.82 14 14:19 17.12.2019
6000 Clear -13 996 84 16093 0.82 14 13:56 17.12.2019
6001 Clear -13 996 84 16093 0.82 14 13:38 17.12.2019
6002 Clear -13 996 84 16093 1.18 15 13:19 17.12.2019
6003 Clear -13 996 84 16093 1.18 15 13:19 17.12.2019
6004 Clear -12 996 78 16093 1.18 15 12:56 17.12.2019
6005 Clear -12 996 78 16093 1.18 15 12:37 17.12.2019
6006 Clear -11 996 78 16093 1.18 15 12:18 17.12.2019
6007 Clear -12 996 78 16093 2.1 20 11:56 17.12.2019
6008 Clear -12 996 78 16093 2.1 20 11:36 17.12.2019
6009 Clear -12 996 78 16093 2.1 20 11:18 17.12.2019
6010 Clear -12 996 78 16093 2.1 20 11:18 17.12.2019
6011 Clear -13 996 84 16093 1.5 340 10:55 17.12.2019
6012 Clear -13 996 84 16093 1.5 340 10:37 17.12.2019
6013 Clear -13 996 84 16093 1.5 340 10:18 17.12.2019
6014 Clear -13 996 77 16093 1.11 105 09:42 17.12.2019
6015 Clear -13 996 77 16093 1.11 105 09:21 17.12.2019
6016 Clear -12 996 84 16093 1.5 330 08:58 17.12.2019
6017 Clear -11 996 84 16093 1.5 330 08:39 17.12.2019
6018 Clear -12 996 84 16093 1.5 330 08:21 17.12.2019
6019 Clear -12 996 78 16093 0.83 75 07:58 17.12.2019
6020 Clear -11 996 78 16093 0.83 75 07:39 17.12.2019
6021 Clear -11 996 78 16093 0.83 75 07:19 17.12.2019
6022 Clear -10 996 85 16093 0.83 75 06:41 17.12.2019
6023 Clear -11 996 85 16093 0.83 75 06:22 17.12.2019
6024 Clear -9 996 72 16093 0.83 75 05:40 17.12.2019
6025 Clear -7 996 72 16093 1.37 76 04:48 17.12.2019
6026 Clear -8 996 78 16093 1.37 76 03:31 17.12.2019
6027 Clear -4 997 58 16093 1.5 120 01:59 17.12.2019
6028 Clear -4 997 58 16093 1.5 120 01:21 17.12.2019
6029 Clear -2 996 58 16093 5.1 50 00:39 17.12.2019
6030 Clear -2 996 58 16093 5.1 50 00:39 17.12.2019
6031 Clear -2 996 58 16093 5.1 50 00:21 17.12.2019
6032 Clear -5 997 67 16093 2.1 30 23:43 16.12.2019
6033 Clear -4 997 67 16093 2.1 30 23:20 16.12.2019
6034 Clear -4 997 67 16093 3.6 40 22:58 16.12.2019
6035 Clear -6 997 67 16093 3.6 40 22:38 16.12.2019
6036 Clear -6 997 67 16093 3.6 40 22:20 16.12.2019
6037 Clear -7 997 73 16093 2.1 100 21:57 16.12.2019
6038 Clear -7 997 73 16093 2.1 100 21:57 16.12.2019
6039 Clear -7 997 73 16093 2.1 100 21:38 16.12.2019
6040 Clear -7 997 73 16093 2.1 100 21:20 16.12.2019
6041 Clear -6 997 79 16093 1.5 190 20:58 16.12.2019
6042 Clear -6 997 79 16093 1.5 190 20:39 16.12.2019
6043 Clear -6 997 79 16093 1.5 190 20:39 16.12.2019
6044 Clear -6 997 79 16093 1.5 190 20:19 16.12.2019
6045 Clear -1 997 58 16093 4.1 40 19:56 16.12.2019
6046 Clear -1 997 58 16093 4.1 40 19:37 16.12.2019
6047 Clear -1 997 58 16093 4.1 40 19:19 16.12.2019
6048 Clear -1 997 58 16093 4.1 40 19:19 16.12.2019
6049 Clear -2 997 63 16093 1.5 360 18:59 16.12.2019
6050 Clear -2 997 63 16093 1.5 360 18:40 16.12.2019
6051 Clear -2 997 63 16093 1.5 360 18:20 16.12.2019
6052 Clear -1 997 58 16093 6.2 10 17:58 16.12.2019
6053 Clear -1 997 58 16093 6.2 10 17:39 16.12.2019
6054 Clear -1 997 58 16093 6.2 10 17:21 16.12.2019
6055 Clear -1 998 54 16093 4.1 360 16:57 16.12.2019
6056 Clear -1 998 54 16093 4.1 360 16:38 16.12.2019
6057 Clear -1 998 54 16093 4.1 360 16:19 16.12.2019
6058 Clear -2 998 63 16093 3.6 10 15:58 16.12.2019
6059 Clear -2 998 63 16093 3.6 10 15:38 16.12.2019
6060 Clear -2 998 63 16093 3.6 10 15:20 16.12.2019
6061 Clear 1 999 55 16093 4.1 30 14:57 16.12.2019
6062 Clear 1 999 55 16093 4.1 30 14:37 16.12.2019
6063 Clear 1 999 55 16093 4.1 30 14:19 16.12.2019
6064 Clear 1 999 55 16093 4.1 30 14:19 16.12.2019
6065 Clear -1 999 63 16093 3.1 30 13:56 16.12.2019
6066 Clear -1 999 63 16093 3.1 30 13:56 16.12.2019
6067 Clear -1 999 63 16093 3.1 30 13:37 16.12.2019
6068 Clear -1 999 63 16093 3.1 30 13:37 16.12.2019
6069 Clear -1 999 63 16093 3.1 30 13:19 16.12.2019
6070 Clear -2 1000 68 16093 3.15 30 12:57 16.12.2019
6071 Clear -2 1000 68 16093 2.78 52 12:39 16.12.2019
6072 Clear -2 1000 68 16093 3.15 30 12:18 16.12.2019
6073 Clear -3 999 73 16093 2.1 20 11:58 16.12.2019
6074 Clear -3 999 73 16093 2.1 20 11:40 16.12.2019
6075 Clear -3 999 73 16093 2.1 20 11:20 16.12.2019
6076 Clear -3 999 73 16093 2.1 20 11:20 16.12.2019
6077 Clear -3 1000 73 16093 1.5 150 10:56 16.12.2019
6078 Clear -3 1000 73 16093 1.5 150 10:37 16.12.2019
6079 Clear -3 1000 73 16093 1.5 150 10:19 16.12.2019
6080 Clear 1 999 59 16093 5.1 20 09:45 16.12.2019
6081 Clear 1 999 59 16093 5.1 20 09:26 16.12.2019
6082 Clear 1 1000 59 16093 4.6 10 08:41 16.12.2019
6083 Clear 1 1000 59 16093 4.6 10 08:21 16.12.2019
6084 Clouds 2 1000 55 16093 6.2 10 07:59 16.12.2019
6085 Clouds 2 1000 55 16093 6.2 10 07:41 16.12.2019
6086 Clouds 2 1000 55 16093 6.2 10 07:20 16.12.2019
6087 Clouds 1 1000 55 16093 5.7 20 06:41 16.12.2019
6088 Clouds 1 1000 55 16093 5.7 20 06:22 16.12.2019
6089 Clear -2 1000 68 16093 4.1 30 05:47 16.12.2019
6090 Clouds -1 1002 70 0 3.14 23 05:29 16.12.2019
6091 Clear -2 1000 68 16093 4.1 20 03:41 16.12.2019
6092 Clouds -2 1001 68 16093 3.1 20 01:58 16.12.2019
6093 Clouds -2 1001 68 16093 3.1 20 01:40 16.12.2019
6094 Clouds -3 1001 68 16093 4.1 40 00:42 16.12.2019
6095 Clouds -3 1001 68 16093 4.1 40 00:23 16.12.2019
6096 Clear -4 1002 80 0 2.81 53 23:58 15.12.2019
6097 Clear 0 1001 80 16093 3.6 70 23:38 15.12.2019
6098 Clear 0 1001 83 16093 3.6 70 23:19 15.12.2019
6099 Clear 0 1001 83 16093 3.6 70 22:55 15.12.2019
6100 Clear 0 1001 83 16093 3.6 70 22:37 15.12.2019
6101 Clear 0 1001 83 16093 3.6 70 22:18 15.12.2019
6102 Clear -2 1001 68 16093 3.1 60 21:55 15.12.2019
6103 Clear -2 1001 68 16093 3.1 60 21:37 15.12.2019
6104 Clear -2 1001 68 16093 3.1 60 21:19 15.12.2019
6105 Clear -2 1000 68 16093 3.6 90 20:55 15.12.2019
6106 Clear -2 1000 68 16093 3.6 90 20:37 15.12.2019
6107 Clear -2 1000 68 16093 3.6 90 20:18 15.12.2019
6108 Clear -2 1000 74 16093 5.7 80 19:56 15.12.2019
6109 Clear -2 1000 74 16093 5.7 80 19:38 15.12.2019
6110 Snow -3 1001 94 0 3.84 63 19:18 15.12.2019
6111 Snow -3 1001 94 0 3.84 63 18:55 15.12.2019
6112 Snow -3 1001 94 0 3.84 63 18:37 15.12.2019
6113 Clouds -1 1000 80 16093 7.2 90 18:18 15.12.2019
6114 Clouds -1 1000 80 16093 7.2 90 17:55 15.12.2019
6115 Clouds -1 1000 80 16093 7.2 90 17:36 15.12.2019
6116 Clouds -1 1000 80 16093 7.2 90 17:18 15.12.2019
6117 Clouds 0 1000 95 16093 7.7 80 16:43 15.12.2019
6118 Clouds 0 1000 95 16093 7.7 80 16:23 15.12.2019
6119 Clouds -1 999 80 16093 7.2 70 15:57 15.12.2019
6120 Clouds -1 999 80 16093 7.2 70 15:39 15.12.2019
6121 Clouds -1 999 80 16093 7.2 70 15:20 15.12.2019
6122 Clouds -2 1000 79 16093 6.2 80 14:56 15.12.2019
6123 Clouds -2 1000 79 16093 6.2 80 14:38 15.12.2019
6124 Clouds -2 1000 79 16093 6.2 80 14:19 15.12.2019
6125 Clouds -2 999 79 16093 6.7 80 13:59 15.12.2019
6126 Clouds -2 999 79 16093 6.7 80 13:39 15.12.2019
6127 Clouds -2 999 79 16093 6.7 80 13:20 15.12.2019
6128 Clouds -2 999 68 16093 6.2 80 12:57 15.12.2019
6129 Clouds -2 999 68 16093 6.2 80 12:39 15.12.2019
6130 Clouds -2 999 68 16093 6.2 80 12:21 15.12.2019
6131 Clear -1 999 63 16093 7.7 80 11:59 15.12.2019
6132 Clear -1 999 63 16093 7.7 80 11:38 15.12.2019
6133 Clear -1 999 63 16093 7.7 80 11:19 15.12.2019
6134 Clouds -1 999 63 16093 7.2 80 10:56 15.12.2019
6135 Clouds -1 999 63 16093 7.2 80 10:37 15.12.2019
6136 Clouds -1 999 63 16093 7.2 80 10:19 15.12.2019
6137 Clouds 0 998 95 16093 7.2 90 09:57 15.12.2019
6138 Clouds 0 998 95 16093 7.2 90 09:37 15.12.2019
6139 Clouds 0 998 95 16093 7.2 90 09:19 15.12.2019
6140 Snow -4 999 95 0 5.44 82 08:42 15.12.2019
6141 Clouds 0 998 95 16093 8.2 90 08:23 15.12.2019
6142 Clouds 0 998 93 16093 8.2 90 07:57 15.12.2019
6143 Clouds 0 998 93 16093 8.2 90 07:38 15.12.2019
6144 Clouds 0 998 93 16093 8.2 90 07:19 15.12.2019
6145 Clouds -1 998 63 16093 6.7 90 06:24 15.12.2019
6146 Clear -1 998 63 16093 3.1 80 05:42 15.12.2019
6147 Clear -1 998 63 16093 3.1 80 05:20 15.12.2019
6148 Clear -1 997 68 16093 6.2 90 04:19 15.12.2019
6149 Clear 0 997 82 16093 7.7 90 02:49 15.12.2019
6150 Clear 0 997 82 16093 7.7 90 02:30 15.12.2019
6151 Clear 1 997 69 16093 7.2 90 01:40 15.12.2019
6152 Clear 1 997 69 16093 7.2 90 01:18 15.12.2019
6153 Clear 1 997 69 16093 5.7 80 00:49 15.12.2019
6154 Clear 1 997 69 16093 5.7 80 00:30 15.12.2019
6155 Clouds 0 997 83 16093 4.6 80 23:41 14.12.2019
6156 Clouds 0 997 88 16093 4.6 80 23:22 14.12.2019
6157 Clouds 0 997 88 16093 6.2 90 22:59 14.12.2019
6158 Clouds 0 997 88 16093 6.2 90 22:41 14.12.2019
6159 Clouds 0 997 88 16093 6.2 90 22:22 14.12.2019
6160 Clouds -1 998 86 16093 7.2 80 21:57 14.12.2019
6161 Clouds -1 998 86 16093 7.2 80 21:38 14.12.2019
6162 Clouds -1 998 86 16093 7.2 80 21:19 14.12.2019
6163 Snow -1 997 86 6437 8.2 90 20:59 14.12.2019
6164 Snow -1 997 86 6437 8.2 90 20:40 14.12.2019
6165 Snow -1 997 86 6437 8.2 90 20:20 14.12.2019
6166 Snow -1 997 86 12874 7.2 90 19:57 14.12.2019
6167 Snow -1 997 86 12874 7.2 90 19:38 14.12.2019
6168 Snow -1 997 86 12874 7.2 90 19:20 14.12.2019
6169 Mist -1 997 86 8047 6.7 80 18:56 14.12.2019
6170 Mist -1 997 86 8047 6.7 80 18:38 14.12.2019
6171 Mist -1 997 86 8047 6.7 80 18:38 14.12.2019
6172 Mist -1 997 86 8047 6.7 80 18:19 14.12.2019
6173 Snow -2 998 92 4828 5.7 70 17:44 14.12.2019
6174 Snow -2 998 92 4828 5.7 70 17:24 14.12.2019
6175 Snow -3 998 92 4023 4.6 70 16:59 14.12.2019
6176 Snow -3 998 92 4023 4.6 70 16:40 14.12.2019
6177 Snow -3 998 92 4023 4.6 70 16:19 14.12.2019
6178 Snow -3 998 92 4023 5.7 70 15:43 14.12.2019
6179 Snow -3 998 92 4023 5.7 70 15:25 14.12.2019
6180 Clouds -3 998 86 12874 5.7 80 14:59 14.12.2019
6181 Clouds -3 998 86 12874 5.7 80 14:39 14.12.2019
6182 Clouds -3 998 86 12874 5.7 80 14:20 14.12.2019
6183 Clouds -4 999 85 16093 6.2 80 13:58 14.12.2019
6184 Clouds -4 999 85 16093 6.2 80 13:39 14.12.2019
6185 Clouds -4 999 85 16093 6.2 80 13:19 14.12.2019
6186 Snow -4 999 85 8047 6.7 80 12:56 14.12.2019
6187 Snow -4 999 85 8047 6.7 80 12:37 14.12.2019
6188 Snow -4 999 85 8047 6.7 80 12:19 14.12.2019
6189 Snow -4 998 85 8047 6.7 80 11:56 14.12.2019
6190 Snow -4 998 85 8047 6.7 80 11:37 14.12.2019
6191 Snow -4 998 85 8047 6.7 80 11:18 14.12.2019
6192 Snow -4 998 79 9656 7.2 80 10:55 14.12.2019
6193 Snow -4 998 79 9656 7.2 80 10:55 14.12.2019
6194 Snow -4 998 79 9656 7.2 80 10:37 14.12.2019
6195 Snow -4 998 79 9656 7.2 80 10:19 14.12.2019
6196 Clouds -4 998 85 16093 6.7 90 09:42 14.12.2019
6197 Clouds -4 998 85 16093 6.7 90 09:21 14.12.2019
6198 Clouds -5 997 85 16093 6.2 80 08:56 14.12.2019
6199 Clouds -5 997 85 16093 6.2 80 08:37 14.12.2019
6200 Clouds -5 997 85 16093 6.2 80 08:18 14.12.2019
6201 Clouds -5 997 85 16093 6.7 70 07:40 14.12.2019
6202 Clouds -5 997 85 16093 6.7 70 07:20 14.12.2019
6203 Clouds -5 997 92 16093 6.7 90 06:42 14.12.2019
6204 Clouds -5 997 92 16093 6.7 90 06:22 14.12.2019
6205 Mist -6 996 92 4023 6.2 90 05:35 14.12.2019
6206 Snow -6 995 85 4828 5.7 80 03:34 14.12.2019
6207 Clouds -6 995 79 16093 6.7 80 02:23 14.12.2019
6208 Clouds -6 994 79 16093 5.7 70 01:44 14.12.2019
6209 Clouds -6 994 79 16093 6.2 80 00:59 14.12.2019
6210 Clouds -6 994 79 16093 6.2 80 00:40 14.12.2019
6211 Clouds -6 994 79 16093 6.2 80 00:20 14.12.2019
6212 Clouds -6 994 79 16093 4.6 80 23:41 13.12.2019
6213 Clouds -6 994 79 16093 4.6 80 23:41 13.12.2019
6214 Clouds -6 994 79 16093 4.6 80 23:19 13.12.2019
6215 Clouds -7 993 85 16093 3.6 80 22:56 13.12.2019
6216 Clouds -7 993 85 16093 3.6 80 22:37 13.12.2019
6217 Clouds -7 993 85 16093 3.6 80 22:18 13.12.2019
6218 Clouds -6 993 79 16093 3.1 80 21:44 13.12.2019
6219 Clouds -6 993 79 16093 3.1 80 21:22 13.12.2019
6220 Clouds -6 992 79 16093 3.6 80 20:59 13.12.2019
6221 Clouds -6 992 79 16093 3.6 80 20:39 13.12.2019
6222 Clouds -9 992 85 16093 2.48 94 20:20 13.12.2019
6223 Clouds -9 992 85 16093 2.48 94 19:56 13.12.2019
6224 Clouds -9 992 85 16093 2.48 94 19:38 13.12.2019
6225 Clouds -9 992 85 16093 2.48 94 19:19 13.12.2019
6226 Clouds -10 992 85 16093 2.48 94 18:55 13.12.2019
6227 Clouds -10 992 85 16093 2.48 94 18:36 13.12.2019
6228 Clouds -10 992 85 16093 2.48 94 18:18 13.12.2019
6229 Clear -10 992 92 16093 2.48 94 17:40 13.12.2019
6230 Clear -10 992 92 16093 2.48 94 17:40 13.12.2019
6231 Clear -11 992 92 16093 1.03 131 17:19 13.12.2019
6232 Clear -11 992 92 16093 1.03 131 16:58 13.12.2019
6233 Clear -11 992 92 16093 1.03 131 16:39 13.12.2019
6234 Clear -11 992 92 16093 1.03 131 16:20 13.12.2019
6235 Clear -11 992 85 16093 1.03 131 15:43 13.12.2019
6236 Clear -10 992 85 16093 1.03 131 15:22 13.12.2019
6237 Clear -10 992 92 16093 1.03 131 14:57 13.12.2019
6238 Clear -10 992 92 16093 1.03 131 14:39 13.12.2019
6239 Clear -10 992 92 16093 1.41 11 14:20 13.12.2019
6240 Clear -9 992 85 16093 1.41 11 13:56 13.12.2019
6241 Clear -9 992 85 16093 1.41 11 13:37 13.12.2019
6242 Clear -9 992 85 16093 1.41 11 13:18 13.12.2019
6243 Clear -8 993 85 16093 2.1 360 12:42 13.12.2019
6244 Clear -8 993 85 16093 2.1 360 12:19 13.12.2019
6245 Clear -6 993 85 16093 1.5 34 11:57 13.12.2019
6246 Clear -6 993 85 16093 1.5 34 11:39 13.12.2019
6247 Clear -6 993 85 16093 0.89 106 11:19 13.12.2019
6248 Clear -6 993 85 16093 0.89 106 10:41 13.12.2019
6249 Clear -6 993 85 16093 0.89 106 10:21 13.12.2019
6250 Clear -7 993 85 16093 0.89 106 09:43 13.12.2019
6251 Clear -7 993 85 16093 0.89 106 09:22 13.12.2019
6252 Clear -6 993 85 16093 0.89 106 08:59 13.12.2019
6253 Clear -6 993 85 16093 0.89 106 08:40 13.12.2019
6254 Clear -6 993 85 16093 0.88 50 08:22 13.12.2019
6255 Clear -6 993 79 16093 1.5 20 07:43 13.12.2019
6256 Clear -5 993 79 16093 1.5 20 07:20 13.12.2019
6257 Clear -6 993 79 16093 0.88 50 06:50 13.12.2019
6258 Clear -5 993 79 16093 0.88 50 06:28 13.12.2019
6259 Clear -6 994 85 16093 0.88 50 05:43 13.12.2019
6260 Clear -6 994 85 16093 1.29 7 05:20 13.12.2019
6261 Clear -5 994 79 16093 1.29 7 04:33 13.12.2019
6262 Clear -6 994 79 16093 2.6 360 03:30 13.12.2019
6263 Clear -5 994 79 16093 2.1 20 02:32 13.12.2019
6264 Clear -5 994 79 16093 2.1 20 02:32 13.12.2019
6265 Clear -6 994 85 16093 1.5 320 01:40 13.12.2019
6266 Clear -6 994 79 16093 2.6 40 00:51 13.12.2019
6267 Clear -6 994 79 16093 2.6 40 00:32 13.12.2019
6268 Clear -6 995 85 16093 2.6 10 23:57 12.12.2019
6269 Clear -6 995 85 16093 2.6 10 23:37 12.12.2019
6270 Clear -6 995 85 16093 2.6 10 23:19 12.12.2019
6271 Clear -6 995 85 16093 1.47 71 22:42 12.12.2019
6272 Clear -7 995 85 16093 1.47 71 22:23 12.12.2019
6273 Clear -6 994 79 16093 3.1 30 21:56 12.12.2019
6274 Clear -6 994 79 16093 3.1 30 21:56 12.12.2019
6275 Clear -6 994 79 16093 3.1 30 21:38 12.12.2019
6276 Clear -6 994 79 16093 3.1 30 21:20 12.12.2019
6277 Clear -7 994 85 16093 2.1 10 20:59 12.12.2019
6278 Clear -7 994 85 16093 2.1 10 20:41 12.12.2019
6279 Clear -7 994 85 16093 2.1 10 20:23 12.12.2019
6280 Clear -3 994 68 16093 2.1 50 19:59 12.12.2019
6281 Clear -3 994 68 16093 2.1 50 19:59 12.12.2019
6282 Clear -3 994 68 16093 2.1 50 19:40 12.12.2019
6283 Clear -3 994 68 16093 2.1 50 19:21 12.12.2019
6284 Clear -4 994 73 16093 3.1 50 18:57 12.12.2019
6285 Clear -4 994 73 16093 3.1 50 18:57 12.12.2019
6286 Clear -4 994 73 16093 3.1 50 18:57 12.12.2019
6287 Clear -4 994 73 16093 3.1 50 18:38 12.12.2019
6288 Clear -4 994 73 16093 3.1 50 18:20 12.12.2019
6289 Clouds -2 994 74 16093 2.6 40 17:57 12.12.2019
6290 Clouds -2 994 74 16093 2.6 40 17:38 12.12.2019
6291 Clouds -2 994 74 16093 2.6 40 17:20 12.12.2019
6292 Clear -2 994 74 16093 3.6 80 16:56 12.12.2019
6293 Clear -2 994 74 16093 3.6 80 16:37 12.12.2019
6294 Clear -2 994 74 16093 3.6 80 16:19 12.12.2019
6295 Clear -1 993 68 16093 3.6 110 15:54 12.12.2019
6296 Clear -1 993 68 16093 3.6 110 15:36 12.12.2019
6297 Clear -1 993 68 16093 3.6 110 15:18 12.12.2019
6298 Clear 0 993 77 16093 1.5 350 14:38 12.12.2019
6299 Clear 0 993 77 16093 1.5 350 14:38 12.12.2019
6300 Clear 0 993 73 16093 1.5 350 14:20 12.12.2019
6301 Clear 1 994 64 16093 2.16 71 13:57 12.12.2019
6302 Clear 1 994 64 16093 2.16 71 13:39 12.12.2019
6303 Clear 1 994 64 16093 2.67 61 13:21 12.12.2019
6304 Clear 2 993 55 16093 5.7 50 12:57 12.12.2019
6305 Clear 2 993 55 16093 5.7 50 12:38 12.12.2019
6306 Clear 2 993 55 16093 5.7 50 12:20 12.12.2019
6307 Clear 3 993 51 16093 4.1 50 11:55 12.12.2019
6308 Clear 3 993 51 16093 4.1 50 11:37 12.12.2019
6309 Clear 3 993 51 16093 4.1 50 11:19 12.12.2019
6310 Clear 2 993 55 16093 5.7 50 10:54 12.12.2019
6311 Clear 2 993 55 16093 5.7 50 10:36 12.12.2019
6312 Clear 2 993 55 16093 5.7 50 10:18 12.12.2019
6313 Clear 2 993 59 16093 8.2 50 09:41 12.12.2019
6314 Clear 2 993 59 16093 8.2 50 09:23 12.12.2019
6315 Clear 2 994 55 16093 8.7 50 08:56 12.12.2019
6316 Clear 2 994 55 16093 8.7 50 08:38 12.12.2019
6317 Clear 2 994 55 16093 8.7 50 08:38 12.12.2019
6318 Clear 2 994 55 16093 8.7 50 08:19 12.12.2019
6319 Clear 2 994 59 16093 7.2 40 07:42 12.12.2019
6320 Clear 2 994 59 16093 7.2 40 07:24 12.12.2019
6321 Clear 3 995 55 16093 5.1 50 06:48 12.12.2019
6322 Clear 3 995 55 16093 5.1 50 06:30 12.12.2019
6323 Clear 2 996 64 16093 7.7 40 05:36 12.12.2019
6324 Clouds 1 996 64 16093 4.1 50 04:51 12.12.2019
6325 Clouds 1 996 64 16093 4.1 50 04:51 12.12.2019
6326 Clouds 2 997 64 16093 4.6 350 03:20 12.12.2019
6327 Clear 1 998 69 16093 4.1 360 02:37 12.12.2019
6328 Clear 1 998 69 16093 4.1 360 02:19 12.12.2019
6329 Clear 1 999 69 16093 4.1 360 01:37 12.12.2019
6330 Clear 1 999 69 16093 4.1 360 01:18 12.12.2019
6331 Clouds 1 999 74 16093 6.2 30 00:40 12.12.2019
6332 Clouds 1 999 74 16093 6.2 30 00:19 12.12.2019
6333 Clouds -2 1000 79 16093 3.1 20 23:44 11.12.2019
6334 Clouds -2 1000 79 16093 3.1 20 23:20 11.12.2019
6335 Clear -2 1000 86 16093 4.6 10 22:57 11.12.2019
6336 Clear -2 1000 86 16093 4.6 10 22:38 11.12.2019
6337 Clear -2 1000 86 16093 4.6 10 22:19 11.12.2019
6338 Clear -2 1001 86 16093 4.6 30 21:57 11.12.2019
6339 Clear -2 1001 86 16093 4.6 30 21:37 11.12.2019
6340 Clear -2 1001 86 16093 4.6 30 21:19 11.12.2019
6341 Clear -3 1001 79 16093 3.6 30 20:56 11.12.2019
6342 Clear -3 1001 79 16093 3.6 30 20:37 11.12.2019
6343 Clear -3 1001 79 16093 3.6 30 20:37 11.12.2019
6344 Clear -3 1001 79 16093 3.6 30 20:19 11.12.2019
6345 Clear -3 1001 79 16093 3.6 30 20:19 11.12.2019
6346 Clear -1 1001 80 16093 3.6 60 19:57 11.12.2019
6347 Clear -1 1001 80 16093 3.6 60 19:38 11.12.2019
6348 Clear -1 1001 80 16093 3.6 60 19:18 11.12.2019
6349 Clouds -1 1001 80 16093 4.6 70 18:40 11.12.2019
6350 Clouds -1 1001 80 16093 4.6 70 18:21 11.12.2019
6351 Clear -2 1000 86 16093 5.7 70 17:57 11.12.2019
6352 Clear -2 1000 86 16093 5.7 70 17:57 11.12.2019
6353 Clear -2 1000 86 16093 5.7 70 17:39 11.12.2019
6354 Clear -2 1000 86 16093 5.7 70 17:18 11.12.2019
6355 Clear -2 1000 86 16093 6.2 80 16:57 11.12.2019
6356 Clear -2 1000 86 16093 6.2 80 16:57 11.12.2019
6357 Clear -2 1000 86 16093 6.2 80 16:38 11.12.2019
6358 Clear -2 1000 86 16093 6.2 80 16:38 11.12.2019
6359 Clear -2 1000 86 16093 6.2 80 16:20 11.12.2019
6360 Clouds -1 1000 86 16093 6.2 80 15:59 11.12.2019
6361 Clouds -1 1000 86 16093 6.2 80 15:39 11.12.2019
6362 Clouds -1 1000 86 16093 6.2 80 15:21 11.12.2019
6363 Clouds -1 1000 92 16093 6.2 80 14:56 11.12.2019
6364 Clouds -1 1000 92 16093 6.2 80 14:37 11.12.2019
6365 Clouds -1 1000 92 16093 6.2 80 14:19 11.12.2019
6366 Clouds -1 999 92 16093 6.2 90 13:55 11.12.2019
6367 Clouds -1 999 92 16093 5.7 80 13:36 11.12.2019
6368 Clouds -1 999 92 16093 5.7 80 13:18 11.12.2019
6369 Rain -1 998 92 16093 6.7 90 12:55 11.12.2019
6370 Rain -1 998 92 16093 6.7 90 12:37 11.12.2019
6371 Rain -1 998 92 16093 6.7 90 12:18 11.12.2019
6372 Rain -1 998 92 14484 7.2 90 11:56 11.12.2019
6373 Rain -1 998 92 6437 6.2 90 11:37 11.12.2019
6374 Rain -1 998 92 6437 6.2 90 11:37 11.12.2019
6375 Rain -1 998 92 6437 6.2 90 11:18 11.12.2019
6376 Snow 0 997 95 3219 6.7 90 10:44 11.12.2019
6377 Snow 0 997 95 3219 6.7 90 10:25 11.12.2019
6378 Snow 0 996 95 6437 6.2 100 09:58 11.12.2019
6379 Snow 0 996 95 6437 6.2 100 09:38 11.12.2019
6380 Snow 0 996 95 6437 6.2 100 09:20 11.12.2019
6381 Snow 0 995 92 12874 7.7 80 08:57 11.12.2019
6382 Snow -1 995 92 12874 7.7 80 08:37 11.12.2019
6383 Snow -1 995 92 12874 7.7 80 08:18 11.12.2019
6384 Clouds 1 994 80 16093 7.2 100 07:45 11.12.2019
6385 Clouds 1 994 80 16093 7.2 100 07:25 11.12.2019
6386 Clouds 0 994 94 16093 7.2 80 06:47 11.12.2019
6387 Clouds 0 994 94 16093 7.2 80 06:25 11.12.2019
6388 Clouds 1 993 74 16093 7.7 90 05:58 11.12.2019
6389 Clouds 0 993 74 16093 7.7 90 05:37 11.12.2019
6390 Clouds 0 993 86 16093 6.7 90 04:55 11.12.2019
6391 Clouds 1 992 80 16093 10.8 90 03:41 11.12.2019
6392 Clouds 1 991 80 16093 9.8 90 02:40 11.12.2019
6393 Clouds 1 990 80 16093 10.3 90 01:23 11.12.2019
6394 Clouds 1 990 87 16093 10.3 90 00:46 11.12.2019
6395 Clouds 0 990 87 16093 10.3 90 00:21 11.12.2019
6396 Clouds -1 989 86 16093 10.3 90 23:46 10.12.2019
6397 Clouds 0 989 86 16093 10.3 90 23:28 10.12.2019
6398 Clouds 0 988 83 16093 11.8 100 22:57 10.12.2019
6399 Clouds 0 988 83 16093 11.8 100 22:39 10.12.2019
6400 Clouds 0 988 83 16093 11.8 100 22:21 10.12.2019
6401 Clouds -1 988 86 16093 9.3 90 21:55 10.12.2019
6402 Clouds -1 988 86 16093 9.3 90 21:55 10.12.2019
6403 Clouds -1 988 86 16093 9.3 90 21:37 10.12.2019
6404 Clouds -1 988 86 16093 9.3 90 21:19 10.12.2019
6405 Clouds 1 987 80 16093 10.8 90 20:57 10.12.2019
6406 Clouds 1 987 80 16093 10.8 90 20:37 10.12.2019
6407 Clouds 1 987 80 16093 10.8 90 20:37 10.12.2019
6408 Clouds 1 987 80 16093 10.8 90 20:19 10.12.2019
6409 Clouds 1 987 80 16093 10.8 90 20:19 10.12.2019
6410 Clouds 1 986 80 16093 10.3 90 19:55 10.12.2019
6411 Clouds 1 986 80 16093 10.3 90 19:36 10.12.2019
6412 Clouds 1 986 80 16093 10.3 90 19:18 10.12.2019
6413 Clouds 1 985 80 16093 11.8 100 18:40 10.12.2019
6414 Clouds 1 985 80 16093 11.8 100 18:20 10.12.2019
6415 Clear 1 984 80 16093 13.9 90 17:58 10.12.2019
6416 Clear 1 984 80 16093 13.9 90 17:39 10.12.2019
6417 Clear 1 984 80 16093 13.9 90 17:20 10.12.2019
6418 Clear 1 983 80 16093 11.3 90 16:44 10.12.2019
6419 Clear 1 983 80 16093 11.3 90 16:21 10.12.2019
6420 Clouds 1 983 80 16093 11.3 90 15:59 10.12.2019
6421 Clouds 1 983 80 16093 11.3 90 15:38 10.12.2019
6422 Clouds 1 983 80 16093 11.3 90 15:18 10.12.2019
6423 Clouds 1 982 80 16093 12.9 90 14:56 10.12.2019
6424 Clouds 1 982 80 16093 12.9 90 14:37 10.12.2019
6425 Clouds 1 982 80 16093 12.9 90 14:37 10.12.2019
6426 Clouds 1 982 80 16093 12.9 90 14:19 10.12.2019
6427 Clouds 1 982 80 16093 12.9 90 13:56 10.12.2019
6428 Clouds 1 982 80 16093 12.9 90 13:38 10.12.2019
6429 Clouds 1 982 80 16093 12.9 90 13:19 10.12.2019
6430 Clear 1 981 80 16093 12.3 80 12:45 10.12.2019
6431 Clear 1 981 80 16093 12.3 80 12:26 10.12.2019
6432 Clear 2 981 74 16093 11.8 80 11:45 10.12.2019
6433 Clear 2 981 74 16093 11.8 80 11:25 10.12.2019
6434 Clouds 2 981 80 16093 11.3 80 10:58 10.12.2019
6435 Clouds 2 981 80 16093 11.3 80 10:40 10.12.2019
6436 Clouds 2 981 80 16093 11.3 80 10:22 10.12.2019
6437 Snow 2 980 74 14484 12.3 90 09:56 10.12.2019
6438 Snow 2 980 74 14484 12.3 90 09:56 10.12.2019
6439 Snow 2 980 74 14484 12.3 90 09:38 10.12.2019
6440 Snow 2 980 74 14484 12.3 90 09:38 10.12.2019
6441 Snow 2 980 74 14484 12.3 90 09:20 10.12.2019
6442 Snow 3 980 69 16093 11.3 90 08:57 10.12.2019
6443 Rain 4 980 64 16093 9.8 70 08:38 10.12.2019
6444 Rain 4 980 64 16093 9.8 70 08:19 10.12.2019
6445 Rain 4 980 64 16093 9.8 70 08:19 10.12.2019
6446 Rain 3 980 74 16093 7.7 80 07:44 10.12.2019
6447 Rain 4 980 64 16093 9.3 70 07:26 10.12.2019
6448 Rain 4 980 64 16093 9.3 70 07:26 10.12.2019
6449 Clouds 4 979 60 16093 7.7 70 06:49 10.12.2019
6450 Clouds 4 979 60 16093 7.7 70 06:24 10.12.2019
6451 Clear 4 979 60 16093 10.3 80 05:55 10.12.2019
6452 Clear 4 979 60 16093 10.3 80 05:19 10.12.2019
6453 Clear 4 978 60 16093 8.2 60 03:54 10.12.2019
6454 Clouds 4 978 60 16093 8.2 60 02:57 10.12.2019
6455 Clouds 4 979 69 16093 11.8 40 01:54 10.12.2019
6456 Clouds 3 979 69 16093 11.8 40 01:26 10.12.2019
6457 Clouds 3 980 69 16093 12.3 40 00:51 10.12.2019
6458 Clouds 3 980 69 16093 12.3 40 00:24 10.12.2019
6459 Clouds 2 981 74 16093 11.8 50 23:55 09.12.2019
6460 Clouds 2 981 74 16093 11.8 50 23:36 09.12.2019
6461 Clouds 2 981 74 16093 11.8 50 23:18 09.12.2019
6462 Rain 1 981 80 16093 10.8 40 22:54 09.12.2019
6463 Rain 2 982 80 16093 9.8 50 22:36 09.12.2019
6464 Rain 2 982 80 16093 9.8 50 22:18 09.12.2019
6465 Clouds 1 982 86 16093 12.3 40 21:54 09.12.2019
6466 Rain 1 982 86 14484 11.8 50 21:36 09.12.2019
6467 Rain 1 982 86 14484 11.8 50 21:18 09.12.2019
6468 Rain 0 983 83 4828 12.9 50 20:54 09.12.2019
6469 Rain 0 983 83 4828 12.9 50 20:36 09.12.2019
6470 Rain 0 983 88 4828 12.9 50 20:18 09.12.2019
6471 Snow -1 984 86 3219 12.9 40 19:54 09.12.2019
6472 Snow 0 984 86 3219 12.9 40 19:36 09.12.2019
6473 Snow 0 984 86 3219 12.9 40 19:18 09.12.2019
6474 Clouds 0 987 79 11265 10.3 50 18:40 09.12.2019
6475 Clouds 0 987 79 11265 10.3 50 18:20 09.12.2019
6476 Clouds 0 987 79 11265 10.3 50 18:20 09.12.2019
6477 Clouds 0 988 63 8047 12.3 40 17:59 09.12.2019
6478 Clouds -1 988 63 8047 12.3 40 17:41 09.12.2019
6479 Clouds 0 988 63 8047 12.3 40 17:21 09.12.2019
6480 Clouds -1 994 60 0 7.96 40 16:58 09.12.2019
6481 Clouds -1 994 60 0 7.96 40 16:39 09.12.2019
6482 Clouds -1 994 60 0 7.96 40 16:21 09.12.2019
6483 Clouds -1 994 60 0 7.96 40 15:57 09.12.2019
6484 Clouds -1 994 60 0 7.96 40 15:38 09.12.2019
6485 Clouds -1 994 60 0 7.96 40 15:38 09.12.2019
6486 Clouds -1 994 60 0 7.96 40 15:19 09.12.2019
6487 Clouds -1 994 60 0 7.96 40 14:59 09.12.2019
6488 Clouds -1 994 60 0 7.96 40 14:41 09.12.2019
6489 Clouds -1 994 60 0 7.96 40 14:41 09.12.2019
6490 Clouds -3 998 79 0 5.42 33 14:18 09.12.2019
6491 Clouds -3 998 79 0 5.42 33 13:56 09.12.2019
6492 Clouds -3 998 79 0 5.42 33 13:37 09.12.2019
6493 Clouds -3 999 79 0 5.43 32 13:19 09.12.2019
6494 Clouds -3 999 79 0 5.43 32 12:55 09.12.2019
6495 Clouds -3 999 79 0 5.43 32 12:55 09.12.2019
6496 Clouds -3 999 79 0 5.43 32 12:37 09.12.2019
6497 Clouds -3 999 79 0 5.43 32 12:18 09.12.2019
6498 Clouds -3 999 79 0 5.43 32 11:40 09.12.2019
6499 Clouds -5 1002 85 0 5.87 64 11:22 09.12.2019
6500 Clouds -5 1002 85 0 5.87 64 10:59 09.12.2019
6501 Clouds -5 1002 85 0 5.87 64 10:39 09.12.2019
6502 Clouds -5 1002 85 0 5.87 64 10:19 09.12.2019
6503 Clouds -5 1002 85 0 5.87 64 09:55 09.12.2019
6504 Clouds -5 1002 85 0 5.87 64 09:36 09.12.2019
6505 Clouds -5 1002 85 0 5.87 64 09:18 09.12.2019
6506 Clouds -5 1002 85 0 5.87 64 08:40 09.12.2019
6507 Clouds -7 1002 88 0 6.02 76 08:22 09.12.2019
6508 Clouds -7 1002 88 0 6.02 76 07:52 09.12.2019
6509 Clouds -7 1002 88 0 6.02 76 07:34 09.12.2019
6510 Clouds -3 1002 79 16093 6.7 80 06:59 09.12.2019
6511 Clouds -3 1002 79 16093 6.7 80 06:32 09.12.2019
6512 Clouds -3 1002 79 16093 7.7 100 05:51 09.12.2019
6513 Clouds -3 1002 79 16093 7.7 100 05:25 09.12.2019
6514 Clouds -4 1002 85 16093 9.3 80 04:28 09.12.2019
6515 Clouds -4 1001 85 16093 8.2 80 02:46 09.12.2019
6516 Clouds -3 1000 79 16093 8.7 80 01:48 09.12.2019
6517 Clouds -3 1000 79 16093 8.7 80 01:28 09.12.2019
6518 Clear -3 1000 86 16093 8.2 90 00:39 09.12.2019
6519 Clear -3 1000 86 16093 8.2 90 00:19 09.12.2019
6520 Clear -3 999 86 16093 8.7 100 23:39 08.12.2019
6521 Clear -3 999 86 16093 8.7 100 23:20 08.12.2019
6522 Clouds -3 998 86 16093 8.7 100 22:56 08.12.2019
6523 Clouds -3 998 86 16093 8.7 100 22:38 08.12.2019
6524 Clouds -3 998 86 16093 8.7 100 22:18 08.12.2019
6525 Clouds -4 997 85 16093 6.7 90 21:57 08.12.2019
6526 Clouds -4 997 85 16093 6.7 90 21:38 08.12.2019
6527 Clouds -4 997 85 16093 6.7 90 21:19 08.12.2019
6528 Clouds -3 995 86 16093 7.7 90 20:57 08.12.2019
6529 Clouds -3 995 86 16093 7.7 90 20:38 08.12.2019
6530 Clouds -3 995 86 16093 7.7 90 20:19 08.12.2019
6531 Clear -3 994 86 16093 9.3 90 19:57 08.12.2019
6532 Clear -3 994 86 16093 9.3 90 19:39 08.12.2019
6533 Clear -3 994 86 16093 9.3 90 19:21 08.12.2019
6534 Clear -3 993 86 16093 7.7 90 18:55 08.12.2019
6535 Clear -3 993 86 16093 7.7 90 18:36 08.12.2019
6536 Clear -3 993 86 16093 7.7 90 18:18 08.12.2019
6537 Clouds -2 991 86 16093 8.2 100 17:56 08.12.2019
6538 Clouds -2 991 86 16093 8.2 100 17:37 08.12.2019
6539 Clouds -2 991 86 16093 8.2 100 17:37 08.12.2019
6540 Clouds -2 991 86 16093 8.2 100 17:19 08.12.2019
6541 Clear -3 990 92 16093 7.7 110 16:55 08.12.2019
6542 Clear -3 990 92 16093 7.7 110 16:55 08.12.2019
6543 Clear -3 990 92 16093 7.7 110 16:37 08.12.2019
6544 Clear -3 990 92 16093 7.7 110 16:19 08.12.2019
6545 Clouds -2 988 86 16093 9.8 100 15:38 08.12.2019
6546 Clouds -2 988 86 16093 9.8 100 15:19 08.12.2019
6547 Clouds -2 987 86 16093 10.3 90 14:59 08.12.2019
6548 Clouds -2 987 86 16093 10.3 90 14:39 08.12.2019
6549 Clouds -2 987 86 16093 10.3 90 14:21 08.12.2019
6550 Clouds -3 986 92 16093 8.7 80 13:57 08.12.2019
6551 Clouds -3 986 92 16093 8.7 80 13:38 08.12.2019
6552 Clouds -3 986 92 16093 8.7 80 13:20 08.12.2019
6553 Clouds -2 985 86 16093 9.8 90 12:54 08.12.2019
6554 Clouds -2 985 86 16093 9.8 90 12:36 08.12.2019
6555 Clouds -2 985 86 16093 9.8 90 12:18 08.12.2019
6556 Clouds -2 984 86 16093 10.3 90 11:39 08.12.2019
6557 Clouds -2 984 86 16093 10.3 90 11:39 08.12.2019
6558 Clouds -2 984 86 16093 10.3 90 11:20 08.12.2019
6559 Clouds -2 983 86 14484 9.8 90 10:59 08.12.2019
6560 Clouds -2 983 86 14484 9.8 90 10:38 08.12.2019
6561 Clouds -2 983 86 14484 9.8 90 10:20 08.12.2019
6562 Clouds -2 983 86 9656 11.8 90 09:57 08.12.2019
6563 Clouds -2 983 86 9656 11.8 90 09:57 08.12.2019
6564 Clouds -2 983 86 9656 11.8 90 09:38 08.12.2019
6565 Clouds -2 983 86 9656 11.8 90 09:19 08.12.2019
6566 Snow -4 983 93 0 9.32 93 08:58 08.12.2019
6567 Snow -4 983 93 0 9.32 93 08:37 08.12.2019
6568 Clouds -2 981 86 16093 10.8 90 08:19 08.12.2019
6569 Clouds -2 981 86 16093 10.8 90 07:43 08.12.2019
6570 Clouds -2 981 86 16093 10.8 90 07:20 08.12.2019
6571 Clouds -2 981 86 16093 11.8 90 06:50 08.12.2019
6572 Clouds -2 981 86 16093 11.8 90 06:22 08.12.2019
6573 Clouds -2 980 86 14484 12.3 90 05:49 08.12.2019
6574 Clouds -2 980 86 14484 12.3 90 05:18 08.12.2019
6575 Clouds -3 979 86 16093 10.8 90 03:50 08.12.2019
6576 Clouds -3 979 86 16093 10.8 90 03:23 08.12.2019
6577 Clouds -3 980 92 8047 10.3 80 02:39 08.12.2019
6578 Clouds -3 980 86 9656 12.9 90 01:56 08.12.2019
6579 Clouds -3 980 86 9656 12.9 90 01:27 08.12.2019
6580 Rain -3 980 86 4828 12.3 90 00:40 08.12.2019
6581 Rain -3 980 86 4828 12.3 90 00:21 08.12.2019
6582 Rain -3 980 86 4828 12.3 90 00:21 08.12.2019
6583 Rain -3 980 92 4828 11.8 90 23:41 07.12.2019
6584 Rain -3 980 92 4828 11.8 90 23:21 07.12.2019
6585 Rain -3 980 92 4828 11.3 90 22:58 07.12.2019
6586 Snow -3 980 92 1609 10.3 90 22:40 07.12.2019
6587 Snow -3 980 92 1609 10.3 90 22:40 07.12.2019
6588 Snow -3 980 92 1609 10.3 90 22:40 07.12.2019
6589 Snow -3 980 92 1609 10.3 90 22:22 07.12.2019
6590 Rain -3 980 92 1609 11.8 90 21:56 07.12.2019
6591 Rain -3 980 92 1609 11.8 90 21:38 07.12.2019
6592 Rain -3 980 92 1609 11.8 90 21:20 07.12.2019
6593 Rain -3 980 92 1609 10.3 70 20:59 07.12.2019
6594 Rain -3 980 92 1609 10.3 70 20:37 07.12.2019
6595 Rain -3 980 92 1609 10.3 70 20:18 07.12.2019
6596 Rain -4 980 85 3219 7.2 60 19:56 07.12.2019
6597 Rain -4 980 85 3219 7.2 60 19:38 07.12.2019
6598 Rain -4 980 85 3219 7.2 60 19:20 07.12.2019
6599 Rain -5 980 85 6437 9.3 50 18:44 07.12.2019
6600 Rain -5 980 85 6437 9.3 50 18:20 07.12.2019
6601 Snow -7 981 85 6437 12.9 30 17:58 07.12.2019
6602 Snow -7 982 85 9656 10.3 30 17:40 07.12.2019
6603 Snow -7 982 85 9656 10.3 30 17:22 07.12.2019
6604 Snow -10 984 90 0 8.09 56 16:57 07.12.2019
6605 Snow -10 984 90 0 8.09 56 16:38 07.12.2019
6606 Rain -6 984 79 14484 9.3 40 16:20 07.12.2019
6607 Rain -6 984 79 14484 9.3 40 15:57 07.12.2019
6608 Rain -6 984 79 14484 9.3 40 15:38 07.12.2019
6609 Rain -6 984 79 14484 9.3 40 15:20 07.12.2019
6610 Snow -7 985 79 6437 7.7 50 14:42 07.12.2019
6611 Snow -7 985 79 6437 7.7 50 14:19 07.12.2019
6612 Mist -8 985 85 6437 10.8 40 13:56 07.12.2019
6613 Clouds -7 985 85 9656 11.8 30 13:37 07.12.2019
6614 Clouds -7 985 85 9656 11.8 30 13:19 07.12.2019
6615 Rain -7 986 85 6437 10.8 40 12:41 07.12.2019
6616 Rain -7 986 85 6437 10.8 40 12:23 07.12.2019
6617 Snow -6 987 85 2414 10.3 60 11:58 07.12.2019
6618 Snow -6 987 85 2414 10.3 60 11:40 07.12.2019
6619 Snow -6 987 85 2414 10.3 60 11:22 07.12.2019
6620 Snow -8 988 78 4023 10.8 30 10:39 07.12.2019
6621 Snow -8 988 78 4023 10.8 30 10:20 07.12.2019
6622 Snow -8 989 78 4023 9.3 30 09:58 07.12.2019
6623 Snow -8 990 72 4828 7.2 40 09:38 07.12.2019
6624 Snow -8 990 72 4828 7.2 40 09:19 07.12.2019
6625 Snow -7 991 67 12874 7.7 40 08:43 07.12.2019
6626 Snow -7 991 67 12874 7.7 40 08:21 07.12.2019
6627 Clouds -8 992 67 16093 8.2 40 07:47 07.12.2019
6628 Clouds -8 992 67 16093 8.2 40 07:27 07.12.2019
6629 Clouds -8 993 61 16093 8.2 40 06:51 07.12.2019
6630 Clouds -8 993 61 16093 8.2 40 06:25 07.12.2019
6631 Clouds -9 994 56 16093 7.7 40 05:38 07.12.2019
6632 Clouds -9 995 52 16093 7.7 40 04:19 07.12.2019
6633 Clouds -11 995 56 16093 8.2 40 03:47 07.12.2019
6634 Clear -11 997 51 16093 6.7 30 02:22 07.12.2019
6635 Clear -11 998 51 16093 6.2 30 01:35 07.12.2019
6636 Clear -12 999 51 16093 4.1 360 00:57 07.12.2019
6637 Clear -12 999 51 16093 4.1 360 00:21 07.12.2019
6638 Clear -13 1000 50 16093 6.7 30 23:57 06.12.2019
6639 Clear -13 1000 50 16093 6.7 30 23:38 06.12.2019
6640 Clear -13 1000 50 16093 6.7 30 23:19 06.12.2019
6641 Clear -14 1001 55 16093 5.7 30 22:39 06.12.2019
6642 Clear -14 1001 55 16093 5.7 30 22:21 06.12.2019
6643 Clear -15 1001 60 16093 4.1 30 21:58 06.12.2019
6644 Clear -15 1001 60 16093 4.1 30 21:40 06.12.2019
6645 Clear -15 1001 60 16093 4.1 30 21:20 06.12.2019
6646 Clear -15 1002 60 16093 5.7 20 20:46 06.12.2019
6647 Clear -15 1002 60 16093 5.7 20 20:26 06.12.2019
6648 Clear -14 1003 60 16093 6.2 30 19:59 06.12.2019
6649 Clear -14 1003 60 16093 6.2 30 19:40 06.12.2019
6650 Clear -14 1003 60 16093 6.2 30 19:22 06.12.2019
6651 Clear -14 1003 60 16093 4.1 30 18:58 06.12.2019
6652 Clear -14 1003 60 16093 4.1 30 18:40 06.12.2019
6653 Clear -14 1003 60 16093 4.1 30 18:20 06.12.2019
6654 Clear -14 1004 55 16093 5.7 40 17:57 06.12.2019
6655 Clear -14 1004 55 16093 5.7 40 17:39 06.12.2019
6656 Clear -14 1004 55 16093 5.7 40 17:21 06.12.2019
6657 Clear -13 1004 55 16093 6.2 40 16:56 06.12.2019
6658 Clear -13 1004 55 16093 6.2 40 16:37 06.12.2019
6659 Clear -13 1004 55 16093 6.2 40 16:18 06.12.2019
6660 Clear -14 1005 60 16093 4.6 20 15:41 06.12.2019
6661 Clear -14 1005 60 16093 4.6 20 15:21 06.12.2019
6662 Clear -15 1006 65 16093 3.6 40 14:57 06.12.2019
6663 Clear -15 1006 65 16093 3.6 40 14:39 06.12.2019
6664 Clear -15 1006 65 16093 3.6 40 14:19 06.12.2019
6665 Clear -15 1006 65 16093 4.6 20 13:45 06.12.2019
6666 Clear -15 1006 65 16093 4.6 20 13:26 06.12.2019
6667 Clear -15 1007 60 16093 6.7 30 12:56 06.12.2019
6668 Clear -14 1007 60 16093 6.7 30 12:38 06.12.2019
6669 Clear -15 1007 60 16093 6.7 30 12:19 06.12.2019
6670 Clear -14 1007 60 16093 3.6 40 11:42 06.12.2019
6671 Clear -14 1007 60 16093 3.6 40 11:23 06.12.2019
6672 Clear -14 1007 55 16093 5.7 40 10:54 06.12.2019
6673 Clear -14 1007 55 16093 5.7 40 10:36 06.12.2019
6674 Clear -14 1007 55 16093 5.7 40 10:18 06.12.2019
6675 Clear -14 1007 55 16093 6.2 40 09:54 06.12.2019
6676 Clear -14 1007 55 16093 6.2 40 09:36 06.12.2019
6677 Clear -14 1007 55 16093 6.2 40 09:18 06.12.2019
6678 Clear -14 1007 55 16093 5.1 50 08:40 06.12.2019
6679 Clear -14 1007 55 16093 5.1 50 08:21 06.12.2019
6680 Clear -16 1008 64 16093 2.6 40 07:38 06.12.2019
6681 Clear -15 1008 64 16093 2.6 40 07:20 06.12.2019
6682 Clear -17 1008 64 16093 3.1 360 06:48 06.12.2019
6683 Clear -16 1008 64 16093 3.1 360 06:24 06.12.2019
6684 Clear -16 1008 65 16093 3.1 20 05:46 06.12.2019
6685 Clear -15 1009 65 16093 4.6 40 02:44 06.12.2019
6686 Clear -14 1009 65 16093 4.6 50 01:43 06.12.2019
6687 Clear -15 1010 65 16093 1.5 10 00:50 06.12.2019
6688 Clear -15 1010 65 16093 1.5 10 00:23 06.12.2019
6689 Clear -14 1010 65 16093 4.6 40 23:51 05.12.2019
6690 Clear -14 1010 65 16093